<?xml version="1.0" encoding="utf-8"?>
<gpx xmlns:xsi="http://www.w3.org/2001/XMLSchema-instance" xmlns:xsd="http://www.w3.org/2001/XMLSchema" version="1.1" creator="Shapelink.com" xmlns="http://www.topografix.com/GPX/1/1" xmlns:gpxtpx="http://www.garmin.com/xmlschemas/TrackPointExtension/v1">
  <metadata>
    <name>Ciclismo 21.54 km, 2019-12-09</name>
    <desc></desc>
    <author><name>Peter Littke</name></author> 
    <time>2019-12-09T16:02:40Z</time>
  </metadata>
  <trk>
    <name>Ciclismo 21.54 km, 2019-12-09</name>
    <trkseg>
      <trkpt lat="59.173555" lon="18.143536">
        <ele>67</ele>
        <time>2019-12-09T16:02:40Z</time>
      </trkpt>
      <trkpt lat="59.173555" lon="18.143536">
        <ele>0</ele>
        <time>2019-12-09T16:02:44Z</time>
      </trkpt>
      <trkpt lat="59.173496" lon="18.143532">
        <ele>71</ele>
        <time>2019-12-09T16:03:05Z</time>
      </trkpt>
      <trkpt lat="59.173495" lon="18.143532">
        <ele>71</ele>
        <time>2019-12-09T16:03:07Z</time>
      </trkpt>
      <trkpt lat="59.173494" lon="18.143532">
        <ele>0</ele>
        <time>2019-12-09T16:03:09Z</time>
      </trkpt>
      <trkpt lat="59.173549" lon="18.14355">
        <ele>70</ele>
        <time>2019-12-09T16:03:31Z</time>
      </trkpt>
      <trkpt lat="59.173583" lon="18.143556">
        <ele>70</ele>
        <time>2019-12-09T16:03:32Z</time>
      </trkpt>
      <trkpt lat="59.173617" lon="18.143559">
        <ele>70</ele>
        <time>2019-12-09T16:03:33Z</time>
      </trkpt>
      <trkpt lat="59.173648" lon="18.143568">
        <ele>70</ele>
        <time>2019-12-09T16:03:34Z</time>
      </trkpt>
      <trkpt lat="59.173676" lon="18.143575">
        <ele>70</ele>
        <time>2019-12-09T16:03:35Z</time>
      </trkpt>
      <trkpt lat="59.173697" lon="18.143576">
        <ele>70</ele>
        <time>2019-12-09T16:03:36Z</time>
      </trkpt>
      <trkpt lat="59.173722" lon="18.143581">
        <ele>70</ele>
        <time>2019-12-09T16:03:37Z</time>
      </trkpt>
      <trkpt lat="59.173741" lon="18.143588">
        <ele>70</ele>
        <time>2019-12-09T16:03:38Z</time>
      </trkpt>
      <trkpt lat="59.173764" lon="18.143573">
        <ele>70</ele>
        <time>2019-12-09T16:03:39Z</time>
      </trkpt>
      <trkpt lat="59.173798" lon="18.143528">
        <ele>70</ele>
        <time>2019-12-09T16:03:40Z</time>
      </trkpt>
      <trkpt lat="59.173829" lon="18.143447">
        <ele>70</ele>
        <time>2019-12-09T16:03:41Z</time>
      </trkpt>
      <trkpt lat="59.173842" lon="18.143368">
        <ele>70</ele>
        <time>2019-12-09T16:03:42Z</time>
      </trkpt>
      <trkpt lat="59.173845" lon="18.143279">
        <ele>69</ele>
        <time>2019-12-09T16:03:43Z</time>
      </trkpt>
      <trkpt lat="59.17385" lon="18.143183">
        <ele>69</ele>
        <time>2019-12-09T16:03:44Z</time>
      </trkpt>
      <trkpt lat="59.173863" lon="18.143099">
        <ele>68</ele>
        <time>2019-12-09T16:03:45Z</time>
      </trkpt>
      <trkpt lat="59.173876" lon="18.143021">
        <ele>68</ele>
        <time>2019-12-09T16:03:46Z</time>
      </trkpt>
      <trkpt lat="59.173899" lon="18.142954">
        <ele>67</ele>
        <time>2019-12-09T16:03:47Z</time>
      </trkpt>
      <trkpt lat="59.173931" lon="18.142917">
        <ele>67</ele>
        <time>2019-12-09T16:03:48Z</time>
      </trkpt>
      <trkpt lat="59.173968" lon="18.142913">
        <ele>66</ele>
        <time>2019-12-09T16:03:49Z</time>
      </trkpt>
      <trkpt lat="59.174015" lon="18.142895">
        <ele>66</ele>
        <time>2019-12-09T16:03:50Z</time>
      </trkpt>
      <trkpt lat="59.174058" lon="18.142873">
        <ele>66</ele>
        <time>2019-12-09T16:03:51Z</time>
      </trkpt>
      <trkpt lat="59.174104" lon="18.142848">
        <ele>65</ele>
        <time>2019-12-09T16:03:52Z</time>
      </trkpt>
      <trkpt lat="59.174155" lon="18.14285">
        <ele>64</ele>
        <time>2019-12-09T16:03:53Z</time>
      </trkpt>
      <trkpt lat="59.174214" lon="18.142864">
        <ele>64</ele>
        <time>2019-12-09T16:03:54Z</time>
      </trkpt>
      <trkpt lat="59.174282" lon="18.142881">
        <ele>64</ele>
        <time>2019-12-09T16:03:55Z</time>
      </trkpt>
      <trkpt lat="59.174351" lon="18.142903">
        <ele>63</ele>
        <time>2019-12-09T16:03:56Z</time>
      </trkpt>
      <trkpt lat="59.174423" lon="18.142939">
        <ele>61</ele>
        <time>2019-12-09T16:03:57Z</time>
      </trkpt>
      <trkpt lat="59.174491" lon="18.142971">
        <ele>61</ele>
        <time>2019-12-09T16:03:58Z</time>
      </trkpt>
      <trkpt lat="59.174553" lon="18.142995">
        <ele>60</ele>
        <time>2019-12-09T16:03:59Z</time>
      </trkpt>
      <trkpt lat="59.174606" lon="18.143007">
        <ele>59</ele>
        <time>2019-12-09T16:04:00Z</time>
      </trkpt>
      <trkpt lat="59.174648" lon="18.142996">
        <ele>58</ele>
        <time>2019-12-09T16:04:01Z</time>
      </trkpt>
      <trkpt lat="59.174682" lon="18.14296">
        <ele>58</ele>
        <time>2019-12-09T16:04:02Z</time>
      </trkpt>
      <trkpt lat="59.174711" lon="18.142903">
        <ele>54</ele>
        <time>2019-12-09T16:04:03Z</time>
      </trkpt>
      <trkpt lat="59.174723" lon="18.14284">
        <ele>54</ele>
        <time>2019-12-09T16:04:04Z</time>
      </trkpt>
      <trkpt lat="59.174745" lon="18.142796">
        <ele>53</ele>
        <time>2019-12-09T16:04:05Z</time>
      </trkpt>
      <trkpt lat="59.174775" lon="18.142774">
        <ele>52</ele>
        <time>2019-12-09T16:04:06Z</time>
      </trkpt>
      <trkpt lat="59.17481" lon="18.14277">
        <ele>51</ele>
        <time>2019-12-09T16:04:07Z</time>
      </trkpt>
      <trkpt lat="59.174851" lon="18.142778">
        <ele>51</ele>
        <time>2019-12-09T16:04:08Z</time>
      </trkpt>
      <trkpt lat="59.174891" lon="18.14278">
        <ele>50</ele>
        <time>2019-12-09T16:04:09Z</time>
      </trkpt>
      <trkpt lat="59.174931" lon="18.142772">
        <ele>50</ele>
        <time>2019-12-09T16:04:10Z</time>
      </trkpt>
      <trkpt lat="59.174968" lon="18.142747">
        <ele>49</ele>
        <time>2019-12-09T16:04:11Z</time>
      </trkpt>
      <trkpt lat="59.175004" lon="18.142703">
        <ele>48</ele>
        <time>2019-12-09T16:04:12Z</time>
      </trkpt>
      <trkpt lat="59.175036" lon="18.142647">
        <ele>48</ele>
        <time>2019-12-09T16:04:13Z</time>
      </trkpt>
      <trkpt lat="59.175067" lon="18.142583">
        <ele>48</ele>
        <time>2019-12-09T16:04:14Z</time>
      </trkpt>
      <trkpt lat="59.175094" lon="18.142515">
        <ele>47</ele>
        <time>2019-12-09T16:04:15Z</time>
      </trkpt>
      <trkpt lat="59.175118" lon="18.142449">
        <ele>47</ele>
        <time>2019-12-09T16:04:16Z</time>
      </trkpt>
      <trkpt lat="59.17514" lon="18.142399">
        <ele>47</ele>
        <time>2019-12-09T16:04:17Z</time>
      </trkpt>
      <trkpt lat="59.175158" lon="18.142348">
        <ele>47</ele>
        <time>2019-12-09T16:04:18Z</time>
      </trkpt>
      <trkpt lat="59.175174" lon="18.142286">
        <ele>47</ele>
        <time>2019-12-09T16:04:19Z</time>
      </trkpt>
      <trkpt lat="59.175199" lon="18.142212">
        <ele>46</ele>
        <time>2019-12-09T16:04:20Z</time>
      </trkpt>
      <trkpt lat="59.17524" lon="18.142131">
        <ele>46</ele>
        <time>2019-12-09T16:04:21Z</time>
      </trkpt>
      <trkpt lat="59.17528" lon="18.14204">
        <ele>45</ele>
        <time>2019-12-09T16:04:22Z</time>
      </trkpt>
      <trkpt lat="59.175318" lon="18.141962">
        <ele>45</ele>
        <time>2019-12-09T16:04:23Z</time>
      </trkpt>
      <trkpt lat="59.175347" lon="18.141889">
        <ele>45</ele>
        <time>2019-12-09T16:04:24Z</time>
      </trkpt>
      <trkpt lat="59.175371" lon="18.141824">
        <ele>45</ele>
        <time>2019-12-09T16:04:25Z</time>
      </trkpt>
      <trkpt lat="59.175392" lon="18.141764">
        <ele>45</ele>
        <time>2019-12-09T16:04:26Z</time>
      </trkpt>
      <trkpt lat="59.175415" lon="18.14171">
        <ele>0</ele>
        <time>2019-12-09T16:04:26Z</time>
      </trkpt>
      <trkpt lat="59.175442" lon="18.141652">
        <ele>44</ele>
        <time>2019-12-09T16:04:27Z</time>
      </trkpt>
      <trkpt lat="59.175466" lon="18.141595">
        <ele>44</ele>
        <time>2019-12-09T16:04:29Z</time>
      </trkpt>
      <trkpt lat="59.17549" lon="18.141544">
        <ele>43</ele>
        <time>2019-12-09T16:04:30Z</time>
      </trkpt>
      <trkpt lat="59.17551" lon="18.141506">
        <ele>43</ele>
        <time>2019-12-09T16:04:31Z</time>
      </trkpt>
      <trkpt lat="59.175525" lon="18.141478">
        <ele>43</ele>
        <time>2019-12-09T16:04:32Z</time>
      </trkpt>
      <trkpt lat="59.175546" lon="18.141433">
        <ele>42</ele>
        <time>2019-12-09T16:04:34Z</time>
      </trkpt>
      <trkpt lat="59.175561" lon="18.1414">
        <ele>42</ele>
        <time>2019-12-09T16:04:35Z</time>
      </trkpt>
      <trkpt lat="59.175579" lon="18.141347">
        <ele>42</ele>
        <time>2019-12-09T16:04:36Z</time>
      </trkpt>
      <trkpt lat="59.175604" lon="18.141286">
        <ele>42</ele>
        <time>2019-12-09T16:04:37Z</time>
      </trkpt>
      <trkpt lat="59.175639" lon="18.141238">
        <ele>42</ele>
        <time>2019-12-09T16:04:38Z</time>
      </trkpt>
      <trkpt lat="59.175681" lon="18.141208">
        <ele>41</ele>
        <time>2019-12-09T16:04:39Z</time>
      </trkpt>
      <trkpt lat="59.175727" lon="18.141194">
        <ele>41</ele>
        <time>2019-12-09T16:04:40Z</time>
      </trkpt>
      <trkpt lat="59.175774" lon="18.141197">
        <ele>41</ele>
        <time>2019-12-09T16:04:41Z</time>
      </trkpt>
      <trkpt lat="59.175822" lon="18.141211">
        <ele>41</ele>
        <time>2019-12-09T16:04:42Z</time>
      </trkpt>
      <trkpt lat="59.175873" lon="18.141233">
        <ele>41</ele>
        <time>2019-12-09T16:04:43Z</time>
      </trkpt>
      <trkpt lat="59.175925" lon="18.141253">
        <ele>41</ele>
        <time>2019-12-09T16:04:44Z</time>
      </trkpt>
      <trkpt lat="59.175977" lon="18.141275">
        <ele>41</ele>
        <time>2019-12-09T16:04:45Z</time>
      </trkpt>
      <trkpt lat="59.17603" lon="18.141293">
        <ele>41</ele>
        <time>2019-12-09T16:04:46Z</time>
      </trkpt>
      <trkpt lat="59.176081" lon="18.141303">
        <ele>41</ele>
        <time>2019-12-09T16:04:47Z</time>
      </trkpt>
      <trkpt lat="59.176133" lon="18.141308">
        <ele>41</ele>
        <time>2019-12-09T16:04:48Z</time>
      </trkpt>
      <trkpt lat="59.176185" lon="18.14131">
        <ele>41</ele>
        <time>2019-12-09T16:04:49Z</time>
      </trkpt>
      <trkpt lat="59.176238" lon="18.14131">
        <ele>41</ele>
        <time>2019-12-09T16:04:50Z</time>
      </trkpt>
      <trkpt lat="59.176292" lon="18.141309">
        <ele>41</ele>
        <time>2019-12-09T16:04:51Z</time>
      </trkpt>
      <trkpt lat="59.176347" lon="18.141307">
        <ele>41</ele>
        <time>2019-12-09T16:04:52Z</time>
      </trkpt>
      <trkpt lat="59.176403" lon="18.141308">
        <ele>41</ele>
        <time>2019-12-09T16:04:53Z</time>
      </trkpt>
      <trkpt lat="59.176459" lon="18.141315">
        <ele>41</ele>
        <time>2019-12-09T16:04:54Z</time>
      </trkpt>
      <trkpt lat="59.176517" lon="18.141326">
        <ele>41</ele>
        <time>2019-12-09T16:04:55Z</time>
      </trkpt>
      <trkpt lat="59.176577" lon="18.141342">
        <ele>41</ele>
        <time>2019-12-09T16:04:56Z</time>
      </trkpt>
      <trkpt lat="59.176639" lon="18.141364">
        <ele>40</ele>
        <time>2019-12-09T16:04:57Z</time>
      </trkpt>
      <trkpt lat="59.176703" lon="18.141392">
        <ele>40</ele>
        <time>2019-12-09T16:04:58Z</time>
      </trkpt>
      <trkpt lat="59.176768" lon="18.141422">
        <ele>40</ele>
        <time>2019-12-09T16:04:59Z</time>
      </trkpt>
      <trkpt lat="59.176834" lon="18.141453">
        <ele>40</ele>
        <time>2019-12-09T16:05:00Z</time>
      </trkpt>
      <trkpt lat="59.176902" lon="18.141484">
        <ele>40</ele>
        <time>2019-12-09T16:05:01Z</time>
      </trkpt>
      <trkpt lat="59.176968" lon="18.141514">
        <ele>40</ele>
        <time>2019-12-09T16:05:02Z</time>
      </trkpt>
      <trkpt lat="59.177035" lon="18.141545">
        <ele>40</ele>
        <time>2019-12-09T16:05:03Z</time>
      </trkpt>
      <trkpt lat="59.1771" lon="18.141575">
        <ele>40</ele>
        <time>2019-12-09T16:05:04Z</time>
      </trkpt>
      <trkpt lat="59.177158" lon="18.141596">
        <ele>40</ele>
        <time>2019-12-09T16:05:05Z</time>
      </trkpt>
      <trkpt lat="59.17721" lon="18.141607">
        <ele>40</ele>
        <time>2019-12-09T16:05:06Z</time>
      </trkpt>
      <trkpt lat="59.177262" lon="18.14161">
        <ele>40</ele>
        <time>2019-12-09T16:05:07Z</time>
      </trkpt>
      <trkpt lat="59.177316" lon="18.141611">
        <ele>40</ele>
        <time>2019-12-09T16:05:08Z</time>
      </trkpt>
      <trkpt lat="59.177372" lon="18.141622">
        <ele>39</ele>
        <time>2019-12-09T16:05:09Z</time>
      </trkpt>
      <trkpt lat="59.17743" lon="18.141641">
        <ele>39</ele>
        <time>2019-12-09T16:05:10Z</time>
      </trkpt>
      <trkpt lat="59.17749" lon="18.141661">
        <ele>39</ele>
        <time>2019-12-09T16:05:11Z</time>
      </trkpt>
      <trkpt lat="59.177554" lon="18.141677">
        <ele>38</ele>
        <time>2019-12-09T16:05:12Z</time>
      </trkpt>
      <trkpt lat="59.177622" lon="18.141691">
        <ele>38</ele>
        <time>2019-12-09T16:05:13Z</time>
      </trkpt>
      <trkpt lat="59.177685" lon="18.141703">
        <ele>38</ele>
        <time>2019-12-09T16:05:14Z</time>
      </trkpt>
      <trkpt lat="59.177756" lon="18.141729">
        <ele>38</ele>
        <time>2019-12-09T16:05:15Z</time>
      </trkpt>
      <trkpt lat="59.177837" lon="18.141783">
        <ele>37</ele>
        <time>2019-12-09T16:05:16Z</time>
      </trkpt>
      <trkpt lat="59.177916" lon="18.141841">
        <ele>37</ele>
        <time>2019-12-09T16:05:17Z</time>
      </trkpt>
      <trkpt lat="59.177991" lon="18.141895">
        <ele>37</ele>
        <time>2019-12-09T16:05:18Z</time>
      </trkpt>
      <trkpt lat="59.178059" lon="18.141944">
        <ele>37</ele>
        <time>2019-12-09T16:05:19Z</time>
      </trkpt>
      <trkpt lat="59.178126" lon="18.141994">
        <ele>38</ele>
        <time>2019-12-09T16:05:20Z</time>
      </trkpt>
      <trkpt lat="59.178194" lon="18.14205">
        <ele>38</ele>
        <time>2019-12-09T16:05:21Z</time>
      </trkpt>
      <trkpt lat="59.17826" lon="18.14211">
        <ele>37</ele>
        <time>2019-12-09T16:05:22Z</time>
      </trkpt>
      <trkpt lat="59.178326" lon="18.142183">
        <ele>37</ele>
        <time>2019-12-09T16:05:23Z</time>
      </trkpt>
      <trkpt lat="59.178389" lon="18.142263">
        <ele>37</ele>
        <time>2019-12-09T16:05:24Z</time>
      </trkpt>
      <trkpt lat="59.178456" lon="18.142333">
        <ele>37</ele>
        <time>2019-12-09T16:05:25Z</time>
      </trkpt>
      <trkpt lat="59.178528" lon="18.142387">
        <ele>36</ele>
        <time>2019-12-09T16:05:26Z</time>
      </trkpt>
      <trkpt lat="59.178601" lon="18.142437">
        <ele>36</ele>
        <time>2019-12-09T16:05:27Z</time>
      </trkpt>
      <trkpt lat="59.178678" lon="18.142485">
        <ele>36</ele>
        <time>2019-12-09T16:05:28Z</time>
      </trkpt>
      <trkpt lat="59.178754" lon="18.142535">
        <ele>36</ele>
        <time>2019-12-09T16:05:29Z</time>
      </trkpt>
      <trkpt lat="59.17883" lon="18.142586">
        <ele>36</ele>
        <time>2019-12-09T16:05:30Z</time>
      </trkpt>
      <trkpt lat="59.178906" lon="18.142638">
        <ele>36</ele>
        <time>2019-12-09T16:05:31Z</time>
      </trkpt>
      <trkpt lat="59.178982" lon="18.142691">
        <ele>36</ele>
        <time>2019-12-09T16:05:32Z</time>
      </trkpt>
      <trkpt lat="59.179057" lon="18.142744">
        <ele>36</ele>
        <time>2019-12-09T16:05:33Z</time>
      </trkpt>
      <trkpt lat="59.179133" lon="18.142796">
        <ele>36</ele>
        <time>2019-12-09T16:05:34Z</time>
      </trkpt>
      <trkpt lat="59.179207" lon="18.142848">
        <ele>36</ele>
        <time>2019-12-09T16:05:35Z</time>
      </trkpt>
      <trkpt lat="59.179278" lon="18.142901">
        <ele>36</ele>
        <time>2019-12-09T16:05:36Z</time>
      </trkpt>
      <trkpt lat="59.17935" lon="18.142955">
        <ele>36</ele>
        <time>2019-12-09T16:05:37Z</time>
      </trkpt>
      <trkpt lat="59.179421" lon="18.143011">
        <ele>35</ele>
        <time>2019-12-09T16:05:38Z</time>
      </trkpt>
      <trkpt lat="59.179488" lon="18.143069">
        <ele>35</ele>
        <time>2019-12-09T16:05:39Z</time>
      </trkpt>
      <trkpt lat="59.179551" lon="18.143126">
        <ele>35</ele>
        <time>2019-12-09T16:05:40Z</time>
      </trkpt>
      <trkpt lat="59.179613" lon="18.143185">
        <ele>35</ele>
        <time>2019-12-09T16:05:41Z</time>
      </trkpt>
      <trkpt lat="59.179672" lon="18.143248">
        <ele>35</ele>
        <time>2019-12-09T16:05:42Z</time>
      </trkpt>
      <trkpt lat="59.179729" lon="18.143311">
        <ele>35</ele>
        <time>2019-12-09T16:05:43Z</time>
      </trkpt>
      <trkpt lat="59.179782" lon="18.143376">
        <ele>35</ele>
        <time>2019-12-09T16:05:44Z</time>
      </trkpt>
      <trkpt lat="59.179834" lon="18.143439">
        <ele>35</ele>
        <time>2019-12-09T16:05:45Z</time>
      </trkpt>
      <trkpt lat="59.179886" lon="18.1435">
        <ele>35</ele>
        <time>2019-12-09T16:05:46Z</time>
      </trkpt>
      <trkpt lat="59.179936" lon="18.143562">
        <ele>35</ele>
        <time>2019-12-09T16:05:47Z</time>
      </trkpt>
      <trkpt lat="59.179986" lon="18.143625">
        <ele>35</ele>
        <time>2019-12-09T16:05:48Z</time>
      </trkpt>
      <trkpt lat="59.180032" lon="18.143691">
        <ele>36</ele>
        <time>2019-12-09T16:05:49Z</time>
      </trkpt>
      <trkpt lat="59.180076" lon="18.143759">
        <ele>36</ele>
        <time>2019-12-09T16:05:50Z</time>
      </trkpt>
      <trkpt lat="59.180115" lon="18.14383">
        <ele>36</ele>
        <time>2019-12-09T16:05:51Z</time>
      </trkpt>
      <trkpt lat="59.180142" lon="18.143905">
        <ele>35</ele>
        <time>2019-12-09T16:05:52Z</time>
      </trkpt>
      <trkpt lat="59.180168" lon="18.143982">
        <ele>35</ele>
        <time>2019-12-09T16:05:53Z</time>
      </trkpt>
      <trkpt lat="59.180195" lon="18.144055">
        <ele>35</ele>
        <time>2019-12-09T16:05:54Z</time>
      </trkpt>
      <trkpt lat="59.18023" lon="18.144115">
        <ele>35</ele>
        <time>2019-12-09T16:05:55Z</time>
      </trkpt>
      <trkpt lat="59.180272" lon="18.144167">
        <ele>36</ele>
        <time>2019-12-09T16:05:56Z</time>
      </trkpt>
      <trkpt lat="59.18032" lon="18.144223">
        <ele>35</ele>
        <time>2019-12-09T16:05:57Z</time>
      </trkpt>
      <trkpt lat="59.180372" lon="18.144282">
        <ele>35</ele>
        <time>2019-12-09T16:05:58Z</time>
      </trkpt>
      <trkpt lat="59.180425" lon="18.144345">
        <ele>35</ele>
        <time>2019-12-09T16:05:59Z</time>
      </trkpt>
      <trkpt lat="59.180479" lon="18.144411">
        <ele>35</ele>
        <time>2019-12-09T16:06:00Z</time>
      </trkpt>
      <trkpt lat="59.18053" lon="18.144479">
        <ele>35</ele>
        <time>2019-12-09T16:06:01Z</time>
      </trkpt>
      <trkpt lat="59.180581" lon="18.144548">
        <ele>35</ele>
        <time>2019-12-09T16:06:02Z</time>
      </trkpt>
      <trkpt lat="59.180629" lon="18.144625">
        <ele>35</ele>
        <time>2019-12-09T16:06:03Z</time>
      </trkpt>
      <trkpt lat="59.180674" lon="18.144702">
        <ele>35</ele>
        <time>2019-12-09T16:06:04Z</time>
      </trkpt>
      <trkpt lat="59.180722" lon="18.144772">
        <ele>35</ele>
        <time>2019-12-09T16:06:05Z</time>
      </trkpt>
      <trkpt lat="59.180773" lon="18.14483">
        <ele>35</ele>
        <time>2019-12-09T16:06:06Z</time>
      </trkpt>
      <trkpt lat="59.180828" lon="18.144884">
        <ele>35</ele>
        <time>2019-12-09T16:06:07Z</time>
      </trkpt>
      <trkpt lat="59.180882" lon="18.144946">
        <ele>35</ele>
        <time>2019-12-09T16:06:08Z</time>
      </trkpt>
      <trkpt lat="59.180933" lon="18.145013">
        <ele>35</ele>
        <time>2019-12-09T16:06:09Z</time>
      </trkpt>
      <trkpt lat="59.180987" lon="18.145074">
        <ele>35</ele>
        <time>2019-12-09T16:06:10Z</time>
      </trkpt>
      <trkpt lat="59.181043" lon="18.145131">
        <ele>35</ele>
        <time>2019-12-09T16:06:11Z</time>
      </trkpt>
      <trkpt lat="59.181098" lon="18.145189">
        <ele>35</ele>
        <time>2019-12-09T16:06:12Z</time>
      </trkpt>
      <trkpt lat="59.181152" lon="18.145252">
        <ele>35</ele>
        <time>2019-12-09T16:06:13Z</time>
      </trkpt>
      <trkpt lat="59.181208" lon="18.145311">
        <ele>35</ele>
        <time>2019-12-09T16:06:14Z</time>
      </trkpt>
      <trkpt lat="59.181265" lon="18.145369">
        <ele>35</ele>
        <time>2019-12-09T16:06:15Z</time>
      </trkpt>
      <trkpt lat="59.18132" lon="18.145429">
        <ele>36</ele>
        <time>2019-12-09T16:06:16Z</time>
      </trkpt>
      <trkpt lat="59.181374" lon="18.145486">
        <ele>36</ele>
        <time>2019-12-09T16:06:17Z</time>
      </trkpt>
      <trkpt lat="59.181429" lon="18.145543">
        <ele>36</ele>
        <time>2019-12-09T16:06:18Z</time>
      </trkpt>
      <trkpt lat="59.181484" lon="18.145601">
        <ele>36</ele>
        <time>2019-12-09T16:06:19Z</time>
      </trkpt>
      <trkpt lat="59.18154" lon="18.145662">
        <ele>36</ele>
        <time>2019-12-09T16:06:20Z</time>
      </trkpt>
      <trkpt lat="59.181596" lon="18.145723">
        <ele>35</ele>
        <time>2019-12-09T16:06:21Z</time>
      </trkpt>
      <trkpt lat="59.181657" lon="18.145796">
        <ele>35</ele>
        <time>2019-12-09T16:06:22Z</time>
      </trkpt>
      <trkpt lat="59.181727" lon="18.145879">
        <ele>35</ele>
        <time>2019-12-09T16:06:23Z</time>
      </trkpt>
      <trkpt lat="59.181797" lon="18.145959">
        <ele>35</ele>
        <time>2019-12-09T16:06:24Z</time>
      </trkpt>
      <trkpt lat="59.181869" lon="18.146039">
        <ele>35</ele>
        <time>2019-12-09T16:06:25Z</time>
      </trkpt>
      <trkpt lat="59.181938" lon="18.146122">
        <ele>35</ele>
        <time>2019-12-09T16:06:26Z</time>
      </trkpt>
      <trkpt lat="59.182005" lon="18.146203">
        <ele>35</ele>
        <time>2019-12-09T16:06:27Z</time>
      </trkpt>
      <trkpt lat="59.182075" lon="18.146285">
        <ele>35</ele>
        <time>2019-12-09T16:06:28Z</time>
      </trkpt>
      <trkpt lat="59.182143" lon="18.146365">
        <ele>35</ele>
        <time>2019-12-09T16:06:29Z</time>
      </trkpt>
      <trkpt lat="59.182214" lon="18.146446">
        <ele>35</ele>
        <time>2019-12-09T16:06:30Z</time>
      </trkpt>
      <trkpt lat="59.182276" lon="18.146519">
        <ele>35</ele>
        <time>2019-12-09T16:06:31Z</time>
      </trkpt>
      <trkpt lat="59.182331" lon="18.146578">
        <ele>36</ele>
        <time>2019-12-09T16:06:32Z</time>
      </trkpt>
      <trkpt lat="59.182392" lon="18.146643">
        <ele>36</ele>
        <time>2019-12-09T16:06:33Z</time>
      </trkpt>
      <trkpt lat="59.182456" lon="18.146706">
        <ele>36</ele>
        <time>2019-12-09T16:06:34Z</time>
      </trkpt>
      <trkpt lat="59.18252" lon="18.146761">
        <ele>36</ele>
        <time>2019-12-09T16:06:35Z</time>
      </trkpt>
      <trkpt lat="59.182584" lon="18.146804">
        <ele>36</ele>
        <time>2019-12-09T16:06:36Z</time>
      </trkpt>
      <trkpt lat="59.182654" lon="18.146854">
        <ele>37</ele>
        <time>2019-12-09T16:06:37Z</time>
      </trkpt>
      <trkpt lat="59.18274" lon="18.146922">
        <ele>37</ele>
        <time>2019-12-09T16:06:38Z</time>
      </trkpt>
      <trkpt lat="59.182819" lon="18.146978">
        <ele>37</ele>
        <time>2019-12-09T16:06:39Z</time>
      </trkpt>
      <trkpt lat="59.182898" lon="18.147028">
        <ele>37</ele>
        <time>2019-12-09T16:06:40Z</time>
      </trkpt>
      <trkpt lat="59.182976" lon="18.147073">
        <ele>37</ele>
        <time>2019-12-09T16:06:41Z</time>
      </trkpt>
      <trkpt lat="59.183052" lon="18.147109">
        <ele>37</ele>
        <time>2019-12-09T16:06:42Z</time>
      </trkpt>
      <trkpt lat="59.183124" lon="18.147136">
        <ele>37</ele>
        <time>2019-12-09T16:06:43Z</time>
      </trkpt>
      <trkpt lat="59.18319" lon="18.147156">
        <ele>37</ele>
        <time>2019-12-09T16:06:44Z</time>
      </trkpt>
      <trkpt lat="59.183249" lon="18.147177">
        <ele>37</ele>
        <time>2019-12-09T16:06:45Z</time>
      </trkpt>
      <trkpt lat="59.183307" lon="18.147212">
        <ele>36</ele>
        <time>2019-12-09T16:06:46Z</time>
      </trkpt>
      <trkpt lat="59.183363" lon="18.147256">
        <ele>36</ele>
        <time>2019-12-09T16:06:47Z</time>
      </trkpt>
      <trkpt lat="59.183419" lon="18.147294">
        <ele>36</ele>
        <time>2019-12-09T16:06:48Z</time>
      </trkpt>
      <trkpt lat="59.183477" lon="18.147313">
        <ele>36</ele>
        <time>2019-12-09T16:06:49Z</time>
      </trkpt>
      <trkpt lat="59.183537" lon="18.147315">
        <ele>36</ele>
        <time>2019-12-09T16:06:50Z</time>
      </trkpt>
      <trkpt lat="59.183599" lon="18.147296">
        <ele>36</ele>
        <time>2019-12-09T16:06:51Z</time>
      </trkpt>
      <trkpt lat="59.183663" lon="18.147272">
        <ele>35</ele>
        <time>2019-12-09T16:06:52Z</time>
      </trkpt>
      <trkpt lat="59.18373" lon="18.147257">
        <ele>35</ele>
        <time>2019-12-09T16:06:53Z</time>
      </trkpt>
      <trkpt lat="59.1838" lon="18.14725">
        <ele>34</ele>
        <time>2019-12-09T16:06:54Z</time>
      </trkpt>
      <trkpt lat="59.183872" lon="18.147244">
        <ele>34</ele>
        <time>2019-12-09T16:06:55Z</time>
      </trkpt>
      <trkpt lat="59.183943" lon="18.147235">
        <ele>34</ele>
        <time>2019-12-09T16:06:56Z</time>
      </trkpt>
      <trkpt lat="59.184015" lon="18.147222">
        <ele>34</ele>
        <time>2019-12-09T16:06:57Z</time>
      </trkpt>
      <trkpt lat="59.18409" lon="18.147205">
        <ele>34</ele>
        <time>2019-12-09T16:06:58Z</time>
      </trkpt>
      <trkpt lat="59.184168" lon="18.147188">
        <ele>34</ele>
        <time>2019-12-09T16:06:59Z</time>
      </trkpt>
      <trkpt lat="59.184248" lon="18.147173">
        <ele>34</ele>
        <time>2019-12-09T16:07:00Z</time>
      </trkpt>
      <trkpt lat="59.18433" lon="18.147151">
        <ele>33</ele>
        <time>2019-12-09T16:07:01Z</time>
      </trkpt>
      <trkpt lat="59.184414" lon="18.147128">
        <ele>33</ele>
        <time>2019-12-09T16:07:02Z</time>
      </trkpt>
      <trkpt lat="59.1845" lon="18.147104">
        <ele>33</ele>
        <time>2019-12-09T16:07:03Z</time>
      </trkpt>
      <trkpt lat="59.184587" lon="18.147079">
        <ele>32</ele>
        <time>2019-12-09T16:07:04Z</time>
      </trkpt>
      <trkpt lat="59.184675" lon="18.147057">
        <ele>32</ele>
        <time>2019-12-09T16:07:05Z</time>
      </trkpt>
      <trkpt lat="59.184762" lon="18.147035">
        <ele>31</ele>
        <time>2019-12-09T16:07:06Z</time>
      </trkpt>
      <trkpt lat="59.184845" lon="18.147007">
        <ele>31</ele>
        <time>2019-12-09T16:07:07Z</time>
      </trkpt>
      <trkpt lat="59.184924" lon="18.146968">
        <ele>30</ele>
        <time>2019-12-09T16:07:08Z</time>
      </trkpt>
      <trkpt lat="59.184999" lon="18.146916">
        <ele>30</ele>
        <time>2019-12-09T16:07:09Z</time>
      </trkpt>
      <trkpt lat="59.185069" lon="18.146857">
        <ele>30</ele>
        <time>2019-12-09T16:07:10Z</time>
      </trkpt>
      <trkpt lat="59.185132" lon="18.146798">
        <ele>29</ele>
        <time>2019-12-09T16:07:11Z</time>
      </trkpt>
      <trkpt lat="59.18519" lon="18.146752">
        <ele>29</ele>
        <time>2019-12-09T16:07:12Z</time>
      </trkpt>
      <trkpt lat="59.185244" lon="18.146728">
        <ele>28</ele>
        <time>2019-12-09T16:07:13Z</time>
      </trkpt>
      <trkpt lat="59.185295" lon="18.146733">
        <ele>28</ele>
        <time>2019-12-09T16:07:14Z</time>
      </trkpt>
      <trkpt lat="59.185343" lon="18.14677">
        <ele>28</ele>
        <time>2019-12-09T16:07:15Z</time>
      </trkpt>
      <trkpt lat="59.185386" lon="18.146835">
        <ele>27</ele>
        <time>2019-12-09T16:07:16Z</time>
      </trkpt>
      <trkpt lat="59.185429" lon="18.146901">
        <ele>27</ele>
        <time>2019-12-09T16:07:17Z</time>
      </trkpt>
      <trkpt lat="59.185478" lon="18.146941">
        <ele>0</ele>
        <time>2019-12-09T16:07:17Z</time>
      </trkpt>
      <trkpt lat="59.185528" lon="18.146947">
        <ele>27</ele>
        <time>2019-12-09T16:07:18Z</time>
      </trkpt>
      <trkpt lat="59.185581" lon="18.146935">
        <ele>26</ele>
        <time>2019-12-09T16:07:20Z</time>
      </trkpt>
      <trkpt lat="59.185636" lon="18.146923">
        <ele>26</ele>
        <time>2019-12-09T16:07:21Z</time>
      </trkpt>
      <trkpt lat="59.185695" lon="18.146914">
        <ele>26</ele>
        <time>2019-12-09T16:07:22Z</time>
      </trkpt>
      <trkpt lat="59.185758" lon="18.146901">
        <ele>26</ele>
        <time>2019-12-09T16:07:23Z</time>
      </trkpt>
      <trkpt lat="59.18582" lon="18.146885">
        <ele>25</ele>
        <time>2019-12-09T16:07:24Z</time>
      </trkpt>
      <trkpt lat="59.185883" lon="18.146866">
        <ele>25</ele>
        <time>2019-12-09T16:07:25Z</time>
      </trkpt>
      <trkpt lat="59.185946" lon="18.14685">
        <ele>25</ele>
        <time>2019-12-09T16:07:26Z</time>
      </trkpt>
      <trkpt lat="59.186011" lon="18.14684">
        <ele>25</ele>
        <time>2019-12-09T16:07:27Z</time>
      </trkpt>
      <trkpt lat="59.186078" lon="18.146834">
        <ele>25</ele>
        <time>2019-12-09T16:07:28Z</time>
      </trkpt>
      <trkpt lat="59.186147" lon="18.146827">
        <ele>25</ele>
        <time>2019-12-09T16:07:29Z</time>
      </trkpt>
      <trkpt lat="59.186218" lon="18.14682">
        <ele>25</ele>
        <time>2019-12-09T16:07:30Z</time>
      </trkpt>
      <trkpt lat="59.186289" lon="18.146805">
        <ele>25</ele>
        <time>2019-12-09T16:07:31Z</time>
      </trkpt>
      <trkpt lat="59.186361" lon="18.146788">
        <ele>25</ele>
        <time>2019-12-09T16:07:32Z</time>
      </trkpt>
      <trkpt lat="59.186434" lon="18.146773">
        <ele>25</ele>
        <time>2019-12-09T16:07:33Z</time>
      </trkpt>
      <trkpt lat="59.186508" lon="18.146757">
        <ele>24</ele>
        <time>2019-12-09T16:07:34Z</time>
      </trkpt>
      <trkpt lat="59.186585" lon="18.146744">
        <ele>24</ele>
        <time>2019-12-09T16:07:35Z</time>
      </trkpt>
      <trkpt lat="59.186661" lon="18.146732">
        <ele>24</ele>
        <time>2019-12-09T16:07:36Z</time>
      </trkpt>
      <trkpt lat="59.186737" lon="18.146709">
        <ele>24</ele>
        <time>2019-12-09T16:07:37Z</time>
      </trkpt>
      <trkpt lat="59.186813" lon="18.146683">
        <ele>24</ele>
        <time>2019-12-09T16:07:38Z</time>
      </trkpt>
      <trkpt lat="59.186889" lon="18.146658">
        <ele>24</ele>
        <time>2019-12-09T16:07:39Z</time>
      </trkpt>
      <trkpt lat="59.186965" lon="18.146635">
        <ele>24</ele>
        <time>2019-12-09T16:07:40Z</time>
      </trkpt>
      <trkpt lat="59.187042" lon="18.146611">
        <ele>24</ele>
        <time>2019-12-09T16:07:41Z</time>
      </trkpt>
      <trkpt lat="59.187118" lon="18.146591">
        <ele>24</ele>
        <time>2019-12-09T16:07:42Z</time>
      </trkpt>
      <trkpt lat="59.187195" lon="18.146573">
        <ele>24</ele>
        <time>2019-12-09T16:07:43Z</time>
      </trkpt>
      <trkpt lat="59.187272" lon="18.146554">
        <ele>24</ele>
        <time>2019-12-09T16:07:44Z</time>
      </trkpt>
      <trkpt lat="59.18735" lon="18.146535">
        <ele>24</ele>
        <time>2019-12-09T16:07:45Z</time>
      </trkpt>
      <trkpt lat="59.187429" lon="18.146513">
        <ele>24</ele>
        <time>2019-12-09T16:07:46Z</time>
      </trkpt>
      <trkpt lat="59.187507" lon="18.146486">
        <ele>24</ele>
        <time>2019-12-09T16:07:47Z</time>
      </trkpt>
      <trkpt lat="59.187583" lon="18.146453">
        <ele>24</ele>
        <time>2019-12-09T16:07:48Z</time>
      </trkpt>
      <trkpt lat="59.187657" lon="18.146412">
        <ele>24</ele>
        <time>2019-12-09T16:07:49Z</time>
      </trkpt>
      <trkpt lat="59.187729" lon="18.146365">
        <ele>24</ele>
        <time>2019-12-09T16:07:50Z</time>
      </trkpt>
      <trkpt lat="59.187797" lon="18.146314">
        <ele>24</ele>
        <time>2019-12-09T16:07:51Z</time>
      </trkpt>
      <trkpt lat="59.187866" lon="18.146263">
        <ele>24</ele>
        <time>2019-12-09T16:07:52Z</time>
      </trkpt>
      <trkpt lat="59.187933" lon="18.14621">
        <ele>24</ele>
        <time>2019-12-09T16:07:53Z</time>
      </trkpt>
      <trkpt lat="59.187999" lon="18.146156">
        <ele>24</ele>
        <time>2019-12-09T16:07:54Z</time>
      </trkpt>
      <trkpt lat="59.188064" lon="18.146105">
        <ele>24</ele>
        <time>2019-12-09T16:07:55Z</time>
      </trkpt>
      <trkpt lat="59.188128" lon="18.146062">
        <ele>24</ele>
        <time>2019-12-09T16:07:56Z</time>
      </trkpt>
      <trkpt lat="59.188191" lon="18.14602">
        <ele>24</ele>
        <time>2019-12-09T16:07:57Z</time>
      </trkpt>
      <trkpt lat="59.188251" lon="18.145979">
        <ele>24</ele>
        <time>2019-12-09T16:07:58Z</time>
      </trkpt>
      <trkpt lat="59.188311" lon="18.14593">
        <ele>24</ele>
        <time>2019-12-09T16:07:59Z</time>
      </trkpt>
      <trkpt lat="59.18837" lon="18.145884">
        <ele>25</ele>
        <time>2019-12-09T16:08:00Z</time>
      </trkpt>
      <trkpt lat="59.188429" lon="18.145837">
        <ele>25</ele>
        <time>2019-12-09T16:08:01Z</time>
      </trkpt>
      <trkpt lat="59.188486" lon="18.145793">
        <ele>25</ele>
        <time>2019-12-09T16:08:02Z</time>
      </trkpt>
      <trkpt lat="59.188541" lon="18.145747">
        <ele>25</ele>
        <time>2019-12-09T16:08:03Z</time>
      </trkpt>
      <trkpt lat="59.188594" lon="18.145698">
        <ele>25</ele>
        <time>2019-12-09T16:08:04Z</time>
      </trkpt>
      <trkpt lat="59.188645" lon="18.145646">
        <ele>25</ele>
        <time>2019-12-09T16:08:05Z</time>
      </trkpt>
      <trkpt lat="59.188693" lon="18.145592">
        <ele>25</ele>
        <time>2019-12-09T16:08:06Z</time>
      </trkpt>
      <trkpt lat="59.18874" lon="18.145537">
        <ele>26</ele>
        <time>2019-12-09T16:08:07Z</time>
      </trkpt>
      <trkpt lat="59.188787" lon="18.145485">
        <ele>26</ele>
        <time>2019-12-09T16:08:08Z</time>
      </trkpt>
      <trkpt lat="59.188833" lon="18.145433">
        <ele>26</ele>
        <time>2019-12-09T16:08:09Z</time>
      </trkpt>
      <trkpt lat="59.188878" lon="18.145376">
        <ele>26</ele>
        <time>2019-12-09T16:08:10Z</time>
      </trkpt>
      <trkpt lat="59.188921" lon="18.145315">
        <ele>26</ele>
        <time>2019-12-09T16:08:11Z</time>
      </trkpt>
      <trkpt lat="59.188965" lon="18.145253">
        <ele>26</ele>
        <time>2019-12-09T16:08:12Z</time>
      </trkpt>
      <trkpt lat="59.189007" lon="18.145188">
        <ele>26</ele>
        <time>2019-12-09T16:08:13Z</time>
      </trkpt>
      <trkpt lat="59.189048" lon="18.145119">
        <ele>26</ele>
        <time>2019-12-09T16:08:14Z</time>
      </trkpt>
      <trkpt lat="59.189087" lon="18.145048">
        <ele>26</ele>
        <time>2019-12-09T16:08:15Z</time>
      </trkpt>
      <trkpt lat="59.189128" lon="18.144977">
        <ele>26</ele>
        <time>2019-12-09T16:08:16Z</time>
      </trkpt>
      <trkpt lat="59.189172" lon="18.144912">
        <ele>26</ele>
        <time>2019-12-09T16:08:17Z</time>
      </trkpt>
      <trkpt lat="59.189218" lon="18.144853">
        <ele>26</ele>
        <time>2019-12-09T16:08:18Z</time>
      </trkpt>
      <trkpt lat="59.189266" lon="18.144794">
        <ele>26</ele>
        <time>2019-12-09T16:08:19Z</time>
      </trkpt>
      <trkpt lat="59.189316" lon="18.144736">
        <ele>26</ele>
        <time>2019-12-09T16:08:20Z</time>
      </trkpt>
      <trkpt lat="59.18937" lon="18.144683">
        <ele>26</ele>
        <time>2019-12-09T16:08:21Z</time>
      </trkpt>
      <trkpt lat="59.189429" lon="18.144638">
        <ele>26</ele>
        <time>2019-12-09T16:08:22Z</time>
      </trkpt>
      <trkpt lat="59.189488" lon="18.144599">
        <ele>26</ele>
        <time>2019-12-09T16:08:23Z</time>
      </trkpt>
      <trkpt lat="59.189548" lon="18.144563">
        <ele>26</ele>
        <time>2019-12-09T16:08:24Z</time>
      </trkpt>
      <trkpt lat="59.189611" lon="18.144525">
        <ele>26</ele>
        <time>2019-12-09T16:08:25Z</time>
      </trkpt>
      <trkpt lat="59.189676" lon="18.144487">
        <ele>26</ele>
        <time>2019-12-09T16:08:26Z</time>
      </trkpt>
      <trkpt lat="59.189744" lon="18.144446">
        <ele>26</ele>
        <time>2019-12-09T16:08:27Z</time>
      </trkpt>
      <trkpt lat="59.189814" lon="18.144406">
        <ele>26</ele>
        <time>2019-12-09T16:08:28Z</time>
      </trkpt>
      <trkpt lat="59.189884" lon="18.144364">
        <ele>26</ele>
        <time>2019-12-09T16:08:29Z</time>
      </trkpt>
      <trkpt lat="59.189956" lon="18.144308">
        <ele>26</ele>
        <time>2019-12-09T16:08:30Z</time>
      </trkpt>
      <trkpt lat="59.190022" lon="18.144259">
        <ele>26</ele>
        <time>2019-12-09T16:08:31Z</time>
      </trkpt>
      <trkpt lat="59.19009" lon="18.144217">
        <ele>26</ele>
        <time>2019-12-09T16:08:32Z</time>
      </trkpt>
      <trkpt lat="59.190239" lon="18.144172">
        <ele>26</ele>
        <time>2019-12-09T16:08:34Z</time>
      </trkpt>
      <trkpt lat="59.190373" lon="18.144225">
        <ele>26</ele>
        <time>2019-12-09T16:08:36Z</time>
      </trkpt>
      <trkpt lat="59.190485" lon="18.144271">
        <ele>27</ele>
        <time>2019-12-09T16:08:38Z</time>
      </trkpt>
      <trkpt lat="59.190621" lon="18.144246">
        <ele>27</ele>
        <time>2019-12-09T16:08:40Z</time>
      </trkpt>
      <trkpt lat="59.190677" lon="18.144238">
        <ele>27</ele>
        <time>2019-12-09T16:08:41Z</time>
      </trkpt>
      <trkpt lat="59.190729" lon="18.144227">
        <ele>28</ele>
        <time>2019-12-09T16:08:42Z</time>
      </trkpt>
      <trkpt lat="59.190789" lon="18.144218">
        <ele>28</ele>
        <time>2019-12-09T16:08:43Z</time>
      </trkpt>
      <trkpt lat="59.190842" lon="18.144207">
        <ele>28</ele>
        <time>2019-12-09T16:08:44Z</time>
      </trkpt>
      <trkpt lat="59.19089" lon="18.144196">
        <ele>29</ele>
        <time>2019-12-09T16:08:45Z</time>
      </trkpt>
      <trkpt lat="59.190934" lon="18.144184">
        <ele>29</ele>
        <time>2019-12-09T16:08:46Z</time>
      </trkpt>
      <trkpt lat="59.190974" lon="18.144175">
        <ele>29</ele>
        <time>2019-12-09T16:08:47Z</time>
      </trkpt>
      <trkpt lat="59.191009" lon="18.144168">
        <ele>30</ele>
        <time>2019-12-09T16:08:48Z</time>
      </trkpt>
      <trkpt lat="59.191042" lon="18.14416">
        <ele>30</ele>
        <time>2019-12-09T16:08:49Z</time>
      </trkpt>
      <trkpt lat="59.191072" lon="18.144148">
        <ele>31</ele>
        <time>2019-12-09T16:08:50Z</time>
      </trkpt>
      <trkpt lat="59.191101" lon="18.144132">
        <ele>31</ele>
        <time>2019-12-09T16:08:51Z</time>
      </trkpt>
      <trkpt lat="59.191135" lon="18.144118">
        <ele>31</ele>
        <time>2019-12-09T16:08:52Z</time>
      </trkpt>
      <trkpt lat="59.191172" lon="18.144107">
        <ele>0</ele>
        <time>2019-12-09T16:08:52Z</time>
      </trkpt>
      <trkpt lat="59.191212" lon="18.144096">
        <ele>31</ele>
        <time>2019-12-09T16:08:53Z</time>
      </trkpt>
      <trkpt lat="59.191249" lon="18.144084">
        <ele>32</ele>
        <time>2019-12-09T16:08:55Z</time>
      </trkpt>
      <trkpt lat="59.191284" lon="18.14407">
        <ele>32</ele>
        <time>2019-12-09T16:08:56Z</time>
      </trkpt>
      <trkpt lat="59.191322" lon="18.144057">
        <ele>31</ele>
        <time>2019-12-09T16:08:57Z</time>
      </trkpt>
      <trkpt lat="59.191359" lon="18.144044">
        <ele>32</ele>
        <time>2019-12-09T16:08:58Z</time>
      </trkpt>
      <trkpt lat="59.191396" lon="18.144029">
        <ele>32</ele>
        <time>2019-12-09T16:08:59Z</time>
      </trkpt>
      <trkpt lat="59.191431" lon="18.144011">
        <ele>31</ele>
        <time>2019-12-09T16:09:00Z</time>
      </trkpt>
      <trkpt lat="59.191467" lon="18.143993">
        <ele>31</ele>
        <time>2019-12-09T16:09:01Z</time>
      </trkpt>
      <trkpt lat="59.191499" lon="18.143973">
        <ele>32</ele>
        <time>2019-12-09T16:09:02Z</time>
      </trkpt>
      <trkpt lat="59.191534" lon="18.14395">
        <ele>32</ele>
        <time>2019-12-09T16:09:03Z</time>
      </trkpt>
      <trkpt lat="59.191569" lon="18.143925">
        <ele>32</ele>
        <time>2019-12-09T16:09:04Z</time>
      </trkpt>
      <trkpt lat="59.191603" lon="18.1439">
        <ele>32</ele>
        <time>2019-12-09T16:09:05Z</time>
      </trkpt>
      <trkpt lat="59.191638" lon="18.143874">
        <ele>32</ele>
        <time>2019-12-09T16:09:06Z</time>
      </trkpt>
      <trkpt lat="59.191673" lon="18.143848">
        <ele>32</ele>
        <time>2019-12-09T16:09:07Z</time>
      </trkpt>
      <trkpt lat="59.191707" lon="18.143825">
        <ele>32</ele>
        <time>2019-12-09T16:09:08Z</time>
      </trkpt>
      <trkpt lat="59.191741" lon="18.143804">
        <ele>32</ele>
        <time>2019-12-09T16:09:09Z</time>
      </trkpt>
      <trkpt lat="59.191772" lon="18.14378">
        <ele>33</ele>
        <time>2019-12-09T16:09:10Z</time>
      </trkpt>
      <trkpt lat="59.1918" lon="18.143751">
        <ele>33</ele>
        <time>2019-12-09T16:09:11Z</time>
      </trkpt>
      <trkpt lat="59.191829" lon="18.143727">
        <ele>33</ele>
        <time>2019-12-09T16:09:12Z</time>
      </trkpt>
      <trkpt lat="59.19186" lon="18.14371">
        <ele>33</ele>
        <time>2019-12-09T16:09:13Z</time>
      </trkpt>
      <trkpt lat="59.191892" lon="18.143692">
        <ele>33</ele>
        <time>2019-12-09T16:09:14Z</time>
      </trkpt>
      <trkpt lat="59.191923" lon="18.143673">
        <ele>33</ele>
        <time>2019-12-09T16:09:15Z</time>
      </trkpt>
      <trkpt lat="59.191955" lon="18.143654">
        <ele>33</ele>
        <time>2019-12-09T16:09:16Z</time>
      </trkpt>
      <trkpt lat="59.191985" lon="18.143631">
        <ele>34</ele>
        <time>2019-12-09T16:09:17Z</time>
      </trkpt>
      <trkpt lat="59.192015" lon="18.143605">
        <ele>34</ele>
        <time>2019-12-09T16:09:18Z</time>
      </trkpt>
      <trkpt lat="59.192042" lon="18.143577">
        <ele>34</ele>
        <time>2019-12-09T16:09:19Z</time>
      </trkpt>
      <trkpt lat="59.19207" lon="18.143551">
        <ele>34</ele>
        <time>2019-12-09T16:09:20Z</time>
      </trkpt>
      <trkpt lat="59.1921" lon="18.143526">
        <ele>34</ele>
        <time>2019-12-09T16:09:21Z</time>
      </trkpt>
      <trkpt lat="59.192131" lon="18.143501">
        <ele>34</ele>
        <time>2019-12-09T16:09:22Z</time>
      </trkpt>
      <trkpt lat="59.19216" lon="18.143472">
        <ele>34</ele>
        <time>2019-12-09T16:09:23Z</time>
      </trkpt>
      <trkpt lat="59.192187" lon="18.143436">
        <ele>35</ele>
        <time>2019-12-09T16:09:24Z</time>
      </trkpt>
      <trkpt lat="59.192215" lon="18.143406">
        <ele>35</ele>
        <time>2019-12-09T16:09:25Z</time>
      </trkpt>
      <trkpt lat="59.192242" lon="18.143374">
        <ele>35</ele>
        <time>2019-12-09T16:09:26Z</time>
      </trkpt>
      <trkpt lat="59.192272" lon="18.143344">
        <ele>35</ele>
        <time>2019-12-09T16:09:27Z</time>
      </trkpt>
      <trkpt lat="59.192302" lon="18.143316">
        <ele>35</ele>
        <time>2019-12-09T16:09:28Z</time>
      </trkpt>
      <trkpt lat="59.192331" lon="18.143282">
        <ele>36</ele>
        <time>2019-12-09T16:09:29Z</time>
      </trkpt>
      <trkpt lat="59.19236" lon="18.143246">
        <ele>36</ele>
        <time>2019-12-09T16:09:30Z</time>
      </trkpt>
      <trkpt lat="59.192388" lon="18.143217">
        <ele>36</ele>
        <time>2019-12-09T16:09:31Z</time>
      </trkpt>
      <trkpt lat="59.192417" lon="18.143188">
        <ele>36</ele>
        <time>2019-12-09T16:09:32Z</time>
      </trkpt>
      <trkpt lat="59.192445" lon="18.14316">
        <ele>36</ele>
        <time>2019-12-09T16:09:33Z</time>
      </trkpt>
      <trkpt lat="59.192474" lon="18.143133">
        <ele>36</ele>
        <time>2019-12-09T16:09:34Z</time>
      </trkpt>
      <trkpt lat="59.192503" lon="18.143104">
        <ele>36</ele>
        <time>2019-12-09T16:09:35Z</time>
      </trkpt>
      <trkpt lat="59.192534" lon="18.143073">
        <ele>36</ele>
        <time>2019-12-09T16:09:36Z</time>
      </trkpt>
      <trkpt lat="59.192564" lon="18.143043">
        <ele>36</ele>
        <time>2019-12-09T16:09:37Z</time>
      </trkpt>
      <trkpt lat="59.192594" lon="18.143013">
        <ele>36</ele>
        <time>2019-12-09T16:09:38Z</time>
      </trkpt>
      <trkpt lat="59.192623" lon="18.142983">
        <ele>36</ele>
        <time>2019-12-09T16:09:39Z</time>
      </trkpt>
      <trkpt lat="59.192654" lon="18.142954">
        <ele>36</ele>
        <time>2019-12-09T16:09:40Z</time>
      </trkpt>
      <trkpt lat="59.192686" lon="18.142922">
        <ele>36</ele>
        <time>2019-12-09T16:09:41Z</time>
      </trkpt>
      <trkpt lat="59.192718" lon="18.142894">
        <ele>37</ele>
        <time>2019-12-09T16:09:42Z</time>
      </trkpt>
      <trkpt lat="59.19275" lon="18.142863">
        <ele>36</ele>
        <time>2019-12-09T16:09:43Z</time>
      </trkpt>
      <trkpt lat="59.192783" lon="18.142832">
        <ele>36</ele>
        <time>2019-12-09T16:09:44Z</time>
      </trkpt>
      <trkpt lat="59.192818" lon="18.142802">
        <ele>36</ele>
        <time>2019-12-09T16:09:45Z</time>
      </trkpt>
      <trkpt lat="59.192853" lon="18.14277">
        <ele>37</ele>
        <time>2019-12-09T16:09:46Z</time>
      </trkpt>
      <trkpt lat="59.192889" lon="18.142734">
        <ele>37</ele>
        <time>2019-12-09T16:09:47Z</time>
      </trkpt>
      <trkpt lat="59.192923" lon="18.142694">
        <ele>37</ele>
        <time>2019-12-09T16:09:48Z</time>
      </trkpt>
      <trkpt lat="59.192959" lon="18.142656">
        <ele>37</ele>
        <time>2019-12-09T16:09:49Z</time>
      </trkpt>
      <trkpt lat="59.192995" lon="18.142621">
        <ele>37</ele>
        <time>2019-12-09T16:09:50Z</time>
      </trkpt>
      <trkpt lat="59.193032" lon="18.142586">
        <ele>37</ele>
        <time>2019-12-09T16:09:51Z</time>
      </trkpt>
      <trkpt lat="59.193069" lon="18.142548">
        <ele>37</ele>
        <time>2019-12-09T16:09:52Z</time>
      </trkpt>
      <trkpt lat="59.193106" lon="18.142505">
        <ele>38</ele>
        <time>2019-12-09T16:09:53Z</time>
      </trkpt>
      <trkpt lat="59.193145" lon="18.14246">
        <ele>38</ele>
        <time>2019-12-09T16:09:54Z</time>
      </trkpt>
      <trkpt lat="59.193183" lon="18.142415">
        <ele>38</ele>
        <time>2019-12-09T16:09:55Z</time>
      </trkpt>
      <trkpt lat="59.193225" lon="18.142377">
        <ele>39</ele>
        <time>2019-12-09T16:09:56Z</time>
      </trkpt>
      <trkpt lat="59.193268" lon="18.142344">
        <ele>39</ele>
        <time>2019-12-09T16:09:57Z</time>
      </trkpt>
      <trkpt lat="59.193312" lon="18.142316">
        <ele>39</ele>
        <time>2019-12-09T16:09:58Z</time>
      </trkpt>
      <trkpt lat="59.193355" lon="18.142285">
        <ele>39</ele>
        <time>2019-12-09T16:09:59Z</time>
      </trkpt>
      <trkpt lat="59.193399" lon="18.142254">
        <ele>40</ele>
        <time>2019-12-09T16:10:00Z</time>
      </trkpt>
      <trkpt lat="59.193443" lon="18.142219">
        <ele>40</ele>
        <time>2019-12-09T16:10:01Z</time>
      </trkpt>
      <trkpt lat="59.193486" lon="18.14218">
        <ele>40</ele>
        <time>2019-12-09T16:10:02Z</time>
      </trkpt>
      <trkpt lat="59.19353" lon="18.142144">
        <ele>41</ele>
        <time>2019-12-09T16:10:03Z</time>
      </trkpt>
      <trkpt lat="59.193574" lon="18.142106">
        <ele>41</ele>
        <time>2019-12-09T16:10:04Z</time>
      </trkpt>
      <trkpt lat="59.193616" lon="18.142064">
        <ele>41</ele>
        <time>2019-12-09T16:10:05Z</time>
      </trkpt>
      <trkpt lat="59.193661" lon="18.142026">
        <ele>41</ele>
        <time>2019-12-09T16:10:06Z</time>
      </trkpt>
      <trkpt lat="59.193704" lon="18.141981">
        <ele>41</ele>
        <time>2019-12-09T16:10:07Z</time>
      </trkpt>
      <trkpt lat="59.193747" lon="18.141934">
        <ele>41</ele>
        <time>2019-12-09T16:10:08Z</time>
      </trkpt>
      <trkpt lat="59.193791" lon="18.141886">
        <ele>41</ele>
        <time>2019-12-09T16:10:09Z</time>
      </trkpt>
      <trkpt lat="59.193837" lon="18.141836">
        <ele>41</ele>
        <time>2019-12-09T16:10:10Z</time>
      </trkpt>
      <trkpt lat="59.193886" lon="18.141789">
        <ele>41</ele>
        <time>2019-12-09T16:10:11Z</time>
      </trkpt>
      <trkpt lat="59.193937" lon="18.141742">
        <ele>41</ele>
        <time>2019-12-09T16:10:12Z</time>
      </trkpt>
      <trkpt lat="59.193991" lon="18.141696">
        <ele>41</ele>
        <time>2019-12-09T16:10:13Z</time>
      </trkpt>
      <trkpt lat="59.194046" lon="18.141652">
        <ele>40</ele>
        <time>2019-12-09T16:10:14Z</time>
      </trkpt>
      <trkpt lat="59.194102" lon="18.141606">
        <ele>40</ele>
        <time>2019-12-09T16:10:15Z</time>
      </trkpt>
      <trkpt lat="59.194161" lon="18.141559">
        <ele>40</ele>
        <time>2019-12-09T16:10:16Z</time>
      </trkpt>
      <trkpt lat="59.194219" lon="18.141506">
        <ele>40</ele>
        <time>2019-12-09T16:10:17Z</time>
      </trkpt>
      <trkpt lat="59.194276" lon="18.141452">
        <ele>40</ele>
        <time>2019-12-09T16:10:18Z</time>
      </trkpt>
      <trkpt lat="59.194333" lon="18.141398">
        <ele>40</ele>
        <time>2019-12-09T16:10:19Z</time>
      </trkpt>
      <trkpt lat="59.194392" lon="18.141343">
        <ele>40</ele>
        <time>2019-12-09T16:10:20Z</time>
      </trkpt>
      <trkpt lat="59.19445" lon="18.141288">
        <ele>40</ele>
        <time>2019-12-09T16:10:21Z</time>
      </trkpt>
      <trkpt lat="59.19451" lon="18.141232">
        <ele>40</ele>
        <time>2019-12-09T16:10:22Z</time>
      </trkpt>
      <trkpt lat="59.194571" lon="18.141174">
        <ele>39</ele>
        <time>2019-12-09T16:10:23Z</time>
      </trkpt>
      <trkpt lat="59.194636" lon="18.141114">
        <ele>39</ele>
        <time>2019-12-09T16:10:24Z</time>
      </trkpt>
      <trkpt lat="59.194702" lon="18.141058">
        <ele>39</ele>
        <time>2019-12-09T16:10:25Z</time>
      </trkpt>
      <trkpt lat="59.194771" lon="18.141">
        <ele>38</ele>
        <time>2019-12-09T16:10:26Z</time>
      </trkpt>
      <trkpt lat="59.194843" lon="18.140944">
        <ele>38</ele>
        <time>2019-12-09T16:10:27Z</time>
      </trkpt>
      <trkpt lat="59.194915" lon="18.140883">
        <ele>37</ele>
        <time>2019-12-09T16:10:28Z</time>
      </trkpt>
      <trkpt lat="59.194991" lon="18.140824">
        <ele>37</ele>
        <time>2019-12-09T16:10:29Z</time>
      </trkpt>
      <trkpt lat="59.19507" lon="18.140773">
        <ele>37</ele>
        <time>2019-12-09T16:10:30Z</time>
      </trkpt>
      <trkpt lat="59.195153" lon="18.140734">
        <ele>37</ele>
        <time>2019-12-09T16:10:31Z</time>
      </trkpt>
      <trkpt lat="59.195236" lon="18.140706">
        <ele>37</ele>
        <time>2019-12-09T16:10:32Z</time>
      </trkpt>
      <trkpt lat="59.195321" lon="18.140692">
        <ele>37</ele>
        <time>2019-12-09T16:10:33Z</time>
      </trkpt>
      <trkpt lat="59.195407" lon="18.140688">
        <ele>37</ele>
        <time>2019-12-09T16:10:34Z</time>
      </trkpt>
      <trkpt lat="59.195493" lon="18.14069">
        <ele>36</ele>
        <time>2019-12-09T16:10:35Z</time>
      </trkpt>
      <trkpt lat="59.195578" lon="18.140698">
        <ele>36</ele>
        <time>2019-12-09T16:10:36Z</time>
      </trkpt>
      <trkpt lat="59.195663" lon="18.140712">
        <ele>36</ele>
        <time>2019-12-09T16:10:37Z</time>
      </trkpt>
      <trkpt lat="59.195744" lon="18.140724">
        <ele>36</ele>
        <time>2019-12-09T16:10:38Z</time>
      </trkpt>
      <trkpt lat="59.195824" lon="18.140738">
        <ele>35</ele>
        <time>2019-12-09T16:10:39Z</time>
      </trkpt>
      <trkpt lat="59.195897" lon="18.14075">
        <ele>35</ele>
        <time>2019-12-09T16:10:40Z</time>
      </trkpt>
      <trkpt lat="59.195969" lon="18.140764">
        <ele>35</ele>
        <time>2019-12-09T16:10:41Z</time>
      </trkpt>
      <trkpt lat="59.196038" lon="18.140778">
        <ele>35</ele>
        <time>2019-12-09T16:10:42Z</time>
      </trkpt>
      <trkpt lat="59.196109" lon="18.140794">
        <ele>34</ele>
        <time>2019-12-09T16:10:43Z</time>
      </trkpt>
      <trkpt lat="59.196179" lon="18.140812">
        <ele>34</ele>
        <time>2019-12-09T16:10:44Z</time>
      </trkpt>
      <trkpt lat="59.196248" lon="18.14083">
        <ele>34</ele>
        <time>2019-12-09T16:10:45Z</time>
      </trkpt>
      <trkpt lat="59.196317" lon="18.140854">
        <ele>33</ele>
        <time>2019-12-09T16:10:46Z</time>
      </trkpt>
      <trkpt lat="59.196387" lon="18.140886">
        <ele>33</ele>
        <time>2019-12-09T16:10:47Z</time>
      </trkpt>
      <trkpt lat="59.196453" lon="18.140924">
        <ele>32</ele>
        <time>2019-12-09T16:10:48Z</time>
      </trkpt>
      <trkpt lat="59.196512" lon="18.140959">
        <ele>32</ele>
        <time>2019-12-09T16:10:49Z</time>
      </trkpt>
      <trkpt lat="59.196568" lon="18.140998">
        <ele>31</ele>
        <time>2019-12-09T16:10:50Z</time>
      </trkpt>
      <trkpt lat="59.196621" lon="18.141042">
        <ele>31</ele>
        <time>2019-12-09T16:10:51Z</time>
      </trkpt>
      <trkpt lat="59.196673" lon="18.141093">
        <ele>31</ele>
        <time>2019-12-09T16:10:52Z</time>
      </trkpt>
      <trkpt lat="59.196725" lon="18.14115">
        <ele>31</ele>
        <time>2019-12-09T16:10:53Z</time>
      </trkpt>
      <trkpt lat="59.196775" lon="18.141208">
        <ele>31</ele>
        <time>2019-12-09T16:10:54Z</time>
      </trkpt>
      <trkpt lat="59.196826" lon="18.141272">
        <ele>31</ele>
        <time>2019-12-09T16:10:55Z</time>
      </trkpt>
      <trkpt lat="59.196877" lon="18.141342">
        <ele>31</ele>
        <time>2019-12-09T16:10:56Z</time>
      </trkpt>
      <trkpt lat="59.196928" lon="18.141416">
        <ele>30</ele>
        <time>2019-12-09T16:10:57Z</time>
      </trkpt>
      <trkpt lat="59.196979" lon="18.141491">
        <ele>30</ele>
        <time>2019-12-09T16:10:58Z</time>
      </trkpt>
      <trkpt lat="59.197029" lon="18.141571">
        <ele>30</ele>
        <time>2019-12-09T16:10:59Z</time>
      </trkpt>
      <trkpt lat="59.197079" lon="18.141654">
        <ele>30</ele>
        <time>2019-12-09T16:11:00Z</time>
      </trkpt>
      <trkpt lat="59.197131" lon="18.141736">
        <ele>30</ele>
        <time>2019-12-09T16:11:01Z</time>
      </trkpt>
      <trkpt lat="59.197184" lon="18.141814">
        <ele>29</ele>
        <time>2019-12-09T16:11:02Z</time>
      </trkpt>
      <trkpt lat="59.197237" lon="18.141893">
        <ele>29</ele>
        <time>2019-12-09T16:11:03Z</time>
      </trkpt>
      <trkpt lat="59.19729" lon="18.141968">
        <ele>29</ele>
        <time>2019-12-09T16:11:04Z</time>
      </trkpt>
      <trkpt lat="59.197343" lon="18.142038">
        <ele>28</ele>
        <time>2019-12-09T16:11:05Z</time>
      </trkpt>
      <trkpt lat="59.197397" lon="18.142106">
        <ele>28</ele>
        <time>2019-12-09T16:11:06Z</time>
      </trkpt>
      <trkpt lat="59.197452" lon="18.142167">
        <ele>28</ele>
        <time>2019-12-09T16:11:07Z</time>
      </trkpt>
      <trkpt lat="59.197511" lon="18.142222">
        <ele>27</ele>
        <time>2019-12-09T16:11:08Z</time>
      </trkpt>
      <trkpt lat="59.197571" lon="18.142276">
        <ele>27</ele>
        <time>2019-12-09T16:11:09Z</time>
      </trkpt>
      <trkpt lat="59.197632" lon="18.142327">
        <ele>27</ele>
        <time>2019-12-09T16:11:10Z</time>
      </trkpt>
      <trkpt lat="59.197695" lon="18.142375">
        <ele>27</ele>
        <time>2019-12-09T16:11:11Z</time>
      </trkpt>
      <trkpt lat="59.197759" lon="18.142419">
        <ele>27</ele>
        <time>2019-12-09T16:11:12Z</time>
      </trkpt>
      <trkpt lat="59.197824" lon="18.142463">
        <ele>27</ele>
        <time>2019-12-09T16:11:13Z</time>
      </trkpt>
      <trkpt lat="59.197888" lon="18.142509">
        <ele>26</ele>
        <time>2019-12-09T16:11:14Z</time>
      </trkpt>
      <trkpt lat="59.197951" lon="18.142559">
        <ele>26</ele>
        <time>2019-12-09T16:11:15Z</time>
      </trkpt>
      <trkpt lat="59.198014" lon="18.142608">
        <ele>26</ele>
        <time>2019-12-09T16:11:16Z</time>
      </trkpt>
      <trkpt lat="59.198077" lon="18.142655">
        <ele>26</ele>
        <time>2019-12-09T16:11:17Z</time>
      </trkpt>
      <trkpt lat="59.198138" lon="18.142701">
        <ele>26</ele>
        <time>2019-12-09T16:11:18Z</time>
      </trkpt>
      <trkpt lat="59.198199" lon="18.14275">
        <ele>27</ele>
        <time>2019-12-09T16:11:19Z</time>
      </trkpt>
      <trkpt lat="59.198257" lon="18.142794">
        <ele>27</ele>
        <time>2019-12-09T16:11:20Z</time>
      </trkpt>
      <trkpt lat="59.198313" lon="18.142833">
        <ele>26</ele>
        <time>2019-12-09T16:11:21Z</time>
      </trkpt>
      <trkpt lat="59.198373" lon="18.142875">
        <ele>26</ele>
        <time>2019-12-09T16:11:22Z</time>
      </trkpt>
      <trkpt lat="59.198433" lon="18.142914">
        <ele>26</ele>
        <time>2019-12-09T16:11:23Z</time>
      </trkpt>
      <trkpt lat="59.198493" lon="18.142947">
        <ele>26</ele>
        <time>2019-12-09T16:11:24Z</time>
      </trkpt>
      <trkpt lat="59.198556" lon="18.142974">
        <ele>26</ele>
        <time>2019-12-09T16:11:25Z</time>
      </trkpt>
      <trkpt lat="59.19862" lon="18.14299">
        <ele>26</ele>
        <time>2019-12-09T16:11:26Z</time>
      </trkpt>
      <trkpt lat="59.198682" lon="18.143003">
        <ele>26</ele>
        <time>2019-12-09T16:11:27Z</time>
      </trkpt>
      <trkpt lat="59.198746" lon="18.143017">
        <ele>25</ele>
        <time>2019-12-09T16:11:28Z</time>
      </trkpt>
      <trkpt lat="59.19881" lon="18.143028">
        <ele>25</ele>
        <time>2019-12-09T16:11:29Z</time>
      </trkpt>
      <trkpt lat="59.198875" lon="18.143034">
        <ele>25</ele>
        <time>2019-12-09T16:11:30Z</time>
      </trkpt>
      <trkpt lat="59.198939" lon="18.143038">
        <ele>25</ele>
        <time>2019-12-09T16:11:31Z</time>
      </trkpt>
      <trkpt lat="59.199007" lon="18.143044">
        <ele>25</ele>
        <time>2019-12-09T16:11:32Z</time>
      </trkpt>
      <trkpt lat="59.199072" lon="18.143049">
        <ele>25</ele>
        <time>2019-12-09T16:11:33Z</time>
      </trkpt>
      <trkpt lat="59.199137" lon="18.143053">
        <ele>24</ele>
        <time>2019-12-09T16:11:34Z</time>
      </trkpt>
      <trkpt lat="59.1992" lon="18.143057">
        <ele>24</ele>
        <time>2019-12-09T16:11:35Z</time>
      </trkpt>
      <trkpt lat="59.199263" lon="18.143061">
        <ele>24</ele>
        <time>2019-12-09T16:11:36Z</time>
      </trkpt>
      <trkpt lat="59.199322" lon="18.143062">
        <ele>24</ele>
        <time>2019-12-09T16:11:37Z</time>
      </trkpt>
      <trkpt lat="59.199382" lon="18.143063">
        <ele>24</ele>
        <time>2019-12-09T16:11:38Z</time>
      </trkpt>
      <trkpt lat="59.199441" lon="18.143057">
        <ele>23</ele>
        <time>2019-12-09T16:11:39Z</time>
      </trkpt>
      <trkpt lat="59.199495" lon="18.14303">
        <ele>23</ele>
        <time>2019-12-09T16:11:40Z</time>
      </trkpt>
      <trkpt lat="59.199544" lon="18.142981">
        <ele>23</ele>
        <time>2019-12-09T16:11:41Z</time>
      </trkpt>
      <trkpt lat="59.199592" lon="18.142916">
        <ele>22</ele>
        <time>2019-12-09T16:11:42Z</time>
      </trkpt>
      <trkpt lat="59.199635" lon="18.142835">
        <ele>22</ele>
        <time>2019-12-09T16:11:43Z</time>
      </trkpt>
      <trkpt lat="59.199673" lon="18.142744">
        <ele>22</ele>
        <time>2019-12-09T16:11:44Z</time>
      </trkpt>
      <trkpt lat="59.19971" lon="18.142648">
        <ele>22</ele>
        <time>2019-12-09T16:11:45Z</time>
      </trkpt>
      <trkpt lat="59.199747" lon="18.142546">
        <ele>22</ele>
        <time>2019-12-09T16:11:46Z</time>
      </trkpt>
      <trkpt lat="59.199782" lon="18.142442">
        <ele>22</ele>
        <time>2019-12-09T16:11:47Z</time>
      </trkpt>
      <trkpt lat="59.199821" lon="18.142344">
        <ele>22</ele>
        <time>2019-12-09T16:11:48Z</time>
      </trkpt>
      <trkpt lat="59.199868" lon="18.142263">
        <ele>22</ele>
        <time>2019-12-09T16:11:49Z</time>
      </trkpt>
      <trkpt lat="59.199914" lon="18.142193">
        <ele>23</ele>
        <time>2019-12-09T16:11:50Z</time>
      </trkpt>
      <trkpt lat="59.19996" lon="18.142131">
        <ele>23</ele>
        <time>2019-12-09T16:11:51Z</time>
      </trkpt>
      <trkpt lat="59.200006" lon="18.14207">
        <ele>23</ele>
        <time>2019-12-09T16:11:52Z</time>
      </trkpt>
      <trkpt lat="59.200052" lon="18.142014">
        <ele>23</ele>
        <time>2019-12-09T16:11:53Z</time>
      </trkpt>
      <trkpt lat="59.2001" lon="18.141959">
        <ele>23</ele>
        <time>2019-12-09T16:11:54Z</time>
      </trkpt>
      <trkpt lat="59.200148" lon="18.141903">
        <ele>24</ele>
        <time>2019-12-09T16:11:55Z</time>
      </trkpt>
      <trkpt lat="59.200196" lon="18.141849">
        <ele>24</ele>
        <time>2019-12-09T16:11:56Z</time>
      </trkpt>
      <trkpt lat="59.200245" lon="18.141799">
        <ele>24</ele>
        <time>2019-12-09T16:11:57Z</time>
      </trkpt>
      <trkpt lat="59.200293" lon="18.141748">
        <ele>24</ele>
        <time>2019-12-09T16:11:58Z</time>
      </trkpt>
      <trkpt lat="59.20034" lon="18.1417">
        <ele>24</ele>
        <time>2019-12-09T16:11:59Z</time>
      </trkpt>
      <trkpt lat="59.200387" lon="18.141655">
        <ele>25</ele>
        <time>2019-12-09T16:12:00Z</time>
      </trkpt>
      <trkpt lat="59.200433" lon="18.14161">
        <ele>25</ele>
        <time>2019-12-09T16:12:01Z</time>
      </trkpt>
      <trkpt lat="59.200479" lon="18.141563">
        <ele>25</ele>
        <time>2019-12-09T16:12:02Z</time>
      </trkpt>
      <trkpt lat="59.200523" lon="18.141514">
        <ele>25</ele>
        <time>2019-12-09T16:12:03Z</time>
      </trkpt>
      <trkpt lat="59.200565" lon="18.141466">
        <ele>26</ele>
        <time>2019-12-09T16:12:04Z</time>
      </trkpt>
      <trkpt lat="59.200607" lon="18.141419">
        <ele>26</ele>
        <time>2019-12-09T16:12:05Z</time>
      </trkpt>
      <trkpt lat="59.200648" lon="18.141379">
        <ele>26</ele>
        <time>2019-12-09T16:12:06Z</time>
      </trkpt>
      <trkpt lat="59.200691" lon="18.141353">
        <ele>26</ele>
        <time>2019-12-09T16:12:07Z</time>
      </trkpt>
      <trkpt lat="59.200736" lon="18.141343">
        <ele>26</ele>
        <time>2019-12-09T16:12:08Z</time>
      </trkpt>
      <trkpt lat="59.20078" lon="18.14135">
        <ele>26</ele>
        <time>2019-12-09T16:12:09Z</time>
      </trkpt>
      <trkpt lat="59.200824" lon="18.141368">
        <ele>27</ele>
        <time>2019-12-09T16:12:10Z</time>
      </trkpt>
      <trkpt lat="59.200865" lon="18.141389">
        <ele>27</ele>
        <time>2019-12-09T16:12:11Z</time>
      </trkpt>
      <trkpt lat="59.200903" lon="18.141411">
        <ele>27</ele>
        <time>2019-12-09T16:12:12Z</time>
      </trkpt>
      <trkpt lat="59.20094" lon="18.141438">
        <ele>27</ele>
        <time>2019-12-09T16:12:13Z</time>
      </trkpt>
      <trkpt lat="59.20098" lon="18.141472">
        <ele>27</ele>
        <time>2019-12-09T16:12:14Z</time>
      </trkpt>
      <trkpt lat="59.201021" lon="18.141507">
        <ele>27</ele>
        <time>2019-12-09T16:12:15Z</time>
      </trkpt>
      <trkpt lat="59.201067" lon="18.141547">
        <ele>27</ele>
        <time>2019-12-09T16:12:16Z</time>
      </trkpt>
      <trkpt lat="59.20111" lon="18.141583">
        <ele>27</ele>
        <time>2019-12-09T16:12:17Z</time>
      </trkpt>
      <trkpt lat="59.201152" lon="18.141617">
        <ele>27</ele>
        <time>2019-12-09T16:12:18Z</time>
      </trkpt>
      <trkpt lat="59.201189" lon="18.141648">
        <ele>27</ele>
        <time>2019-12-09T16:12:19Z</time>
      </trkpt>
      <trkpt lat="59.201225" lon="18.141678">
        <ele>28</ele>
        <time>2019-12-09T16:12:20Z</time>
      </trkpt>
      <trkpt lat="59.201258" lon="18.1417">
        <ele>28</ele>
        <time>2019-12-09T16:12:21Z</time>
      </trkpt>
      <trkpt lat="59.201296" lon="18.141722">
        <ele>28</ele>
        <time>2019-12-09T16:12:22Z</time>
      </trkpt>
      <trkpt lat="59.201336" lon="18.141744">
        <ele>28</ele>
        <time>2019-12-09T16:12:23Z</time>
      </trkpt>
      <trkpt lat="59.201377" lon="18.14177">
        <ele>28</ele>
        <time>2019-12-09T16:12:24Z</time>
      </trkpt>
      <trkpt lat="59.201414" lon="18.141799">
        <ele>29</ele>
        <time>2019-12-09T16:12:25Z</time>
      </trkpt>
      <trkpt lat="59.201456" lon="18.141831">
        <ele>29</ele>
        <time>2019-12-09T16:12:26Z</time>
      </trkpt>
      <trkpt lat="59.201493" lon="18.141855">
        <ele>29</ele>
        <time>2019-12-09T16:12:27Z</time>
      </trkpt>
      <trkpt lat="59.201528" lon="18.141873">
        <ele>29</ele>
        <time>2019-12-09T16:12:28Z</time>
      </trkpt>
      <trkpt lat="59.201566" lon="18.141892">
        <ele>29</ele>
        <time>2019-12-09T16:12:29Z</time>
      </trkpt>
      <trkpt lat="59.201606" lon="18.141911">
        <ele>30</ele>
        <time>2019-12-09T16:12:30Z</time>
      </trkpt>
      <trkpt lat="59.201647" lon="18.141936">
        <ele>30</ele>
        <time>2019-12-09T16:12:31Z</time>
      </trkpt>
      <trkpt lat="59.20169" lon="18.141959">
        <ele>30</ele>
        <time>2019-12-09T16:12:32Z</time>
      </trkpt>
      <trkpt lat="59.201733" lon="18.14198">
        <ele>30</ele>
        <time>2019-12-09T16:12:33Z</time>
      </trkpt>
      <trkpt lat="59.201775" lon="18.142002">
        <ele>30</ele>
        <time>2019-12-09T16:12:34Z</time>
      </trkpt>
      <trkpt lat="59.201816" lon="18.142026">
        <ele>30</ele>
        <time>2019-12-09T16:12:35Z</time>
      </trkpt>
      <trkpt lat="59.201857" lon="18.142049">
        <ele>31</ele>
        <time>2019-12-09T16:12:36Z</time>
      </trkpt>
      <trkpt lat="59.201898" lon="18.142071">
        <ele>31</ele>
        <time>2019-12-09T16:12:37Z</time>
      </trkpt>
      <trkpt lat="59.201939" lon="18.142093">
        <ele>31</ele>
        <time>2019-12-09T16:12:38Z</time>
      </trkpt>
      <trkpt lat="59.201982" lon="18.142116">
        <ele>31</ele>
        <time>2019-12-09T16:12:39Z</time>
      </trkpt>
      <trkpt lat="59.202024" lon="18.142137">
        <ele>31</ele>
        <time>2019-12-09T16:12:40Z</time>
      </trkpt>
      <trkpt lat="59.202066" lon="18.142156">
        <ele>31</ele>
        <time>2019-12-09T16:12:41Z</time>
      </trkpt>
      <trkpt lat="59.202109" lon="18.142175">
        <ele>31</ele>
        <time>2019-12-09T16:12:42Z</time>
      </trkpt>
      <trkpt lat="59.202151" lon="18.142193">
        <ele>31</ele>
        <time>2019-12-09T16:12:43Z</time>
      </trkpt>
      <trkpt lat="59.202194" lon="18.142212">
        <ele>31</ele>
        <time>2019-12-09T16:12:44Z</time>
      </trkpt>
      <trkpt lat="59.202237" lon="18.14223">
        <ele>31</ele>
        <time>2019-12-09T16:12:45Z</time>
      </trkpt>
      <trkpt lat="59.202279" lon="18.142245">
        <ele>32</ele>
        <time>2019-12-09T16:12:46Z</time>
      </trkpt>
      <trkpt lat="59.202319" lon="18.142257">
        <ele>32</ele>
        <time>2019-12-09T16:12:47Z</time>
      </trkpt>
      <trkpt lat="59.20236" lon="18.142267">
        <ele>32</ele>
        <time>2019-12-09T16:12:48Z</time>
      </trkpt>
      <trkpt lat="59.202402" lon="18.142275">
        <ele>32</ele>
        <time>2019-12-09T16:12:49Z</time>
      </trkpt>
      <trkpt lat="59.202443" lon="18.142275">
        <ele>32</ele>
        <time>2019-12-09T16:12:50Z</time>
      </trkpt>
      <trkpt lat="59.202484" lon="18.14227">
        <ele>32</ele>
        <time>2019-12-09T16:12:51Z</time>
      </trkpt>
      <trkpt lat="59.202525" lon="18.142262">
        <ele>32</ele>
        <time>2019-12-09T16:12:52Z</time>
      </trkpt>
      <trkpt lat="59.202565" lon="18.142253">
        <ele>32</ele>
        <time>2019-12-09T16:12:53Z</time>
      </trkpt>
      <trkpt lat="59.202604" lon="18.142245">
        <ele>33</ele>
        <time>2019-12-09T16:12:54Z</time>
      </trkpt>
      <trkpt lat="59.202642" lon="18.142239">
        <ele>33</ele>
        <time>2019-12-09T16:12:55Z</time>
      </trkpt>
      <trkpt lat="59.202678" lon="18.142235">
        <ele>33</ele>
        <time>2019-12-09T16:12:56Z</time>
      </trkpt>
      <trkpt lat="59.202717" lon="18.142231">
        <ele>33</ele>
        <time>2019-12-09T16:12:57Z</time>
      </trkpt>
      <trkpt lat="59.202758" lon="18.142232">
        <ele>33</ele>
        <time>2019-12-09T16:12:58Z</time>
      </trkpt>
      <trkpt lat="59.202797" lon="18.142238">
        <ele>33</ele>
        <time>2019-12-09T16:12:59Z</time>
      </trkpt>
      <trkpt lat="59.202837" lon="18.142243">
        <ele>33</ele>
        <time>2019-12-09T16:13:00Z</time>
      </trkpt>
      <trkpt lat="59.202879" lon="18.142246">
        <ele>33</ele>
        <time>2019-12-09T16:13:01Z</time>
      </trkpt>
      <trkpt lat="59.20292" lon="18.14225">
        <ele>33</ele>
        <time>2019-12-09T16:13:02Z</time>
      </trkpt>
      <trkpt lat="59.202962" lon="18.142255">
        <ele>33</ele>
        <time>2019-12-09T16:13:03Z</time>
      </trkpt>
      <trkpt lat="59.203004" lon="18.142262">
        <ele>34</ele>
        <time>2019-12-09T16:13:04Z</time>
      </trkpt>
      <trkpt lat="59.203049" lon="18.14227">
        <ele>34</ele>
        <time>2019-12-09T16:13:05Z</time>
      </trkpt>
      <trkpt lat="59.203094" lon="18.142277">
        <ele>34</ele>
        <time>2019-12-09T16:13:06Z</time>
      </trkpt>
      <trkpt lat="59.203138" lon="18.142284">
        <ele>33</ele>
        <time>2019-12-09T16:13:07Z</time>
      </trkpt>
      <trkpt lat="59.203183" lon="18.142292">
        <ele>34</ele>
        <time>2019-12-09T16:13:08Z</time>
      </trkpt>
      <trkpt lat="59.203225" lon="18.142298">
        <ele>34</ele>
        <time>2019-12-09T16:13:09Z</time>
      </trkpt>
      <trkpt lat="59.203267" lon="18.142303">
        <ele>33</ele>
        <time>2019-12-09T16:13:10Z</time>
      </trkpt>
      <trkpt lat="59.203309" lon="18.142308">
        <ele>34</ele>
        <time>2019-12-09T16:13:11Z</time>
      </trkpt>
      <trkpt lat="59.203347" lon="18.142313">
        <ele>34</ele>
        <time>2019-12-09T16:13:12Z</time>
      </trkpt>
      <trkpt lat="59.20338" lon="18.142316">
        <ele>34</ele>
        <time>2019-12-09T16:13:13Z</time>
      </trkpt>
      <trkpt lat="59.2034" lon="18.142318">
        <ele>34</ele>
        <time>2019-12-09T16:13:14Z</time>
      </trkpt>
      <trkpt lat="59.203408" lon="18.142318">
        <ele>0</ele>
        <time>2019-12-09T16:13:18Z</time>
      </trkpt>
      <trkpt lat="59.203443" lon="18.14232">
        <ele>34</ele>
        <time>2019-12-09T16:13:30Z</time>
      </trkpt>
      <trkpt lat="59.20347" lon="18.142318">
        <ele>34</ele>
        <time>2019-12-09T16:13:31Z</time>
      </trkpt>
      <trkpt lat="59.203501" lon="18.142314">
        <ele>34</ele>
        <time>2019-12-09T16:13:32Z</time>
      </trkpt>
      <trkpt lat="59.203538" lon="18.142312">
        <ele>34</ele>
        <time>2019-12-09T16:13:33Z</time>
      </trkpt>
      <trkpt lat="59.203581" lon="18.14231">
        <ele>34</ele>
        <time>2019-12-09T16:13:34Z</time>
      </trkpt>
      <trkpt lat="59.203627" lon="18.142303">
        <ele>34</ele>
        <time>2019-12-09T16:13:35Z</time>
      </trkpt>
      <trkpt lat="59.203677" lon="18.142292">
        <ele>34</ele>
        <time>2019-12-09T16:13:36Z</time>
      </trkpt>
      <trkpt lat="59.20373" lon="18.14228">
        <ele>34</ele>
        <time>2019-12-09T16:13:37Z</time>
      </trkpt>
      <trkpt lat="59.203784" lon="18.142266">
        <ele>34</ele>
        <time>2019-12-09T16:13:38Z</time>
      </trkpt>
      <trkpt lat="59.203839" lon="18.142251">
        <ele>34</ele>
        <time>2019-12-09T16:13:39Z</time>
      </trkpt>
      <trkpt lat="59.203896" lon="18.142232">
        <ele>34</ele>
        <time>2019-12-09T16:13:40Z</time>
      </trkpt>
      <trkpt lat="59.203954" lon="18.142215">
        <ele>34</ele>
        <time>2019-12-09T16:13:41Z</time>
      </trkpt>
      <trkpt lat="59.204009" lon="18.142196">
        <ele>34</ele>
        <time>2019-12-09T16:13:42Z</time>
      </trkpt>
      <trkpt lat="59.204065" lon="18.142175">
        <ele>34</ele>
        <time>2019-12-09T16:13:43Z</time>
      </trkpt>
      <trkpt lat="59.204121" lon="18.142155">
        <ele>34</ele>
        <time>2019-12-09T16:13:44Z</time>
      </trkpt>
      <trkpt lat="59.204178" lon="18.142135">
        <ele>34</ele>
        <time>2019-12-09T16:13:45Z</time>
      </trkpt>
      <trkpt lat="59.204234" lon="18.142114">
        <ele>34</ele>
        <time>2019-12-09T16:13:46Z</time>
      </trkpt>
      <trkpt lat="59.204288" lon="18.142092">
        <ele>34</ele>
        <time>2019-12-09T16:13:47Z</time>
      </trkpt>
      <trkpt lat="59.204342" lon="18.142071">
        <ele>34</ele>
        <time>2019-12-09T16:13:48Z</time>
      </trkpt>
      <trkpt lat="59.204395" lon="18.14205">
        <ele>35</ele>
        <time>2019-12-09T16:13:49Z</time>
      </trkpt>
      <trkpt lat="59.204446" lon="18.14203">
        <ele>35</ele>
        <time>2019-12-09T16:13:50Z</time>
      </trkpt>
      <trkpt lat="59.204496" lon="18.142009">
        <ele>35</ele>
        <time>2019-12-09T16:13:51Z</time>
      </trkpt>
      <trkpt lat="59.204544" lon="18.141988">
        <ele>35</ele>
        <time>2019-12-09T16:13:52Z</time>
      </trkpt>
      <trkpt lat="59.204591" lon="18.141964">
        <ele>35</ele>
        <time>2019-12-09T16:13:53Z</time>
      </trkpt>
      <trkpt lat="59.204639" lon="18.141938">
        <ele>35</ele>
        <time>2019-12-09T16:13:54Z</time>
      </trkpt>
      <trkpt lat="59.204687" lon="18.141912">
        <ele>35</ele>
        <time>2019-12-09T16:13:55Z</time>
      </trkpt>
      <trkpt lat="59.204737" lon="18.141886">
        <ele>35</ele>
        <time>2019-12-09T16:13:56Z</time>
      </trkpt>
      <trkpt lat="59.204784" lon="18.14186">
        <ele>35</ele>
        <time>2019-12-09T16:13:57Z</time>
      </trkpt>
      <trkpt lat="59.204831" lon="18.141834">
        <ele>35</ele>
        <time>2019-12-09T16:13:58Z</time>
      </trkpt>
      <trkpt lat="59.204876" lon="18.141804">
        <ele>36</ele>
        <time>2019-12-09T16:13:59Z</time>
      </trkpt>
      <trkpt lat="59.204923" lon="18.141768">
        <ele>36</ele>
        <time>2019-12-09T16:14:00Z</time>
      </trkpt>
      <trkpt lat="59.204973" lon="18.141731">
        <ele>36</ele>
        <time>2019-12-09T16:14:01Z</time>
      </trkpt>
      <trkpt lat="59.205024" lon="18.141694">
        <ele>36</ele>
        <time>2019-12-09T16:14:02Z</time>
      </trkpt>
      <trkpt lat="59.205076" lon="18.14166">
        <ele>36</ele>
        <time>2019-12-09T16:14:03Z</time>
      </trkpt>
      <trkpt lat="59.205127" lon="18.141626">
        <ele>36</ele>
        <time>2019-12-09T16:14:04Z</time>
      </trkpt>
      <trkpt lat="59.205177" lon="18.141592">
        <ele>36</ele>
        <time>2019-12-09T16:14:05Z</time>
      </trkpt>
      <trkpt lat="59.205226" lon="18.141556">
        <ele>37</ele>
        <time>2019-12-09T16:14:06Z</time>
      </trkpt>
      <trkpt lat="59.205274" lon="18.141518">
        <ele>37</ele>
        <time>2019-12-09T16:14:07Z</time>
      </trkpt>
      <trkpt lat="59.205319" lon="18.141481">
        <ele>37</ele>
        <time>2019-12-09T16:14:08Z</time>
      </trkpt>
      <trkpt lat="59.205364" lon="18.141443">
        <ele>37</ele>
        <time>2019-12-09T16:14:09Z</time>
      </trkpt>
      <trkpt lat="59.205408" lon="18.141408">
        <ele>37</ele>
        <time>2019-12-09T16:14:10Z</time>
      </trkpt>
      <trkpt lat="59.20545" lon="18.14137">
        <ele>37</ele>
        <time>2019-12-09T16:14:11Z</time>
      </trkpt>
      <trkpt lat="59.205494" lon="18.141333">
        <ele>37</ele>
        <time>2019-12-09T16:14:12Z</time>
      </trkpt>
      <trkpt lat="59.20554" lon="18.141294">
        <ele>37</ele>
        <time>2019-12-09T16:14:13Z</time>
      </trkpt>
      <trkpt lat="59.205583" lon="18.141253">
        <ele>37</ele>
        <time>2019-12-09T16:14:14Z</time>
      </trkpt>
      <trkpt lat="59.205626" lon="18.141212">
        <ele>37</ele>
        <time>2019-12-09T16:14:15Z</time>
      </trkpt>
      <trkpt lat="59.205673" lon="18.14117">
        <ele>37</ele>
        <time>2019-12-09T16:14:16Z</time>
      </trkpt>
      <trkpt lat="59.20572" lon="18.14113">
        <ele>37</ele>
        <time>2019-12-09T16:14:17Z</time>
      </trkpt>
      <trkpt lat="59.205768" lon="18.141088">
        <ele>37</ele>
        <time>2019-12-09T16:14:18Z</time>
      </trkpt>
      <trkpt lat="59.205814" lon="18.141048">
        <ele>37</ele>
        <time>2019-12-09T16:14:19Z</time>
      </trkpt>
      <trkpt lat="59.205864" lon="18.141008">
        <ele>37</ele>
        <time>2019-12-09T16:14:20Z</time>
      </trkpt>
      <trkpt lat="59.205912" lon="18.140972">
        <ele>37</ele>
        <time>2019-12-09T16:14:21Z</time>
      </trkpt>
      <trkpt lat="59.205962" lon="18.14094">
        <ele>37</ele>
        <time>2019-12-09T16:14:22Z</time>
      </trkpt>
      <trkpt lat="59.206014" lon="18.140911">
        <ele>37</ele>
        <time>2019-12-09T16:14:23Z</time>
      </trkpt>
      <trkpt lat="59.206064" lon="18.140888">
        <ele>37</ele>
        <time>2019-12-09T16:14:24Z</time>
      </trkpt>
      <trkpt lat="59.206118" lon="18.140868">
        <ele>37</ele>
        <time>2019-12-09T16:14:25Z</time>
      </trkpt>
      <trkpt lat="59.206166" lon="18.140832">
        <ele>38</ele>
        <time>2019-12-09T16:14:26Z</time>
      </trkpt>
      <trkpt lat="59.206211" lon="18.140782">
        <ele>38</ele>
        <time>2019-12-09T16:14:27Z</time>
      </trkpt>
      <trkpt lat="59.206247" lon="18.140712">
        <ele>38</ele>
        <time>2019-12-09T16:14:28Z</time>
      </trkpt>
      <trkpt lat="59.206274" lon="18.140631">
        <ele>38</ele>
        <time>2019-12-09T16:14:29Z</time>
      </trkpt>
      <trkpt lat="59.206303" lon="18.140552">
        <ele>38</ele>
        <time>2019-12-09T16:14:30Z</time>
      </trkpt>
      <trkpt lat="59.206338" lon="18.140486">
        <ele>38</ele>
        <time>2019-12-09T16:14:31Z</time>
      </trkpt>
      <trkpt lat="59.206376" lon="18.140436">
        <ele>38</ele>
        <time>2019-12-09T16:14:32Z</time>
      </trkpt>
      <trkpt lat="59.206418" lon="18.140397">
        <ele>39</ele>
        <time>2019-12-09T16:14:33Z</time>
      </trkpt>
      <trkpt lat="59.206461" lon="18.14037">
        <ele>39</ele>
        <time>2019-12-09T16:14:34Z</time>
      </trkpt>
      <trkpt lat="59.206506" lon="18.140356">
        <ele>39</ele>
        <time>2019-12-09T16:14:35Z</time>
      </trkpt>
      <trkpt lat="59.20655" lon="18.140351">
        <ele>39</ele>
        <time>2019-12-09T16:14:36Z</time>
      </trkpt>
      <trkpt lat="59.206598" lon="18.140348">
        <ele>39</ele>
        <time>2019-12-09T16:14:37Z</time>
      </trkpt>
      <trkpt lat="59.206646" lon="18.140348">
        <ele>39</ele>
        <time>2019-12-09T16:14:38Z</time>
      </trkpt>
      <trkpt lat="59.206692" lon="18.14035">
        <ele>39</ele>
        <time>2019-12-09T16:14:39Z</time>
      </trkpt>
      <trkpt lat="59.20674" lon="18.140352">
        <ele>39</ele>
        <time>2019-12-09T16:14:40Z</time>
      </trkpt>
      <trkpt lat="59.206788" lon="18.140358">
        <ele>39</ele>
        <time>2019-12-09T16:14:41Z</time>
      </trkpt>
      <trkpt lat="59.206835" lon="18.140368">
        <ele>39</ele>
        <time>2019-12-09T16:14:42Z</time>
      </trkpt>
      <trkpt lat="59.206881" lon="18.140376">
        <ele>40</ele>
        <time>2019-12-09T16:14:43Z</time>
      </trkpt>
      <trkpt lat="59.206926" lon="18.140386">
        <ele>40</ele>
        <time>2019-12-09T16:14:44Z</time>
      </trkpt>
      <trkpt lat="59.206972" lon="18.140398">
        <ele>0</ele>
        <time>2019-12-09T16:14:44Z</time>
      </trkpt>
      <trkpt lat="59.207018" lon="18.14041">
        <ele>40</ele>
        <time>2019-12-09T16:14:45Z</time>
      </trkpt>
      <trkpt lat="59.207061" lon="18.140422">
        <ele>40</ele>
        <time>2019-12-09T16:14:47Z</time>
      </trkpt>
      <trkpt lat="59.207101" lon="18.140432">
        <ele>40</ele>
        <time>2019-12-09T16:14:48Z</time>
      </trkpt>
      <trkpt lat="59.207136" lon="18.140438">
        <ele>41</ele>
        <time>2019-12-09T16:14:49Z</time>
      </trkpt>
      <trkpt lat="59.207171" lon="18.140444">
        <ele>41</ele>
        <time>2019-12-09T16:14:50Z</time>
      </trkpt>
      <trkpt lat="59.207203" lon="18.140447">
        <ele>41</ele>
        <time>2019-12-09T16:14:51Z</time>
      </trkpt>
      <trkpt lat="59.207238" lon="18.140456">
        <ele>41</ele>
        <time>2019-12-09T16:14:52Z</time>
      </trkpt>
      <trkpt lat="59.207277" lon="18.14047">
        <ele>42</ele>
        <time>2019-12-09T16:14:53Z</time>
      </trkpt>
      <trkpt lat="59.207313" lon="18.140484">
        <ele>42</ele>
        <time>2019-12-09T16:14:54Z</time>
      </trkpt>
      <trkpt lat="59.207356" lon="18.140506">
        <ele>42</ele>
        <time>2019-12-09T16:14:55Z</time>
      </trkpt>
      <trkpt lat="59.207403" lon="18.140534">
        <ele>42</ele>
        <time>2019-12-09T16:14:56Z</time>
      </trkpt>
      <trkpt lat="59.207452" lon="18.140568">
        <ele>42</ele>
        <time>2019-12-09T16:14:57Z</time>
      </trkpt>
      <trkpt lat="59.207503" lon="18.140605">
        <ele>42</ele>
        <time>2019-12-09T16:14:58Z</time>
      </trkpt>
      <trkpt lat="59.207564" lon="18.140658">
        <ele>42</ele>
        <time>2019-12-09T16:14:59Z</time>
      </trkpt>
      <trkpt lat="59.207619" lon="18.140706">
        <ele>42</ele>
        <time>2019-12-09T16:15:00Z</time>
      </trkpt>
      <trkpt lat="59.207669" lon="18.140746">
        <ele>42</ele>
        <time>2019-12-09T16:15:01Z</time>
      </trkpt>
      <trkpt lat="59.207707" lon="18.140783">
        <ele>43</ele>
        <time>2019-12-09T16:15:02Z</time>
      </trkpt>
      <trkpt lat="59.207744" lon="18.140822">
        <ele>43</ele>
        <time>2019-12-09T16:15:03Z</time>
      </trkpt>
      <trkpt lat="59.207781" lon="18.140859">
        <ele>43</ele>
        <time>2019-12-09T16:15:04Z</time>
      </trkpt>
      <trkpt lat="59.207819" lon="18.140901">
        <ele>44</ele>
        <time>2019-12-09T16:15:05Z</time>
      </trkpt>
      <trkpt lat="59.207852" lon="18.140937">
        <ele>44</ele>
        <time>2019-12-09T16:15:06Z</time>
      </trkpt>
      <trkpt lat="59.207882" lon="18.140971">
        <ele>45</ele>
        <time>2019-12-09T16:15:07Z</time>
      </trkpt>
      <trkpt lat="59.207913" lon="18.141005">
        <ele>45</ele>
        <time>2019-12-09T16:15:08Z</time>
      </trkpt>
      <trkpt lat="59.20795" lon="18.141044">
        <ele>45</ele>
        <time>2019-12-09T16:15:09Z</time>
      </trkpt>
      <trkpt lat="59.207985" lon="18.141093">
        <ele>45</ele>
        <time>2019-12-09T16:15:10Z</time>
      </trkpt>
      <trkpt lat="59.208018" lon="18.141135">
        <ele>46</ele>
        <time>2019-12-09T16:15:11Z</time>
      </trkpt>
      <trkpt lat="59.20805" lon="18.14118">
        <ele>46</ele>
        <time>2019-12-09T16:15:12Z</time>
      </trkpt>
      <trkpt lat="59.208081" lon="18.14122">
        <ele>46</ele>
        <time>2019-12-09T16:15:13Z</time>
      </trkpt>
      <trkpt lat="59.208112" lon="18.14126">
        <ele>46</ele>
        <time>2019-12-09T16:15:14Z</time>
      </trkpt>
      <trkpt lat="59.208141" lon="18.141304">
        <ele>46</ele>
        <time>2019-12-09T16:15:15Z</time>
      </trkpt>
      <trkpt lat="59.208173" lon="18.141351">
        <ele>46</ele>
        <time>2019-12-09T16:15:16Z</time>
      </trkpt>
      <trkpt lat="59.208204" lon="18.141396">
        <ele>47</ele>
        <time>2019-12-09T16:15:17Z</time>
      </trkpt>
      <trkpt lat="59.208236" lon="18.141443">
        <ele>47</ele>
        <time>2019-12-09T16:15:18Z</time>
      </trkpt>
      <trkpt lat="59.208275" lon="18.141503">
        <ele>48</ele>
        <time>2019-12-09T16:15:19Z</time>
      </trkpt>
      <trkpt lat="59.208311" lon="18.141559">
        <ele>48</ele>
        <time>2019-12-09T16:15:20Z</time>
      </trkpt>
      <trkpt lat="59.208347" lon="18.141618">
        <ele>48</ele>
        <time>2019-12-09T16:15:21Z</time>
      </trkpt>
      <trkpt lat="59.20838" lon="18.141677">
        <ele>48</ele>
        <time>2019-12-09T16:15:22Z</time>
      </trkpt>
      <trkpt lat="59.208413" lon="18.141734">
        <ele>49</ele>
        <time>2019-12-09T16:15:23Z</time>
      </trkpt>
      <trkpt lat="59.208446" lon="18.141793">
        <ele>49</ele>
        <time>2019-12-09T16:15:24Z</time>
      </trkpt>
      <trkpt lat="59.208478" lon="18.141853">
        <ele>49</ele>
        <time>2019-12-09T16:15:25Z</time>
      </trkpt>
      <trkpt lat="59.208509" lon="18.14191">
        <ele>49</ele>
        <time>2019-12-09T16:15:26Z</time>
      </trkpt>
      <trkpt lat="59.208537" lon="18.141963">
        <ele>49</ele>
        <time>2019-12-09T16:15:27Z</time>
      </trkpt>
      <trkpt lat="59.208565" lon="18.142021">
        <ele>50</ele>
        <time>2019-12-09T16:15:28Z</time>
      </trkpt>
      <trkpt lat="59.208592" lon="18.142083">
        <ele>50</ele>
        <time>2019-12-09T16:15:29Z</time>
      </trkpt>
      <trkpt lat="59.208621" lon="18.142145">
        <ele>50</ele>
        <time>2019-12-09T16:15:30Z</time>
      </trkpt>
      <trkpt lat="59.208649" lon="18.142208">
        <ele>50</ele>
        <time>2019-12-09T16:15:31Z</time>
      </trkpt>
      <trkpt lat="59.208677" lon="18.142274">
        <ele>50</ele>
        <time>2019-12-09T16:15:32Z</time>
      </trkpt>
      <trkpt lat="59.208702" lon="18.142338">
        <ele>50</ele>
        <time>2019-12-09T16:15:33Z</time>
      </trkpt>
      <trkpt lat="59.208728" lon="18.142405">
        <ele>50</ele>
        <time>2019-12-09T16:15:34Z</time>
      </trkpt>
      <trkpt lat="59.208756" lon="18.142475">
        <ele>51</ele>
        <time>2019-12-09T16:15:35Z</time>
      </trkpt>
      <trkpt lat="59.208783" lon="18.142545">
        <ele>51</ele>
        <time>2019-12-09T16:15:36Z</time>
      </trkpt>
      <trkpt lat="59.208811" lon="18.142614">
        <ele>51</ele>
        <time>2019-12-09T16:15:37Z</time>
      </trkpt>
      <trkpt lat="59.208841" lon="18.142689">
        <ele>51</ele>
        <time>2019-12-09T16:15:38Z</time>
      </trkpt>
      <trkpt lat="59.208871" lon="18.142766">
        <ele>51</ele>
        <time>2019-12-09T16:15:39Z</time>
      </trkpt>
      <trkpt lat="59.208903" lon="18.142844">
        <ele>51</ele>
        <time>2019-12-09T16:15:40Z</time>
      </trkpt>
      <trkpt lat="59.208936" lon="18.142923">
        <ele>51</ele>
        <time>2019-12-09T16:15:41Z</time>
      </trkpt>
      <trkpt lat="59.208966" lon="18.143001">
        <ele>0</ele>
        <time>2019-12-09T16:15:41Z</time>
      </trkpt>
      <trkpt lat="59.208998" lon="18.143082">
        <ele>51</ele>
        <time>2019-12-09T16:15:42Z</time>
      </trkpt>
      <trkpt lat="59.20903" lon="18.143166">
        <ele>51</ele>
        <time>2019-12-09T16:15:44Z</time>
      </trkpt>
      <trkpt lat="59.209064" lon="18.143252">
        <ele>51</ele>
        <time>2019-12-09T16:15:45Z</time>
      </trkpt>
      <trkpt lat="59.209101" lon="18.14334">
        <ele>51</ele>
        <time>2019-12-09T16:15:46Z</time>
      </trkpt>
      <trkpt lat="59.20914" lon="18.14343">
        <ele>51</ele>
        <time>2019-12-09T16:15:47Z</time>
      </trkpt>
      <trkpt lat="59.209177" lon="18.14352">
        <ele>51</ele>
        <time>2019-12-09T16:15:48Z</time>
      </trkpt>
      <trkpt lat="59.209213" lon="18.143608">
        <ele>51</ele>
        <time>2019-12-09T16:15:49Z</time>
      </trkpt>
      <trkpt lat="59.209248" lon="18.143697">
        <ele>52</ele>
        <time>2019-12-09T16:15:50Z</time>
      </trkpt>
      <trkpt lat="59.209285" lon="18.143788">
        <ele>52</ele>
        <time>2019-12-09T16:15:51Z</time>
      </trkpt>
      <trkpt lat="59.209321" lon="18.143875">
        <ele>51</ele>
        <time>2019-12-09T16:15:52Z</time>
      </trkpt>
      <trkpt lat="59.209357" lon="18.143963">
        <ele>52</ele>
        <time>2019-12-09T16:15:53Z</time>
      </trkpt>
      <trkpt lat="59.209393" lon="18.144053">
        <ele>52</ele>
        <time>2019-12-09T16:15:54Z</time>
      </trkpt>
      <trkpt lat="59.209428" lon="18.144142">
        <ele>52</ele>
        <time>2019-12-09T16:15:55Z</time>
      </trkpt>
      <trkpt lat="59.209459" lon="18.144234">
        <ele>51</ele>
        <time>2019-12-09T16:15:56Z</time>
      </trkpt>
      <trkpt lat="59.209483" lon="18.144333">
        <ele>51</ele>
        <time>2019-12-09T16:15:57Z</time>
      </trkpt>
      <trkpt lat="59.209504" lon="18.144438">
        <ele>51</ele>
        <time>2019-12-09T16:15:58Z</time>
      </trkpt>
      <trkpt lat="59.209515" lon="18.14454">
        <ele>51</ele>
        <time>2019-12-09T16:15:59Z</time>
      </trkpt>
      <trkpt lat="59.209515" lon="18.144634">
        <ele>51</ele>
        <time>2019-12-09T16:16:00Z</time>
      </trkpt>
      <trkpt lat="59.20953" lon="18.144716">
        <ele>51</ele>
        <time>2019-12-09T16:16:01Z</time>
      </trkpt>
      <trkpt lat="59.209559" lon="18.144789">
        <ele>51</ele>
        <time>2019-12-09T16:16:02Z</time>
      </trkpt>
      <trkpt lat="59.209597" lon="18.144856">
        <ele>51</ele>
        <time>2019-12-09T16:16:03Z</time>
      </trkpt>
      <trkpt lat="59.209641" lon="18.144904">
        <ele>51</ele>
        <time>2019-12-09T16:16:04Z</time>
      </trkpt>
      <trkpt lat="59.209687" lon="18.14494">
        <ele>51</ele>
        <time>2019-12-09T16:16:05Z</time>
      </trkpt>
      <trkpt lat="59.209733" lon="18.144986">
        <ele>51</ele>
        <time>2019-12-09T16:16:06Z</time>
      </trkpt>
      <trkpt lat="59.209778" lon="18.14504">
        <ele>51</ele>
        <time>2019-12-09T16:16:07Z</time>
      </trkpt>
      <trkpt lat="59.209822" lon="18.145108">
        <ele>51</ele>
        <time>2019-12-09T16:16:08Z</time>
      </trkpt>
      <trkpt lat="59.209863" lon="18.145188">
        <ele>51</ele>
        <time>2019-12-09T16:16:09Z</time>
      </trkpt>
      <trkpt lat="59.209902" lon="18.145279">
        <ele>51</ele>
        <time>2019-12-09T16:16:10Z</time>
      </trkpt>
      <trkpt lat="59.209938" lon="18.145376">
        <ele>51</ele>
        <time>2019-12-09T16:16:11Z</time>
      </trkpt>
      <trkpt lat="59.209974" lon="18.145474">
        <ele>51</ele>
        <time>2019-12-09T16:16:12Z</time>
      </trkpt>
      <trkpt lat="59.210008" lon="18.145573">
        <ele>51</ele>
        <time>2019-12-09T16:16:13Z</time>
      </trkpt>
      <trkpt lat="59.210049" lon="18.14567">
        <ele>51</ele>
        <time>2019-12-09T16:16:14Z</time>
      </trkpt>
      <trkpt lat="59.210097" lon="18.145758">
        <ele>51</ele>
        <time>2019-12-09T16:16:15Z</time>
      </trkpt>
      <trkpt lat="59.210152" lon="18.145835">
        <ele>51</ele>
        <time>2019-12-09T16:16:16Z</time>
      </trkpt>
      <trkpt lat="59.210214" lon="18.145896">
        <ele>51</ele>
        <time>2019-12-09T16:16:17Z</time>
      </trkpt>
      <trkpt lat="59.210282" lon="18.145952">
        <ele>51</ele>
        <time>2019-12-09T16:16:18Z</time>
      </trkpt>
      <trkpt lat="59.210351" lon="18.146014">
        <ele>50</ele>
        <time>2019-12-09T16:16:19Z</time>
      </trkpt>
      <trkpt lat="59.210419" lon="18.146087">
        <ele>50</ele>
        <time>2019-12-09T16:16:20Z</time>
      </trkpt>
      <trkpt lat="59.210488" lon="18.146165">
        <ele>50</ele>
        <time>2019-12-09T16:16:21Z</time>
      </trkpt>
      <trkpt lat="59.21056" lon="18.146248">
        <ele>50</ele>
        <time>2019-12-09T16:16:22Z</time>
      </trkpt>
      <trkpt lat="59.210635" lon="18.146332">
        <ele>49</ele>
        <time>2019-12-09T16:16:23Z</time>
      </trkpt>
      <trkpt lat="59.210712" lon="18.146417">
        <ele>48</ele>
        <time>2019-12-09T16:16:24Z</time>
      </trkpt>
      <trkpt lat="59.210788" lon="18.146498">
        <ele>48</ele>
        <time>2019-12-09T16:16:25Z</time>
      </trkpt>
      <trkpt lat="59.210869" lon="18.146577">
        <ele>47</ele>
        <time>2019-12-09T16:16:26Z</time>
      </trkpt>
      <trkpt lat="59.210952" lon="18.146653">
        <ele>47</ele>
        <time>2019-12-09T16:16:27Z</time>
      </trkpt>
      <trkpt lat="59.211037" lon="18.146728">
        <ele>47</ele>
        <time>2019-12-09T16:16:28Z</time>
      </trkpt>
      <trkpt lat="59.211124" lon="18.1468">
        <ele>47</ele>
        <time>2019-12-09T16:16:29Z</time>
      </trkpt>
      <trkpt lat="59.211214" lon="18.146865">
        <ele>46</ele>
        <time>2019-12-09T16:16:30Z</time>
      </trkpt>
      <trkpt lat="59.211305" lon="18.146923">
        <ele>46</ele>
        <time>2019-12-09T16:16:31Z</time>
      </trkpt>
      <trkpt lat="59.211394" lon="18.146971">
        <ele>46</ele>
        <time>2019-12-09T16:16:32Z</time>
      </trkpt>
      <trkpt lat="59.211483" lon="18.147011">
        <ele>46</ele>
        <time>2019-12-09T16:16:33Z</time>
      </trkpt>
      <trkpt lat="59.211571" lon="18.147044">
        <ele>46</ele>
        <time>2019-12-09T16:16:34Z</time>
      </trkpt>
      <trkpt lat="59.211653" lon="18.147068">
        <ele>46</ele>
        <time>2019-12-09T16:16:35Z</time>
      </trkpt>
      <trkpt lat="59.211736" lon="18.147083">
        <ele>46</ele>
        <time>2019-12-09T16:16:36Z</time>
      </trkpt>
      <trkpt lat="59.211815" lon="18.147081">
        <ele>45</ele>
        <time>2019-12-09T16:16:37Z</time>
      </trkpt>
      <trkpt lat="59.211904" lon="18.147081">
        <ele>45</ele>
        <time>2019-12-09T16:16:38Z</time>
      </trkpt>
      <trkpt lat="59.212012" lon="18.147101">
        <ele>0</ele>
        <time>2019-12-09T16:16:38Z</time>
      </trkpt>
      <trkpt lat="59.212123" lon="18.147123">
        <ele>44</ele>
        <time>2019-12-09T16:16:39Z</time>
      </trkpt>
      <trkpt lat="59.212234" lon="18.14714">
        <ele>44</ele>
        <time>2019-12-09T16:16:41Z</time>
      </trkpt>
      <trkpt lat="59.212344" lon="18.147146">
        <ele>43</ele>
        <time>2019-12-09T16:16:42Z</time>
      </trkpt>
      <trkpt lat="59.212458" lon="18.147147">
        <ele>42</ele>
        <time>2019-12-09T16:16:43Z</time>
      </trkpt>
      <trkpt lat="59.212569" lon="18.147139">
        <ele>41</ele>
        <time>2019-12-09T16:16:44Z</time>
      </trkpt>
      <trkpt lat="59.212681" lon="18.147124">
        <ele>40</ele>
        <time>2019-12-09T16:16:45Z</time>
      </trkpt>
      <trkpt lat="59.212793" lon="18.147105">
        <ele>40</ele>
        <time>2019-12-09T16:16:46Z</time>
      </trkpt>
      <trkpt lat="59.212905" lon="18.147081">
        <ele>39</ele>
        <time>2019-12-09T16:16:47Z</time>
      </trkpt>
      <trkpt lat="59.213013" lon="18.147052">
        <ele>39</ele>
        <time>2019-12-09T16:16:48Z</time>
      </trkpt>
      <trkpt lat="59.213117" lon="18.147015">
        <ele>39</ele>
        <time>2019-12-09T16:16:49Z</time>
      </trkpt>
      <trkpt lat="59.213214" lon="18.146974">
        <ele>39</ele>
        <time>2019-12-09T16:16:50Z</time>
      </trkpt>
      <trkpt lat="59.213301" lon="18.146935">
        <ele>38</ele>
        <time>2019-12-09T16:16:51Z</time>
      </trkpt>
      <trkpt lat="59.213369" lon="18.146899">
        <ele>39</ele>
        <time>2019-12-09T16:16:52Z</time>
      </trkpt>
      <trkpt lat="59.213415" lon="18.146873">
        <ele>39</ele>
        <time>2019-12-09T16:16:53Z</time>
      </trkpt>
      <trkpt lat="59.213444" lon="18.146862">
        <ele>38</ele>
        <time>2019-12-09T16:16:54Z</time>
      </trkpt>
      <trkpt lat="59.213469" lon="18.146857">
        <ele>38</ele>
        <time>2019-12-09T16:16:55Z</time>
      </trkpt>
      <trkpt lat="59.213498" lon="18.14684">
        <ele>36</ele>
        <time>2019-12-09T16:16:56Z</time>
      </trkpt>
      <trkpt lat="59.213524" lon="18.146806">
        <ele>36</ele>
        <time>2019-12-09T16:16:57Z</time>
      </trkpt>
      <trkpt lat="59.213554" lon="18.146757">
        <ele>0</ele>
        <time>2019-12-09T16:16:57Z</time>
      </trkpt>
      <trkpt lat="59.213591" lon="18.146705">
        <ele>35</ele>
        <time>2019-12-09T16:16:58Z</time>
      </trkpt>
      <trkpt lat="59.213636" lon="18.146657">
        <ele>34</ele>
        <time>2019-12-09T16:17:00Z</time>
      </trkpt>
      <trkpt lat="59.213686" lon="18.146606">
        <ele>33</ele>
        <time>2019-12-09T16:17:01Z</time>
      </trkpt>
      <trkpt lat="59.213739" lon="18.14655">
        <ele>33</ele>
        <time>2019-12-09T16:17:02Z</time>
      </trkpt>
      <trkpt lat="59.213796" lon="18.14649">
        <ele>33</ele>
        <time>2019-12-09T16:17:03Z</time>
      </trkpt>
      <trkpt lat="59.213853" lon="18.146425">
        <ele>33</ele>
        <time>2019-12-09T16:17:04Z</time>
      </trkpt>
      <trkpt lat="59.213912" lon="18.146356">
        <ele>33</ele>
        <time>2019-12-09T16:17:05Z</time>
      </trkpt>
      <trkpt lat="59.213971" lon="18.146278">
        <ele>33</ele>
        <time>2019-12-09T16:17:06Z</time>
      </trkpt>
      <trkpt lat="59.214032" lon="18.146196">
        <ele>33</ele>
        <time>2019-12-09T16:17:07Z</time>
      </trkpt>
      <trkpt lat="59.214095" lon="18.146119">
        <ele>33</ele>
        <time>2019-12-09T16:17:08Z</time>
      </trkpt>
      <trkpt lat="59.21416" lon="18.146041">
        <ele>33</ele>
        <time>2019-12-09T16:17:09Z</time>
      </trkpt>
      <trkpt lat="59.214227" lon="18.14596">
        <ele>32</ele>
        <time>2019-12-09T16:17:10Z</time>
      </trkpt>
      <trkpt lat="59.214296" lon="18.145882">
        <ele>32</ele>
        <time>2019-12-09T16:17:11Z</time>
      </trkpt>
      <trkpt lat="59.214365" lon="18.145801">
        <ele>32</ele>
        <time>2019-12-09T16:17:12Z</time>
      </trkpt>
      <trkpt lat="59.214435" lon="18.145712">
        <ele>32</ele>
        <time>2019-12-09T16:17:13Z</time>
      </trkpt>
      <trkpt lat="59.214506" lon="18.145626">
        <ele>31</ele>
        <time>2019-12-09T16:17:14Z</time>
      </trkpt>
      <trkpt lat="59.214578" lon="18.145543">
        <ele>31</ele>
        <time>2019-12-09T16:17:15Z</time>
      </trkpt>
      <trkpt lat="59.214649" lon="18.145457">
        <ele>31</ele>
        <time>2019-12-09T16:17:16Z</time>
      </trkpt>
      <trkpt lat="59.214721" lon="18.14537">
        <ele>31</ele>
        <time>2019-12-09T16:17:17Z</time>
      </trkpt>
      <trkpt lat="59.214792" lon="18.145282">
        <ele>31</ele>
        <time>2019-12-09T16:17:18Z</time>
      </trkpt>
      <trkpt lat="59.214863" lon="18.145192">
        <ele>31</ele>
        <time>2019-12-09T16:17:19Z</time>
      </trkpt>
      <trkpt lat="59.214934" lon="18.145104">
        <ele>30</ele>
        <time>2019-12-09T16:17:20Z</time>
      </trkpt>
      <trkpt lat="59.215005" lon="18.145018">
        <ele>30</ele>
        <time>2019-12-09T16:17:21Z</time>
      </trkpt>
      <trkpt lat="59.215077" lon="18.144932">
        <ele>30</ele>
        <time>2019-12-09T16:17:22Z</time>
      </trkpt>
      <trkpt lat="59.21515" lon="18.14485">
        <ele>30</ele>
        <time>2019-12-09T16:17:23Z</time>
      </trkpt>
      <trkpt lat="59.215223" lon="18.144765">
        <ele>29</ele>
        <time>2019-12-09T16:17:24Z</time>
      </trkpt>
      <trkpt lat="59.215297" lon="18.144681">
        <ele>28</ele>
        <time>2019-12-09T16:17:25Z</time>
      </trkpt>
      <trkpt lat="59.215373" lon="18.144594">
        <ele>28</ele>
        <time>2019-12-09T16:17:26Z</time>
      </trkpt>
      <trkpt lat="59.215447" lon="18.144506">
        <ele>28</ele>
        <time>2019-12-09T16:17:27Z</time>
      </trkpt>
      <trkpt lat="59.215521" lon="18.144416">
        <ele>28</ele>
        <time>2019-12-09T16:17:28Z</time>
      </trkpt>
      <trkpt lat="59.215594" lon="18.144329">
        <ele>27</ele>
        <time>2019-12-09T16:17:29Z</time>
      </trkpt>
      <trkpt lat="59.215665" lon="18.144242">
        <ele>27</ele>
        <time>2019-12-09T16:17:30Z</time>
      </trkpt>
      <trkpt lat="59.215737" lon="18.14416">
        <ele>27</ele>
        <time>2019-12-09T16:17:31Z</time>
      </trkpt>
      <trkpt lat="59.21581" lon="18.144083">
        <ele>27</ele>
        <time>2019-12-09T16:17:32Z</time>
      </trkpt>
      <trkpt lat="59.215881" lon="18.144001">
        <ele>27</ele>
        <time>2019-12-09T16:17:33Z</time>
      </trkpt>
      <trkpt lat="59.215952" lon="18.143913">
        <ele>27</ele>
        <time>2019-12-09T16:17:34Z</time>
      </trkpt>
      <trkpt lat="59.216023" lon="18.143827">
        <ele>27</ele>
        <time>2019-12-09T16:17:35Z</time>
      </trkpt>
      <trkpt lat="59.216093" lon="18.143741">
        <ele>0</ele>
        <time>2019-12-09T16:17:35Z</time>
      </trkpt>
      <trkpt lat="59.216163" lon="18.143655">
        <ele>26</ele>
        <time>2019-12-09T16:17:36Z</time>
      </trkpt>
      <trkpt lat="59.216234" lon="18.14357">
        <ele>26</ele>
        <time>2019-12-09T16:17:38Z</time>
      </trkpt>
      <trkpt lat="59.216305" lon="18.143486">
        <ele>25</ele>
        <time>2019-12-09T16:17:39Z</time>
      </trkpt>
      <trkpt lat="59.216378" lon="18.143406">
        <ele>25</ele>
        <time>2019-12-09T16:17:40Z</time>
      </trkpt>
      <trkpt lat="59.216452" lon="18.143325">
        <ele>25</ele>
        <time>2019-12-09T16:17:41Z</time>
      </trkpt>
      <trkpt lat="59.216523" lon="18.143244">
        <ele>24</ele>
        <time>2019-12-09T16:17:42Z</time>
      </trkpt>
      <trkpt lat="59.216594" lon="18.143164">
        <ele>24</ele>
        <time>2019-12-09T16:17:43Z</time>
      </trkpt>
      <trkpt lat="59.216665" lon="18.143084">
        <ele>24</ele>
        <time>2019-12-09T16:17:44Z</time>
      </trkpt>
      <trkpt lat="59.216734" lon="18.143005">
        <ele>24</ele>
        <time>2019-12-09T16:17:45Z</time>
      </trkpt>
      <trkpt lat="59.216801" lon="18.142928">
        <ele>23</ele>
        <time>2019-12-09T16:17:46Z</time>
      </trkpt>
      <trkpt lat="59.216867" lon="18.142855">
        <ele>23</ele>
        <time>2019-12-09T16:17:47Z</time>
      </trkpt>
      <trkpt lat="59.216931" lon="18.142783">
        <ele>23</ele>
        <time>2019-12-09T16:17:48Z</time>
      </trkpt>
      <trkpt lat="59.216992" lon="18.142712">
        <ele>23</ele>
        <time>2019-12-09T16:17:49Z</time>
      </trkpt>
      <trkpt lat="59.217054" lon="18.142642">
        <ele>23</ele>
        <time>2019-12-09T16:17:50Z</time>
      </trkpt>
      <trkpt lat="59.217115" lon="18.142574">
        <ele>23</ele>
        <time>2019-12-09T16:17:51Z</time>
      </trkpt>
      <trkpt lat="59.217175" lon="18.142506">
        <ele>23</ele>
        <time>2019-12-09T16:17:52Z</time>
      </trkpt>
      <trkpt lat="59.217235" lon="18.142438">
        <ele>23</ele>
        <time>2019-12-09T16:17:53Z</time>
      </trkpt>
      <trkpt lat="59.217295" lon="18.14237">
        <ele>23</ele>
        <time>2019-12-09T16:17:54Z</time>
      </trkpt>
      <trkpt lat="59.217355" lon="18.142302">
        <ele>23</ele>
        <time>2019-12-09T16:17:55Z</time>
      </trkpt>
      <trkpt lat="59.217416" lon="18.142236">
        <ele>23</ele>
        <time>2019-12-09T16:17:56Z</time>
      </trkpt>
      <trkpt lat="59.217477" lon="18.142169">
        <ele>23</ele>
        <time>2019-12-09T16:17:57Z</time>
      </trkpt>
      <trkpt lat="59.217537" lon="18.142101">
        <ele>23</ele>
        <time>2019-12-09T16:17:58Z</time>
      </trkpt>
      <trkpt lat="59.217596" lon="18.142034">
        <ele>23</ele>
        <time>2019-12-09T16:17:59Z</time>
      </trkpt>
      <trkpt lat="59.217654" lon="18.141969">
        <ele>23</ele>
        <time>2019-12-09T16:18:00Z</time>
      </trkpt>
      <trkpt lat="59.217712" lon="18.141905">
        <ele>23</ele>
        <time>2019-12-09T16:18:01Z</time>
      </trkpt>
      <trkpt lat="59.21777" lon="18.141844">
        <ele>23</ele>
        <time>2019-12-09T16:18:02Z</time>
      </trkpt>
      <trkpt lat="59.217826" lon="18.141784">
        <ele>23</ele>
        <time>2019-12-09T16:18:03Z</time>
      </trkpt>
      <trkpt lat="59.217881" lon="18.141725">
        <ele>22</ele>
        <time>2019-12-09T16:18:04Z</time>
      </trkpt>
      <trkpt lat="59.217935" lon="18.141664">
        <ele>21</ele>
        <time>2019-12-09T16:18:05Z</time>
      </trkpt>
      <trkpt lat="59.217991" lon="18.141604">
        <ele>21</ele>
        <time>2019-12-09T16:18:06Z</time>
      </trkpt>
      <trkpt lat="59.218044" lon="18.141545">
        <ele>21</ele>
        <time>2019-12-09T16:18:07Z</time>
      </trkpt>
      <trkpt lat="59.2181" lon="18.141494">
        <ele>20</ele>
        <time>2019-12-09T16:18:08Z</time>
      </trkpt>
      <trkpt lat="59.218153" lon="18.141459">
        <ele>20</ele>
        <time>2019-12-09T16:18:09Z</time>
      </trkpt>
      <trkpt lat="59.218205" lon="18.141458">
        <ele>20</ele>
        <time>2019-12-09T16:18:10Z</time>
      </trkpt>
      <trkpt lat="59.218252" lon="18.141493">
        <ele>20</ele>
        <time>2019-12-09T16:18:11Z</time>
      </trkpt>
      <trkpt lat="59.218293" lon="18.141549">
        <ele>20</ele>
        <time>2019-12-09T16:18:12Z</time>
      </trkpt>
      <trkpt lat="59.218333" lon="18.141595">
        <ele>20</ele>
        <time>2019-12-09T16:18:13Z</time>
      </trkpt>
      <trkpt lat="59.218372" lon="18.141609">
        <ele>20</ele>
        <time>2019-12-09T16:18:14Z</time>
      </trkpt>
      <trkpt lat="59.218407" lon="18.141599">
        <ele>20</ele>
        <time>2019-12-09T16:18:15Z</time>
      </trkpt>
      <trkpt lat="59.218444" lon="18.141583">
        <ele>20</ele>
        <time>2019-12-09T16:18:16Z</time>
      </trkpt>
      <trkpt lat="59.218484" lon="18.14156">
        <ele>20</ele>
        <time>2019-12-09T16:18:17Z</time>
      </trkpt>
      <trkpt lat="59.218529" lon="18.141541">
        <ele>20</ele>
        <time>2019-12-09T16:18:18Z</time>
      </trkpt>
      <trkpt lat="59.218574" lon="18.141519">
        <ele>20</ele>
        <time>2019-12-09T16:18:19Z</time>
      </trkpt>
      <trkpt lat="59.218612" lon="18.141466">
        <ele>20</ele>
        <time>2019-12-09T16:18:20Z</time>
      </trkpt>
      <trkpt lat="59.21863" lon="18.141379">
        <ele>20</ele>
        <time>2019-12-09T16:18:21Z</time>
      </trkpt>
      <trkpt lat="59.218639" lon="18.141277">
        <ele>19</ele>
        <time>2019-12-09T16:18:22Z</time>
      </trkpt>
      <trkpt lat="59.218649" lon="18.141171">
        <ele>19</ele>
        <time>2019-12-09T16:18:23Z</time>
      </trkpt>
      <trkpt lat="59.218661" lon="18.141062">
        <ele>19</ele>
        <time>2019-12-09T16:18:24Z</time>
      </trkpt>
      <trkpt lat="59.218676" lon="18.140955">
        <ele>19</ele>
        <time>2019-12-09T16:18:25Z</time>
      </trkpt>
      <trkpt lat="59.218698" lon="18.140855">
        <ele>20</ele>
        <time>2019-12-09T16:18:26Z</time>
      </trkpt>
      <trkpt lat="59.218731" lon="18.140766">
        <ele>19</ele>
        <time>2019-12-09T16:18:27Z</time>
      </trkpt>
      <trkpt lat="59.218772" lon="18.140687">
        <ele>19</ele>
        <time>2019-12-09T16:18:28Z</time>
      </trkpt>
      <trkpt lat="59.21882" lon="18.140616">
        <ele>19</ele>
        <time>2019-12-09T16:18:29Z</time>
      </trkpt>
      <trkpt lat="59.218872" lon="18.140552">
        <ele>19</ele>
        <time>2019-12-09T16:18:30Z</time>
      </trkpt>
      <trkpt lat="59.218923" lon="18.140489">
        <ele>19</ele>
        <time>2019-12-09T16:18:31Z</time>
      </trkpt>
      <trkpt lat="59.218976" lon="18.140426">
        <ele>19</ele>
        <time>2019-12-09T16:18:32Z</time>
      </trkpt>
      <trkpt lat="59.21903" lon="18.140362">
        <ele>19</ele>
        <time>2019-12-09T16:18:33Z</time>
      </trkpt>
      <trkpt lat="59.219083" lon="18.1403">
        <ele>19</ele>
        <time>2019-12-09T16:18:34Z</time>
      </trkpt>
      <trkpt lat="59.219137" lon="18.140237">
        <ele>19</ele>
        <time>2019-12-09T16:18:35Z</time>
      </trkpt>
      <trkpt lat="59.219192" lon="18.140173">
        <ele>19</ele>
        <time>2019-12-09T16:18:36Z</time>
      </trkpt>
      <trkpt lat="59.219245" lon="18.140106">
        <ele>19</ele>
        <time>2019-12-09T16:18:37Z</time>
      </trkpt>
      <trkpt lat="59.2193" lon="18.140038">
        <ele>19</ele>
        <time>2019-12-09T16:18:38Z</time>
      </trkpt>
      <trkpt lat="59.219354" lon="18.139972">
        <ele>20</ele>
        <time>2019-12-09T16:18:39Z</time>
      </trkpt>
      <trkpt lat="59.21941" lon="18.139908">
        <ele>20</ele>
        <time>2019-12-09T16:18:40Z</time>
      </trkpt>
      <trkpt lat="59.219464" lon="18.139846">
        <ele>20</ele>
        <time>2019-12-09T16:18:41Z</time>
      </trkpt>
      <trkpt lat="59.219519" lon="18.139785">
        <ele>20</ele>
        <time>2019-12-09T16:18:42Z</time>
      </trkpt>
      <trkpt lat="59.219574" lon="18.139726">
        <ele>20</ele>
        <time>2019-12-09T16:18:43Z</time>
      </trkpt>
      <trkpt lat="59.21963" lon="18.139665">
        <ele>20</ele>
        <time>2019-12-09T16:18:44Z</time>
      </trkpt>
      <trkpt lat="59.219683" lon="18.139605">
        <ele>20</ele>
        <time>2019-12-09T16:18:45Z</time>
      </trkpt>
      <trkpt lat="59.219737" lon="18.139547">
        <ele>20</ele>
        <time>2019-12-09T16:18:46Z</time>
      </trkpt>
      <trkpt lat="59.21979" lon="18.139489">
        <ele>20</ele>
        <time>2019-12-09T16:18:47Z</time>
      </trkpt>
      <trkpt lat="59.21984" lon="18.139429">
        <ele>21</ele>
        <time>2019-12-09T16:18:48Z</time>
      </trkpt>
      <trkpt lat="59.219884" lon="18.139366">
        <ele>21</ele>
        <time>2019-12-09T16:18:49Z</time>
      </trkpt>
      <trkpt lat="59.219928" lon="18.139303">
        <ele>21</ele>
        <time>2019-12-09T16:18:50Z</time>
      </trkpt>
      <trkpt lat="59.219975" lon="18.139249">
        <ele>21</ele>
        <time>2019-12-09T16:18:51Z</time>
      </trkpt>
      <trkpt lat="59.220018" lon="18.139192">
        <ele>21</ele>
        <time>2019-12-09T16:18:52Z</time>
      </trkpt>
      <trkpt lat="59.22006" lon="18.139134">
        <ele>22</ele>
        <time>2019-12-09T16:18:53Z</time>
      </trkpt>
      <trkpt lat="59.220102" lon="18.139079">
        <ele>22</ele>
        <time>2019-12-09T16:18:54Z</time>
      </trkpt>
      <trkpt lat="59.220148" lon="18.139023">
        <ele>22</ele>
        <time>2019-12-09T16:18:55Z</time>
      </trkpt>
      <trkpt lat="59.220198" lon="18.138964">
        <ele>22</ele>
        <time>2019-12-09T16:18:56Z</time>
      </trkpt>
      <trkpt lat="59.220244" lon="18.138907">
        <ele>22</ele>
        <time>2019-12-09T16:18:57Z</time>
      </trkpt>
      <trkpt lat="59.220289" lon="18.138855">
        <ele>22</ele>
        <time>2019-12-09T16:18:58Z</time>
      </trkpt>
      <trkpt lat="59.220334" lon="18.138809">
        <ele>23</ele>
        <time>2019-12-09T16:18:59Z</time>
      </trkpt>
      <trkpt lat="59.220379" lon="18.138771">
        <ele>23</ele>
        <time>2019-12-09T16:19:00Z</time>
      </trkpt>
      <trkpt lat="59.220426" lon="18.138735">
        <ele>23</ele>
        <time>2019-12-09T16:19:01Z</time>
      </trkpt>
      <trkpt lat="59.22047" lon="18.138704">
        <ele>23</ele>
        <time>2019-12-09T16:19:02Z</time>
      </trkpt>
      <trkpt lat="59.220513" lon="18.138674">
        <ele>24</ele>
        <time>2019-12-09T16:19:03Z</time>
      </trkpt>
      <trkpt lat="59.220558" lon="18.138647">
        <ele>24</ele>
        <time>2019-12-09T16:19:04Z</time>
      </trkpt>
      <trkpt lat="59.2206" lon="18.138619">
        <ele>24</ele>
        <time>2019-12-09T16:19:05Z</time>
      </trkpt>
      <trkpt lat="59.220643" lon="18.138593">
        <ele>25</ele>
        <time>2019-12-09T16:19:06Z</time>
      </trkpt>
      <trkpt lat="59.220687" lon="18.138568">
        <ele>25</ele>
        <time>2019-12-09T16:19:07Z</time>
      </trkpt>
      <trkpt lat="59.220731" lon="18.138545">
        <ele>25</ele>
        <time>2019-12-09T16:19:08Z</time>
      </trkpt>
      <trkpt lat="59.220776" lon="18.138524">
        <ele>25</ele>
        <time>2019-12-09T16:19:09Z</time>
      </trkpt>
      <trkpt lat="59.220823" lon="18.138507">
        <ele>25</ele>
        <time>2019-12-09T16:19:10Z</time>
      </trkpt>
      <trkpt lat="59.220868" lon="18.138491">
        <ele>25</ele>
        <time>2019-12-09T16:19:11Z</time>
      </trkpt>
      <trkpt lat="59.220915" lon="18.138473">
        <ele>25</ele>
        <time>2019-12-09T16:19:12Z</time>
      </trkpt>
      <trkpt lat="59.220961" lon="18.138451">
        <ele>26</ele>
        <time>2019-12-09T16:19:13Z</time>
      </trkpt>
      <trkpt lat="59.221008" lon="18.138432">
        <ele>26</ele>
        <time>2019-12-09T16:19:14Z</time>
      </trkpt>
      <trkpt lat="59.221058" lon="18.138415">
        <ele>26</ele>
        <time>2019-12-09T16:19:15Z</time>
      </trkpt>
      <trkpt lat="59.221108" lon="18.138398">
        <ele>26</ele>
        <time>2019-12-09T16:19:16Z</time>
      </trkpt>
      <trkpt lat="59.221158" lon="18.13838">
        <ele>26</ele>
        <time>2019-12-09T16:19:17Z</time>
      </trkpt>
      <trkpt lat="59.22121" lon="18.138358">
        <ele>26</ele>
        <time>2019-12-09T16:19:18Z</time>
      </trkpt>
      <trkpt lat="59.221261" lon="18.138334">
        <ele>26</ele>
        <time>2019-12-09T16:19:19Z</time>
      </trkpt>
      <trkpt lat="59.221314" lon="18.138313">
        <ele>26</ele>
        <time>2019-12-09T16:19:20Z</time>
      </trkpt>
      <trkpt lat="59.221368" lon="18.138294">
        <ele>26</ele>
        <time>2019-12-09T16:19:21Z</time>
      </trkpt>
      <trkpt lat="59.221422" lon="18.138276">
        <ele>26</ele>
        <time>2019-12-09T16:19:22Z</time>
      </trkpt>
      <trkpt lat="59.221476" lon="18.138256">
        <ele>26</ele>
        <time>2019-12-09T16:19:23Z</time>
      </trkpt>
      <trkpt lat="59.221529" lon="18.138233">
        <ele>26</ele>
        <time>2019-12-09T16:19:24Z</time>
      </trkpt>
      <trkpt lat="59.221582" lon="18.13821">
        <ele>26</ele>
        <time>2019-12-09T16:19:25Z</time>
      </trkpt>
      <trkpt lat="59.221635" lon="18.138188">
        <ele>27</ele>
        <time>2019-12-09T16:19:26Z</time>
      </trkpt>
      <trkpt lat="59.221686" lon="18.138163">
        <ele>27</ele>
        <time>2019-12-09T16:19:27Z</time>
      </trkpt>
      <trkpt lat="59.221738" lon="18.138139">
        <ele>27</ele>
        <time>2019-12-09T16:19:28Z</time>
      </trkpt>
      <trkpt lat="59.221791" lon="18.138115">
        <ele>27</ele>
        <time>2019-12-09T16:19:29Z</time>
      </trkpt>
      <trkpt lat="59.221846" lon="18.138091">
        <ele>27</ele>
        <time>2019-12-09T16:19:30Z</time>
      </trkpt>
      <trkpt lat="59.221898" lon="18.138066">
        <ele>27</ele>
        <time>2019-12-09T16:19:31Z</time>
      </trkpt>
      <trkpt lat="59.221952" lon="18.138041">
        <ele>27</ele>
        <time>2019-12-09T16:19:32Z</time>
      </trkpt>
      <trkpt lat="59.222007" lon="18.138016">
        <ele>27</ele>
        <time>2019-12-09T16:19:33Z</time>
      </trkpt>
      <trkpt lat="59.22206" lon="18.13799">
        <ele>27</ele>
        <time>2019-12-09T16:19:34Z</time>
      </trkpt>
      <trkpt lat="59.222118" lon="18.137964">
        <ele>27</ele>
        <time>2019-12-09T16:19:35Z</time>
      </trkpt>
      <trkpt lat="59.222176" lon="18.137936">
        <ele>27</ele>
        <time>2019-12-09T16:19:36Z</time>
      </trkpt>
      <trkpt lat="59.222235" lon="18.137907">
        <ele>27</ele>
        <time>2019-12-09T16:19:37Z</time>
      </trkpt>
      <trkpt lat="59.222295" lon="18.137878">
        <ele>28</ele>
        <time>2019-12-09T16:19:38Z</time>
      </trkpt>
      <trkpt lat="59.22235" lon="18.137845">
        <ele>28</ele>
        <time>2019-12-09T16:19:39Z</time>
      </trkpt>
      <trkpt lat="59.222404" lon="18.137808">
        <ele>28</ele>
        <time>2019-12-09T16:19:40Z</time>
      </trkpt>
      <trkpt lat="59.222462" lon="18.13777">
        <ele>28</ele>
        <time>2019-12-09T16:19:41Z</time>
      </trkpt>
      <trkpt lat="59.222527" lon="18.137733">
        <ele>28</ele>
        <time>2019-12-09T16:19:42Z</time>
      </trkpt>
      <trkpt lat="59.222593" lon="18.137694">
        <ele>28</ele>
        <time>2019-12-09T16:19:43Z</time>
      </trkpt>
      <trkpt lat="59.222654" lon="18.137651">
        <ele>28</ele>
        <time>2019-12-09T16:19:44Z</time>
      </trkpt>
      <trkpt lat="59.222714" lon="18.137604">
        <ele>28</ele>
        <time>2019-12-09T16:19:45Z</time>
      </trkpt>
      <trkpt lat="59.222772" lon="18.137556">
        <ele>29</ele>
        <time>2019-12-09T16:19:46Z</time>
      </trkpt>
      <trkpt lat="59.222826" lon="18.137506">
        <ele>29</ele>
        <time>2019-12-09T16:19:47Z</time>
      </trkpt>
      <trkpt lat="59.222883" lon="18.137452">
        <ele>29</ele>
        <time>2019-12-09T16:19:48Z</time>
      </trkpt>
      <trkpt lat="59.222938" lon="18.137396">
        <ele>29</ele>
        <time>2019-12-09T16:19:49Z</time>
      </trkpt>
      <trkpt lat="59.222996" lon="18.137335">
        <ele>29</ele>
        <time>2019-12-09T16:19:50Z</time>
      </trkpt>
      <trkpt lat="59.223056" lon="18.137272">
        <ele>29</ele>
        <time>2019-12-09T16:19:51Z</time>
      </trkpt>
      <trkpt lat="59.223114" lon="18.137206">
        <ele>29</ele>
        <time>2019-12-09T16:19:52Z</time>
      </trkpt>
      <trkpt lat="59.223172" lon="18.137136">
        <ele>29</ele>
        <time>2019-12-09T16:19:53Z</time>
      </trkpt>
      <trkpt lat="59.223227" lon="18.137062">
        <ele>29</ele>
        <time>2019-12-09T16:19:54Z</time>
      </trkpt>
      <trkpt lat="59.223282" lon="18.136985">
        <ele>29</ele>
        <time>2019-12-09T16:19:55Z</time>
      </trkpt>
      <trkpt lat="59.223338" lon="18.136904">
        <ele>29</ele>
        <time>2019-12-09T16:19:56Z</time>
      </trkpt>
      <trkpt lat="59.223392" lon="18.136821">
        <ele>29</ele>
        <time>2019-12-09T16:19:57Z</time>
      </trkpt>
      <trkpt lat="59.223444" lon="18.136734">
        <ele>29</ele>
        <time>2019-12-09T16:19:58Z</time>
      </trkpt>
      <trkpt lat="59.223496" lon="18.136643">
        <ele>29</ele>
        <time>2019-12-09T16:19:59Z</time>
      </trkpt>
      <trkpt lat="59.223544" lon="18.136546">
        <ele>30</ele>
        <time>2019-12-09T16:20:00Z</time>
      </trkpt>
      <trkpt lat="59.223598" lon="18.13645">
        <ele>30</ele>
        <time>2019-12-09T16:20:01Z</time>
      </trkpt>
      <trkpt lat="59.223648" lon="18.136353">
        <ele>30</ele>
        <time>2019-12-09T16:20:02Z</time>
      </trkpt>
      <trkpt lat="59.223693" lon="18.136254">
        <ele>30</ele>
        <time>2019-12-09T16:20:03Z</time>
      </trkpt>
      <trkpt lat="59.223738" lon="18.136153">
        <ele>30</ele>
        <time>2019-12-09T16:20:04Z</time>
      </trkpt>
      <trkpt lat="59.223778" lon="18.136049">
        <ele>30</ele>
        <time>2019-12-09T16:20:05Z</time>
      </trkpt>
      <trkpt lat="59.223818" lon="18.135943">
        <ele>30</ele>
        <time>2019-12-09T16:20:06Z</time>
      </trkpt>
      <trkpt lat="59.223856" lon="18.13583">
        <ele>30</ele>
        <time>2019-12-09T16:20:07Z</time>
      </trkpt>
      <trkpt lat="59.223888" lon="18.135714">
        <ele>30</ele>
        <time>2019-12-09T16:20:08Z</time>
      </trkpt>
      <trkpt lat="59.223928" lon="18.135601">
        <ele>30</ele>
        <time>2019-12-09T16:20:09Z</time>
      </trkpt>
      <trkpt lat="59.223966" lon="18.135488">
        <ele>29</ele>
        <time>2019-12-09T16:20:10Z</time>
      </trkpt>
      <trkpt lat="59.224009" lon="18.135372">
        <ele>29</ele>
        <time>2019-12-09T16:20:11Z</time>
      </trkpt>
      <trkpt lat="59.224052" lon="18.135256">
        <ele>29</ele>
        <time>2019-12-09T16:20:12Z</time>
      </trkpt>
      <trkpt lat="59.224092" lon="18.135139">
        <ele>29</ele>
        <time>2019-12-09T16:20:13Z</time>
      </trkpt>
      <trkpt lat="59.224127" lon="18.135027">
        <ele>29</ele>
        <time>2019-12-09T16:20:14Z</time>
      </trkpt>
      <trkpt lat="59.224172" lon="18.134911">
        <ele>29</ele>
        <time>2019-12-09T16:20:15Z</time>
      </trkpt>
      <trkpt lat="59.224218" lon="18.134794">
        <ele>29</ele>
        <time>2019-12-09T16:20:16Z</time>
      </trkpt>
      <trkpt lat="59.224257" lon="18.134677">
        <ele>30</ele>
        <time>2019-12-09T16:20:17Z</time>
      </trkpt>
      <trkpt lat="59.224297" lon="18.134557">
        <ele>30</ele>
        <time>2019-12-09T16:20:18Z</time>
      </trkpt>
      <trkpt lat="59.22434" lon="18.134437">
        <ele>30</ele>
        <time>2019-12-09T16:20:19Z</time>
      </trkpt>
      <trkpt lat="59.224389" lon="18.13432">
        <ele>29</ele>
        <time>2019-12-09T16:20:20Z</time>
      </trkpt>
      <trkpt lat="59.22444" lon="18.134205">
        <ele>29</ele>
        <time>2019-12-09T16:20:21Z</time>
      </trkpt>
      <trkpt lat="59.224488" lon="18.134099">
        <ele>29</ele>
        <time>2019-12-09T16:20:22Z</time>
      </trkpt>
      <trkpt lat="59.224534" lon="18.133992">
        <ele>29</ele>
        <time>2019-12-09T16:20:23Z</time>
      </trkpt>
      <trkpt lat="59.224585" lon="18.133887">
        <ele>29</ele>
        <time>2019-12-09T16:20:24Z</time>
      </trkpt>
      <trkpt lat="59.224632" lon="18.133788">
        <ele>29</ele>
        <time>2019-12-09T16:20:25Z</time>
      </trkpt>
      <trkpt lat="59.224672" lon="18.133691">
        <ele>29</ele>
        <time>2019-12-09T16:20:26Z</time>
      </trkpt>
      <trkpt lat="59.224712" lon="18.1336">
        <ele>29</ele>
        <time>2019-12-09T16:20:27Z</time>
      </trkpt>
      <trkpt lat="59.224748" lon="18.133519">
        <ele>29</ele>
        <time>2019-12-09T16:20:28Z</time>
      </trkpt>
      <trkpt lat="59.224782" lon="18.13344">
        <ele>29</ele>
        <time>2019-12-09T16:20:29Z</time>
      </trkpt>
      <trkpt lat="59.22482" lon="18.133362">
        <ele>29</ele>
        <time>2019-12-09T16:20:30Z</time>
      </trkpt>
      <trkpt lat="59.224853" lon="18.133291">
        <ele>29</ele>
        <time>2019-12-09T16:20:31Z</time>
      </trkpt>
      <trkpt lat="59.224887" lon="18.133219">
        <ele>30</ele>
        <time>2019-12-09T16:20:32Z</time>
      </trkpt>
      <trkpt lat="59.224916" lon="18.133148">
        <ele>30</ele>
        <time>2019-12-09T16:20:33Z</time>
      </trkpt>
      <trkpt lat="59.224948" lon="18.133077">
        <ele>30</ele>
        <time>2019-12-09T16:20:34Z</time>
      </trkpt>
      <trkpt lat="59.224977" lon="18.133009">
        <ele>31</ele>
        <time>2019-12-09T16:20:35Z</time>
      </trkpt>
      <trkpt lat="59.225007" lon="18.132938">
        <ele>31</ele>
        <time>2019-12-09T16:20:36Z</time>
      </trkpt>
      <trkpt lat="59.225034" lon="18.132875">
        <ele>32</ele>
        <time>2019-12-09T16:20:37Z</time>
      </trkpt>
      <trkpt lat="59.225062" lon="18.132811">
        <ele>32</ele>
        <time>2019-12-09T16:20:38Z</time>
      </trkpt>
      <trkpt lat="59.225082" lon="18.132749">
        <ele>33</ele>
        <time>2019-12-09T16:20:39Z</time>
      </trkpt>
      <trkpt lat="59.225115" lon="18.132694">
        <ele>34</ele>
        <time>2019-12-09T16:20:40Z</time>
      </trkpt>
      <trkpt lat="59.225154" lon="18.132644">
        <ele>34</ele>
        <time>2019-12-09T16:20:41Z</time>
      </trkpt>
      <trkpt lat="59.225186" lon="18.132592">
        <ele>35</ele>
        <time>2019-12-09T16:20:42Z</time>
      </trkpt>
      <trkpt lat="59.225218" lon="18.132548">
        <ele>35</ele>
        <time>2019-12-09T16:20:43Z</time>
      </trkpt>
      <trkpt lat="59.225256" lon="18.132502">
        <ele>35</ele>
        <time>2019-12-09T16:20:44Z</time>
      </trkpt>
      <trkpt lat="59.2253" lon="18.13245">
        <ele>35</ele>
        <time>2019-12-09T16:20:45Z</time>
      </trkpt>
      <trkpt lat="59.225345" lon="18.132399">
        <ele>35</ele>
        <time>2019-12-09T16:20:46Z</time>
      </trkpt>
      <trkpt lat="59.225383" lon="18.132342">
        <ele>35</ele>
        <time>2019-12-09T16:20:47Z</time>
      </trkpt>
      <trkpt lat="59.22542" lon="18.132291">
        <ele>35</ele>
        <time>2019-12-09T16:20:48Z</time>
      </trkpt>
      <trkpt lat="59.225452" lon="18.132241">
        <ele>36</ele>
        <time>2019-12-09T16:20:49Z</time>
      </trkpt>
      <trkpt lat="59.22548" lon="18.132185">
        <ele>36</ele>
        <time>2019-12-09T16:20:50Z</time>
      </trkpt>
      <trkpt lat="59.225513" lon="18.132126">
        <ele>36</ele>
        <time>2019-12-09T16:20:51Z</time>
      </trkpt>
      <trkpt lat="59.225548" lon="18.132072">
        <ele>35</ele>
        <time>2019-12-09T16:20:52Z</time>
      </trkpt>
      <trkpt lat="59.225584" lon="18.132017">
        <ele>35</ele>
        <time>2019-12-09T16:20:53Z</time>
      </trkpt>
      <trkpt lat="59.225622" lon="18.131959">
        <ele>35</ele>
        <time>2019-12-09T16:20:54Z</time>
      </trkpt>
      <trkpt lat="59.22566" lon="18.131889">
        <ele>35</ele>
        <time>2019-12-09T16:20:55Z</time>
      </trkpt>
      <trkpt lat="59.225688" lon="18.131808">
        <ele>35</ele>
        <time>2019-12-09T16:20:56Z</time>
      </trkpt>
      <trkpt lat="59.225713" lon="18.131716">
        <ele>35</ele>
        <time>2019-12-09T16:20:57Z</time>
      </trkpt>
      <trkpt lat="59.225727" lon="18.131619">
        <ele>35</ele>
        <time>2019-12-09T16:20:58Z</time>
      </trkpt>
      <trkpt lat="59.225744" lon="18.131532">
        <ele>35</ele>
        <time>2019-12-09T16:20:59Z</time>
      </trkpt>
      <trkpt lat="59.225776" lon="18.131458">
        <ele>35</ele>
        <time>2019-12-09T16:21:00Z</time>
      </trkpt>
      <trkpt lat="59.225804" lon="18.131393">
        <ele>36</ele>
        <time>2019-12-09T16:21:01Z</time>
      </trkpt>
      <trkpt lat="59.225834" lon="18.131332">
        <ele>36</ele>
        <time>2019-12-09T16:21:02Z</time>
      </trkpt>
      <trkpt lat="59.225872" lon="18.131277">
        <ele>36</ele>
        <time>2019-12-09T16:21:03Z</time>
      </trkpt>
      <trkpt lat="59.225908" lon="18.131228">
        <ele>36</ele>
        <time>2019-12-09T16:21:04Z</time>
      </trkpt>
      <trkpt lat="59.225943" lon="18.131179">
        <ele>36</ele>
        <time>2019-12-09T16:21:05Z</time>
      </trkpt>
      <trkpt lat="59.225978" lon="18.131133">
        <ele>36</ele>
        <time>2019-12-09T16:21:06Z</time>
      </trkpt>
      <trkpt lat="59.226012" lon="18.131087">
        <ele>36</ele>
        <time>2019-12-09T16:21:07Z</time>
      </trkpt>
      <trkpt lat="59.226048" lon="18.13104">
        <ele>36</ele>
        <time>2019-12-09T16:21:08Z</time>
      </trkpt>
      <trkpt lat="59.226082" lon="18.130995">
        <ele>36</ele>
        <time>2019-12-09T16:21:09Z</time>
      </trkpt>
      <trkpt lat="59.226114" lon="18.130944">
        <ele>36</ele>
        <time>2019-12-09T16:21:10Z</time>
      </trkpt>
      <trkpt lat="59.226147" lon="18.1309">
        <ele>36</ele>
        <time>2019-12-09T16:21:11Z</time>
      </trkpt>
      <trkpt lat="59.22618" lon="18.130857">
        <ele>36</ele>
        <time>2019-12-09T16:21:12Z</time>
      </trkpt>
      <trkpt lat="59.226214" lon="18.130808">
        <ele>36</ele>
        <time>2019-12-09T16:21:13Z</time>
      </trkpt>
      <trkpt lat="59.22625" lon="18.130753">
        <ele>37</ele>
        <time>2019-12-09T16:21:14Z</time>
      </trkpt>
      <trkpt lat="59.226287" lon="18.130696">
        <ele>37</ele>
        <time>2019-12-09T16:21:15Z</time>
      </trkpt>
      <trkpt lat="59.226321" lon="18.130639">
        <ele>37</ele>
        <time>2019-12-09T16:21:16Z</time>
      </trkpt>
      <trkpt lat="59.226357" lon="18.130582">
        <ele>37</ele>
        <time>2019-12-09T16:21:17Z</time>
      </trkpt>
      <trkpt lat="59.226396" lon="18.130527">
        <ele>37</ele>
        <time>2019-12-09T16:21:18Z</time>
      </trkpt>
      <trkpt lat="59.226432" lon="18.130473">
        <ele>37</ele>
        <time>2019-12-09T16:21:19Z</time>
      </trkpt>
      <trkpt lat="59.22647" lon="18.13042">
        <ele>37</ele>
        <time>2019-12-09T16:21:20Z</time>
      </trkpt>
      <trkpt lat="59.226508" lon="18.130367">
        <ele>37</ele>
        <time>2019-12-09T16:21:21Z</time>
      </trkpt>
      <trkpt lat="59.226544" lon="18.130306">
        <ele>37</ele>
        <time>2019-12-09T16:21:22Z</time>
      </trkpt>
      <trkpt lat="59.22658" lon="18.130245">
        <ele>37</ele>
        <time>2019-12-09T16:21:23Z</time>
      </trkpt>
      <trkpt lat="59.226616" lon="18.130178">
        <ele>37</ele>
        <time>2019-12-09T16:21:24Z</time>
      </trkpt>
      <trkpt lat="59.226646" lon="18.130104">
        <ele>38</ele>
        <time>2019-12-09T16:21:25Z</time>
      </trkpt>
      <trkpt lat="59.226675" lon="18.130027">
        <ele>38</ele>
        <time>2019-12-09T16:21:26Z</time>
      </trkpt>
      <trkpt lat="59.226705" lon="18.129952">
        <ele>38</ele>
        <time>2019-12-09T16:21:27Z</time>
      </trkpt>
      <trkpt lat="59.226733" lon="18.129873">
        <ele>38</ele>
        <time>2019-12-09T16:21:28Z</time>
      </trkpt>
      <trkpt lat="59.226762" lon="18.129792">
        <ele>38</ele>
        <time>2019-12-09T16:21:29Z</time>
      </trkpt>
      <trkpt lat="59.226789" lon="18.129708">
        <ele>38</ele>
        <time>2019-12-09T16:21:30Z</time>
      </trkpt>
      <trkpt lat="59.226816" lon="18.12963">
        <ele>38</ele>
        <time>2019-12-09T16:21:31Z</time>
      </trkpt>
      <trkpt lat="59.226844" lon="18.12955">
        <ele>38</ele>
        <time>2019-12-09T16:21:32Z</time>
      </trkpt>
      <trkpt lat="59.226873" lon="18.129473">
        <ele>38</ele>
        <time>2019-12-09T16:21:33Z</time>
      </trkpt>
      <trkpt lat="59.226901" lon="18.129398">
        <ele>38</ele>
        <time>2019-12-09T16:21:34Z</time>
      </trkpt>
      <trkpt lat="59.226928" lon="18.129321">
        <ele>38</ele>
        <time>2019-12-09T16:21:35Z</time>
      </trkpt>
      <trkpt lat="59.226953" lon="18.129247">
        <ele>38</ele>
        <time>2019-12-09T16:21:36Z</time>
      </trkpt>
      <trkpt lat="59.22698" lon="18.12917">
        <ele>38</ele>
        <time>2019-12-09T16:21:37Z</time>
      </trkpt>
      <trkpt lat="59.227004" lon="18.12909">
        <ele>38</ele>
        <time>2019-12-09T16:21:38Z</time>
      </trkpt>
      <trkpt lat="59.227025" lon="18.12901">
        <ele>38</ele>
        <time>2019-12-09T16:21:39Z</time>
      </trkpt>
      <trkpt lat="59.227044" lon="18.12893">
        <ele>39</ele>
        <time>2019-12-09T16:21:40Z</time>
      </trkpt>
      <trkpt lat="59.227069" lon="18.128852">
        <ele>39</ele>
        <time>2019-12-09T16:21:41Z</time>
      </trkpt>
      <trkpt lat="59.227098" lon="18.128776">
        <ele>39</ele>
        <time>2019-12-09T16:21:42Z</time>
      </trkpt>
      <trkpt lat="59.227127" lon="18.128699">
        <ele>39</ele>
        <time>2019-12-09T16:21:43Z</time>
      </trkpt>
      <trkpt lat="59.227147" lon="18.128613">
        <ele>39</ele>
        <time>2019-12-09T16:21:44Z</time>
      </trkpt>
      <trkpt lat="59.227173" lon="18.128532">
        <ele>39</ele>
        <time>2019-12-09T16:21:45Z</time>
      </trkpt>
      <trkpt lat="59.227203" lon="18.128451">
        <ele>39</ele>
        <time>2019-12-09T16:21:46Z</time>
      </trkpt>
      <trkpt lat="59.227234" lon="18.128374">
        <ele>39</ele>
        <time>2019-12-09T16:21:47Z</time>
      </trkpt>
      <trkpt lat="59.227263" lon="18.128294">
        <ele>39</ele>
        <time>2019-12-09T16:21:48Z</time>
      </trkpt>
      <trkpt lat="59.227297" lon="18.128205">
        <ele>39</ele>
        <time>2019-12-09T16:21:49Z</time>
      </trkpt>
      <trkpt lat="59.227329" lon="18.12812">
        <ele>39</ele>
        <time>2019-12-09T16:21:50Z</time>
      </trkpt>
      <trkpt lat="59.22736" lon="18.128035">
        <ele>40</ele>
        <time>2019-12-09T16:21:51Z</time>
      </trkpt>
      <trkpt lat="59.227386" lon="18.127952">
        <ele>40</ele>
        <time>2019-12-09T16:21:52Z</time>
      </trkpt>
      <trkpt lat="59.227416" lon="18.127876">
        <ele>40</ele>
        <time>2019-12-09T16:21:53Z</time>
      </trkpt>
      <trkpt lat="59.227445" lon="18.127801">
        <ele>40</ele>
        <time>2019-12-09T16:21:54Z</time>
      </trkpt>
      <trkpt lat="59.22748" lon="18.127731">
        <ele>40</ele>
        <time>2019-12-09T16:21:55Z</time>
      </trkpt>
      <trkpt lat="59.227509" lon="18.127657">
        <ele>40</ele>
        <time>2019-12-09T16:21:56Z</time>
      </trkpt>
      <trkpt lat="59.227538" lon="18.127583">
        <ele>40</ele>
        <time>2019-12-09T16:21:57Z</time>
      </trkpt>
      <trkpt lat="59.22757" lon="18.127504">
        <ele>40</ele>
        <time>2019-12-09T16:21:58Z</time>
      </trkpt>
      <trkpt lat="59.227597" lon="18.127427">
        <ele>40</ele>
        <time>2019-12-09T16:21:59Z</time>
      </trkpt>
      <trkpt lat="59.227625" lon="18.127354">
        <ele>40</ele>
        <time>2019-12-09T16:22:00Z</time>
      </trkpt>
      <trkpt lat="59.227653" lon="18.127278">
        <ele>41</ele>
        <time>2019-12-09T16:22:01Z</time>
      </trkpt>
      <trkpt lat="59.227682" lon="18.127207">
        <ele>41</ele>
        <time>2019-12-09T16:22:02Z</time>
      </trkpt>
      <trkpt lat="59.227713" lon="18.127128">
        <ele>41</ele>
        <time>2019-12-09T16:22:03Z</time>
      </trkpt>
      <trkpt lat="59.227736" lon="18.127043">
        <ele>41</ele>
        <time>2019-12-09T16:22:04Z</time>
      </trkpt>
      <trkpt lat="59.227753" lon="18.126953">
        <ele>41</ele>
        <time>2019-12-09T16:22:05Z</time>
      </trkpt>
      <trkpt lat="59.227766" lon="18.126863">
        <ele>40</ele>
        <time>2019-12-09T16:22:06Z</time>
      </trkpt>
      <trkpt lat="59.227777" lon="18.126772">
        <ele>40</ele>
        <time>2019-12-09T16:22:07Z</time>
      </trkpt>
      <trkpt lat="59.227784" lon="18.126679">
        <ele>40</ele>
        <time>2019-12-09T16:22:08Z</time>
      </trkpt>
      <trkpt lat="59.227798" lon="18.126592">
        <ele>40</ele>
        <time>2019-12-09T16:22:09Z</time>
      </trkpt>
      <trkpt lat="59.227825" lon="18.126524">
        <ele>40</ele>
        <time>2019-12-09T16:22:10Z</time>
      </trkpt>
      <trkpt lat="59.227864" lon="18.12648">
        <ele>40</ele>
        <time>2019-12-09T16:22:11Z</time>
      </trkpt>
      <trkpt lat="59.227909" lon="18.126459">
        <ele>39</ele>
        <time>2019-12-09T16:22:12Z</time>
      </trkpt>
      <trkpt lat="59.227957" lon="18.126448">
        <ele>39</ele>
        <time>2019-12-09T16:22:13Z</time>
      </trkpt>
      <trkpt lat="59.228007" lon="18.126438">
        <ele>39</ele>
        <time>2019-12-09T16:22:14Z</time>
      </trkpt>
      <trkpt lat="59.22806" lon="18.126429">
        <ele>39</ele>
        <time>2019-12-09T16:22:15Z</time>
      </trkpt>
      <trkpt lat="59.228114" lon="18.126419">
        <ele>39</ele>
        <time>2019-12-09T16:22:16Z</time>
      </trkpt>
      <trkpt lat="59.228171" lon="18.126407">
        <ele>39</ele>
        <time>2019-12-09T16:22:17Z</time>
      </trkpt>
      <trkpt lat="59.228231" lon="18.126396">
        <ele>39</ele>
        <time>2019-12-09T16:22:18Z</time>
      </trkpt>
      <trkpt lat="59.228293" lon="18.126385">
        <ele>38</ele>
        <time>2019-12-09T16:22:19Z</time>
      </trkpt>
      <trkpt lat="59.228358" lon="18.126377">
        <ele>38</ele>
        <time>2019-12-09T16:22:20Z</time>
      </trkpt>
      <trkpt lat="59.228425" lon="18.126379">
        <ele>0</ele>
        <time>2019-12-09T16:22:20Z</time>
      </trkpt>
      <trkpt lat="59.228492" lon="18.126385">
        <ele>38</ele>
        <time>2019-12-09T16:22:21Z</time>
      </trkpt>
      <trkpt lat="59.228558" lon="18.126375">
        <ele>37</ele>
        <time>2019-12-09T16:22:23Z</time>
      </trkpt>
      <trkpt lat="59.228617" lon="18.126333">
        <ele>37</ele>
        <time>2019-12-09T16:22:24Z</time>
      </trkpt>
      <trkpt lat="59.228671" lon="18.12626">
        <ele>37</ele>
        <time>2019-12-09T16:22:25Z</time>
      </trkpt>
      <trkpt lat="59.228721" lon="18.126165">
        <ele>37</ele>
        <time>2019-12-09T16:22:26Z</time>
      </trkpt>
      <trkpt lat="59.228765" lon="18.126065">
        <ele>37</ele>
        <time>2019-12-09T16:22:27Z</time>
      </trkpt>
      <trkpt lat="59.228815" lon="18.125961">
        <ele>37</ele>
        <time>2019-12-09T16:22:28Z</time>
      </trkpt>
      <trkpt lat="59.228874" lon="18.125857">
        <ele>37</ele>
        <time>2019-12-09T16:22:29Z</time>
      </trkpt>
      <trkpt lat="59.228932" lon="18.125751">
        <ele>37</ele>
        <time>2019-12-09T16:22:30Z</time>
      </trkpt>
      <trkpt lat="59.228986" lon="18.125644">
        <ele>37</ele>
        <time>2019-12-09T16:22:31Z</time>
      </trkpt>
      <trkpt lat="59.229038" lon="18.125537">
        <ele>37</ele>
        <time>2019-12-09T16:22:32Z</time>
      </trkpt>
      <trkpt lat="59.229088" lon="18.125427">
        <ele>37</ele>
        <time>2019-12-09T16:22:33Z</time>
      </trkpt>
      <trkpt lat="59.229132" lon="18.125315">
        <ele>37</ele>
        <time>2019-12-09T16:22:34Z</time>
      </trkpt>
      <trkpt lat="59.229174" lon="18.125207">
        <ele>36</ele>
        <time>2019-12-09T16:22:35Z</time>
      </trkpt>
      <trkpt lat="59.229214" lon="18.1251">
        <ele>36</ele>
        <time>2019-12-09T16:22:36Z</time>
      </trkpt>
      <trkpt lat="59.22926" lon="18.124987">
        <ele>36</ele>
        <time>2019-12-09T16:22:37Z</time>
      </trkpt>
      <trkpt lat="59.22928" lon="18.124858">
        <ele>36</ele>
        <time>2019-12-09T16:22:38Z</time>
      </trkpt>
      <trkpt lat="59.229289" lon="18.124746">
        <ele>36</ele>
        <time>2019-12-09T16:22:39Z</time>
      </trkpt>
      <trkpt lat="59.229302" lon="18.124628">
        <ele>36</ele>
        <time>2019-12-09T16:22:40Z</time>
      </trkpt>
      <trkpt lat="59.229312" lon="18.124495">
        <ele>36</ele>
        <time>2019-12-09T16:22:41Z</time>
      </trkpt>
      <trkpt lat="59.229323" lon="18.124349">
        <ele>36</ele>
        <time>2019-12-09T16:22:42Z</time>
      </trkpt>
      <trkpt lat="59.229343" lon="18.124231">
        <ele>36</ele>
        <time>2019-12-09T16:22:43Z</time>
      </trkpt>
      <trkpt lat="59.229381" lon="18.124131">
        <ele>36</ele>
        <time>2019-12-09T16:22:44Z</time>
      </trkpt>
      <trkpt lat="59.229427" lon="18.124044">
        <ele>36</ele>
        <time>2019-12-09T16:22:45Z</time>
      </trkpt>
      <trkpt lat="59.22948" lon="18.123977">
        <ele>36</ele>
        <time>2019-12-09T16:22:46Z</time>
      </trkpt>
      <trkpt lat="59.229531" lon="18.123918">
        <ele>36</ele>
        <time>2019-12-09T16:22:47Z</time>
      </trkpt>
      <trkpt lat="59.229584" lon="18.123862">
        <ele>36</ele>
        <time>2019-12-09T16:22:48Z</time>
      </trkpt>
      <trkpt lat="59.229638" lon="18.123807">
        <ele>36</ele>
        <time>2019-12-09T16:22:49Z</time>
      </trkpt>
      <trkpt lat="59.229695" lon="18.123752">
        <ele>36</ele>
        <time>2019-12-09T16:22:50Z</time>
      </trkpt>
      <trkpt lat="59.229751" lon="18.123696">
        <ele>36</ele>
        <time>2019-12-09T16:22:51Z</time>
      </trkpt>
      <trkpt lat="59.229806" lon="18.123641">
        <ele>36</ele>
        <time>2019-12-09T16:22:52Z</time>
      </trkpt>
      <trkpt lat="59.22986" lon="18.123588">
        <ele>36</ele>
        <time>2019-12-09T16:22:53Z</time>
      </trkpt>
      <trkpt lat="59.229915" lon="18.123538">
        <ele>36</ele>
        <time>2019-12-09T16:22:54Z</time>
      </trkpt>
      <trkpt lat="59.229968" lon="18.123486">
        <ele>36</ele>
        <time>2019-12-09T16:22:55Z</time>
      </trkpt>
      <trkpt lat="59.230012" lon="18.123417">
        <ele>36</ele>
        <time>2019-12-09T16:22:56Z</time>
      </trkpt>
      <trkpt lat="59.230044" lon="18.123328">
        <ele>36</ele>
        <time>2019-12-09T16:22:57Z</time>
      </trkpt>
      <trkpt lat="59.230061" lon="18.123225">
        <ele>35</ele>
        <time>2019-12-09T16:22:58Z</time>
      </trkpt>
      <trkpt lat="59.230068" lon="18.123122">
        <ele>0</ele>
        <time>2019-12-09T16:22:58Z</time>
      </trkpt>
      <trkpt lat="59.230067" lon="18.123024">
        <ele>35</ele>
        <time>2019-12-09T16:22:59Z</time>
      </trkpt>
      <trkpt lat="59.230061" lon="18.122931">
        <ele>35</ele>
        <time>2019-12-09T16:23:01Z</time>
      </trkpt>
      <trkpt lat="59.23005" lon="18.122844">
        <ele>34</ele>
        <time>2019-12-09T16:23:02Z</time>
      </trkpt>
      <trkpt lat="59.230034" lon="18.122764">
        <ele>34</ele>
        <time>2019-12-09T16:23:03Z</time>
      </trkpt>
      <trkpt lat="59.230014" lon="18.122689">
        <ele>34</ele>
        <time>2019-12-09T16:23:04Z</time>
      </trkpt>
      <trkpt lat="59.229997" lon="18.122618">
        <ele>34</ele>
        <time>2019-12-09T16:23:05Z</time>
      </trkpt>
      <trkpt lat="59.22998" lon="18.122553">
        <ele>34</ele>
        <time>2019-12-09T16:23:06Z</time>
      </trkpt>
      <trkpt lat="59.229964" lon="18.122491">
        <ele>34</ele>
        <time>2019-12-09T16:23:07Z</time>
      </trkpt>
      <trkpt lat="59.229947" lon="18.122431">
        <ele>34</ele>
        <time>2019-12-09T16:23:08Z</time>
      </trkpt>
      <trkpt lat="59.22993" lon="18.122371">
        <ele>34</ele>
        <time>2019-12-09T16:23:09Z</time>
      </trkpt>
      <trkpt lat="59.229909" lon="18.122311">
        <ele>34</ele>
        <time>2019-12-09T16:23:10Z</time>
      </trkpt>
      <trkpt lat="59.229892" lon="18.122251">
        <ele>34</ele>
        <time>2019-12-09T16:23:11Z</time>
      </trkpt>
      <trkpt lat="59.229874" lon="18.122185">
        <ele>34</ele>
        <time>2019-12-09T16:23:12Z</time>
      </trkpt>
      <trkpt lat="59.229856" lon="18.122117">
        <ele>33</ele>
        <time>2019-12-09T16:23:13Z</time>
      </trkpt>
      <trkpt lat="59.229837" lon="18.122048">
        <ele>33</ele>
        <time>2019-12-09T16:23:14Z</time>
      </trkpt>
      <trkpt lat="59.229818" lon="18.121978">
        <ele>33</ele>
        <time>2019-12-09T16:23:15Z</time>
      </trkpt>
      <trkpt lat="59.2298" lon="18.121909">
        <ele>33</ele>
        <time>2019-12-09T16:23:16Z</time>
      </trkpt>
      <trkpt lat="59.229784" lon="18.121845">
        <ele>33</ele>
        <time>2019-12-09T16:23:17Z</time>
      </trkpt>
      <trkpt lat="59.229775" lon="18.121799">
        <ele>33</ele>
        <time>2019-12-09T16:23:18Z</time>
      </trkpt>
      <trkpt lat="59.229765" lon="18.121741">
        <ele>33</ele>
        <time>2019-12-09T16:23:20Z</time>
      </trkpt>
      <trkpt lat="59.229762" lon="18.121704">
        <ele>33</ele>
        <time>2019-12-09T16:23:22Z</time>
      </trkpt>
      <trkpt lat="59.229758" lon="18.121668">
        <ele>32</ele>
        <time>2019-12-09T16:23:25Z</time>
      </trkpt>
      <trkpt lat="59.229763" lon="18.121617">
        <ele>32</ele>
        <time>2019-12-09T16:23:28Z</time>
      </trkpt>
      <trkpt lat="59.229772" lon="18.121585">
        <ele>32</ele>
        <time>2019-12-09T16:23:29Z</time>
      </trkpt>
      <trkpt lat="59.229786" lon="18.121547">
        <ele>32</ele>
        <time>2019-12-09T16:23:30Z</time>
      </trkpt>
      <trkpt lat="59.229813" lon="18.121514">
        <ele>32</ele>
        <time>2019-12-09T16:23:31Z</time>
      </trkpt>
      <trkpt lat="59.229849" lon="18.121479">
        <ele>32</ele>
        <time>2019-12-09T16:23:32Z</time>
      </trkpt>
      <trkpt lat="59.229897" lon="18.121445">
        <ele>32</ele>
        <time>2019-12-09T16:23:33Z</time>
      </trkpt>
      <trkpt lat="59.229945" lon="18.121412">
        <ele>32</ele>
        <time>2019-12-09T16:23:34Z</time>
      </trkpt>
      <trkpt lat="59.22999" lon="18.121383">
        <ele>33</ele>
        <time>2019-12-09T16:23:35Z</time>
      </trkpt>
      <trkpt lat="59.230029" lon="18.12135">
        <ele>33</ele>
        <time>2019-12-09T16:23:36Z</time>
      </trkpt>
      <trkpt lat="59.230073" lon="18.121307">
        <ele>33</ele>
        <time>2019-12-09T16:23:37Z</time>
      </trkpt>
      <trkpt lat="59.230126" lon="18.121259">
        <ele>33</ele>
        <time>2019-12-09T16:23:38Z</time>
      </trkpt>
      <trkpt lat="59.230182" lon="18.121215">
        <ele>34</ele>
        <time>2019-12-09T16:23:39Z</time>
      </trkpt>
      <trkpt lat="59.23024" lon="18.12118">
        <ele>34</ele>
        <time>2019-12-09T16:23:40Z</time>
      </trkpt>
      <trkpt lat="59.230294" lon="18.121152">
        <ele>35</ele>
        <time>2019-12-09T16:23:41Z</time>
      </trkpt>
      <trkpt lat="59.230346" lon="18.121133">
        <ele>35</ele>
        <time>2019-12-09T16:23:42Z</time>
      </trkpt>
      <trkpt lat="59.230398" lon="18.121128">
        <ele>35</ele>
        <time>2019-12-09T16:23:43Z</time>
      </trkpt>
      <trkpt lat="59.230453" lon="18.121129">
        <ele>35</ele>
        <time>2019-12-09T16:23:44Z</time>
      </trkpt>
      <trkpt lat="59.23051" lon="18.121125">
        <ele>35</ele>
        <time>2019-12-09T16:23:45Z</time>
      </trkpt>
      <trkpt lat="59.230564" lon="18.12112">
        <ele>35</ele>
        <time>2019-12-09T16:23:46Z</time>
      </trkpt>
      <trkpt lat="59.230619" lon="18.121104">
        <ele>35</ele>
        <time>2019-12-09T16:23:47Z</time>
      </trkpt>
      <trkpt lat="59.230674" lon="18.121079">
        <ele>35</ele>
        <time>2019-12-09T16:23:48Z</time>
      </trkpt>
      <trkpt lat="59.230725" lon="18.121054">
        <ele>36</ele>
        <time>2019-12-09T16:23:49Z</time>
      </trkpt>
      <trkpt lat="59.230776" lon="18.121026">
        <ele>36</ele>
        <time>2019-12-09T16:23:50Z</time>
      </trkpt>
      <trkpt lat="59.230825" lon="18.120994">
        <ele>36</ele>
        <time>2019-12-09T16:23:51Z</time>
      </trkpt>
      <trkpt lat="59.230875" lon="18.120959">
        <ele>36</ele>
        <time>2019-12-09T16:23:52Z</time>
      </trkpt>
      <trkpt lat="59.230932" lon="18.120927">
        <ele>36</ele>
        <time>2019-12-09T16:23:53Z</time>
      </trkpt>
      <trkpt lat="59.230989" lon="18.120888">
        <ele>37</ele>
        <time>2019-12-09T16:23:54Z</time>
      </trkpt>
      <trkpt lat="59.231042" lon="18.120854">
        <ele>37</ele>
        <time>2019-12-09T16:23:55Z</time>
      </trkpt>
      <trkpt lat="59.231089" lon="18.120821">
        <ele>37</ele>
        <time>2019-12-09T16:23:56Z</time>
      </trkpt>
      <trkpt lat="59.231137" lon="18.120786">
        <ele>37</ele>
        <time>2019-12-09T16:23:57Z</time>
      </trkpt>
      <trkpt lat="59.231186" lon="18.120751">
        <ele>37</ele>
        <time>2019-12-09T16:23:58Z</time>
      </trkpt>
      <trkpt lat="59.231236" lon="18.120717">
        <ele>38</ele>
        <time>2019-12-09T16:23:59Z</time>
      </trkpt>
      <trkpt lat="59.231282" lon="18.120687">
        <ele>38</ele>
        <time>2019-12-09T16:24:00Z</time>
      </trkpt>
      <trkpt lat="59.231328" lon="18.120655">
        <ele>38</ele>
        <time>2019-12-09T16:24:01Z</time>
      </trkpt>
      <trkpt lat="59.231373" lon="18.12062">
        <ele>38</ele>
        <time>2019-12-09T16:24:02Z</time>
      </trkpt>
      <trkpt lat="59.23142" lon="18.120578">
        <ele>39</ele>
        <time>2019-12-09T16:24:03Z</time>
      </trkpt>
      <trkpt lat="59.23147" lon="18.120539">
        <ele>39</ele>
        <time>2019-12-09T16:24:04Z</time>
      </trkpt>
      <trkpt lat="59.231518" lon="18.120503">
        <ele>39</ele>
        <time>2019-12-09T16:24:05Z</time>
      </trkpt>
      <trkpt lat="59.231562" lon="18.120476">
        <ele>39</ele>
        <time>2019-12-09T16:24:06Z</time>
      </trkpt>
      <trkpt lat="59.231605" lon="18.120448">
        <ele>39</ele>
        <time>2019-12-09T16:24:07Z</time>
      </trkpt>
      <trkpt lat="59.231647" lon="18.120419">
        <ele>39</ele>
        <time>2019-12-09T16:24:08Z</time>
      </trkpt>
      <trkpt lat="59.231693" lon="18.120395">
        <ele>39</ele>
        <time>2019-12-09T16:24:09Z</time>
      </trkpt>
      <trkpt lat="59.231744" lon="18.120364">
        <ele>39</ele>
        <time>2019-12-09T16:24:10Z</time>
      </trkpt>
      <trkpt lat="59.231803" lon="18.120337">
        <ele>39</ele>
        <time>2019-12-09T16:24:11Z</time>
      </trkpt>
      <trkpt lat="59.231866" lon="18.120308">
        <ele>39</ele>
        <time>2019-12-09T16:24:12Z</time>
      </trkpt>
      <trkpt lat="59.231927" lon="18.120276">
        <ele>39</ele>
        <time>2019-12-09T16:24:13Z</time>
      </trkpt>
      <trkpt lat="59.231988" lon="18.120248">
        <ele>40</ele>
        <time>2019-12-09T16:24:14Z</time>
      </trkpt>
      <trkpt lat="59.232051" lon="18.120233">
        <ele>40</ele>
        <time>2019-12-09T16:24:15Z</time>
      </trkpt>
      <trkpt lat="59.23212" lon="18.120234">
        <ele>40</ele>
        <time>2019-12-09T16:24:16Z</time>
      </trkpt>
      <trkpt lat="59.232189" lon="18.120248">
        <ele>40</ele>
        <time>2019-12-09T16:24:17Z</time>
      </trkpt>
      <trkpt lat="59.232254" lon="18.120268">
        <ele>40</ele>
        <time>2019-12-09T16:24:18Z</time>
      </trkpt>
      <trkpt lat="59.232311" lon="18.120298">
        <ele>40</ele>
        <time>2019-12-09T16:24:19Z</time>
      </trkpt>
      <trkpt lat="59.232357" lon="18.120339">
        <ele>40</ele>
        <time>2019-12-09T16:24:20Z</time>
      </trkpt>
      <trkpt lat="59.232399" lon="18.12039">
        <ele>40</ele>
        <time>2019-12-09T16:24:21Z</time>
      </trkpt>
      <trkpt lat="59.232425" lon="18.120441">
        <ele>40</ele>
        <time>2019-12-09T16:24:22Z</time>
      </trkpt>
      <trkpt lat="59.232444" lon="18.120495">
        <ele>40</ele>
        <time>2019-12-09T16:24:23Z</time>
      </trkpt>
      <trkpt lat="59.232458" lon="18.120548">
        <ele>40</ele>
        <time>2019-12-09T16:24:24Z</time>
      </trkpt>
      <trkpt lat="59.232467" lon="18.120596">
        <ele>40</ele>
        <time>2019-12-09T16:24:25Z</time>
      </trkpt>
      <trkpt lat="59.232472" lon="18.120632">
        <ele>41</ele>
        <time>2019-12-09T16:24:26Z</time>
      </trkpt>
      <trkpt lat="59.232484" lon="18.120664">
        <ele>41</ele>
        <time>2019-12-09T16:24:28Z</time>
      </trkpt>
      <trkpt lat="59.232486" lon="18.120672">
        <ele>0</ele>
        <time>2019-12-09T16:24:31Z</time>
      </trkpt>
      <trkpt lat="59.23254" lon="18.120805">
        <ele>41</ele>
        <time>2019-12-09T16:25:19Z</time>
      </trkpt>
      <trkpt lat="59.232562" lon="18.120862">
        <ele>41</ele>
        <time>2019-12-09T16:25:20Z</time>
      </trkpt>
      <trkpt lat="59.232587" lon="18.120926">
        <ele>41</ele>
        <time>2019-12-09T16:25:21Z</time>
      </trkpt>
      <trkpt lat="59.232618" lon="18.120985">
        <ele>41</ele>
        <time>2019-12-09T16:25:22Z</time>
      </trkpt>
      <trkpt lat="59.232658" lon="18.121028">
        <ele>41</ele>
        <time>2019-12-09T16:25:23Z</time>
      </trkpt>
      <trkpt lat="59.232702" lon="18.121068">
        <ele>0</ele>
        <time>2019-12-09T16:25:23Z</time>
      </trkpt>
      <trkpt lat="59.232745" lon="18.121116">
        <ele>42</ele>
        <time>2019-12-09T16:25:24Z</time>
      </trkpt>
      <trkpt lat="59.232789" lon="18.121176">
        <ele>42</ele>
        <time>2019-12-09T16:25:26Z</time>
      </trkpt>
      <trkpt lat="59.232833" lon="18.121238">
        <ele>42</ele>
        <time>2019-12-09T16:25:27Z</time>
      </trkpt>
      <trkpt lat="59.232878" lon="18.121294">
        <ele>41</ele>
        <time>2019-12-09T16:25:28Z</time>
      </trkpt>
      <trkpt lat="59.232927" lon="18.121337">
        <ele>41</ele>
        <time>2019-12-09T16:25:29Z</time>
      </trkpt>
      <trkpt lat="59.23298" lon="18.121364">
        <ele>41</ele>
        <time>2019-12-09T16:25:30Z</time>
      </trkpt>
      <trkpt lat="59.233039" lon="18.121376">
        <ele>41</ele>
        <time>2019-12-09T16:25:31Z</time>
      </trkpt>
      <trkpt lat="59.2331" lon="18.121366">
        <ele>41</ele>
        <time>2019-12-09T16:25:32Z</time>
      </trkpt>
      <trkpt lat="59.233164" lon="18.121336">
        <ele>40</ele>
        <time>2019-12-09T16:25:33Z</time>
      </trkpt>
      <trkpt lat="59.233226" lon="18.121287">
        <ele>40</ele>
        <time>2019-12-09T16:25:34Z</time>
      </trkpt>
      <trkpt lat="59.233294" lon="18.121231">
        <ele>39</ele>
        <time>2019-12-09T16:25:35Z</time>
      </trkpt>
      <trkpt lat="59.233367" lon="18.121174">
        <ele>39</ele>
        <time>2019-12-09T16:25:36Z</time>
      </trkpt>
      <trkpt lat="59.233443" lon="18.121121">
        <ele>39</ele>
        <time>2019-12-09T16:25:37Z</time>
      </trkpt>
      <trkpt lat="59.233523" lon="18.121066">
        <ele>39</ele>
        <time>2019-12-09T16:25:38Z</time>
      </trkpt>
      <trkpt lat="59.233604" lon="18.121006">
        <ele>38</ele>
        <time>2019-12-09T16:25:39Z</time>
      </trkpt>
      <trkpt lat="59.233688" lon="18.120946">
        <ele>38</ele>
        <time>2019-12-09T16:25:40Z</time>
      </trkpt>
      <trkpt lat="59.233772" lon="18.120882">
        <ele>38</ele>
        <time>2019-12-09T16:25:41Z</time>
      </trkpt>
      <trkpt lat="59.233855" lon="18.120817">
        <ele>38</ele>
        <time>2019-12-09T16:25:42Z</time>
      </trkpt>
      <trkpt lat="59.23394" lon="18.120753">
        <ele>37</ele>
        <time>2019-12-09T16:25:43Z</time>
      </trkpt>
      <trkpt lat="59.234035" lon="18.120696">
        <ele>37</ele>
        <time>2019-12-09T16:25:44Z</time>
      </trkpt>
      <trkpt lat="59.23413" lon="18.120637">
        <ele>37</ele>
        <time>2019-12-09T16:25:45Z</time>
      </trkpt>
      <trkpt lat="59.234225" lon="18.120572">
        <ele>35</ele>
        <time>2019-12-09T16:25:46Z</time>
      </trkpt>
      <trkpt lat="59.234325" lon="18.120506">
        <ele>34</ele>
        <time>2019-12-09T16:25:47Z</time>
      </trkpt>
      <trkpt lat="59.23443" lon="18.120451">
        <ele>33</ele>
        <time>2019-12-09T16:25:48Z</time>
      </trkpt>
      <trkpt lat="59.234531" lon="18.120394">
        <ele>32</ele>
        <time>2019-12-09T16:25:49Z</time>
      </trkpt>
      <trkpt lat="59.234632" lon="18.120339">
        <ele>32</ele>
        <time>2019-12-09T16:25:50Z</time>
      </trkpt>
      <trkpt lat="59.234727" lon="18.12028">
        <ele>31</ele>
        <time>2019-12-09T16:25:51Z</time>
      </trkpt>
      <trkpt lat="59.234818" lon="18.120218">
        <ele>31</ele>
        <time>2019-12-09T16:25:52Z</time>
      </trkpt>
      <trkpt lat="59.23491" lon="18.120159">
        <ele>30</ele>
        <time>2019-12-09T16:25:53Z</time>
      </trkpt>
      <trkpt lat="59.235001" lon="18.120106">
        <ele>29</ele>
        <time>2019-12-09T16:25:54Z</time>
      </trkpt>
      <trkpt lat="59.235093" lon="18.12007">
        <ele>29</ele>
        <time>2019-12-09T16:25:55Z</time>
      </trkpt>
      <trkpt lat="59.235187" lon="18.120048">
        <ele>28</ele>
        <time>2019-12-09T16:25:56Z</time>
      </trkpt>
      <trkpt lat="59.235281" lon="18.12002">
        <ele>28</ele>
        <time>2019-12-09T16:25:57Z</time>
      </trkpt>
      <trkpt lat="59.235373" lon="18.119984">
        <ele>27</ele>
        <time>2019-12-09T16:25:58Z</time>
      </trkpt>
      <trkpt lat="59.235464" lon="18.119943">
        <ele>27</ele>
        <time>2019-12-09T16:25:59Z</time>
      </trkpt>
      <trkpt lat="59.235552" lon="18.119895">
        <ele>27</ele>
        <time>2019-12-09T16:26:00Z</time>
      </trkpt>
      <trkpt lat="59.235637" lon="18.119834">
        <ele>27</ele>
        <time>2019-12-09T16:26:01Z</time>
      </trkpt>
      <trkpt lat="59.235719" lon="18.11977">
        <ele>27</ele>
        <time>2019-12-09T16:26:02Z</time>
      </trkpt>
      <trkpt lat="59.235806" lon="18.119718">
        <ele>27</ele>
        <time>2019-12-09T16:26:03Z</time>
      </trkpt>
      <trkpt lat="59.235893" lon="18.119678">
        <ele>27</ele>
        <time>2019-12-09T16:26:04Z</time>
      </trkpt>
      <trkpt lat="59.23598" lon="18.119649">
        <ele>26</ele>
        <time>2019-12-09T16:26:05Z</time>
      </trkpt>
      <trkpt lat="59.236066" lon="18.119626">
        <ele>26</ele>
        <time>2019-12-09T16:26:06Z</time>
      </trkpt>
      <trkpt lat="59.236152" lon="18.119602">
        <ele>26</ele>
        <time>2019-12-09T16:26:07Z</time>
      </trkpt>
      <trkpt lat="59.236237" lon="18.119581">
        <ele>26</ele>
        <time>2019-12-09T16:26:08Z</time>
      </trkpt>
      <trkpt lat="59.23632" lon="18.119565">
        <ele>26</ele>
        <time>2019-12-09T16:26:09Z</time>
      </trkpt>
      <trkpt lat="59.236404" lon="18.119552">
        <ele>26</ele>
        <time>2019-12-09T16:26:10Z</time>
      </trkpt>
      <trkpt lat="59.236487" lon="18.119541">
        <ele>26</ele>
        <time>2019-12-09T16:26:11Z</time>
      </trkpt>
      <trkpt lat="59.23657" lon="18.119536">
        <ele>26</ele>
        <time>2019-12-09T16:26:12Z</time>
      </trkpt>
      <trkpt lat="59.236654" lon="18.119533">
        <ele>26</ele>
        <time>2019-12-09T16:26:13Z</time>
      </trkpt>
      <trkpt lat="59.236739" lon="18.119533">
        <ele>26</ele>
        <time>2019-12-09T16:26:14Z</time>
      </trkpt>
      <trkpt lat="59.236822" lon="18.119535">
        <ele>26</ele>
        <time>2019-12-09T16:26:15Z</time>
      </trkpt>
      <trkpt lat="59.236904" lon="18.119538">
        <ele>26</ele>
        <time>2019-12-09T16:26:16Z</time>
      </trkpt>
      <trkpt lat="59.236986" lon="18.119544">
        <ele>26</ele>
        <time>2019-12-09T16:26:17Z</time>
      </trkpt>
      <trkpt lat="59.237068" lon="18.119555">
        <ele>26</ele>
        <time>2019-12-09T16:26:18Z</time>
      </trkpt>
      <trkpt lat="59.23715" lon="18.119566">
        <ele>26</ele>
        <time>2019-12-09T16:26:19Z</time>
      </trkpt>
      <trkpt lat="59.237231" lon="18.119577">
        <ele>25</ele>
        <time>2019-12-09T16:26:20Z</time>
      </trkpt>
      <trkpt lat="59.237311" lon="18.119588">
        <ele>25</ele>
        <time>2019-12-09T16:26:21Z</time>
      </trkpt>
      <trkpt lat="59.237391" lon="18.119602">
        <ele>25</ele>
        <time>2019-12-09T16:26:22Z</time>
      </trkpt>
      <trkpt lat="59.237471" lon="18.119614">
        <ele>25</ele>
        <time>2019-12-09T16:26:23Z</time>
      </trkpt>
      <trkpt lat="59.237551" lon="18.119628">
        <ele>25</ele>
        <time>2019-12-09T16:26:24Z</time>
      </trkpt>
      <trkpt lat="59.237631" lon="18.11964">
        <ele>25</ele>
        <time>2019-12-09T16:26:25Z</time>
      </trkpt>
      <trkpt lat="59.23771" lon="18.11965">
        <ele>25</ele>
        <time>2019-12-09T16:26:26Z</time>
      </trkpt>
      <trkpt lat="59.237787" lon="18.119659">
        <ele>25</ele>
        <time>2019-12-09T16:26:27Z</time>
      </trkpt>
      <trkpt lat="59.237864" lon="18.11967">
        <ele>25</ele>
        <time>2019-12-09T16:26:28Z</time>
      </trkpt>
      <trkpt lat="59.23794" lon="18.119678">
        <ele>25</ele>
        <time>2019-12-09T16:26:29Z</time>
      </trkpt>
      <trkpt lat="59.238016" lon="18.119687">
        <ele>25</ele>
        <time>2019-12-09T16:26:30Z</time>
      </trkpt>
      <trkpt lat="59.238096" lon="18.119699">
        <ele>25</ele>
        <time>2019-12-09T16:26:31Z</time>
      </trkpt>
      <trkpt lat="59.238176" lon="18.119708">
        <ele>25</ele>
        <time>2019-12-09T16:26:32Z</time>
      </trkpt>
      <trkpt lat="59.238253" lon="18.119713">
        <ele>26</ele>
        <time>2019-12-09T16:26:33Z</time>
      </trkpt>
      <trkpt lat="59.238332" lon="18.119723">
        <ele>26</ele>
        <time>2019-12-09T16:26:34Z</time>
      </trkpt>
      <trkpt lat="59.23841" lon="18.119733">
        <ele>26</ele>
        <time>2019-12-09T16:26:35Z</time>
      </trkpt>
      <trkpt lat="59.238491" lon="18.119744">
        <ele>26</ele>
        <time>2019-12-09T16:26:36Z</time>
      </trkpt>
      <trkpt lat="59.238577" lon="18.11976">
        <ele>25</ele>
        <time>2019-12-09T16:26:37Z</time>
      </trkpt>
      <trkpt lat="59.238665" lon="18.11978">
        <ele>25</ele>
        <time>2019-12-09T16:26:38Z</time>
      </trkpt>
      <trkpt lat="59.238753" lon="18.119795">
        <ele>25</ele>
        <time>2019-12-09T16:26:39Z</time>
      </trkpt>
      <trkpt lat="59.238841" lon="18.119808">
        <ele>25</ele>
        <time>2019-12-09T16:26:40Z</time>
      </trkpt>
      <trkpt lat="59.238927" lon="18.119818">
        <ele>25</ele>
        <time>2019-12-09T16:26:41Z</time>
      </trkpt>
      <trkpt lat="59.239016" lon="18.119822">
        <ele>25</ele>
        <time>2019-12-09T16:26:42Z</time>
      </trkpt>
      <trkpt lat="59.239101" lon="18.119817">
        <ele>25</ele>
        <time>2019-12-09T16:26:43Z</time>
      </trkpt>
      <trkpt lat="59.239185" lon="18.119804">
        <ele>25</ele>
        <time>2019-12-09T16:26:44Z</time>
      </trkpt>
      <trkpt lat="59.239272" lon="18.119789">
        <ele>25</ele>
        <time>2019-12-09T16:26:45Z</time>
      </trkpt>
      <trkpt lat="59.239356" lon="18.119773">
        <ele>25</ele>
        <time>2019-12-09T16:26:46Z</time>
      </trkpt>
      <trkpt lat="59.239442" lon="18.119752">
        <ele>25</ele>
        <time>2019-12-09T16:26:47Z</time>
      </trkpt>
      <trkpt lat="59.239524" lon="18.11972">
        <ele>25</ele>
        <time>2019-12-09T16:26:48Z</time>
      </trkpt>
      <trkpt lat="59.239607" lon="18.119686">
        <ele>25</ele>
        <time>2019-12-09T16:26:49Z</time>
      </trkpt>
      <trkpt lat="59.239691" lon="18.119656">
        <ele>25</ele>
        <time>2019-12-09T16:26:50Z</time>
      </trkpt>
      <trkpt lat="59.239776" lon="18.119625">
        <ele>25</ele>
        <time>2019-12-09T16:26:51Z</time>
      </trkpt>
      <trkpt lat="59.23986" lon="18.119592">
        <ele>25</ele>
        <time>2019-12-09T16:26:52Z</time>
      </trkpt>
      <trkpt lat="59.239939" lon="18.119559">
        <ele>0</ele>
        <time>2019-12-09T16:26:52Z</time>
      </trkpt>
      <trkpt lat="59.240018" lon="18.119529">
        <ele>25</ele>
        <time>2019-12-09T16:26:53Z</time>
      </trkpt>
      <trkpt lat="59.240093" lon="18.119501">
        <ele>25</ele>
        <time>2019-12-09T16:26:55Z</time>
      </trkpt>
      <trkpt lat="59.240167" lon="18.119475">
        <ele>25</ele>
        <time>2019-12-09T16:26:56Z</time>
      </trkpt>
      <trkpt lat="59.240238" lon="18.119448">
        <ele>25</ele>
        <time>2019-12-09T16:26:57Z</time>
      </trkpt>
      <trkpt lat="59.240304" lon="18.119422">
        <ele>25</ele>
        <time>2019-12-09T16:26:58Z</time>
      </trkpt>
      <trkpt lat="59.240366" lon="18.1194">
        <ele>25</ele>
        <time>2019-12-09T16:26:59Z</time>
      </trkpt>
      <trkpt lat="59.240421" lon="18.11939">
        <ele>25</ele>
        <time>2019-12-09T16:27:00Z</time>
      </trkpt>
      <trkpt lat="59.240471" lon="18.119411">
        <ele>25</ele>
        <time>2019-12-09T16:27:01Z</time>
      </trkpt>
      <trkpt lat="59.240512" lon="18.119463">
        <ele>25</ele>
        <time>2019-12-09T16:27:02Z</time>
      </trkpt>
      <trkpt lat="59.240556" lon="18.11952">
        <ele>24</ele>
        <time>2019-12-09T16:27:03Z</time>
      </trkpt>
      <trkpt lat="59.240599" lon="18.119549">
        <ele>24</ele>
        <time>2019-12-09T16:27:04Z</time>
      </trkpt>
      <trkpt lat="59.240645" lon="18.11955">
        <ele>25</ele>
        <time>2019-12-09T16:27:05Z</time>
      </trkpt>
      <trkpt lat="59.240692" lon="18.119539">
        <ele>25</ele>
        <time>2019-12-09T16:27:06Z</time>
      </trkpt>
      <trkpt lat="59.240749" lon="18.119539">
        <ele>25</ele>
        <time>2019-12-09T16:27:07Z</time>
      </trkpt>
      <trkpt lat="59.240807" lon="18.119547">
        <ele>25</ele>
        <time>2019-12-09T16:27:08Z</time>
      </trkpt>
      <trkpt lat="59.240861" lon="18.119573">
        <ele>25</ele>
        <time>2019-12-09T16:27:09Z</time>
      </trkpt>
      <trkpt lat="59.240915" lon="18.119614">
        <ele>25</ele>
        <time>2019-12-09T16:27:10Z</time>
      </trkpt>
      <trkpt lat="59.240965" lon="18.119664">
        <ele>25</ele>
        <time>2019-12-09T16:27:11Z</time>
      </trkpt>
      <trkpt lat="59.241014" lon="18.119719">
        <ele>25</ele>
        <time>2019-12-09T16:27:12Z</time>
      </trkpt>
      <trkpt lat="59.241064" lon="18.11977">
        <ele>25</ele>
        <time>2019-12-09T16:27:13Z</time>
      </trkpt>
      <trkpt lat="59.241118" lon="18.119804">
        <ele>24</ele>
        <time>2019-12-09T16:27:14Z</time>
      </trkpt>
      <trkpt lat="59.241153" lon="18.119803">
        <ele>23</ele>
        <time>2019-12-09T16:27:15Z</time>
      </trkpt>
      <trkpt lat="59.24117" lon="18.119538">
        <ele>21</ele>
        <time>2019-12-09T16:27:19Z</time>
      </trkpt>
      <trkpt lat="59.24117" lon="18.119293">
        <ele>21</ele>
        <time>2019-12-09T16:27:21Z</time>
      </trkpt>
      <trkpt lat="59.241189" lon="18.119209">
        <ele>21</ele>
        <time>2019-12-09T16:27:22Z</time>
      </trkpt>
      <trkpt lat="59.241227" lon="18.119154">
        <ele>21</ele>
        <time>2019-12-09T16:27:23Z</time>
      </trkpt>
      <trkpt lat="59.241266" lon="18.119125">
        <ele>21</ele>
        <time>2019-12-09T16:27:24Z</time>
      </trkpt>
      <trkpt lat="59.241304" lon="18.11911">
        <ele>22</ele>
        <time>2019-12-09T16:27:25Z</time>
      </trkpt>
      <trkpt lat="59.241341" lon="18.11911">
        <ele>22</ele>
        <time>2019-12-09T16:27:26Z</time>
      </trkpt>
      <trkpt lat="59.241382" lon="18.11912">
        <ele>22</ele>
        <time>2019-12-09T16:27:27Z</time>
      </trkpt>
      <trkpt lat="59.24143" lon="18.119136">
        <ele>22</ele>
        <time>2019-12-09T16:27:28Z</time>
      </trkpt>
      <trkpt lat="59.241486" lon="18.119162">
        <ele>21</ele>
        <time>2019-12-09T16:27:29Z</time>
      </trkpt>
      <trkpt lat="59.241549" lon="18.119212">
        <ele>21</ele>
        <time>2019-12-09T16:27:30Z</time>
      </trkpt>
      <trkpt lat="59.241617" lon="18.119265">
        <ele>21</ele>
        <time>2019-12-09T16:27:31Z</time>
      </trkpt>
      <trkpt lat="59.241668" lon="18.119302">
        <ele>21</ele>
        <time>2019-12-09T16:27:32Z</time>
      </trkpt>
      <trkpt lat="59.241707" lon="18.119328">
        <ele>21</ele>
        <time>2019-12-09T16:27:33Z</time>
      </trkpt>
      <trkpt lat="59.241744" lon="18.119343">
        <ele>21</ele>
        <time>2019-12-09T16:27:34Z</time>
      </trkpt>
      <trkpt lat="59.241785" lon="18.119361">
        <ele>21</ele>
        <time>2019-12-09T16:27:35Z</time>
      </trkpt>
      <trkpt lat="59.241832" lon="18.119371">
        <ele>21</ele>
        <time>2019-12-09T16:27:36Z</time>
      </trkpt>
      <trkpt lat="59.241881" lon="18.119365">
        <ele>21</ele>
        <time>2019-12-09T16:27:37Z</time>
      </trkpt>
      <trkpt lat="59.241933" lon="18.119346">
        <ele>21</ele>
        <time>2019-12-09T16:27:38Z</time>
      </trkpt>
      <trkpt lat="59.241993" lon="18.119326">
        <ele>22</ele>
        <time>2019-12-09T16:27:39Z</time>
      </trkpt>
      <trkpt lat="59.242052" lon="18.1193">
        <ele>22</ele>
        <time>2019-12-09T16:27:40Z</time>
      </trkpt>
      <trkpt lat="59.242111" lon="18.119268">
        <ele>22</ele>
        <time>2019-12-09T16:27:41Z</time>
      </trkpt>
      <trkpt lat="59.242167" lon="18.119234">
        <ele>22</ele>
        <time>2019-12-09T16:27:42Z</time>
      </trkpt>
      <trkpt lat="59.242222" lon="18.119198">
        <ele>22</ele>
        <time>2019-12-09T16:27:43Z</time>
      </trkpt>
      <trkpt lat="59.242278" lon="18.119157">
        <ele>22</ele>
        <time>2019-12-09T16:27:44Z</time>
      </trkpt>
      <trkpt lat="59.242331" lon="18.119104">
        <ele>22</ele>
        <time>2019-12-09T16:27:45Z</time>
      </trkpt>
      <trkpt lat="59.242385" lon="18.119042">
        <ele>22</ele>
        <time>2019-12-09T16:27:46Z</time>
      </trkpt>
      <trkpt lat="59.242438" lon="18.118976">
        <ele>22</ele>
        <time>2019-12-09T16:27:47Z</time>
      </trkpt>
      <trkpt lat="59.242488" lon="18.118899">
        <ele>22</ele>
        <time>2019-12-09T16:27:48Z</time>
      </trkpt>
      <trkpt lat="59.242536" lon="18.118813">
        <ele>22</ele>
        <time>2019-12-09T16:27:49Z</time>
      </trkpt>
      <trkpt lat="59.242577" lon="18.118715">
        <ele>0</ele>
        <time>2019-12-09T16:27:49Z</time>
      </trkpt>
      <trkpt lat="59.242616" lon="18.118609">
        <ele>22</ele>
        <time>2019-12-09T16:27:50Z</time>
      </trkpt>
      <trkpt lat="59.24265" lon="18.118501">
        <ele>22</ele>
        <time>2019-12-09T16:27:52Z</time>
      </trkpt>
      <trkpt lat="59.242683" lon="18.118395">
        <ele>22</ele>
        <time>2019-12-09T16:27:53Z</time>
      </trkpt>
      <trkpt lat="59.242711" lon="18.118286">
        <ele>22</ele>
        <time>2019-12-09T16:27:54Z</time>
      </trkpt>
      <trkpt lat="59.242743" lon="18.118174">
        <ele>22</ele>
        <time>2019-12-09T16:27:55Z</time>
      </trkpt>
      <trkpt lat="59.242778" lon="18.118065">
        <ele>22</ele>
        <time>2019-12-09T16:27:56Z</time>
      </trkpt>
      <trkpt lat="59.242815" lon="18.117955">
        <ele>22</ele>
        <time>2019-12-09T16:27:57Z</time>
      </trkpt>
      <trkpt lat="59.24285" lon="18.117843">
        <ele>22</ele>
        <time>2019-12-09T16:27:58Z</time>
      </trkpt>
      <trkpt lat="59.242883" lon="18.117731">
        <ele>22</ele>
        <time>2019-12-09T16:27:59Z</time>
      </trkpt>
      <trkpt lat="59.242917" lon="18.11762">
        <ele>23</ele>
        <time>2019-12-09T16:28:00Z</time>
      </trkpt>
      <trkpt lat="59.242949" lon="18.117509">
        <ele>23</ele>
        <time>2019-12-09T16:28:01Z</time>
      </trkpt>
      <trkpt lat="59.242979" lon="18.117401">
        <ele>23</ele>
        <time>2019-12-09T16:28:02Z</time>
      </trkpt>
      <trkpt lat="59.243008" lon="18.117295">
        <ele>23</ele>
        <time>2019-12-09T16:28:03Z</time>
      </trkpt>
      <trkpt lat="59.243037" lon="18.117191">
        <ele>23</ele>
        <time>2019-12-09T16:28:04Z</time>
      </trkpt>
      <trkpt lat="59.243066" lon="18.117085">
        <ele>23</ele>
        <time>2019-12-09T16:28:05Z</time>
      </trkpt>
      <trkpt lat="59.243095" lon="18.116983">
        <ele>23</ele>
        <time>2019-12-09T16:28:06Z</time>
      </trkpt>
      <trkpt lat="59.243126" lon="18.116884">
        <ele>23</ele>
        <time>2019-12-09T16:28:07Z</time>
      </trkpt>
      <trkpt lat="59.243156" lon="18.116784">
        <ele>23</ele>
        <time>2019-12-09T16:28:08Z</time>
      </trkpt>
      <trkpt lat="59.243187" lon="18.116688">
        <ele>23</ele>
        <time>2019-12-09T16:28:09Z</time>
      </trkpt>
      <trkpt lat="59.243219" lon="18.116589">
        <ele>23</ele>
        <time>2019-12-09T16:28:10Z</time>
      </trkpt>
      <trkpt lat="59.243249" lon="18.116491">
        <ele>23</ele>
        <time>2019-12-09T16:28:11Z</time>
      </trkpt>
      <trkpt lat="59.243278" lon="18.116396">
        <ele>23</ele>
        <time>2019-12-09T16:28:12Z</time>
      </trkpt>
      <trkpt lat="59.243309" lon="18.116299">
        <ele>23</ele>
        <time>2019-12-09T16:28:13Z</time>
      </trkpt>
      <trkpt lat="59.243345" lon="18.116203">
        <ele>23</ele>
        <time>2019-12-09T16:28:14Z</time>
      </trkpt>
      <trkpt lat="59.24338" lon="18.116109">
        <ele>22</ele>
        <time>2019-12-09T16:28:15Z</time>
      </trkpt>
      <trkpt lat="59.243413" lon="18.116014">
        <ele>22</ele>
        <time>2019-12-09T16:28:16Z</time>
      </trkpt>
      <trkpt lat="59.243445" lon="18.115921">
        <ele>22</ele>
        <time>2019-12-09T16:28:17Z</time>
      </trkpt>
      <trkpt lat="59.243476" lon="18.115829">
        <ele>22</ele>
        <time>2019-12-09T16:28:18Z</time>
      </trkpt>
      <trkpt lat="59.243507" lon="18.115736">
        <ele>22</ele>
        <time>2019-12-09T16:28:19Z</time>
      </trkpt>
      <trkpt lat="59.243535" lon="18.11564">
        <ele>22</ele>
        <time>2019-12-09T16:28:20Z</time>
      </trkpt>
      <trkpt lat="59.24356" lon="18.115541">
        <ele>22</ele>
        <time>2019-12-09T16:28:21Z</time>
      </trkpt>
      <trkpt lat="59.243579" lon="18.115438">
        <ele>22</ele>
        <time>2019-12-09T16:28:22Z</time>
      </trkpt>
      <trkpt lat="59.243592" lon="18.115331">
        <ele>22</ele>
        <time>2019-12-09T16:28:23Z</time>
      </trkpt>
      <trkpt lat="59.243603" lon="18.115222">
        <ele>22</ele>
        <time>2019-12-09T16:28:24Z</time>
      </trkpt>
      <trkpt lat="59.243612" lon="18.115118">
        <ele>22</ele>
        <time>2019-12-09T16:28:25Z</time>
      </trkpt>
      <trkpt lat="59.243623" lon="18.115014">
        <ele>22</ele>
        <time>2019-12-09T16:28:26Z</time>
      </trkpt>
      <trkpt lat="59.243634" lon="18.114914">
        <ele>22</ele>
        <time>2019-12-09T16:28:27Z</time>
      </trkpt>
      <trkpt lat="59.24365" lon="18.114816">
        <ele>22</ele>
        <time>2019-12-09T16:28:28Z</time>
      </trkpt>
      <trkpt lat="59.243664" lon="18.11472">
        <ele>22</ele>
        <time>2019-12-09T16:28:29Z</time>
      </trkpt>
      <trkpt lat="59.243684" lon="18.11462">
        <ele>22</ele>
        <time>2019-12-09T16:28:30Z</time>
      </trkpt>
      <trkpt lat="59.243706" lon="18.114521">
        <ele>23</ele>
        <time>2019-12-09T16:28:31Z</time>
      </trkpt>
      <trkpt lat="59.243727" lon="18.11442">
        <ele>23</ele>
        <time>2019-12-09T16:28:32Z</time>
      </trkpt>
      <trkpt lat="59.243744" lon="18.11432">
        <ele>23</ele>
        <time>2019-12-09T16:28:33Z</time>
      </trkpt>
      <trkpt lat="59.243754" lon="18.114221">
        <ele>23</ele>
        <time>2019-12-09T16:28:34Z</time>
      </trkpt>
      <trkpt lat="59.243764" lon="18.114121">
        <ele>23</ele>
        <time>2019-12-09T16:28:35Z</time>
      </trkpt>
      <trkpt lat="59.243776" lon="18.11402">
        <ele>23</ele>
        <time>2019-12-09T16:28:36Z</time>
      </trkpt>
      <trkpt lat="59.243787" lon="18.113918">
        <ele>23</ele>
        <time>2019-12-09T16:28:37Z</time>
      </trkpt>
      <trkpt lat="59.243797" lon="18.113813">
        <ele>23</ele>
        <time>2019-12-09T16:28:38Z</time>
      </trkpt>
      <trkpt lat="59.243802" lon="18.113712">
        <ele>23</ele>
        <time>2019-12-09T16:28:39Z</time>
      </trkpt>
      <trkpt lat="59.24381" lon="18.113607">
        <ele>24</ele>
        <time>2019-12-09T16:28:40Z</time>
      </trkpt>
      <trkpt lat="59.24382" lon="18.113503">
        <ele>24</ele>
        <time>2019-12-09T16:28:41Z</time>
      </trkpt>
      <trkpt lat="59.24383" lon="18.113396">
        <ele>24</ele>
        <time>2019-12-09T16:28:42Z</time>
      </trkpt>
      <trkpt lat="59.243843" lon="18.113293">
        <ele>23</ele>
        <time>2019-12-09T16:28:43Z</time>
      </trkpt>
      <trkpt lat="59.243863" lon="18.113186">
        <ele>23</ele>
        <time>2019-12-09T16:28:44Z</time>
      </trkpt>
      <trkpt lat="59.243878" lon="18.113079">
        <ele>23</ele>
        <time>2019-12-09T16:28:45Z</time>
      </trkpt>
      <trkpt lat="59.24389" lon="18.112974">
        <ele>23</ele>
        <time>2019-12-09T16:28:46Z</time>
      </trkpt>
      <trkpt lat="59.243896" lon="18.11287">
        <ele>23</ele>
        <time>2019-12-09T16:28:47Z</time>
      </trkpt>
      <trkpt lat="59.243899" lon="18.112768">
        <ele>23</ele>
        <time>2019-12-09T16:28:48Z</time>
      </trkpt>
      <trkpt lat="59.243904" lon="18.112665">
        <ele>23</ele>
        <time>2019-12-09T16:28:49Z</time>
      </trkpt>
      <trkpt lat="59.243909" lon="18.11256">
        <ele>23</ele>
        <time>2019-12-09T16:28:50Z</time>
      </trkpt>
      <trkpt lat="59.243913" lon="18.112456">
        <ele>22</ele>
        <time>2019-12-09T16:28:51Z</time>
      </trkpt>
      <trkpt lat="59.243915" lon="18.112354">
        <ele>22</ele>
        <time>2019-12-09T16:28:52Z</time>
      </trkpt>
      <trkpt lat="59.243916" lon="18.112252">
        <ele>22</ele>
        <time>2019-12-09T16:28:53Z</time>
      </trkpt>
      <trkpt lat="59.243919" lon="18.11215">
        <ele>23</ele>
        <time>2019-12-09T16:28:54Z</time>
      </trkpt>
      <trkpt lat="59.243921" lon="18.112049">
        <ele>23</ele>
        <time>2019-12-09T16:28:55Z</time>
      </trkpt>
      <trkpt lat="59.243921" lon="18.111949">
        <ele>23</ele>
        <time>2019-12-09T16:28:56Z</time>
      </trkpt>
      <trkpt lat="59.243921" lon="18.111851">
        <ele>23</ele>
        <time>2019-12-09T16:28:57Z</time>
      </trkpt>
      <trkpt lat="59.243922" lon="18.111755">
        <ele>23</ele>
        <time>2019-12-09T16:28:58Z</time>
      </trkpt>
      <trkpt lat="59.243922" lon="18.11166">
        <ele>23</ele>
        <time>2019-12-09T16:28:59Z</time>
      </trkpt>
      <trkpt lat="59.243924" lon="18.111568">
        <ele>23</ele>
        <time>2019-12-09T16:29:00Z</time>
      </trkpt>
      <trkpt lat="59.243927" lon="18.111481">
        <ele>23</ele>
        <time>2019-12-09T16:29:01Z</time>
      </trkpt>
      <trkpt lat="59.243929" lon="18.111394">
        <ele>23</ele>
        <time>2019-12-09T16:29:02Z</time>
      </trkpt>
      <trkpt lat="59.243931" lon="18.111308">
        <ele>23</ele>
        <time>2019-12-09T16:29:03Z</time>
      </trkpt>
      <trkpt lat="59.243933" lon="18.111227">
        <ele>24</ele>
        <time>2019-12-09T16:29:04Z</time>
      </trkpt>
      <trkpt lat="59.243933" lon="18.111146">
        <ele>24</ele>
        <time>2019-12-09T16:29:05Z</time>
      </trkpt>
      <trkpt lat="59.243933" lon="18.111065">
        <ele>24</ele>
        <time>2019-12-09T16:29:06Z</time>
      </trkpt>
      <trkpt lat="59.243934" lon="18.110983">
        <ele>24</ele>
        <time>2019-12-09T16:29:07Z</time>
      </trkpt>
      <trkpt lat="59.243935" lon="18.110901">
        <ele>24</ele>
        <time>2019-12-09T16:29:08Z</time>
      </trkpt>
      <trkpt lat="59.243938" lon="18.110821">
        <ele>24</ele>
        <time>2019-12-09T16:29:09Z</time>
      </trkpt>
      <trkpt lat="59.243941" lon="18.110741">
        <ele>24</ele>
        <time>2019-12-09T16:29:10Z</time>
      </trkpt>
      <trkpt lat="59.243943" lon="18.110661">
        <ele>24</ele>
        <time>2019-12-09T16:29:11Z</time>
      </trkpt>
      <trkpt lat="59.243945" lon="18.110581">
        <ele>24</ele>
        <time>2019-12-09T16:29:12Z</time>
      </trkpt>
      <trkpt lat="59.243948" lon="18.110501">
        <ele>25</ele>
        <time>2019-12-09T16:29:13Z</time>
      </trkpt>
      <trkpt lat="59.243948" lon="18.110419">
        <ele>25</ele>
        <time>2019-12-09T16:29:14Z</time>
      </trkpt>
      <trkpt lat="59.24395" lon="18.110337">
        <ele>25</ele>
        <time>2019-12-09T16:29:15Z</time>
      </trkpt>
      <trkpt lat="59.243953" lon="18.110259">
        <ele>25</ele>
        <time>2019-12-09T16:29:16Z</time>
      </trkpt>
      <trkpt lat="59.243955" lon="18.110179">
        <ele>25</ele>
        <time>2019-12-09T16:29:17Z</time>
      </trkpt>
      <trkpt lat="59.243956" lon="18.110101">
        <ele>25</ele>
        <time>2019-12-09T16:29:18Z</time>
      </trkpt>
      <trkpt lat="59.243958" lon="18.110024">
        <ele>25</ele>
        <time>2019-12-09T16:29:19Z</time>
      </trkpt>
      <trkpt lat="59.243961" lon="18.109945">
        <ele>25</ele>
        <time>2019-12-09T16:29:20Z</time>
      </trkpt>
      <trkpt lat="59.243963" lon="18.109865">
        <ele>26</ele>
        <time>2019-12-09T16:29:21Z</time>
      </trkpt>
      <trkpt lat="59.243967" lon="18.109785">
        <ele>26</ele>
        <time>2019-12-09T16:29:22Z</time>
      </trkpt>
      <trkpt lat="59.243972" lon="18.109703">
        <ele>26</ele>
        <time>2019-12-09T16:29:23Z</time>
      </trkpt>
      <trkpt lat="59.24398" lon="18.109622">
        <ele>26</ele>
        <time>2019-12-09T16:29:24Z</time>
      </trkpt>
      <trkpt lat="59.243989" lon="18.109543">
        <ele>26</ele>
        <time>2019-12-09T16:29:25Z</time>
      </trkpt>
      <trkpt lat="59.243999" lon="18.109468">
        <ele>26</ele>
        <time>2019-12-09T16:29:26Z</time>
      </trkpt>
      <trkpt lat="59.244012" lon="18.109393">
        <ele>26</ele>
        <time>2019-12-09T16:29:27Z</time>
      </trkpt>
      <trkpt lat="59.244028" lon="18.109319">
        <ele>27</ele>
        <time>2019-12-09T16:29:28Z</time>
      </trkpt>
      <trkpt lat="59.244048" lon="18.109243">
        <ele>27</ele>
        <time>2019-12-09T16:29:29Z</time>
      </trkpt>
      <trkpt lat="59.244071" lon="18.109168">
        <ele>27</ele>
        <time>2019-12-09T16:29:30Z</time>
      </trkpt>
      <trkpt lat="59.244096" lon="18.109094">
        <ele>27</ele>
        <time>2019-12-09T16:29:31Z</time>
      </trkpt>
      <trkpt lat="59.244124" lon="18.109023">
        <ele>27</ele>
        <time>2019-12-09T16:29:32Z</time>
      </trkpt>
      <trkpt lat="59.244153" lon="18.10895">
        <ele>27</ele>
        <time>2019-12-09T16:29:33Z</time>
      </trkpt>
      <trkpt lat="59.244185" lon="18.108881">
        <ele>27</ele>
        <time>2019-12-09T16:29:34Z</time>
      </trkpt>
      <trkpt lat="59.244219" lon="18.108818">
        <ele>27</ele>
        <time>2019-12-09T16:29:35Z</time>
      </trkpt>
      <trkpt lat="59.244254" lon="18.108758">
        <ele>27</ele>
        <time>2019-12-09T16:29:36Z</time>
      </trkpt>
      <trkpt lat="59.244288" lon="18.108698">
        <ele>27</ele>
        <time>2019-12-09T16:29:37Z</time>
      </trkpt>
      <trkpt lat="59.244322" lon="18.108637">
        <ele>27</ele>
        <time>2019-12-09T16:29:38Z</time>
      </trkpt>
      <trkpt lat="59.244354" lon="18.108575">
        <ele>27</ele>
        <time>2019-12-09T16:29:39Z</time>
      </trkpt>
      <trkpt lat="59.244387" lon="18.108512">
        <ele>28</ele>
        <time>2019-12-09T16:29:40Z</time>
      </trkpt>
      <trkpt lat="59.24442" lon="18.108448">
        <ele>28</ele>
        <time>2019-12-09T16:29:41Z</time>
      </trkpt>
      <trkpt lat="59.244453" lon="18.108384">
        <ele>28</ele>
        <time>2019-12-09T16:29:42Z</time>
      </trkpt>
      <trkpt lat="59.244486" lon="18.108322">
        <ele>28</ele>
        <time>2019-12-09T16:29:43Z</time>
      </trkpt>
      <trkpt lat="59.24452" lon="18.108258">
        <ele>28</ele>
        <time>2019-12-09T16:29:44Z</time>
      </trkpt>
      <trkpt lat="59.244553" lon="18.108192">
        <ele>28</ele>
        <time>2019-12-09T16:29:45Z</time>
      </trkpt>
      <trkpt lat="59.244586" lon="18.108128">
        <ele>28</ele>
        <time>2019-12-09T16:29:46Z</time>
      </trkpt>
      <trkpt lat="59.24462" lon="18.108065">
        <ele>28</ele>
        <time>2019-12-09T16:29:47Z</time>
      </trkpt>
      <trkpt lat="59.244654" lon="18.108">
        <ele>29</ele>
        <time>2019-12-09T16:29:48Z</time>
      </trkpt>
      <trkpt lat="59.244688" lon="18.107935">
        <ele>29</ele>
        <time>2019-12-09T16:29:49Z</time>
      </trkpt>
      <trkpt lat="59.244723" lon="18.107869">
        <ele>29</ele>
        <time>2019-12-09T16:29:50Z</time>
      </trkpt>
      <trkpt lat="59.244757" lon="18.107802">
        <ele>29</ele>
        <time>2019-12-09T16:29:51Z</time>
      </trkpt>
      <trkpt lat="59.244791" lon="18.107735">
        <ele>29</ele>
        <time>2019-12-09T16:29:52Z</time>
      </trkpt>
      <trkpt lat="59.244827" lon="18.107671">
        <ele>29</ele>
        <time>2019-12-09T16:29:53Z</time>
      </trkpt>
      <trkpt lat="59.244862" lon="18.107607">
        <ele>29</ele>
        <time>2019-12-09T16:29:54Z</time>
      </trkpt>
      <trkpt lat="59.244898" lon="18.107539">
        <ele>29</ele>
        <time>2019-12-09T16:29:55Z</time>
      </trkpt>
      <trkpt lat="59.244935" lon="18.107474">
        <ele>29</ele>
        <time>2019-12-09T16:29:56Z</time>
      </trkpt>
      <trkpt lat="59.244974" lon="18.107412">
        <ele>29</ele>
        <time>2019-12-09T16:29:57Z</time>
      </trkpt>
      <trkpt lat="59.245012" lon="18.107345">
        <ele>29</ele>
        <time>2019-12-09T16:29:58Z</time>
      </trkpt>
      <trkpt lat="59.245051" lon="18.107277">
        <ele>29</ele>
        <time>2019-12-09T16:29:59Z</time>
      </trkpt>
      <trkpt lat="59.245092" lon="18.107207">
        <ele>29</ele>
        <time>2019-12-09T16:30:00Z</time>
      </trkpt>
      <trkpt lat="59.245133" lon="18.107133">
        <ele>29</ele>
        <time>2019-12-09T16:30:01Z</time>
      </trkpt>
      <trkpt lat="59.245175" lon="18.107057">
        <ele>29</ele>
        <time>2019-12-09T16:30:02Z</time>
      </trkpt>
      <trkpt lat="59.245218" lon="18.106977">
        <ele>29</ele>
        <time>2019-12-09T16:30:03Z</time>
      </trkpt>
      <trkpt lat="59.245262" lon="18.106896">
        <ele>28</ele>
        <time>2019-12-09T16:30:04Z</time>
      </trkpt>
      <trkpt lat="59.245307" lon="18.106815">
        <ele>28</ele>
        <time>2019-12-09T16:30:05Z</time>
      </trkpt>
      <trkpt lat="59.245353" lon="18.106733">
        <ele>28</ele>
        <time>2019-12-09T16:30:06Z</time>
      </trkpt>
      <trkpt lat="59.2454" lon="18.106649">
        <ele>28</ele>
        <time>2019-12-09T16:30:07Z</time>
      </trkpt>
      <trkpt lat="59.245448" lon="18.106562">
        <ele>28</ele>
        <time>2019-12-09T16:30:08Z</time>
      </trkpt>
      <trkpt lat="59.245497" lon="18.106473">
        <ele>28</ele>
        <time>2019-12-09T16:30:09Z</time>
      </trkpt>
      <trkpt lat="59.245546" lon="18.106381">
        <ele>28</ele>
        <time>2019-12-09T16:30:10Z</time>
      </trkpt>
      <trkpt lat="59.245598" lon="18.106291">
        <ele>28</ele>
        <time>2019-12-09T16:30:11Z</time>
      </trkpt>
      <trkpt lat="59.245653" lon="18.106206">
        <ele>28</ele>
        <time>2019-12-09T16:30:12Z</time>
      </trkpt>
      <trkpt lat="59.24571" lon="18.106121">
        <ele>27</ele>
        <time>2019-12-09T16:30:13Z</time>
      </trkpt>
      <trkpt lat="59.245769" lon="18.106035">
        <ele>27</ele>
        <time>2019-12-09T16:30:14Z</time>
      </trkpt>
      <trkpt lat="59.245828" lon="18.105947">
        <ele>27</ele>
        <time>2019-12-09T16:30:15Z</time>
      </trkpt>
      <trkpt lat="59.245887" lon="18.105859">
        <ele>27</ele>
        <time>2019-12-09T16:30:16Z</time>
      </trkpt>
      <trkpt lat="59.245946" lon="18.105775">
        <ele>27</ele>
        <time>2019-12-09T16:30:17Z</time>
      </trkpt>
      <trkpt lat="59.246004" lon="18.105695">
        <ele>26</ele>
        <time>2019-12-09T16:30:18Z</time>
      </trkpt>
      <trkpt lat="59.246061" lon="18.105614">
        <ele>26</ele>
        <time>2019-12-09T16:30:19Z</time>
      </trkpt>
      <trkpt lat="59.24612" lon="18.105534">
        <ele>26</ele>
        <time>2019-12-09T16:30:20Z</time>
      </trkpt>
      <trkpt lat="59.24618" lon="18.10546">
        <ele>26</ele>
        <time>2019-12-09T16:30:21Z</time>
      </trkpt>
      <trkpt lat="59.246243" lon="18.1054">
        <ele>25</ele>
        <time>2019-12-09T16:30:22Z</time>
      </trkpt>
      <trkpt lat="59.246313" lon="18.105354">
        <ele>25</ele>
        <time>2019-12-09T16:30:23Z</time>
      </trkpt>
      <trkpt lat="59.246385" lon="18.105321">
        <ele>25</ele>
        <time>2019-12-09T16:30:24Z</time>
      </trkpt>
      <trkpt lat="59.246458" lon="18.105302">
        <ele>25</ele>
        <time>2019-12-09T16:30:25Z</time>
      </trkpt>
      <trkpt lat="59.24653" lon="18.105279">
        <ele>25</ele>
        <time>2019-12-09T16:30:26Z</time>
      </trkpt>
      <trkpt lat="59.246598" lon="18.105234">
        <ele>25</ele>
        <time>2019-12-09T16:30:27Z</time>
      </trkpt>
      <trkpt lat="59.246666" lon="18.105153">
        <ele>24</ele>
        <time>2019-12-09T16:30:28Z</time>
      </trkpt>
      <trkpt lat="59.246732" lon="18.105061">
        <ele>24</ele>
        <time>2019-12-09T16:30:29Z</time>
      </trkpt>
      <trkpt lat="59.246795" lon="18.104967">
        <ele>24</ele>
        <time>2019-12-09T16:30:30Z</time>
      </trkpt>
      <trkpt lat="59.246858" lon="18.104891">
        <ele>23</ele>
        <time>2019-12-09T16:30:31Z</time>
      </trkpt>
      <trkpt lat="59.246912" lon="18.104814">
        <ele>23</ele>
        <time>2019-12-09T16:30:32Z</time>
      </trkpt>
      <trkpt lat="59.246949" lon="18.104723">
        <ele>23</ele>
        <time>2019-12-09T16:30:33Z</time>
      </trkpt>
      <trkpt lat="59.246963" lon="18.104617">
        <ele>23</ele>
        <time>2019-12-09T16:30:34Z</time>
      </trkpt>
      <trkpt lat="59.246961" lon="18.104515">
        <ele>23</ele>
        <time>2019-12-09T16:30:35Z</time>
      </trkpt>
      <trkpt lat="59.246954" lon="18.104419">
        <ele>23</ele>
        <time>2019-12-09T16:30:36Z</time>
      </trkpt>
      <trkpt lat="59.246947" lon="18.104315">
        <ele>23</ele>
        <time>2019-12-09T16:30:37Z</time>
      </trkpt>
      <trkpt lat="59.246939" lon="18.104209">
        <ele>23</ele>
        <time>2019-12-09T16:30:38Z</time>
      </trkpt>
      <trkpt lat="59.246946" lon="18.104097">
        <ele>24</ele>
        <time>2019-12-09T16:30:39Z</time>
      </trkpt>
      <trkpt lat="59.246962" lon="18.103988">
        <ele>24</ele>
        <time>2019-12-09T16:30:40Z</time>
      </trkpt>
      <trkpt lat="59.246981" lon="18.103882">
        <ele>24</ele>
        <time>2019-12-09T16:30:41Z</time>
      </trkpt>
      <trkpt lat="59.246997" lon="18.103786">
        <ele>24</ele>
        <time>2019-12-09T16:30:42Z</time>
      </trkpt>
      <trkpt lat="59.247012" lon="18.103701">
        <ele>24</ele>
        <time>2019-12-09T16:30:43Z</time>
      </trkpt>
      <trkpt lat="59.24703" lon="18.103629">
        <ele>24</ele>
        <time>2019-12-09T16:30:44Z</time>
      </trkpt>
      <trkpt lat="59.247054" lon="18.103558">
        <ele>25</ele>
        <time>2019-12-09T16:30:45Z</time>
      </trkpt>
      <trkpt lat="59.247082" lon="18.103493">
        <ele>25</ele>
        <time>2019-12-09T16:30:46Z</time>
      </trkpt>
      <trkpt lat="59.247108" lon="18.103433">
        <ele>25</ele>
        <time>2019-12-09T16:30:47Z</time>
      </trkpt>
      <trkpt lat="59.247141" lon="18.103382">
        <ele>25</ele>
        <time>2019-12-09T16:30:48Z</time>
      </trkpt>
      <trkpt lat="59.247175" lon="18.103331">
        <ele>25</ele>
        <time>2019-12-09T16:30:49Z</time>
      </trkpt>
      <trkpt lat="59.247214" lon="18.103279">
        <ele>25</ele>
        <time>2019-12-09T16:30:50Z</time>
      </trkpt>
      <trkpt lat="59.247249" lon="18.103228">
        <ele>26</ele>
        <time>2019-12-09T16:30:51Z</time>
      </trkpt>
      <trkpt lat="59.247286" lon="18.103172">
        <ele>26</ele>
        <time>2019-12-09T16:30:52Z</time>
      </trkpt>
      <trkpt lat="59.24732" lon="18.103117">
        <ele>26</ele>
        <time>2019-12-09T16:30:53Z</time>
      </trkpt>
      <trkpt lat="59.247352" lon="18.103063">
        <ele>26</ele>
        <time>2019-12-09T16:30:54Z</time>
      </trkpt>
      <trkpt lat="59.247384" lon="18.103007">
        <ele>26</ele>
        <time>2019-12-09T16:30:55Z</time>
      </trkpt>
      <trkpt lat="59.247413" lon="18.102943">
        <ele>27</ele>
        <time>2019-12-09T16:30:56Z</time>
      </trkpt>
      <trkpt lat="59.247441" lon="18.10288">
        <ele>27</ele>
        <time>2019-12-09T16:30:57Z</time>
      </trkpt>
      <trkpt lat="59.247477" lon="18.102815">
        <ele>27</ele>
        <time>2019-12-09T16:30:58Z</time>
      </trkpt>
      <trkpt lat="59.247503" lon="18.102747">
        <ele>27</ele>
        <time>2019-12-09T16:30:59Z</time>
      </trkpt>
      <trkpt lat="59.247527" lon="18.102681">
        <ele>27</ele>
        <time>2019-12-09T16:31:00Z</time>
      </trkpt>
      <trkpt lat="59.24755" lon="18.102615">
        <ele>28</ele>
        <time>2019-12-09T16:31:01Z</time>
      </trkpt>
      <trkpt lat="59.247573" lon="18.102542">
        <ele>28</ele>
        <time>2019-12-09T16:31:02Z</time>
      </trkpt>
      <trkpt lat="59.247594" lon="18.102469">
        <ele>28</ele>
        <time>2019-12-09T16:31:03Z</time>
      </trkpt>
      <trkpt lat="59.247616" lon="18.102394">
        <ele>28</ele>
        <time>2019-12-09T16:31:04Z</time>
      </trkpt>
      <trkpt lat="59.247638" lon="18.102318">
        <ele>29</ele>
        <time>2019-12-09T16:31:05Z</time>
      </trkpt>
      <trkpt lat="59.247658" lon="18.102242">
        <ele>29</ele>
        <time>2019-12-09T16:31:06Z</time>
      </trkpt>
      <trkpt lat="59.247677" lon="18.102162">
        <ele>29</ele>
        <time>2019-12-09T16:31:07Z</time>
      </trkpt>
      <trkpt lat="59.247691" lon="18.102086">
        <ele>29</ele>
        <time>2019-12-09T16:31:08Z</time>
      </trkpt>
      <trkpt lat="59.247703" lon="18.102003">
        <ele>30</ele>
        <time>2019-12-09T16:31:09Z</time>
      </trkpt>
      <trkpt lat="59.247715" lon="18.101923">
        <ele>31</ele>
        <time>2019-12-09T16:31:10Z</time>
      </trkpt>
      <trkpt lat="59.247736" lon="18.101845">
        <ele>31</ele>
        <time>2019-12-09T16:31:11Z</time>
      </trkpt>
      <trkpt lat="59.247756" lon="18.101761">
        <ele>32</ele>
        <time>2019-12-09T16:31:12Z</time>
      </trkpt>
      <trkpt lat="59.247783" lon="18.101676">
        <ele>33</ele>
        <time>2019-12-09T16:31:13Z</time>
      </trkpt>
      <trkpt lat="59.247821" lon="18.101594">
        <ele>33</ele>
        <time>2019-12-09T16:31:14Z</time>
      </trkpt>
      <trkpt lat="59.247846" lon="18.101501">
        <ele>33</ele>
        <time>2019-12-09T16:31:15Z</time>
      </trkpt>
      <trkpt lat="59.247868" lon="18.101406">
        <ele>33</ele>
        <time>2019-12-09T16:31:16Z</time>
      </trkpt>
      <trkpt lat="59.247906" lon="18.101311">
        <ele>33</ele>
        <time>2019-12-09T16:31:17Z</time>
      </trkpt>
      <trkpt lat="59.247941" lon="18.101205">
        <ele>32</ele>
        <time>2019-12-09T16:31:18Z</time>
      </trkpt>
      <trkpt lat="59.247983" lon="18.101086">
        <ele>31</ele>
        <time>2019-12-09T16:31:19Z</time>
      </trkpt>
      <trkpt lat="59.248022" lon="18.100979">
        <ele>31</ele>
        <time>2019-12-09T16:31:20Z</time>
      </trkpt>
      <trkpt lat="59.248067" lon="18.100879">
        <ele>31</ele>
        <time>2019-12-09T16:31:21Z</time>
      </trkpt>
      <trkpt lat="59.248117" lon="18.100791">
        <ele>31</ele>
        <time>2019-12-09T16:31:22Z</time>
      </trkpt>
      <trkpt lat="59.248174" lon="18.100711">
        <ele>30</ele>
        <time>2019-12-09T16:31:23Z</time>
      </trkpt>
      <trkpt lat="59.248228" lon="18.100638">
        <ele>30</ele>
        <time>2019-12-09T16:31:24Z</time>
      </trkpt>
      <trkpt lat="59.248288" lon="18.100573">
        <ele>30</ele>
        <time>2019-12-09T16:31:25Z</time>
      </trkpt>
      <trkpt lat="59.248352" lon="18.100509">
        <ele>30</ele>
        <time>2019-12-09T16:31:26Z</time>
      </trkpt>
      <trkpt lat="59.24842" lon="18.100443">
        <ele>29</ele>
        <time>2019-12-09T16:31:27Z</time>
      </trkpt>
      <trkpt lat="59.248489" lon="18.100373">
        <ele>29</ele>
        <time>2019-12-09T16:31:28Z</time>
      </trkpt>
      <trkpt lat="59.248554" lon="18.100293">
        <ele>29</ele>
        <time>2019-12-09T16:31:29Z</time>
      </trkpt>
      <trkpt lat="59.248613" lon="18.100209">
        <ele>29</ele>
        <time>2019-12-09T16:31:30Z</time>
      </trkpt>
      <trkpt lat="59.248671" lon="18.100122">
        <ele>29</ele>
        <time>2019-12-09T16:31:31Z</time>
      </trkpt>
      <trkpt lat="59.248728" lon="18.100039">
        <ele>29</ele>
        <time>2019-12-09T16:31:32Z</time>
      </trkpt>
      <trkpt lat="59.248784" lon="18.099959">
        <ele>29</ele>
        <time>2019-12-09T16:31:33Z</time>
      </trkpt>
      <trkpt lat="59.248843" lon="18.099884">
        <ele>29</ele>
        <time>2019-12-09T16:31:34Z</time>
      </trkpt>
      <trkpt lat="59.248904" lon="18.099814">
        <ele>29</ele>
        <time>2019-12-09T16:31:35Z</time>
      </trkpt>
      <trkpt lat="59.248967" lon="18.099749">
        <ele>28</ele>
        <time>2019-12-09T16:31:36Z</time>
      </trkpt>
      <trkpt lat="59.249031" lon="18.099691">
        <ele>28</ele>
        <time>2019-12-09T16:31:37Z</time>
      </trkpt>
      <trkpt lat="59.2491" lon="18.099644">
        <ele>28</ele>
        <time>2019-12-09T16:31:38Z</time>
      </trkpt>
      <trkpt lat="59.249171" lon="18.099605">
        <ele>28</ele>
        <time>2019-12-09T16:31:39Z</time>
      </trkpt>
      <trkpt lat="59.249244" lon="18.099574">
        <ele>28</ele>
        <time>2019-12-09T16:31:40Z</time>
      </trkpt>
      <trkpt lat="59.249317" lon="18.099543">
        <ele>28</ele>
        <time>2019-12-09T16:31:41Z</time>
      </trkpt>
      <trkpt lat="59.24939" lon="18.09951">
        <ele>27</ele>
        <time>2019-12-09T16:31:42Z</time>
      </trkpt>
      <trkpt lat="59.249464" lon="18.09948">
        <ele>27</ele>
        <time>2019-12-09T16:31:43Z</time>
      </trkpt>
      <trkpt lat="59.249539" lon="18.099454">
        <ele>27</ele>
        <time>2019-12-09T16:31:44Z</time>
      </trkpt>
      <trkpt lat="59.249615" lon="18.099441">
        <ele>27</ele>
        <time>2019-12-09T16:31:45Z</time>
      </trkpt>
      <trkpt lat="59.249691" lon="18.099447">
        <ele>27</ele>
        <time>2019-12-09T16:31:46Z</time>
      </trkpt>
      <trkpt lat="59.249765" lon="18.099464">
        <ele>27</ele>
        <time>2019-12-09T16:31:47Z</time>
      </trkpt>
      <trkpt lat="59.249835" lon="18.099492">
        <ele>27</ele>
        <time>2019-12-09T16:31:48Z</time>
      </trkpt>
      <trkpt lat="59.249901" lon="18.099524">
        <ele>27</ele>
        <time>2019-12-09T16:31:49Z</time>
      </trkpt>
      <trkpt lat="59.249962" lon="18.099555">
        <ele>27</ele>
        <time>2019-12-09T16:31:50Z</time>
      </trkpt>
      <trkpt lat="59.250022" lon="18.099585">
        <ele>27</ele>
        <time>2019-12-09T16:31:51Z</time>
      </trkpt>
      <trkpt lat="59.250081" lon="18.099612">
        <ele>27</ele>
        <time>2019-12-09T16:31:52Z</time>
      </trkpt>
      <trkpt lat="59.250139" lon="18.099635">
        <ele>27</ele>
        <time>2019-12-09T16:31:53Z</time>
      </trkpt>
      <trkpt lat="59.250194" lon="18.099659">
        <ele>27</ele>
        <time>2019-12-09T16:31:54Z</time>
      </trkpt>
      <trkpt lat="59.250247" lon="18.099683">
        <ele>27</ele>
        <time>2019-12-09T16:31:55Z</time>
      </trkpt>
      <trkpt lat="59.2503" lon="18.099708">
        <ele>27</ele>
        <time>2019-12-09T16:31:56Z</time>
      </trkpt>
      <trkpt lat="59.250353" lon="18.099736">
        <ele>27</ele>
        <time>2019-12-09T16:31:57Z</time>
      </trkpt>
      <trkpt lat="59.250403" lon="18.099766">
        <ele>27</ele>
        <time>2019-12-09T16:31:58Z</time>
      </trkpt>
      <trkpt lat="59.250454" lon="18.099801">
        <ele>27</ele>
        <time>2019-12-09T16:31:59Z</time>
      </trkpt>
      <trkpt lat="59.250501" lon="18.099841">
        <ele>27</ele>
        <time>2019-12-09T16:32:00Z</time>
      </trkpt>
      <trkpt lat="59.250544" lon="18.09989">
        <ele>27</ele>
        <time>2019-12-09T16:32:01Z</time>
      </trkpt>
      <trkpt lat="59.250584" lon="18.099947">
        <ele>28</ele>
        <time>2019-12-09T16:32:02Z</time>
      </trkpt>
      <trkpt lat="59.250623" lon="18.100008">
        <ele>28</ele>
        <time>2019-12-09T16:32:03Z</time>
      </trkpt>
      <trkpt lat="59.250661" lon="18.100069">
        <ele>28</ele>
        <time>2019-12-09T16:32:04Z</time>
      </trkpt>
      <trkpt lat="59.250699" lon="18.100136">
        <ele>28</ele>
        <time>2019-12-09T16:32:05Z</time>
      </trkpt>
      <trkpt lat="59.250732" lon="18.100212">
        <ele>28</ele>
        <time>2019-12-09T16:32:06Z</time>
      </trkpt>
      <trkpt lat="59.250765" lon="18.100296">
        <ele>28</ele>
        <time>2019-12-09T16:32:07Z</time>
      </trkpt>
      <trkpt lat="59.250801" lon="18.100381">
        <ele>27</ele>
        <time>2019-12-09T16:32:08Z</time>
      </trkpt>
      <trkpt lat="59.25084" lon="18.100465">
        <ele>27</ele>
        <time>2019-12-09T16:32:09Z</time>
      </trkpt>
      <trkpt lat="59.250883" lon="18.100548">
        <ele>27</ele>
        <time>2019-12-09T16:32:10Z</time>
      </trkpt>
      <trkpt lat="59.250931" lon="18.100622">
        <ele>27</ele>
        <time>2019-12-09T16:32:11Z</time>
      </trkpt>
      <trkpt lat="59.250984" lon="18.10069">
        <ele>27</ele>
        <time>2019-12-09T16:32:12Z</time>
      </trkpt>
      <trkpt lat="59.25104" lon="18.100755">
        <ele>27</ele>
        <time>2019-12-09T16:32:13Z</time>
      </trkpt>
      <trkpt lat="59.251098" lon="18.100814">
        <ele>27</ele>
        <time>2019-12-09T16:32:14Z</time>
      </trkpt>
      <trkpt lat="59.251159" lon="18.100866">
        <ele>26</ele>
        <time>2019-12-09T16:32:15Z</time>
      </trkpt>
      <trkpt lat="59.251224" lon="18.10091">
        <ele>26</ele>
        <time>2019-12-09T16:32:16Z</time>
      </trkpt>
      <trkpt lat="59.251291" lon="18.100945">
        <ele>26</ele>
        <time>2019-12-09T16:32:17Z</time>
      </trkpt>
      <trkpt lat="59.25136" lon="18.100966">
        <ele>26</ele>
        <time>2019-12-09T16:32:18Z</time>
      </trkpt>
      <trkpt lat="59.25143" lon="18.100965">
        <ele>26</ele>
        <time>2019-12-09T16:32:19Z</time>
      </trkpt>
      <trkpt lat="59.2515" lon="18.100944">
        <ele>26</ele>
        <time>2019-12-09T16:32:20Z</time>
      </trkpt>
      <trkpt lat="59.251567" lon="18.100908">
        <ele>26</ele>
        <time>2019-12-09T16:32:21Z</time>
      </trkpt>
      <trkpt lat="59.251634" lon="18.100866">
        <ele>25</ele>
        <time>2019-12-09T16:32:22Z</time>
      </trkpt>
      <trkpt lat="59.251703" lon="18.100821">
        <ele>25</ele>
        <time>2019-12-09T16:32:23Z</time>
      </trkpt>
      <trkpt lat="59.251771" lon="18.100773">
        <ele>24</ele>
        <time>2019-12-09T16:32:24Z</time>
      </trkpt>
      <trkpt lat="59.25184" lon="18.100724">
        <ele>24</ele>
        <time>2019-12-09T16:32:25Z</time>
      </trkpt>
      <trkpt lat="59.251911" lon="18.100671">
        <ele>24</ele>
        <time>2019-12-09T16:32:26Z</time>
      </trkpt>
      <trkpt lat="59.251987" lon="18.100618">
        <ele>24</ele>
        <time>2019-12-09T16:32:27Z</time>
      </trkpt>
      <trkpt lat="59.252067" lon="18.100563">
        <ele>23</ele>
        <time>2019-12-09T16:32:28Z</time>
      </trkpt>
      <trkpt lat="59.252154" lon="18.10051">
        <ele>23</ele>
        <time>2019-12-09T16:32:29Z</time>
      </trkpt>
      <trkpt lat="59.25224" lon="18.100455">
        <ele>23</ele>
        <time>2019-12-09T16:32:30Z</time>
      </trkpt>
      <trkpt lat="59.252329" lon="18.100404">
        <ele>23</ele>
        <time>2019-12-09T16:32:31Z</time>
      </trkpt>
      <trkpt lat="59.252418" lon="18.100356">
        <ele>22</ele>
        <time>2019-12-09T16:32:32Z</time>
      </trkpt>
      <trkpt lat="59.252505" lon="18.100309">
        <ele>22</ele>
        <time>2019-12-09T16:32:33Z</time>
      </trkpt>
      <trkpt lat="59.252592" lon="18.100267">
        <ele>22</ele>
        <time>2019-12-09T16:32:34Z</time>
      </trkpt>
      <trkpt lat="59.252678" lon="18.100233">
        <ele>22</ele>
        <time>2019-12-09T16:32:35Z</time>
      </trkpt>
      <trkpt lat="59.252761" lon="18.100206">
        <ele>22</ele>
        <time>2019-12-09T16:32:36Z</time>
      </trkpt>
      <trkpt lat="59.252842" lon="18.100182">
        <ele>22</ele>
        <time>2019-12-09T16:32:37Z</time>
      </trkpt>
      <trkpt lat="59.252922" lon="18.100167">
        <ele>22</ele>
        <time>2019-12-09T16:32:38Z</time>
      </trkpt>
      <trkpt lat="59.253001" lon="18.100157">
        <ele>22</ele>
        <time>2019-12-09T16:32:39Z</time>
      </trkpt>
      <trkpt lat="59.253077" lon="18.100157">
        <ele>22</ele>
        <time>2019-12-09T16:32:40Z</time>
      </trkpt>
      <trkpt lat="59.25315" lon="18.100167">
        <ele>22</ele>
        <time>2019-12-09T16:32:41Z</time>
      </trkpt>
      <trkpt lat="59.25322" lon="18.100198">
        <ele>22</ele>
        <time>2019-12-09T16:32:42Z</time>
      </trkpt>
      <trkpt lat="59.25329" lon="18.100247">
        <ele>22</ele>
        <time>2019-12-09T16:32:43Z</time>
      </trkpt>
      <trkpt lat="59.253354" lon="18.1003">
        <ele>22</ele>
        <time>2019-12-09T16:32:44Z</time>
      </trkpt>
      <trkpt lat="59.253419" lon="18.100355">
        <ele>21</ele>
        <time>2019-12-09T16:32:45Z</time>
      </trkpt>
      <trkpt lat="59.253484" lon="18.100405">
        <ele>21</ele>
        <time>2019-12-09T16:32:46Z</time>
      </trkpt>
      <trkpt lat="59.25355" lon="18.100446">
        <ele>21</ele>
        <time>2019-12-09T16:32:47Z</time>
      </trkpt>
      <trkpt lat="59.253615" lon="18.100481">
        <ele>21</ele>
        <time>2019-12-09T16:32:48Z</time>
      </trkpt>
      <trkpt lat="59.25368" lon="18.100513">
        <ele>21</ele>
        <time>2019-12-09T16:32:49Z</time>
      </trkpt>
      <trkpt lat="59.253745" lon="18.100539">
        <ele>22</ele>
        <time>2019-12-09T16:32:50Z</time>
      </trkpt>
      <trkpt lat="59.253812" lon="18.100559">
        <ele>22</ele>
        <time>2019-12-09T16:32:51Z</time>
      </trkpt>
      <trkpt lat="59.253876" lon="18.100579">
        <ele>22</ele>
        <time>2019-12-09T16:32:52Z</time>
      </trkpt>
      <trkpt lat="59.253936" lon="18.100603">
        <ele>22</ele>
        <time>2019-12-09T16:32:53Z</time>
      </trkpt>
      <trkpt lat="59.253993" lon="18.100624">
        <ele>22</ele>
        <time>2019-12-09T16:32:54Z</time>
      </trkpt>
      <trkpt lat="59.254053" lon="18.100636">
        <ele>22</ele>
        <time>2019-12-09T16:32:55Z</time>
      </trkpt>
      <trkpt lat="59.254114" lon="18.100639">
        <ele>22</ele>
        <time>2019-12-09T16:32:56Z</time>
      </trkpt>
      <trkpt lat="59.254178" lon="18.100642">
        <ele>22</ele>
        <time>2019-12-09T16:32:57Z</time>
      </trkpt>
      <trkpt lat="59.254244" lon="18.100654">
        <ele>22</ele>
        <time>2019-12-09T16:32:58Z</time>
      </trkpt>
      <trkpt lat="59.254309" lon="18.100675">
        <ele>22</ele>
        <time>2019-12-09T16:32:59Z</time>
      </trkpt>
      <trkpt lat="59.254375" lon="18.100701">
        <ele>22</ele>
        <time>2019-12-09T16:33:00Z</time>
      </trkpt>
      <trkpt lat="59.254439" lon="18.100724">
        <ele>22</ele>
        <time>2019-12-09T16:33:01Z</time>
      </trkpt>
      <trkpt lat="59.254502" lon="18.100749">
        <ele>23</ele>
        <time>2019-12-09T16:33:02Z</time>
      </trkpt>
      <trkpt lat="59.254568" lon="18.100773">
        <ele>23</ele>
        <time>2019-12-09T16:33:03Z</time>
      </trkpt>
      <trkpt lat="59.25463" lon="18.100794">
        <ele>23</ele>
        <time>2019-12-09T16:33:04Z</time>
      </trkpt>
      <trkpt lat="59.254679" lon="18.100814">
        <ele>23</ele>
        <time>2019-12-09T16:33:05Z</time>
      </trkpt>
      <trkpt lat="59.254736" lon="18.100831">
        <ele>23</ele>
        <time>2019-12-09T16:33:06Z</time>
      </trkpt>
      <trkpt lat="59.254799" lon="18.100843">
        <ele>23</ele>
        <time>2019-12-09T16:33:07Z</time>
      </trkpt>
      <trkpt lat="59.254855" lon="18.100851">
        <ele>23</ele>
        <time>2019-12-09T16:33:08Z</time>
      </trkpt>
      <trkpt lat="59.254912" lon="18.100864">
        <ele>24</ele>
        <time>2019-12-09T16:33:09Z</time>
      </trkpt>
      <trkpt lat="59.254976" lon="18.100877">
        <ele>24</ele>
        <time>2019-12-09T16:33:10Z</time>
      </trkpt>
      <trkpt lat="59.255042" lon="18.100891">
        <ele>24</ele>
        <time>2019-12-09T16:33:11Z</time>
      </trkpt>
      <trkpt lat="59.255102" lon="18.100903">
        <ele>24</ele>
        <time>2019-12-09T16:33:12Z</time>
      </trkpt>
      <trkpt lat="59.255166" lon="18.100916">
        <ele>24</ele>
        <time>2019-12-09T16:33:13Z</time>
      </trkpt>
      <trkpt lat="59.255236" lon="18.100929">
        <ele>24</ele>
        <time>2019-12-09T16:33:14Z</time>
      </trkpt>
      <trkpt lat="59.255305" lon="18.10094">
        <ele>24</ele>
        <time>2019-12-09T16:33:15Z</time>
      </trkpt>
      <trkpt lat="59.25537" lon="18.10095">
        <ele>23</ele>
        <time>2019-12-09T16:33:16Z</time>
      </trkpt>
      <trkpt lat="59.255431" lon="18.100962">
        <ele>23</ele>
        <time>2019-12-09T16:33:17Z</time>
      </trkpt>
      <trkpt lat="59.25549" lon="18.100975">
        <ele>24</ele>
        <time>2019-12-09T16:33:18Z</time>
      </trkpt>
      <trkpt lat="59.255546" lon="18.100989">
        <ele>24</ele>
        <time>2019-12-09T16:33:19Z</time>
      </trkpt>
      <trkpt lat="59.255604" lon="18.101002">
        <ele>24</ele>
        <time>2019-12-09T16:33:20Z</time>
      </trkpt>
      <trkpt lat="59.255664" lon="18.101013">
        <ele>24</ele>
        <time>2019-12-09T16:33:21Z</time>
      </trkpt>
      <trkpt lat="59.255726" lon="18.101024">
        <ele>24</ele>
        <time>2019-12-09T16:33:22Z</time>
      </trkpt>
      <trkpt lat="59.255789" lon="18.101036">
        <ele>24</ele>
        <time>2019-12-09T16:33:23Z</time>
      </trkpt>
      <trkpt lat="59.255849" lon="18.101044">
        <ele>24</ele>
        <time>2019-12-09T16:33:24Z</time>
      </trkpt>
      <trkpt lat="59.255906" lon="18.101052">
        <ele>24</ele>
        <time>2019-12-09T16:33:25Z</time>
      </trkpt>
      <trkpt lat="59.255963" lon="18.101059">
        <ele>24</ele>
        <time>2019-12-09T16:33:26Z</time>
      </trkpt>
      <trkpt lat="59.256018" lon="18.101058">
        <ele>24</ele>
        <time>2019-12-09T16:33:27Z</time>
      </trkpt>
      <trkpt lat="59.256073" lon="18.101056">
        <ele>24</ele>
        <time>2019-12-09T16:33:28Z</time>
      </trkpt>
      <trkpt lat="59.25613" lon="18.101058">
        <ele>24</ele>
        <time>2019-12-09T16:33:29Z</time>
      </trkpt>
      <trkpt lat="59.256189" lon="18.10106">
        <ele>25</ele>
        <time>2019-12-09T16:33:30Z</time>
      </trkpt>
      <trkpt lat="59.256253" lon="18.101063">
        <ele>25</ele>
        <time>2019-12-09T16:33:31Z</time>
      </trkpt>
      <trkpt lat="59.25632" lon="18.101072">
        <ele>25</ele>
        <time>2019-12-09T16:33:32Z</time>
      </trkpt>
      <trkpt lat="59.256388" lon="18.101073">
        <ele>25</ele>
        <time>2019-12-09T16:33:33Z</time>
      </trkpt>
      <trkpt lat="59.256454" lon="18.101072">
        <ele>25</ele>
        <time>2019-12-09T16:33:34Z</time>
      </trkpt>
      <trkpt lat="59.256528" lon="18.101076">
        <ele>25</ele>
        <time>2019-12-09T16:33:35Z</time>
      </trkpt>
      <trkpt lat="59.2566" lon="18.101077">
        <ele>25</ele>
        <time>2019-12-09T16:33:36Z</time>
      </trkpt>
      <trkpt lat="59.256669" lon="18.101076">
        <ele>25</ele>
        <time>2019-12-09T16:33:37Z</time>
      </trkpt>
      <trkpt lat="59.256736" lon="18.101074">
        <ele>25</ele>
        <time>2019-12-09T16:33:38Z</time>
      </trkpt>
      <trkpt lat="59.256798" lon="18.101071">
        <ele>25</ele>
        <time>2019-12-09T16:33:39Z</time>
      </trkpt>
      <trkpt lat="59.25686" lon="18.101067">
        <ele>25</ele>
        <time>2019-12-09T16:33:40Z</time>
      </trkpt>
      <trkpt lat="59.256916" lon="18.101056">
        <ele>25</ele>
        <time>2019-12-09T16:33:41Z</time>
      </trkpt>
      <trkpt lat="59.25696" lon="18.101035">
        <ele>25</ele>
        <time>2019-12-09T16:33:42Z</time>
      </trkpt>
      <trkpt lat="59.256993" lon="18.100992">
        <ele>26</ele>
        <time>2019-12-09T16:33:43Z</time>
      </trkpt>
      <trkpt lat="59.257014" lon="18.100921">
        <ele>26</ele>
        <time>2019-12-09T16:33:44Z</time>
      </trkpt>
      <trkpt lat="59.257039" lon="18.100844">
        <ele>26</ele>
        <time>2019-12-09T16:33:45Z</time>
      </trkpt>
      <trkpt lat="59.257066" lon="18.100768">
        <ele>26</ele>
        <time>2019-12-09T16:33:46Z</time>
      </trkpt>
      <trkpt lat="59.257095" lon="18.100685">
        <ele>26</ele>
        <time>2019-12-09T16:33:47Z</time>
      </trkpt>
      <trkpt lat="59.257135" lon="18.100514">
        <ele>26</ele>
        <time>2019-12-09T16:33:49Z</time>
      </trkpt>
      <trkpt lat="59.257176" lon="18.100293">
        <ele>26</ele>
        <time>2019-12-09T16:33:51Z</time>
      </trkpt>
      <trkpt lat="59.257206" lon="18.100069">
        <ele>27</ele>
        <time>2019-12-09T16:33:52Z</time>
      </trkpt>
      <trkpt lat="59.257247" lon="18.099894">
        <ele>27</ele>
        <time>2019-12-09T16:33:53Z</time>
      </trkpt>
      <trkpt lat="59.257348" lon="18.099656">
        <ele>27</ele>
        <time>2019-12-09T16:33:55Z</time>
      </trkpt>
      <trkpt lat="59.257411" lon="18.099471">
        <ele>27</ele>
        <time>2019-12-09T16:33:57Z</time>
      </trkpt>
      <trkpt lat="59.257446" lon="18.099391">
        <ele>27</ele>
        <time>2019-12-09T16:33:58Z</time>
      </trkpt>
      <trkpt lat="59.257483" lon="18.099328">
        <ele>27</ele>
        <time>2019-12-09T16:33:59Z</time>
      </trkpt>
      <trkpt lat="59.257526" lon="18.099286">
        <ele>27</ele>
        <time>2019-12-09T16:34:00Z</time>
      </trkpt>
      <trkpt lat="59.257571" lon="18.099248">
        <ele>27</ele>
        <time>2019-12-09T16:34:01Z</time>
      </trkpt>
      <trkpt lat="59.257614" lon="18.099209">
        <ele>27</ele>
        <time>2019-12-09T16:34:02Z</time>
      </trkpt>
      <trkpt lat="59.257659" lon="18.099181">
        <ele>27</ele>
        <time>2019-12-09T16:34:03Z</time>
      </trkpt>
      <trkpt lat="59.257706" lon="18.099159">
        <ele>27</ele>
        <time>2019-12-09T16:34:04Z</time>
      </trkpt>
      <trkpt lat="59.257755" lon="18.099146">
        <ele>27</ele>
        <time>2019-12-09T16:34:05Z</time>
      </trkpt>
      <trkpt lat="59.257801" lon="18.099149">
        <ele>28</ele>
        <time>2019-12-09T16:34:06Z</time>
      </trkpt>
      <trkpt lat="59.257848" lon="18.099161">
        <ele>28</ele>
        <time>2019-12-09T16:34:07Z</time>
      </trkpt>
      <trkpt lat="59.257889" lon="18.099177">
        <ele>28</ele>
        <time>2019-12-09T16:34:08Z</time>
      </trkpt>
      <trkpt lat="59.257935" lon="18.099192">
        <ele>28</ele>
        <time>2019-12-09T16:34:09Z</time>
      </trkpt>
      <trkpt lat="59.257977" lon="18.099207">
        <ele>29</ele>
        <time>2019-12-09T16:34:10Z</time>
      </trkpt>
      <trkpt lat="59.258017" lon="18.099219">
        <ele>29</ele>
        <time>2019-12-09T16:34:11Z</time>
      </trkpt>
      <trkpt lat="59.258057" lon="18.099226">
        <ele>30</ele>
        <time>2019-12-09T16:34:12Z</time>
      </trkpt>
      <trkpt lat="59.258096" lon="18.099229">
        <ele>30</ele>
        <time>2019-12-09T16:34:13Z</time>
      </trkpt>
      <trkpt lat="59.258137" lon="18.09923">
        <ele>30</ele>
        <time>2019-12-09T16:34:14Z</time>
      </trkpt>
      <trkpt lat="59.258181" lon="18.09923">
        <ele>31</ele>
        <time>2019-12-09T16:34:15Z</time>
      </trkpt>
      <trkpt lat="59.258221" lon="18.099225">
        <ele>31</ele>
        <time>2019-12-09T16:34:16Z</time>
      </trkpt>
      <trkpt lat="59.258267" lon="18.099219">
        <ele>31</ele>
        <time>2019-12-09T16:34:17Z</time>
      </trkpt>
      <trkpt lat="59.25832" lon="18.099213">
        <ele>31</ele>
        <time>2019-12-09T16:34:18Z</time>
      </trkpt>
      <trkpt lat="59.258369" lon="18.09921">
        <ele>32</ele>
        <time>2019-12-09T16:34:19Z</time>
      </trkpt>
      <trkpt lat="59.258421" lon="18.099211">
        <ele>32</ele>
        <time>2019-12-09T16:34:20Z</time>
      </trkpt>
      <trkpt lat="59.258468" lon="18.099211">
        <ele>32</ele>
        <time>2019-12-09T16:34:21Z</time>
      </trkpt>
      <trkpt lat="59.258518" lon="18.099211">
        <ele>32</ele>
        <time>2019-12-09T16:34:22Z</time>
      </trkpt>
      <trkpt lat="59.258574" lon="18.099213">
        <ele>32</ele>
        <time>2019-12-09T16:34:23Z</time>
      </trkpt>
      <trkpt lat="59.258642" lon="18.099221">
        <ele>32</ele>
        <time>2019-12-09T16:34:24Z</time>
      </trkpt>
      <trkpt lat="59.258705" lon="18.099221">
        <ele>32</ele>
        <time>2019-12-09T16:34:25Z</time>
      </trkpt>
      <trkpt lat="59.258763" lon="18.099215">
        <ele>32</ele>
        <time>2019-12-09T16:34:26Z</time>
      </trkpt>
      <trkpt lat="59.258825" lon="18.099211">
        <ele>32</ele>
        <time>2019-12-09T16:34:27Z</time>
      </trkpt>
      <trkpt lat="59.258883" lon="18.099211">
        <ele>32</ele>
        <time>2019-12-09T16:34:28Z</time>
      </trkpt>
      <trkpt lat="59.258941" lon="18.099211">
        <ele>32</ele>
        <time>2019-12-09T16:34:29Z</time>
      </trkpt>
      <trkpt lat="59.259" lon="18.099208">
        <ele>32</ele>
        <time>2019-12-09T16:34:30Z</time>
      </trkpt>
      <trkpt lat="59.25906" lon="18.099207">
        <ele>32</ele>
        <time>2019-12-09T16:34:31Z</time>
      </trkpt>
      <trkpt lat="59.259121" lon="18.099206">
        <ele>32</ele>
        <time>2019-12-09T16:34:32Z</time>
      </trkpt>
      <trkpt lat="59.259184" lon="18.099202">
        <ele>32</ele>
        <time>2019-12-09T16:34:33Z</time>
      </trkpt>
      <trkpt lat="59.259253" lon="18.099193">
        <ele>31</ele>
        <time>2019-12-09T16:34:34Z</time>
      </trkpt>
      <trkpt lat="59.259321" lon="18.099167">
        <ele>31</ele>
        <time>2019-12-09T16:34:35Z</time>
      </trkpt>
      <trkpt lat="59.259384" lon="18.099128">
        <ele>31</ele>
        <time>2019-12-09T16:34:36Z</time>
      </trkpt>
      <trkpt lat="59.259445" lon="18.099072">
        <ele>31</ele>
        <time>2019-12-09T16:34:37Z</time>
      </trkpt>
      <trkpt lat="59.259501" lon="18.099005">
        <ele>31</ele>
        <time>2019-12-09T16:34:38Z</time>
      </trkpt>
      <trkpt lat="59.259549" lon="18.098928">
        <ele>31</ele>
        <time>2019-12-09T16:34:39Z</time>
      </trkpt>
      <trkpt lat="59.25959" lon="18.098838">
        <ele>31</ele>
        <time>2019-12-09T16:34:40Z</time>
      </trkpt>
      <trkpt lat="59.259614" lon="18.098741">
        <ele>30</ele>
        <time>2019-12-09T16:34:41Z</time>
      </trkpt>
      <trkpt lat="59.259628" lon="18.098641">
        <ele>30</ele>
        <time>2019-12-09T16:34:42Z</time>
      </trkpt>
      <trkpt lat="59.259643" lon="18.09853">
        <ele>30</ele>
        <time>2019-12-09T16:34:43Z</time>
      </trkpt>
      <trkpt lat="59.259654" lon="18.09842">
        <ele>31</ele>
        <time>2019-12-09T16:34:44Z</time>
      </trkpt>
      <trkpt lat="59.259663" lon="18.098312">
        <ele>31</ele>
        <time>2019-12-09T16:34:45Z</time>
      </trkpt>
      <trkpt lat="59.259668" lon="18.098202">
        <ele>31</ele>
        <time>2019-12-09T16:34:46Z</time>
      </trkpt>
      <trkpt lat="59.259668" lon="18.098098">
        <ele>31</ele>
        <time>2019-12-09T16:34:47Z</time>
      </trkpt>
      <trkpt lat="59.259673" lon="18.097999">
        <ele>31</ele>
        <time>2019-12-09T16:34:48Z</time>
      </trkpt>
      <trkpt lat="59.259678" lon="18.097903">
        <ele>31</ele>
        <time>2019-12-09T16:34:49Z</time>
      </trkpt>
      <trkpt lat="59.259682" lon="18.097814">
        <ele>31</ele>
        <time>2019-12-09T16:34:50Z</time>
      </trkpt>
      <trkpt lat="59.259683" lon="18.097723">
        <ele>31</ele>
        <time>2019-12-09T16:34:51Z</time>
      </trkpt>
      <trkpt lat="59.259683" lon="18.097629">
        <ele>30</ele>
        <time>2019-12-09T16:34:52Z</time>
      </trkpt>
      <trkpt lat="59.259678" lon="18.097539">
        <ele>30</ele>
        <time>2019-12-09T16:34:53Z</time>
      </trkpt>
      <trkpt lat="59.259683" lon="18.097446">
        <ele>30</ele>
        <time>2019-12-09T16:34:54Z</time>
      </trkpt>
      <trkpt lat="59.259691" lon="18.097345">
        <ele>29</ele>
        <time>2019-12-09T16:34:55Z</time>
      </trkpt>
      <trkpt lat="59.259698" lon="18.097251">
        <ele>28</ele>
        <time>2019-12-09T16:34:56Z</time>
      </trkpt>
      <trkpt lat="59.259725" lon="18.097164">
        <ele>28</ele>
        <time>2019-12-09T16:34:57Z</time>
      </trkpt>
      <trkpt lat="59.259771" lon="18.097081">
        <ele>28</ele>
        <time>2019-12-09T16:34:58Z</time>
      </trkpt>
      <trkpt lat="59.259828" lon="18.097006">
        <ele>27</ele>
        <time>2019-12-09T16:34:59Z</time>
      </trkpt>
      <trkpt lat="59.259885" lon="18.096938">
        <ele>27</ele>
        <time>2019-12-09T16:35:00Z</time>
      </trkpt>
      <trkpt lat="59.25995" lon="18.096874">
        <ele>27</ele>
        <time>2019-12-09T16:35:01Z</time>
      </trkpt>
      <trkpt lat="59.260018" lon="18.096816">
        <ele>27</ele>
        <time>2019-12-09T16:35:02Z</time>
      </trkpt>
      <trkpt lat="59.260088" lon="18.096766">
        <ele>27</ele>
        <time>2019-12-09T16:35:03Z</time>
      </trkpt>
      <trkpt lat="59.260158" lon="18.096724">
        <ele>27</ele>
        <time>2019-12-09T16:35:04Z</time>
      </trkpt>
      <trkpt lat="59.260228" lon="18.096686">
        <ele>27</ele>
        <time>2019-12-09T16:35:05Z</time>
      </trkpt>
      <trkpt lat="59.260304" lon="18.096654">
        <ele>27</ele>
        <time>2019-12-09T16:35:06Z</time>
      </trkpt>
      <trkpt lat="59.26038" lon="18.096609">
        <ele>27</ele>
        <time>2019-12-09T16:35:07Z</time>
      </trkpt>
      <trkpt lat="59.260533" lon="18.096548">
        <ele>27</ele>
        <time>2019-12-09T16:35:09Z</time>
      </trkpt>
      <trkpt lat="59.260609" lon="18.096527">
        <ele>26</ele>
        <time>2019-12-09T16:35:10Z</time>
      </trkpt>
      <trkpt lat="59.260678" lon="18.096516">
        <ele>27</ele>
        <time>2019-12-09T16:35:11Z</time>
      </trkpt>
      <trkpt lat="59.26074" lon="18.096502">
        <ele>27</ele>
        <time>2019-12-09T16:35:12Z</time>
      </trkpt>
      <trkpt lat="59.260796" lon="18.096488">
        <ele>27</ele>
        <time>2019-12-09T16:35:13Z</time>
      </trkpt>
      <trkpt lat="59.260848" lon="18.096471">
        <ele>27</ele>
        <time>2019-12-09T16:35:14Z</time>
      </trkpt>
      <trkpt lat="59.260901" lon="18.096462">
        <ele>27</ele>
        <time>2019-12-09T16:35:15Z</time>
      </trkpt>
      <trkpt lat="59.260955" lon="18.096461">
        <ele>27</ele>
        <time>2019-12-09T16:35:16Z</time>
      </trkpt>
      <trkpt lat="59.261008" lon="18.096473">
        <ele>27</ele>
        <time>2019-12-09T16:35:17Z</time>
      </trkpt>
      <trkpt lat="59.261062" lon="18.096492">
        <ele>27</ele>
        <time>2019-12-09T16:35:18Z</time>
      </trkpt>
      <trkpt lat="59.261115" lon="18.096516">
        <ele>27</ele>
        <time>2019-12-09T16:35:19Z</time>
      </trkpt>
      <trkpt lat="59.261168" lon="18.096548">
        <ele>27</ele>
        <time>2019-12-09T16:35:20Z</time>
      </trkpt>
      <trkpt lat="59.261222" lon="18.096584">
        <ele>27</ele>
        <time>2019-12-09T16:35:21Z</time>
      </trkpt>
      <trkpt lat="59.261274" lon="18.096623">
        <ele>27</ele>
        <time>2019-12-09T16:35:22Z</time>
      </trkpt>
      <trkpt lat="59.261326" lon="18.096667">
        <ele>27</ele>
        <time>2019-12-09T16:35:23Z</time>
      </trkpt>
      <trkpt lat="59.26138" lon="18.096716">
        <ele>27</ele>
        <time>2019-12-09T16:35:24Z</time>
      </trkpt>
      <trkpt lat="59.261432" lon="18.09677">
        <ele>27</ele>
        <time>2019-12-09T16:35:25Z</time>
      </trkpt>
      <trkpt lat="59.261481" lon="18.096832">
        <ele>27</ele>
        <time>2019-12-09T16:35:26Z</time>
      </trkpt>
      <trkpt lat="59.261526" lon="18.096901">
        <ele>27</ele>
        <time>2019-12-09T16:35:27Z</time>
      </trkpt>
      <trkpt lat="59.261572" lon="18.096973">
        <ele>27</ele>
        <time>2019-12-09T16:35:28Z</time>
      </trkpt>
      <trkpt lat="59.261618" lon="18.097046">
        <ele>27</ele>
        <time>2019-12-09T16:35:29Z</time>
      </trkpt>
      <trkpt lat="59.261661" lon="18.097119">
        <ele>27</ele>
        <time>2019-12-09T16:35:30Z</time>
      </trkpt>
      <trkpt lat="59.261706" lon="18.097193">
        <ele>27</ele>
        <time>2019-12-09T16:35:31Z</time>
      </trkpt>
      <trkpt lat="59.261751" lon="18.097267">
        <ele>27</ele>
        <time>2019-12-09T16:35:32Z</time>
      </trkpt>
      <trkpt lat="59.261795" lon="18.097343">
        <ele>27</ele>
        <time>2019-12-09T16:35:33Z</time>
      </trkpt>
      <trkpt lat="59.26184" lon="18.097418">
        <ele>27</ele>
        <time>2019-12-09T16:35:34Z</time>
      </trkpt>
      <trkpt lat="59.261885" lon="18.097491">
        <ele>27</ele>
        <time>2019-12-09T16:35:35Z</time>
      </trkpt>
      <trkpt lat="59.261931" lon="18.097564">
        <ele>28</ele>
        <time>2019-12-09T16:35:36Z</time>
      </trkpt>
      <trkpt lat="59.261978" lon="18.097636">
        <ele>28</ele>
        <time>2019-12-09T16:35:37Z</time>
      </trkpt>
      <trkpt lat="59.262024" lon="18.097707">
        <ele>28</ele>
        <time>2019-12-09T16:35:38Z</time>
      </trkpt>
      <trkpt lat="59.26207" lon="18.097778">
        <ele>28</ele>
        <time>2019-12-09T16:35:39Z</time>
      </trkpt>
      <trkpt lat="59.262117" lon="18.097851">
        <ele>28</ele>
        <time>2019-12-09T16:35:40Z</time>
      </trkpt>
      <trkpt lat="59.262162" lon="18.097921">
        <ele>28</ele>
        <time>2019-12-09T16:35:41Z</time>
      </trkpt>
      <trkpt lat="59.26221" lon="18.097984">
        <ele>28</ele>
        <time>2019-12-09T16:35:42Z</time>
      </trkpt>
      <trkpt lat="59.26226" lon="18.098041">
        <ele>28</ele>
        <time>2019-12-09T16:35:43Z</time>
      </trkpt>
      <trkpt lat="59.262309" lon="18.098088">
        <ele>28</ele>
        <time>2019-12-09T16:35:44Z</time>
      </trkpt>
      <trkpt lat="59.262364" lon="18.098123">
        <ele>28</ele>
        <time>2019-12-09T16:35:45Z</time>
      </trkpt>
      <trkpt lat="59.262419" lon="18.098148">
        <ele>28</ele>
        <time>2019-12-09T16:35:46Z</time>
      </trkpt>
      <trkpt lat="59.262474" lon="18.098163">
        <ele>28</ele>
        <time>2019-12-09T16:35:47Z</time>
      </trkpt>
      <trkpt lat="59.262528" lon="18.09817">
        <ele>28</ele>
        <time>2019-12-09T16:35:48Z</time>
      </trkpt>
      <trkpt lat="59.26258" lon="18.098173">
        <ele>29</ele>
        <time>2019-12-09T16:35:49Z</time>
      </trkpt>
      <trkpt lat="59.262632" lon="18.098175">
        <ele>29</ele>
        <time>2019-12-09T16:35:50Z</time>
      </trkpt>
      <trkpt lat="59.262682" lon="18.098174">
        <ele>29</ele>
        <time>2019-12-09T16:35:51Z</time>
      </trkpt>
      <trkpt lat="59.26273" lon="18.098172">
        <ele>29</ele>
        <time>2019-12-09T16:35:52Z</time>
      </trkpt>
      <trkpt lat="59.262777" lon="18.09817">
        <ele>29</ele>
        <time>2019-12-09T16:35:53Z</time>
      </trkpt>
      <trkpt lat="59.26282" lon="18.098169">
        <ele>29</ele>
        <time>2019-12-09T16:35:54Z</time>
      </trkpt>
      <trkpt lat="59.26286" lon="18.098163">
        <ele>29</ele>
        <time>2019-12-09T16:35:55Z</time>
      </trkpt>
      <trkpt lat="59.262897" lon="18.098154">
        <ele>29</ele>
        <time>2019-12-09T16:35:56Z</time>
      </trkpt>
      <trkpt lat="59.262936" lon="18.098149">
        <ele>30</ele>
        <time>2019-12-09T16:35:57Z</time>
      </trkpt>
      <trkpt lat="59.262975" lon="18.098144">
        <ele>30</ele>
        <time>2019-12-09T16:35:58Z</time>
      </trkpt>
      <trkpt lat="59.26302" lon="18.098137">
        <ele>30</ele>
        <time>2019-12-09T16:35:59Z</time>
      </trkpt>
      <trkpt lat="59.263064" lon="18.09813">
        <ele>30</ele>
        <time>2019-12-09T16:36:00Z</time>
      </trkpt>
      <trkpt lat="59.263109" lon="18.098118">
        <ele>30</ele>
        <time>2019-12-09T16:36:01Z</time>
      </trkpt>
      <trkpt lat="59.263147" lon="18.098106">
        <ele>31</ele>
        <time>2019-12-09T16:36:02Z</time>
      </trkpt>
      <trkpt lat="59.263186" lon="18.0981">
        <ele>31</ele>
        <time>2019-12-09T16:36:03Z</time>
      </trkpt>
      <trkpt lat="59.263221" lon="18.098088">
        <ele>31</ele>
        <time>2019-12-09T16:36:04Z</time>
      </trkpt>
      <trkpt lat="59.263265" lon="18.098071">
        <ele>31</ele>
        <time>2019-12-09T16:36:05Z</time>
      </trkpt>
      <trkpt lat="59.263309" lon="18.098054">
        <ele>31</ele>
        <time>2019-12-09T16:36:06Z</time>
      </trkpt>
      <trkpt lat="59.26335" lon="18.098043">
        <ele>31</ele>
        <time>2019-12-09T16:36:07Z</time>
      </trkpt>
      <trkpt lat="59.263391" lon="18.098033">
        <ele>32</ele>
        <time>2019-12-09T16:36:08Z</time>
      </trkpt>
      <trkpt lat="59.263433" lon="18.098016">
        <ele>32</ele>
        <time>2019-12-09T16:36:09Z</time>
      </trkpt>
      <trkpt lat="59.263474" lon="18.097996">
        <ele>32</ele>
        <time>2019-12-09T16:36:10Z</time>
      </trkpt>
      <trkpt lat="59.263515" lon="18.097971">
        <ele>32</ele>
        <time>2019-12-09T16:36:11Z</time>
      </trkpt>
      <trkpt lat="59.263558" lon="18.09795">
        <ele>33</ele>
        <time>2019-12-09T16:36:12Z</time>
      </trkpt>
      <trkpt lat="59.263598" lon="18.097923">
        <ele>33</ele>
        <time>2019-12-09T16:36:13Z</time>
      </trkpt>
      <trkpt lat="59.263638" lon="18.097899">
        <ele>33</ele>
        <time>2019-12-09T16:36:14Z</time>
      </trkpt>
      <trkpt lat="59.263682" lon="18.097881">
        <ele>33</ele>
        <time>2019-12-09T16:36:15Z</time>
      </trkpt>
      <trkpt lat="59.26373" lon="18.097871">
        <ele>33</ele>
        <time>2019-12-09T16:36:16Z</time>
      </trkpt>
      <trkpt lat="59.263778" lon="18.097857">
        <ele>34</ele>
        <time>2019-12-09T16:36:17Z</time>
      </trkpt>
      <trkpt lat="59.263834" lon="18.097851">
        <ele>34</ele>
        <time>2019-12-09T16:36:18Z</time>
      </trkpt>
      <trkpt lat="59.263882" lon="18.097844">
        <ele>34</ele>
        <time>2019-12-09T16:36:19Z</time>
      </trkpt>
      <trkpt lat="59.263927" lon="18.097835">
        <ele>34</ele>
        <time>2019-12-09T16:36:20Z</time>
      </trkpt>
      <trkpt lat="59.263974" lon="18.097824">
        <ele>35</ele>
        <time>2019-12-09T16:36:21Z</time>
      </trkpt>
      <trkpt lat="59.26402" lon="18.09781">
        <ele>35</ele>
        <time>2019-12-09T16:36:22Z</time>
      </trkpt>
      <trkpt lat="59.264067" lon="18.097795">
        <ele>35</ele>
        <time>2019-12-09T16:36:23Z</time>
      </trkpt>
      <trkpt lat="59.264117" lon="18.097775">
        <ele>35</ele>
        <time>2019-12-09T16:36:24Z</time>
      </trkpt>
      <trkpt lat="59.264171" lon="18.097757">
        <ele>36</ele>
        <time>2019-12-09T16:36:25Z</time>
      </trkpt>
      <trkpt lat="59.264222" lon="18.097738">
        <ele>36</ele>
        <time>2019-12-09T16:36:26Z</time>
      </trkpt>
      <trkpt lat="59.26427" lon="18.097718">
        <ele>36</ele>
        <time>2019-12-09T16:36:27Z</time>
      </trkpt>
      <trkpt lat="59.264318" lon="18.097696">
        <ele>36</ele>
        <time>2019-12-09T16:36:28Z</time>
      </trkpt>
      <trkpt lat="59.264367" lon="18.097676">
        <ele>36</ele>
        <time>2019-12-09T16:36:29Z</time>
      </trkpt>
      <trkpt lat="59.264417" lon="18.097656">
        <ele>36</ele>
        <time>2019-12-09T16:36:30Z</time>
      </trkpt>
      <trkpt lat="59.264468" lon="18.097633">
        <ele>36</ele>
        <time>2019-12-09T16:36:31Z</time>
      </trkpt>
      <trkpt lat="59.264519" lon="18.097608">
        <ele>36</ele>
        <time>2019-12-09T16:36:32Z</time>
      </trkpt>
      <trkpt lat="59.264573" lon="18.097581">
        <ele>36</ele>
        <time>2019-12-09T16:36:33Z</time>
      </trkpt>
      <trkpt lat="59.26463" lon="18.097553">
        <ele>36</ele>
        <time>2019-12-09T16:36:34Z</time>
      </trkpt>
      <trkpt lat="59.264691" lon="18.097526">
        <ele>36</ele>
        <time>2019-12-09T16:36:35Z</time>
      </trkpt>
      <trkpt lat="59.264751" lon="18.097499">
        <ele>36</ele>
        <time>2019-12-09T16:36:36Z</time>
      </trkpt>
      <trkpt lat="59.264811" lon="18.097471">
        <ele>36</ele>
        <time>2019-12-09T16:36:37Z</time>
      </trkpt>
      <trkpt lat="59.264871" lon="18.097441">
        <ele>36</ele>
        <time>2019-12-09T16:36:38Z</time>
      </trkpt>
      <trkpt lat="59.264933" lon="18.097408">
        <ele>36</ele>
        <time>2019-12-09T16:36:39Z</time>
      </trkpt>
      <trkpt lat="59.265003" lon="18.097376">
        <ele>36</ele>
        <time>2019-12-09T16:36:40Z</time>
      </trkpt>
      <trkpt lat="59.26507" lon="18.097338">
        <ele>36</ele>
        <time>2019-12-09T16:36:41Z</time>
      </trkpt>
      <trkpt lat="59.265131" lon="18.097306">
        <ele>36</ele>
        <time>2019-12-09T16:36:42Z</time>
      </trkpt>
      <trkpt lat="59.265191" lon="18.097292">
        <ele>36</ele>
        <time>2019-12-09T16:36:43Z</time>
      </trkpt>
      <trkpt lat="59.26525" lon="18.09731">
        <ele>36</ele>
        <time>2019-12-09T16:36:44Z</time>
      </trkpt>
      <trkpt lat="59.265296" lon="18.097375">
        <ele>36</ele>
        <time>2019-12-09T16:36:45Z</time>
      </trkpt>
      <trkpt lat="59.265325" lon="18.097459">
        <ele>36</ele>
        <time>2019-12-09T16:36:46Z</time>
      </trkpt>
      <trkpt lat="59.265337" lon="18.097552">
        <ele>36</ele>
        <time>2019-12-09T16:36:47Z</time>
      </trkpt>
      <trkpt lat="59.265348" lon="18.097642">
        <ele>37</ele>
        <time>2019-12-09T16:36:48Z</time>
      </trkpt>
      <trkpt lat="59.265359" lon="18.09787">
        <ele>37</ele>
        <time>2019-12-09T16:36:50Z</time>
      </trkpt>
      <trkpt lat="59.265363" lon="18.098151">
        <ele>37</ele>
        <time>2019-12-09T16:36:52Z</time>
      </trkpt>
      <trkpt lat="59.265494" lon="18.098132">
        <ele>37</ele>
        <time>2019-12-09T16:36:53Z</time>
      </trkpt>
      <trkpt lat="59.265549" lon="18.098154">
        <ele>37</ele>
        <time>2019-12-09T16:36:54Z</time>
      </trkpt>
      <trkpt lat="59.265598" lon="18.09816">
        <ele>37</ele>
        <time>2019-12-09T16:36:55Z</time>
      </trkpt>
      <trkpt lat="59.265638" lon="18.098153">
        <ele>37</ele>
        <time>2019-12-09T16:36:56Z</time>
      </trkpt>
      <trkpt lat="59.265671" lon="18.098136">
        <ele>37</ele>
        <time>2019-12-09T16:36:57Z</time>
      </trkpt>
      <trkpt lat="59.265705" lon="18.098119">
        <ele>37</ele>
        <time>2019-12-09T16:36:58Z</time>
      </trkpt>
      <trkpt lat="59.26574" lon="18.098092">
        <ele>36</ele>
        <time>2019-12-09T16:36:59Z</time>
      </trkpt>
      <trkpt lat="59.26578" lon="18.098066">
        <ele>36</ele>
        <time>2019-12-09T16:37:00Z</time>
      </trkpt>
      <trkpt lat="59.265823" lon="18.098039">
        <ele>36</ele>
        <time>2019-12-09T16:37:01Z</time>
      </trkpt>
      <trkpt lat="59.265863" lon="18.098011">
        <ele>36</ele>
        <time>2019-12-09T16:37:02Z</time>
      </trkpt>
      <trkpt lat="59.265902" lon="18.097982">
        <ele>36</ele>
        <time>2019-12-09T16:37:03Z</time>
      </trkpt>
      <trkpt lat="59.26594" lon="18.097954">
        <ele>36</ele>
        <time>2019-12-09T16:37:04Z</time>
      </trkpt>
      <trkpt lat="59.265979" lon="18.097926">
        <ele>36</ele>
        <time>2019-12-09T16:37:05Z</time>
      </trkpt>
      <trkpt lat="59.266019" lon="18.097898">
        <ele>36</ele>
        <time>2019-12-09T16:37:06Z</time>
      </trkpt>
      <trkpt lat="59.266057" lon="18.097868">
        <ele>36</ele>
        <time>2019-12-09T16:37:07Z</time>
      </trkpt>
      <trkpt lat="59.266094" lon="18.09784">
        <ele>36</ele>
        <time>2019-12-09T16:37:08Z</time>
      </trkpt>
      <trkpt lat="59.266131" lon="18.097836">
        <ele>36</ele>
        <time>2019-12-09T16:37:09Z</time>
      </trkpt>
      <trkpt lat="59.26616" lon="18.097863">
        <ele>36</ele>
        <time>2019-12-09T16:37:10Z</time>
      </trkpt>
      <trkpt lat="59.266176" lon="18.097904">
        <ele>36</ele>
        <time>2019-12-09T16:37:11Z</time>
      </trkpt>
      <trkpt lat="59.266188" lon="18.097956">
        <ele>36</ele>
        <time>2019-12-09T16:37:12Z</time>
      </trkpt>
      <trkpt lat="59.266208" lon="18.098006">
        <ele>36</ele>
        <time>2019-12-09T16:37:13Z</time>
      </trkpt>
      <trkpt lat="59.266239" lon="18.098033">
        <ele>36</ele>
        <time>2019-12-09T16:37:14Z</time>
      </trkpt>
      <trkpt lat="59.266274" lon="18.098026">
        <ele>36</ele>
        <time>2019-12-09T16:37:15Z</time>
      </trkpt>
      <trkpt lat="59.266315" lon="18.098004">
        <ele>36</ele>
        <time>2019-12-09T16:37:16Z</time>
      </trkpt>
      <trkpt lat="59.26636" lon="18.097978">
        <ele>36</ele>
        <time>2019-12-09T16:37:17Z</time>
      </trkpt>
      <trkpt lat="59.266407" lon="18.097954">
        <ele>36</ele>
        <time>2019-12-09T16:37:18Z</time>
      </trkpt>
      <trkpt lat="59.266455" lon="18.097932">
        <ele>36</ele>
        <time>2019-12-09T16:37:19Z</time>
      </trkpt>
      <trkpt lat="59.266505" lon="18.097908">
        <ele>36</ele>
        <time>2019-12-09T16:37:20Z</time>
      </trkpt>
      <trkpt lat="59.266557" lon="18.097883">
        <ele>36</ele>
        <time>2019-12-09T16:37:21Z</time>
      </trkpt>
      <trkpt lat="59.26661" lon="18.097856">
        <ele>36</ele>
        <time>2019-12-09T16:37:22Z</time>
      </trkpt>
      <trkpt lat="59.266664" lon="18.097829">
        <ele>36</ele>
        <time>2019-12-09T16:37:23Z</time>
      </trkpt>
      <trkpt lat="59.266717" lon="18.097801">
        <ele>36</ele>
        <time>2019-12-09T16:37:24Z</time>
      </trkpt>
      <trkpt lat="59.266771" lon="18.097773">
        <ele>36</ele>
        <time>2019-12-09T16:37:25Z</time>
      </trkpt>
      <trkpt lat="59.266823" lon="18.097745">
        <ele>36</ele>
        <time>2019-12-09T16:37:26Z</time>
      </trkpt>
      <trkpt lat="59.266873" lon="18.097717">
        <ele>36</ele>
        <time>2019-12-09T16:37:27Z</time>
      </trkpt>
      <trkpt lat="59.266924" lon="18.097688">
        <ele>36</ele>
        <time>2019-12-09T16:37:28Z</time>
      </trkpt>
      <trkpt lat="59.266973" lon="18.097664">
        <ele>36</ele>
        <time>2019-12-09T16:37:29Z</time>
      </trkpt>
      <trkpt lat="59.267026" lon="18.097631">
        <ele>36</ele>
        <time>2019-12-09T16:37:30Z</time>
      </trkpt>
      <trkpt lat="59.267081" lon="18.097591">
        <ele>36</ele>
        <time>2019-12-09T16:37:31Z</time>
      </trkpt>
      <trkpt lat="59.267136" lon="18.097552">
        <ele>36</ele>
        <time>2019-12-09T16:37:32Z</time>
      </trkpt>
      <trkpt lat="59.267191" lon="18.097509">
        <ele>36</ele>
        <time>2019-12-09T16:37:33Z</time>
      </trkpt>
      <trkpt lat="59.267246" lon="18.097462">
        <ele>36</ele>
        <time>2019-12-09T16:37:34Z</time>
      </trkpt>
      <trkpt lat="59.267301" lon="18.097417">
        <ele>36</ele>
        <time>2019-12-09T16:37:35Z</time>
      </trkpt>
      <trkpt lat="59.267358" lon="18.097373">
        <ele>36</ele>
        <time>2019-12-09T16:37:36Z</time>
      </trkpt>
      <trkpt lat="59.267411" lon="18.097334">
        <ele>36</ele>
        <time>2019-12-09T16:37:37Z</time>
      </trkpt>
      <trkpt lat="59.267467" lon="18.097295">
        <ele>36</ele>
        <time>2019-12-09T16:37:38Z</time>
      </trkpt>
      <trkpt lat="59.267526" lon="18.097254">
        <ele>0</ele>
        <time>2019-12-09T16:37:38Z</time>
      </trkpt>
      <trkpt lat="59.267586" lon="18.097215">
        <ele>36</ele>
        <time>2019-12-09T16:37:39Z</time>
      </trkpt>
      <trkpt lat="59.267645" lon="18.097174">
        <ele>36</ele>
        <time>2019-12-09T16:37:41Z</time>
      </trkpt>
      <trkpt lat="59.267703" lon="18.097136">
        <ele>36</ele>
        <time>2019-12-09T16:37:42Z</time>
      </trkpt>
      <trkpt lat="59.267761" lon="18.097105">
        <ele>36</ele>
        <time>2019-12-09T16:37:43Z</time>
      </trkpt>
      <trkpt lat="59.267823" lon="18.097074">
        <ele>36</ele>
        <time>2019-12-09T16:37:44Z</time>
      </trkpt>
      <trkpt lat="59.267883" lon="18.097049">
        <ele>36</ele>
        <time>2019-12-09T16:37:45Z</time>
      </trkpt>
      <trkpt lat="59.267943" lon="18.097027">
        <ele>36</ele>
        <time>2019-12-09T16:37:46Z</time>
      </trkpt>
      <trkpt lat="59.268003" lon="18.097003">
        <ele>36</ele>
        <time>2019-12-09T16:37:47Z</time>
      </trkpt>
      <trkpt lat="59.268061" lon="18.096976">
        <ele>36</ele>
        <time>2019-12-09T16:37:48Z</time>
      </trkpt>
      <trkpt lat="59.268118" lon="18.096945">
        <ele>36</ele>
        <time>2019-12-09T16:37:49Z</time>
      </trkpt>
      <trkpt lat="59.268175" lon="18.096908">
        <ele>36</ele>
        <time>2019-12-09T16:37:50Z</time>
      </trkpt>
      <trkpt lat="59.268231" lon="18.096867">
        <ele>36</ele>
        <time>2019-12-09T16:37:51Z</time>
      </trkpt>
      <trkpt lat="59.268287" lon="18.096824">
        <ele>36</ele>
        <time>2019-12-09T16:37:52Z</time>
      </trkpt>
      <trkpt lat="59.268343" lon="18.096781">
        <ele>36</ele>
        <time>2019-12-09T16:37:53Z</time>
      </trkpt>
      <trkpt lat="59.268398" lon="18.096738">
        <ele>36</ele>
        <time>2019-12-09T16:37:54Z</time>
      </trkpt>
      <trkpt lat="59.268455" lon="18.096698">
        <ele>36</ele>
        <time>2019-12-09T16:37:55Z</time>
      </trkpt>
      <trkpt lat="59.268513" lon="18.096659">
        <ele>36</ele>
        <time>2019-12-09T16:37:56Z</time>
      </trkpt>
      <trkpt lat="59.268572" lon="18.096622">
        <ele>36</ele>
        <time>2019-12-09T16:37:57Z</time>
      </trkpt>
      <trkpt lat="59.268631" lon="18.096584">
        <ele>36</ele>
        <time>2019-12-09T16:37:58Z</time>
      </trkpt>
      <trkpt lat="59.26869" lon="18.096546">
        <ele>36</ele>
        <time>2019-12-09T16:37:59Z</time>
      </trkpt>
      <trkpt lat="59.268749" lon="18.096512">
        <ele>36</ele>
        <time>2019-12-09T16:38:00Z</time>
      </trkpt>
      <trkpt lat="59.268807" lon="18.096481">
        <ele>36</ele>
        <time>2019-12-09T16:38:01Z</time>
      </trkpt>
      <trkpt lat="59.268866" lon="18.096449">
        <ele>37</ele>
        <time>2019-12-09T16:38:02Z</time>
      </trkpt>
      <trkpt lat="59.268923" lon="18.096419">
        <ele>37</ele>
        <time>2019-12-09T16:38:03Z</time>
      </trkpt>
      <trkpt lat="59.268981" lon="18.096395">
        <ele>37</ele>
        <time>2019-12-09T16:38:04Z</time>
      </trkpt>
      <trkpt lat="59.26904" lon="18.096369">
        <ele>37</ele>
        <time>2019-12-09T16:38:05Z</time>
      </trkpt>
      <trkpt lat="59.269097" lon="18.09634">
        <ele>37</ele>
        <time>2019-12-09T16:38:06Z</time>
      </trkpt>
      <trkpt lat="59.269153" lon="18.09631">
        <ele>37</ele>
        <time>2019-12-09T16:38:07Z</time>
      </trkpt>
      <trkpt lat="59.269208" lon="18.09628">
        <ele>37</ele>
        <time>2019-12-09T16:38:08Z</time>
      </trkpt>
      <trkpt lat="59.269258" lon="18.096248">
        <ele>37</ele>
        <time>2019-12-09T16:38:09Z</time>
      </trkpt>
      <trkpt lat="59.269308" lon="18.096216">
        <ele>37</ele>
        <time>2019-12-09T16:38:10Z</time>
      </trkpt>
      <trkpt lat="59.269361" lon="18.096189">
        <ele>37</ele>
        <time>2019-12-09T16:38:11Z</time>
      </trkpt>
      <trkpt lat="59.269416" lon="18.096163">
        <ele>37</ele>
        <time>2019-12-09T16:38:12Z</time>
      </trkpt>
      <trkpt lat="59.269471" lon="18.096135">
        <ele>38</ele>
        <time>2019-12-09T16:38:13Z</time>
      </trkpt>
      <trkpt lat="59.269525" lon="18.096108">
        <ele>38</ele>
        <time>2019-12-09T16:38:14Z</time>
      </trkpt>
      <trkpt lat="59.269582" lon="18.09608">
        <ele>38</ele>
        <time>2019-12-09T16:38:15Z</time>
      </trkpt>
      <trkpt lat="59.269635" lon="18.096046">
        <ele>38</ele>
        <time>2019-12-09T16:38:16Z</time>
      </trkpt>
      <trkpt lat="59.269689" lon="18.096007">
        <ele>38</ele>
        <time>2019-12-09T16:38:17Z</time>
      </trkpt>
      <trkpt lat="59.269745" lon="18.095962">
        <ele>38</ele>
        <time>2019-12-09T16:38:18Z</time>
      </trkpt>
      <trkpt lat="59.269805" lon="18.095921">
        <ele>38</ele>
        <time>2019-12-09T16:38:19Z</time>
      </trkpt>
      <trkpt lat="59.269859" lon="18.095884">
        <ele>38</ele>
        <time>2019-12-09T16:38:20Z</time>
      </trkpt>
      <trkpt lat="59.269916" lon="18.095847">
        <ele>38</ele>
        <time>2019-12-09T16:38:21Z</time>
      </trkpt>
      <trkpt lat="59.269973" lon="18.095809">
        <ele>38</ele>
        <time>2019-12-09T16:38:22Z</time>
      </trkpt>
      <trkpt lat="59.270028" lon="18.09577">
        <ele>38</ele>
        <time>2019-12-09T16:38:23Z</time>
      </trkpt>
      <trkpt lat="59.27009" lon="18.095728">
        <ele>39</ele>
        <time>2019-12-09T16:38:24Z</time>
      </trkpt>
      <trkpt lat="59.27015" lon="18.095692">
        <ele>39</ele>
        <time>2019-12-09T16:38:25Z</time>
      </trkpt>
      <trkpt lat="59.270207" lon="18.095662">
        <ele>39</ele>
        <time>2019-12-09T16:38:26Z</time>
      </trkpt>
      <trkpt lat="59.270262" lon="18.095633">
        <ele>40</ele>
        <time>2019-12-09T16:38:27Z</time>
      </trkpt>
      <trkpt lat="59.270321" lon="18.095609">
        <ele>40</ele>
        <time>2019-12-09T16:38:28Z</time>
      </trkpt>
      <trkpt lat="59.270379" lon="18.095588">
        <ele>40</ele>
        <time>2019-12-09T16:38:29Z</time>
      </trkpt>
      <trkpt lat="59.270437" lon="18.095568">
        <ele>40</ele>
        <time>2019-12-09T16:38:30Z</time>
      </trkpt>
      <trkpt lat="59.270498" lon="18.095547">
        <ele>40</ele>
        <time>2019-12-09T16:38:31Z</time>
      </trkpt>
      <trkpt lat="59.270561" lon="18.095519">
        <ele>40</ele>
        <time>2019-12-09T16:38:32Z</time>
      </trkpt>
      <trkpt lat="59.270622" lon="18.095484">
        <ele>41</ele>
        <time>2019-12-09T16:38:33Z</time>
      </trkpt>
      <trkpt lat="59.270683" lon="18.095444">
        <ele>41</ele>
        <time>2019-12-09T16:38:34Z</time>
      </trkpt>
      <trkpt lat="59.270743" lon="18.095401">
        <ele>41</ele>
        <time>2019-12-09T16:38:35Z</time>
      </trkpt>
      <trkpt lat="59.270803" lon="18.095356">
        <ele>41</ele>
        <time>2019-12-09T16:38:36Z</time>
      </trkpt>
      <trkpt lat="59.270868" lon="18.095313">
        <ele>41</ele>
        <time>2019-12-09T16:38:37Z</time>
      </trkpt>
      <trkpt lat="59.270935" lon="18.095275">
        <ele>41</ele>
        <time>2019-12-09T16:38:38Z</time>
      </trkpt>
      <trkpt lat="59.270999" lon="18.095242">
        <ele>41</ele>
        <time>2019-12-09T16:38:39Z</time>
      </trkpt>
      <trkpt lat="59.27106" lon="18.095215">
        <ele>41</ele>
        <time>2019-12-09T16:38:40Z</time>
      </trkpt>
      <trkpt lat="59.271119" lon="18.095183">
        <ele>40</ele>
        <time>2019-12-09T16:38:41Z</time>
      </trkpt>
      <trkpt lat="59.271178" lon="18.095151">
        <ele>40</ele>
        <time>2019-12-09T16:38:42Z</time>
      </trkpt>
      <trkpt lat="59.271248" lon="18.095127">
        <ele>40</ele>
        <time>2019-12-09T16:38:43Z</time>
      </trkpt>
      <trkpt lat="59.271311" lon="18.095101">
        <ele>40</ele>
        <time>2019-12-09T16:38:44Z</time>
      </trkpt>
      <trkpt lat="59.271373" lon="18.095084">
        <ele>40</ele>
        <time>2019-12-09T16:38:45Z</time>
      </trkpt>
      <trkpt lat="59.271427" lon="18.095063">
        <ele>40</ele>
        <time>2019-12-09T16:38:46Z</time>
      </trkpt>
      <trkpt lat="59.271485" lon="18.095038">
        <ele>40</ele>
        <time>2019-12-09T16:38:47Z</time>
      </trkpt>
      <trkpt lat="59.271542" lon="18.095017">
        <ele>40</ele>
        <time>2019-12-09T16:38:48Z</time>
      </trkpt>
      <trkpt lat="59.271599" lon="18.095002">
        <ele>40</ele>
        <time>2019-12-09T16:38:49Z</time>
      </trkpt>
      <trkpt lat="59.271659" lon="18.094982">
        <ele>40</ele>
        <time>2019-12-09T16:38:50Z</time>
      </trkpt>
      <trkpt lat="59.271723" lon="18.094957">
        <ele>39</ele>
        <time>2019-12-09T16:38:51Z</time>
      </trkpt>
      <trkpt lat="59.271784" lon="18.094929">
        <ele>39</ele>
        <time>2019-12-09T16:38:52Z</time>
      </trkpt>
      <trkpt lat="59.271839" lon="18.094894">
        <ele>39</ele>
        <time>2019-12-09T16:38:53Z</time>
      </trkpt>
      <trkpt lat="59.271892" lon="18.094851">
        <ele>39</ele>
        <time>2019-12-09T16:38:54Z</time>
      </trkpt>
      <trkpt lat="59.271942" lon="18.094808">
        <ele>39</ele>
        <time>2019-12-09T16:38:55Z</time>
      </trkpt>
      <trkpt lat="59.271994" lon="18.094774">
        <ele>39</ele>
        <time>2019-12-09T16:38:56Z</time>
      </trkpt>
      <trkpt lat="59.272046" lon="18.09475">
        <ele>39</ele>
        <time>2019-12-09T16:38:57Z</time>
      </trkpt>
      <trkpt lat="59.272099" lon="18.094732">
        <ele>39</ele>
        <time>2019-12-09T16:38:58Z</time>
      </trkpt>
      <trkpt lat="59.272151" lon="18.094719">
        <ele>39</ele>
        <time>2019-12-09T16:38:59Z</time>
      </trkpt>
      <trkpt lat="59.272203" lon="18.094709">
        <ele>39</ele>
        <time>2019-12-09T16:39:00Z</time>
      </trkpt>
      <trkpt lat="59.272254" lon="18.094696">
        <ele>39</ele>
        <time>2019-12-09T16:39:01Z</time>
      </trkpt>
      <trkpt lat="59.272305" lon="18.094679">
        <ele>39</ele>
        <time>2019-12-09T16:39:02Z</time>
      </trkpt>
      <trkpt lat="59.272355" lon="18.094664">
        <ele>39</ele>
        <time>2019-12-09T16:39:03Z</time>
      </trkpt>
      <trkpt lat="59.272405" lon="18.09465">
        <ele>39</ele>
        <time>2019-12-09T16:39:04Z</time>
      </trkpt>
      <trkpt lat="59.272454" lon="18.094637">
        <ele>40</ele>
        <time>2019-12-09T16:39:05Z</time>
      </trkpt>
      <trkpt lat="59.272502" lon="18.094623">
        <ele>40</ele>
        <time>2019-12-09T16:39:06Z</time>
      </trkpt>
      <trkpt lat="59.272551" lon="18.09461">
        <ele>40</ele>
        <time>2019-12-09T16:39:07Z</time>
      </trkpt>
      <trkpt lat="59.272599" lon="18.094598">
        <ele>40</ele>
        <time>2019-12-09T16:39:08Z</time>
      </trkpt>
      <trkpt lat="59.272646" lon="18.094587">
        <ele>40</ele>
        <time>2019-12-09T16:39:09Z</time>
      </trkpt>
      <trkpt lat="59.272692" lon="18.094573">
        <ele>40</ele>
        <time>2019-12-09T16:39:10Z</time>
      </trkpt>
      <trkpt lat="59.272739" lon="18.094559">
        <ele>40</ele>
        <time>2019-12-09T16:39:11Z</time>
      </trkpt>
      <trkpt lat="59.272786" lon="18.094543">
        <ele>40</ele>
        <time>2019-12-09T16:39:12Z</time>
      </trkpt>
      <trkpt lat="59.272834" lon="18.094526">
        <ele>40</ele>
        <time>2019-12-09T16:39:13Z</time>
      </trkpt>
      <trkpt lat="59.272882" lon="18.094508">
        <ele>40</ele>
        <time>2019-12-09T16:39:14Z</time>
      </trkpt>
      <trkpt lat="59.272932" lon="18.09449">
        <ele>40</ele>
        <time>2019-12-09T16:39:15Z</time>
      </trkpt>
      <trkpt lat="59.272983" lon="18.094471">
        <ele>40</ele>
        <time>2019-12-09T16:39:16Z</time>
      </trkpt>
      <trkpt lat="59.273035" lon="18.094452">
        <ele>40</ele>
        <time>2019-12-09T16:39:17Z</time>
      </trkpt>
      <trkpt lat="59.27309" lon="18.094433">
        <ele>40</ele>
        <time>2019-12-09T16:39:18Z</time>
      </trkpt>
      <trkpt lat="59.273147" lon="18.094416">
        <ele>40</ele>
        <time>2019-12-09T16:39:19Z</time>
      </trkpt>
      <trkpt lat="59.273209" lon="18.094404">
        <ele>40</ele>
        <time>2019-12-09T16:39:20Z</time>
      </trkpt>
      <trkpt lat="59.273275" lon="18.094392">
        <ele>39</ele>
        <time>2019-12-09T16:39:21Z</time>
      </trkpt>
      <trkpt lat="59.273344" lon="18.094372">
        <ele>39</ele>
        <time>2019-12-09T16:39:22Z</time>
      </trkpt>
      <trkpt lat="59.273414" lon="18.094343">
        <ele>39</ele>
        <time>2019-12-09T16:39:23Z</time>
      </trkpt>
      <trkpt lat="59.273486" lon="18.094309">
        <ele>38</ele>
        <time>2019-12-09T16:39:24Z</time>
      </trkpt>
      <trkpt lat="59.273561" lon="18.094269">
        <ele>38</ele>
        <time>2019-12-09T16:39:25Z</time>
      </trkpt>
      <trkpt lat="59.273637" lon="18.094217">
        <ele>38</ele>
        <time>2019-12-09T16:39:26Z</time>
      </trkpt>
      <trkpt lat="59.273713" lon="18.09416">
        <ele>37</ele>
        <time>2019-12-09T16:39:27Z</time>
      </trkpt>
      <trkpt lat="59.273793" lon="18.094109">
        <ele>37</ele>
        <time>2019-12-09T16:39:28Z</time>
      </trkpt>
      <trkpt lat="59.273875" lon="18.094066">
        <ele>36</ele>
        <time>2019-12-09T16:39:29Z</time>
      </trkpt>
      <trkpt lat="59.273959" lon="18.094026">
        <ele>36</ele>
        <time>2019-12-09T16:39:30Z</time>
      </trkpt>
      <trkpt lat="59.274045" lon="18.093988">
        <ele>36</ele>
        <time>2019-12-09T16:39:31Z</time>
      </trkpt>
      <trkpt lat="59.274132" lon="18.09395">
        <ele>35</ele>
        <time>2019-12-09T16:39:32Z</time>
      </trkpt>
      <trkpt lat="59.27422" lon="18.093913">
        <ele>0</ele>
        <time>2019-12-09T16:39:32Z</time>
      </trkpt>
      <trkpt lat="59.274309" lon="18.093878">
        <ele>35</ele>
        <time>2019-12-09T16:39:33Z</time>
      </trkpt>
      <trkpt lat="59.274398" lon="18.09384">
        <ele>34</ele>
        <time>2019-12-09T16:39:35Z</time>
      </trkpt>
      <trkpt lat="59.274489" lon="18.093803">
        <ele>34</ele>
        <time>2019-12-09T16:39:36Z</time>
      </trkpt>
      <trkpt lat="59.274579" lon="18.093768">
        <ele>34</ele>
        <time>2019-12-09T16:39:37Z</time>
      </trkpt>
      <trkpt lat="59.274668" lon="18.093736">
        <ele>34</ele>
        <time>2019-12-09T16:39:38Z</time>
      </trkpt>
      <trkpt lat="59.274755" lon="18.093702">
        <ele>34</ele>
        <time>2019-12-09T16:39:39Z</time>
      </trkpt>
      <trkpt lat="59.274839" lon="18.093668">
        <ele>34</ele>
        <time>2019-12-09T16:39:40Z</time>
      </trkpt>
      <trkpt lat="59.274923" lon="18.093634">
        <ele>34</ele>
        <time>2019-12-09T16:39:41Z</time>
      </trkpt>
      <trkpt lat="59.275007" lon="18.093605">
        <ele>34</ele>
        <time>2019-12-09T16:39:42Z</time>
      </trkpt>
      <trkpt lat="59.275089" lon="18.093573">
        <ele>33</ele>
        <time>2019-12-09T16:39:43Z</time>
      </trkpt>
      <trkpt lat="59.27517" lon="18.093542">
        <ele>33</ele>
        <time>2019-12-09T16:39:44Z</time>
      </trkpt>
      <trkpt lat="59.275251" lon="18.093518">
        <ele>33</ele>
        <time>2019-12-09T16:39:45Z</time>
      </trkpt>
      <trkpt lat="59.27533" lon="18.093496">
        <ele>33</ele>
        <time>2019-12-09T16:39:46Z</time>
      </trkpt>
      <trkpt lat="59.275408" lon="18.093473">
        <ele>33</ele>
        <time>2019-12-09T16:39:47Z</time>
      </trkpt>
      <trkpt lat="59.275485" lon="18.093453">
        <ele>33</ele>
        <time>2019-12-09T16:39:48Z</time>
      </trkpt>
      <trkpt lat="59.275562" lon="18.093434">
        <ele>33</ele>
        <time>2019-12-09T16:39:49Z</time>
      </trkpt>
      <trkpt lat="59.275639" lon="18.093414">
        <ele>33</ele>
        <time>2019-12-09T16:39:50Z</time>
      </trkpt>
      <trkpt lat="59.275715" lon="18.093393">
        <ele>33</ele>
        <time>2019-12-09T16:39:51Z</time>
      </trkpt>
      <trkpt lat="59.27579" lon="18.093372">
        <ele>33</ele>
        <time>2019-12-09T16:39:52Z</time>
      </trkpt>
      <trkpt lat="59.275866" lon="18.093351">
        <ele>33</ele>
        <time>2019-12-09T16:39:53Z</time>
      </trkpt>
      <trkpt lat="59.275941" lon="18.09333">
        <ele>33</ele>
        <time>2019-12-09T16:39:54Z</time>
      </trkpt>
      <trkpt lat="59.276016" lon="18.093309">
        <ele>33</ele>
        <time>2019-12-09T16:39:55Z</time>
      </trkpt>
      <trkpt lat="59.27609" lon="18.093289">
        <ele>33</ele>
        <time>2019-12-09T16:39:56Z</time>
      </trkpt>
      <trkpt lat="59.276165" lon="18.093276">
        <ele>33</ele>
        <time>2019-12-09T16:39:57Z</time>
      </trkpt>
      <trkpt lat="59.276239" lon="18.093266">
        <ele>33</ele>
        <time>2019-12-09T16:39:58Z</time>
      </trkpt>
      <trkpt lat="59.276312" lon="18.093252">
        <ele>33</ele>
        <time>2019-12-09T16:39:59Z</time>
      </trkpt>
      <trkpt lat="59.276385" lon="18.093238">
        <ele>33</ele>
        <time>2019-12-09T16:40:00Z</time>
      </trkpt>
      <trkpt lat="59.276456" lon="18.093225">
        <ele>33</ele>
        <time>2019-12-09T16:40:01Z</time>
      </trkpt>
      <trkpt lat="59.276528" lon="18.093212">
        <ele>33</ele>
        <time>2019-12-09T16:40:02Z</time>
      </trkpt>
      <trkpt lat="59.2766" lon="18.0932">
        <ele>32</ele>
        <time>2019-12-09T16:40:03Z</time>
      </trkpt>
      <trkpt lat="59.276671" lon="18.09319">
        <ele>32</ele>
        <time>2019-12-09T16:40:04Z</time>
      </trkpt>
      <trkpt lat="59.276741" lon="18.093179">
        <ele>33</ele>
        <time>2019-12-09T16:40:05Z</time>
      </trkpt>
      <trkpt lat="59.276812" lon="18.093164">
        <ele>33</ele>
        <time>2019-12-09T16:40:06Z</time>
      </trkpt>
      <trkpt lat="59.276883" lon="18.093146">
        <ele>33</ele>
        <time>2019-12-09T16:40:07Z</time>
      </trkpt>
      <trkpt lat="59.276954" lon="18.09313">
        <ele>33</ele>
        <time>2019-12-09T16:40:08Z</time>
      </trkpt>
      <trkpt lat="59.277025" lon="18.09311">
        <ele>33</ele>
        <time>2019-12-09T16:40:09Z</time>
      </trkpt>
      <trkpt lat="59.277098" lon="18.093089">
        <ele>33</ele>
        <time>2019-12-09T16:40:10Z</time>
      </trkpt>
      <trkpt lat="59.277171" lon="18.093067">
        <ele>33</ele>
        <time>2019-12-09T16:40:11Z</time>
      </trkpt>
      <trkpt lat="59.277243" lon="18.093044">
        <ele>33</ele>
        <time>2019-12-09T16:40:12Z</time>
      </trkpt>
      <trkpt lat="59.277314" lon="18.093018">
        <ele>33</ele>
        <time>2019-12-09T16:40:13Z</time>
      </trkpt>
      <trkpt lat="59.277386" lon="18.092992">
        <ele>32</ele>
        <time>2019-12-09T16:40:14Z</time>
      </trkpt>
      <trkpt lat="59.277457" lon="18.092964">
        <ele>32</ele>
        <time>2019-12-09T16:40:15Z</time>
      </trkpt>
      <trkpt lat="59.277528" lon="18.092937">
        <ele>32</ele>
        <time>2019-12-09T16:40:16Z</time>
      </trkpt>
      <trkpt lat="59.277599" lon="18.092912">
        <ele>32</ele>
        <time>2019-12-09T16:40:17Z</time>
      </trkpt>
      <trkpt lat="59.27767" lon="18.09289">
        <ele>32</ele>
        <time>2019-12-09T16:40:18Z</time>
      </trkpt>
      <trkpt lat="59.277741" lon="18.092866">
        <ele>32</ele>
        <time>2019-12-09T16:40:19Z</time>
      </trkpt>
      <trkpt lat="59.277812" lon="18.092836">
        <ele>32</ele>
        <time>2019-12-09T16:40:20Z</time>
      </trkpt>
      <trkpt lat="59.277884" lon="18.09281">
        <ele>31</ele>
        <time>2019-12-09T16:40:21Z</time>
      </trkpt>
      <trkpt lat="59.277955" lon="18.09278">
        <ele>31</ele>
        <time>2019-12-09T16:40:22Z</time>
      </trkpt>
      <trkpt lat="59.278027" lon="18.09275">
        <ele>31</ele>
        <time>2019-12-09T16:40:23Z</time>
      </trkpt>
      <trkpt lat="59.278099" lon="18.09272">
        <ele>31</ele>
        <time>2019-12-09T16:40:24Z</time>
      </trkpt>
      <trkpt lat="59.278171" lon="18.09269">
        <ele>31</ele>
        <time>2019-12-09T16:40:25Z</time>
      </trkpt>
      <trkpt lat="59.278244" lon="18.092658">
        <ele>31</ele>
        <time>2019-12-09T16:40:26Z</time>
      </trkpt>
      <trkpt lat="59.278317" lon="18.092628">
        <ele>30</ele>
        <time>2019-12-09T16:40:27Z</time>
      </trkpt>
      <trkpt lat="59.27839" lon="18.0926">
        <ele>30</ele>
        <time>2019-12-09T16:40:28Z</time>
      </trkpt>
      <trkpt lat="59.278464" lon="18.092569">
        <ele>30</ele>
        <time>2019-12-09T16:40:29Z</time>
      </trkpt>
      <trkpt lat="59.278538" lon="18.09254">
        <ele>30</ele>
        <time>2019-12-09T16:40:30Z</time>
      </trkpt>
      <trkpt lat="59.278612" lon="18.092508">
        <ele>30</ele>
        <time>2019-12-09T16:40:31Z</time>
      </trkpt>
      <trkpt lat="59.278686" lon="18.092474">
        <ele>30</ele>
        <time>2019-12-09T16:40:32Z</time>
      </trkpt>
      <trkpt lat="59.278762" lon="18.092442">
        <ele>30</ele>
        <time>2019-12-09T16:40:33Z</time>
      </trkpt>
      <trkpt lat="59.278836" lon="18.09241">
        <ele>30</ele>
        <time>2019-12-09T16:40:34Z</time>
      </trkpt>
      <trkpt lat="59.27891" lon="18.092376">
        <ele>31</ele>
        <time>2019-12-09T16:40:35Z</time>
      </trkpt>
      <trkpt lat="59.278982" lon="18.092344">
        <ele>31</ele>
        <time>2019-12-09T16:40:36Z</time>
      </trkpt>
      <trkpt lat="59.27905" lon="18.092318">
        <ele>32</ele>
        <time>2019-12-09T16:40:37Z</time>
      </trkpt>
      <trkpt lat="59.279116" lon="18.092292">
        <ele>32</ele>
        <time>2019-12-09T16:40:38Z</time>
      </trkpt>
      <trkpt lat="59.279182" lon="18.09227">
        <ele>32</ele>
        <time>2019-12-09T16:40:39Z</time>
      </trkpt>
      <trkpt lat="59.279246" lon="18.092256">
        <ele>32</ele>
        <time>2019-12-09T16:40:40Z</time>
      </trkpt>
      <trkpt lat="59.279309" lon="18.092244">
        <ele>32</ele>
        <time>2019-12-09T16:40:41Z</time>
      </trkpt>
      <trkpt lat="59.27937" lon="18.092222">
        <ele>32</ele>
        <time>2019-12-09T16:40:42Z</time>
      </trkpt>
      <trkpt lat="59.279434" lon="18.092196">
        <ele>33</ele>
        <time>2019-12-09T16:40:43Z</time>
      </trkpt>
      <trkpt lat="59.2795" lon="18.092168">
        <ele>33</ele>
        <time>2019-12-09T16:40:44Z</time>
      </trkpt>
      <trkpt lat="59.279566" lon="18.09214">
        <ele>33</ele>
        <time>2019-12-09T16:40:45Z</time>
      </trkpt>
      <trkpt lat="59.279628" lon="18.092114">
        <ele>33</ele>
        <time>2019-12-09T16:40:46Z</time>
      </trkpt>
      <trkpt lat="59.27969" lon="18.09209">
        <ele>34</ele>
        <time>2019-12-09T16:40:47Z</time>
      </trkpt>
      <trkpt lat="59.27975" lon="18.09206">
        <ele>34</ele>
        <time>2019-12-09T16:40:48Z</time>
      </trkpt>
      <trkpt lat="59.279812" lon="18.092022">
        <ele>34</ele>
        <time>2019-12-09T16:40:49Z</time>
      </trkpt>
      <trkpt lat="59.279872" lon="18.091987">
        <ele>34</ele>
        <time>2019-12-09T16:40:50Z</time>
      </trkpt>
      <trkpt lat="59.279935" lon="18.091958">
        <ele>34</ele>
        <time>2019-12-09T16:40:51Z</time>
      </trkpt>
      <trkpt lat="59.279998" lon="18.091936">
        <ele>35</ele>
        <time>2019-12-09T16:40:52Z</time>
      </trkpt>
      <trkpt lat="59.280063" lon="18.091916">
        <ele>35</ele>
        <time>2019-12-09T16:40:53Z</time>
      </trkpt>
      <trkpt lat="59.280129" lon="18.091898">
        <ele>34</ele>
        <time>2019-12-09T16:40:54Z</time>
      </trkpt>
      <trkpt lat="59.280194" lon="18.091878">
        <ele>34</ele>
        <time>2019-12-09T16:40:55Z</time>
      </trkpt>
      <trkpt lat="59.28026" lon="18.091855">
        <ele>34</ele>
        <time>2019-12-09T16:40:56Z</time>
      </trkpt>
      <trkpt lat="59.280325" lon="18.09183">
        <ele>34</ele>
        <time>2019-12-09T16:40:57Z</time>
      </trkpt>
      <trkpt lat="59.280388" lon="18.091806">
        <ele>33</ele>
        <time>2019-12-09T16:40:58Z</time>
      </trkpt>
      <trkpt lat="59.280455" lon="18.091782">
        <ele>33</ele>
        <time>2019-12-09T16:40:59Z</time>
      </trkpt>
      <trkpt lat="59.280522" lon="18.09176">
        <ele>33</ele>
        <time>2019-12-09T16:41:00Z</time>
      </trkpt>
      <trkpt lat="59.280589" lon="18.091736">
        <ele>33</ele>
        <time>2019-12-09T16:41:01Z</time>
      </trkpt>
      <trkpt lat="59.280657" lon="18.091712">
        <ele>33</ele>
        <time>2019-12-09T16:41:02Z</time>
      </trkpt>
      <trkpt lat="59.280724" lon="18.091688">
        <ele>33</ele>
        <time>2019-12-09T16:41:03Z</time>
      </trkpt>
      <trkpt lat="59.280792" lon="18.091668">
        <ele>33</ele>
        <time>2019-12-09T16:41:04Z</time>
      </trkpt>
      <trkpt lat="59.28086" lon="18.091648">
        <ele>33</ele>
        <time>2019-12-09T16:41:05Z</time>
      </trkpt>
      <trkpt lat="59.280927" lon="18.091625">
        <ele>33</ele>
        <time>2019-12-09T16:41:06Z</time>
      </trkpt>
      <trkpt lat="59.280994" lon="18.091601">
        <ele>32</ele>
        <time>2019-12-09T16:41:07Z</time>
      </trkpt>
      <trkpt lat="59.281062" lon="18.091579">
        <ele>0</ele>
        <time>2019-12-09T16:41:07Z</time>
      </trkpt>
      <trkpt lat="59.28113" lon="18.091557">
        <ele>32</ele>
        <time>2019-12-09T16:41:08Z</time>
      </trkpt>
      <trkpt lat="59.281198" lon="18.091535">
        <ele>32</ele>
        <time>2019-12-09T16:41:10Z</time>
      </trkpt>
      <trkpt lat="59.281264" lon="18.091511">
        <ele>32</ele>
        <time>2019-12-09T16:41:11Z</time>
      </trkpt>
      <trkpt lat="59.281331" lon="18.091489">
        <ele>31</ele>
        <time>2019-12-09T16:41:12Z</time>
      </trkpt>
      <trkpt lat="59.281398" lon="18.091468">
        <ele>31</ele>
        <time>2019-12-09T16:41:13Z</time>
      </trkpt>
      <trkpt lat="59.281466" lon="18.091446">
        <ele>31</ele>
        <time>2019-12-09T16:41:14Z</time>
      </trkpt>
      <trkpt lat="59.281534" lon="18.091424">
        <ele>31</ele>
        <time>2019-12-09T16:41:15Z</time>
      </trkpt>
      <trkpt lat="59.281601" lon="18.091401">
        <ele>31</ele>
        <time>2019-12-09T16:41:16Z</time>
      </trkpt>
      <trkpt lat="59.281667" lon="18.091377">
        <ele>31</ele>
        <time>2019-12-09T16:41:17Z</time>
      </trkpt>
      <trkpt lat="59.281732" lon="18.091355">
        <ele>31</ele>
        <time>2019-12-09T16:41:18Z</time>
      </trkpt>
      <trkpt lat="59.281794" lon="18.09133">
        <ele>31</ele>
        <time>2019-12-09T16:41:19Z</time>
      </trkpt>
      <trkpt lat="59.281858" lon="18.091306">
        <ele>31</ele>
        <time>2019-12-09T16:41:20Z</time>
      </trkpt>
      <trkpt lat="59.281924" lon="18.091284">
        <ele>31</ele>
        <time>2019-12-09T16:41:21Z</time>
      </trkpt>
      <trkpt lat="59.281996" lon="18.091264">
        <ele>31</ele>
        <time>2019-12-09T16:41:22Z</time>
      </trkpt>
      <trkpt lat="59.282069" lon="18.091245">
        <ele>31</ele>
        <time>2019-12-09T16:41:23Z</time>
      </trkpt>
      <trkpt lat="59.282141" lon="18.091223">
        <ele>31</ele>
        <time>2019-12-09T16:41:24Z</time>
      </trkpt>
      <trkpt lat="59.282214" lon="18.091201">
        <ele>31</ele>
        <time>2019-12-09T16:41:25Z</time>
      </trkpt>
      <trkpt lat="59.282285" lon="18.091177">
        <ele>31</ele>
        <time>2019-12-09T16:41:26Z</time>
      </trkpt>
      <trkpt lat="59.282358" lon="18.091149">
        <ele>31</ele>
        <time>2019-12-09T16:41:27Z</time>
      </trkpt>
      <trkpt lat="59.28243" lon="18.09112">
        <ele>31</ele>
        <time>2019-12-09T16:41:28Z</time>
      </trkpt>
      <trkpt lat="59.282501" lon="18.09109">
        <ele>31</ele>
        <time>2019-12-09T16:41:29Z</time>
      </trkpt>
      <trkpt lat="59.28257" lon="18.091058">
        <ele>31</ele>
        <time>2019-12-09T16:41:30Z</time>
      </trkpt>
      <trkpt lat="59.282639" lon="18.091024">
        <ele>31</ele>
        <time>2019-12-09T16:41:31Z</time>
      </trkpt>
      <trkpt lat="59.282707" lon="18.090989">
        <ele>31</ele>
        <time>2019-12-09T16:41:32Z</time>
      </trkpt>
      <trkpt lat="59.282777" lon="18.090957">
        <ele>31</ele>
        <time>2019-12-09T16:41:33Z</time>
      </trkpt>
      <trkpt lat="59.282846" lon="18.090926">
        <ele>31</ele>
        <time>2019-12-09T16:41:34Z</time>
      </trkpt>
      <trkpt lat="59.282915" lon="18.090891">
        <ele>31</ele>
        <time>2019-12-09T16:41:35Z</time>
      </trkpt>
      <trkpt lat="59.282985" lon="18.090854">
        <ele>31</ele>
        <time>2019-12-09T16:41:36Z</time>
      </trkpt>
      <trkpt lat="59.283057" lon="18.090818">
        <ele>31</ele>
        <time>2019-12-09T16:41:37Z</time>
      </trkpt>
      <trkpt lat="59.283129" lon="18.090782">
        <ele>31</ele>
        <time>2019-12-09T16:41:38Z</time>
      </trkpt>
      <trkpt lat="59.283201" lon="18.090747">
        <ele>31</ele>
        <time>2019-12-09T16:41:39Z</time>
      </trkpt>
      <trkpt lat="59.283274" lon="18.090714">
        <ele>31</ele>
        <time>2019-12-09T16:41:40Z</time>
      </trkpt>
      <trkpt lat="59.283346" lon="18.090678">
        <ele>31</ele>
        <time>2019-12-09T16:41:41Z</time>
      </trkpt>
      <trkpt lat="59.283417" lon="18.090641">
        <ele>31</ele>
        <time>2019-12-09T16:41:42Z</time>
      </trkpt>
      <trkpt lat="59.283488" lon="18.090605">
        <ele>31</ele>
        <time>2019-12-09T16:41:43Z</time>
      </trkpt>
      <trkpt lat="59.283559" lon="18.090573">
        <ele>31</ele>
        <time>2019-12-09T16:41:44Z</time>
      </trkpt>
      <trkpt lat="59.28363" lon="18.090541">
        <ele>31</ele>
        <time>2019-12-09T16:41:45Z</time>
      </trkpt>
      <trkpt lat="59.283699" lon="18.090507">
        <ele>31</ele>
        <time>2019-12-09T16:41:46Z</time>
      </trkpt>
      <trkpt lat="59.283767" lon="18.090473">
        <ele>31</ele>
        <time>2019-12-09T16:41:47Z</time>
      </trkpt>
      <trkpt lat="59.283834" lon="18.090438">
        <ele>31</ele>
        <time>2019-12-09T16:41:48Z</time>
      </trkpt>
      <trkpt lat="59.283901" lon="18.090407">
        <ele>31</ele>
        <time>2019-12-09T16:41:49Z</time>
      </trkpt>
      <trkpt lat="59.283964" lon="18.090378">
        <ele>31</ele>
        <time>2019-12-09T16:41:50Z</time>
      </trkpt>
      <trkpt lat="59.284021" lon="18.090348">
        <ele>31</ele>
        <time>2019-12-09T16:41:51Z</time>
      </trkpt>
      <trkpt lat="59.284074" lon="18.090317">
        <ele>31</ele>
        <time>2019-12-09T16:41:52Z</time>
      </trkpt>
      <trkpt lat="59.284134" lon="18.09029">
        <ele>31</ele>
        <time>2019-12-09T16:41:53Z</time>
      </trkpt>
      <trkpt lat="59.284198" lon="18.09026">
        <ele>31</ele>
        <time>2019-12-09T16:41:54Z</time>
      </trkpt>
      <trkpt lat="59.284263" lon="18.090226">
        <ele>32</ele>
        <time>2019-12-09T16:41:55Z</time>
      </trkpt>
      <trkpt lat="59.28433" lon="18.090193">
        <ele>31</ele>
        <time>2019-12-09T16:41:56Z</time>
      </trkpt>
      <trkpt lat="59.284396" lon="18.090159">
        <ele>31</ele>
        <time>2019-12-09T16:41:57Z</time>
      </trkpt>
      <trkpt lat="59.284462" lon="18.090121">
        <ele>32</ele>
        <time>2019-12-09T16:41:58Z</time>
      </trkpt>
      <trkpt lat="59.284527" lon="18.090085">
        <ele>32</ele>
        <time>2019-12-09T16:41:59Z</time>
      </trkpt>
      <trkpt lat="59.284591" lon="18.090056">
        <ele>32</ele>
        <time>2019-12-09T16:42:00Z</time>
      </trkpt>
      <trkpt lat="59.284657" lon="18.090021">
        <ele>32</ele>
        <time>2019-12-09T16:42:01Z</time>
      </trkpt>
      <trkpt lat="59.284726" lon="18.089986">
        <ele>32</ele>
        <time>2019-12-09T16:42:02Z</time>
      </trkpt>
      <trkpt lat="59.284794" lon="18.089956">
        <ele>32</ele>
        <time>2019-12-09T16:42:03Z</time>
      </trkpt>
      <trkpt lat="59.284862" lon="18.089924">
        <ele>32</ele>
        <time>2019-12-09T16:42:04Z</time>
      </trkpt>
      <trkpt lat="59.28493" lon="18.089889">
        <ele>32</ele>
        <time>2019-12-09T16:42:05Z</time>
      </trkpt>
      <trkpt lat="59.285" lon="18.089859">
        <ele>32</ele>
        <time>2019-12-09T16:42:06Z</time>
      </trkpt>
      <trkpt lat="59.285069" lon="18.089827">
        <ele>31</ele>
        <time>2019-12-09T16:42:07Z</time>
      </trkpt>
      <trkpt lat="59.285139" lon="18.089798">
        <ele>31</ele>
        <time>2019-12-09T16:42:08Z</time>
      </trkpt>
      <trkpt lat="59.285207" lon="18.089769">
        <ele>32</ele>
        <time>2019-12-09T16:42:09Z</time>
      </trkpt>
      <trkpt lat="59.285274" lon="18.089736">
        <ele>31</ele>
        <time>2019-12-09T16:42:10Z</time>
      </trkpt>
      <trkpt lat="59.285342" lon="18.089706">
        <ele>32</ele>
        <time>2019-12-09T16:42:11Z</time>
      </trkpt>
      <trkpt lat="59.285409" lon="18.089674">
        <ele>32</ele>
        <time>2019-12-09T16:42:12Z</time>
      </trkpt>
      <trkpt lat="59.285474" lon="18.089643">
        <ele>32</ele>
        <time>2019-12-09T16:42:13Z</time>
      </trkpt>
      <trkpt lat="59.28554" lon="18.089612">
        <ele>32</ele>
        <time>2019-12-09T16:42:14Z</time>
      </trkpt>
      <trkpt lat="59.285605" lon="18.089582">
        <ele>32</ele>
        <time>2019-12-09T16:42:15Z</time>
      </trkpt>
      <trkpt lat="59.285667" lon="18.08955">
        <ele>32</ele>
        <time>2019-12-09T16:42:16Z</time>
      </trkpt>
      <trkpt lat="59.285732" lon="18.08952">
        <ele>32</ele>
        <time>2019-12-09T16:42:17Z</time>
      </trkpt>
      <trkpt lat="59.285797" lon="18.089489">
        <ele>32</ele>
        <time>2019-12-09T16:42:18Z</time>
      </trkpt>
      <trkpt lat="59.285864" lon="18.089457">
        <ele>32</ele>
        <time>2019-12-09T16:42:19Z</time>
      </trkpt>
      <trkpt lat="59.285929" lon="18.089424">
        <ele>32</ele>
        <time>2019-12-09T16:42:20Z</time>
      </trkpt>
      <trkpt lat="59.285996" lon="18.089386">
        <ele>33</ele>
        <time>2019-12-09T16:42:21Z</time>
      </trkpt>
      <trkpt lat="59.286058" lon="18.089348">
        <ele>32</ele>
        <time>2019-12-09T16:42:22Z</time>
      </trkpt>
      <trkpt lat="59.286121" lon="18.089319">
        <ele>33</ele>
        <time>2019-12-09T16:42:23Z</time>
      </trkpt>
      <trkpt lat="59.286186" lon="18.089294">
        <ele>33</ele>
        <time>2019-12-09T16:42:24Z</time>
      </trkpt>
      <trkpt lat="59.286252" lon="18.089267">
        <ele>33</ele>
        <time>2019-12-09T16:42:25Z</time>
      </trkpt>
      <trkpt lat="59.286316" lon="18.089236">
        <ele>33</ele>
        <time>2019-12-09T16:42:26Z</time>
      </trkpt>
      <trkpt lat="59.28638" lon="18.089209">
        <ele>33</ele>
        <time>2019-12-09T16:42:27Z</time>
      </trkpt>
      <trkpt lat="59.286446" lon="18.089186">
        <ele>33</ele>
        <time>2019-12-09T16:42:28Z</time>
      </trkpt>
      <trkpt lat="59.28651" lon="18.089166">
        <ele>33</ele>
        <time>2019-12-09T16:42:29Z</time>
      </trkpt>
      <trkpt lat="59.286574" lon="18.089143">
        <ele>33</ele>
        <time>2019-12-09T16:42:30Z</time>
      </trkpt>
      <trkpt lat="59.286637" lon="18.08912">
        <ele>33</ele>
        <time>2019-12-09T16:42:31Z</time>
      </trkpt>
      <trkpt lat="59.2867" lon="18.089097">
        <ele>33</ele>
        <time>2019-12-09T16:42:32Z</time>
      </trkpt>
      <trkpt lat="59.286764" lon="18.089072">
        <ele>33</ele>
        <time>2019-12-09T16:42:33Z</time>
      </trkpt>
      <trkpt lat="59.286826" lon="18.089046">
        <ele>33</ele>
        <time>2019-12-09T16:42:34Z</time>
      </trkpt>
      <trkpt lat="59.286886" lon="18.089017">
        <ele>33</ele>
        <time>2019-12-09T16:42:35Z</time>
      </trkpt>
      <trkpt lat="59.286948" lon="18.088985">
        <ele>33</ele>
        <time>2019-12-09T16:42:36Z</time>
      </trkpt>
      <trkpt lat="59.287008" lon="18.08895">
        <ele>33</ele>
        <time>2019-12-09T16:42:37Z</time>
      </trkpt>
      <trkpt lat="59.287066" lon="18.088913">
        <ele>33</ele>
        <time>2019-12-09T16:42:38Z</time>
      </trkpt>
      <trkpt lat="59.287125" lon="18.088876">
        <ele>33</ele>
        <time>2019-12-09T16:42:39Z</time>
      </trkpt>
      <trkpt lat="59.287184" lon="18.088845">
        <ele>33</ele>
        <time>2019-12-09T16:42:40Z</time>
      </trkpt>
      <trkpt lat="59.28724" lon="18.088815">
        <ele>33</ele>
        <time>2019-12-09T16:42:41Z</time>
      </trkpt>
      <trkpt lat="59.287296" lon="18.088785">
        <ele>33</ele>
        <time>2019-12-09T16:42:42Z</time>
      </trkpt>
      <trkpt lat="59.28735" lon="18.088755">
        <ele>33</ele>
        <time>2019-12-09T16:42:43Z</time>
      </trkpt>
      <trkpt lat="59.287404" lon="18.088738">
        <ele>33</ele>
        <time>2019-12-09T16:42:44Z</time>
      </trkpt>
      <trkpt lat="59.287457" lon="18.088752">
        <ele>33</ele>
        <time>2019-12-09T16:42:45Z</time>
      </trkpt>
      <trkpt lat="59.287502" lon="18.088797">
        <ele>33</ele>
        <time>2019-12-09T16:42:46Z</time>
      </trkpt>
      <trkpt lat="59.287536" lon="18.088881">
        <ele>34</ele>
        <time>2019-12-09T16:42:47Z</time>
      </trkpt>
      <trkpt lat="59.287567" lon="18.088975">
        <ele>34</ele>
        <time>2019-12-09T16:42:48Z</time>
      </trkpt>
      <trkpt lat="59.287603" lon="18.089046">
        <ele>34</ele>
        <time>2019-12-09T16:42:49Z</time>
      </trkpt>
      <trkpt lat="59.287644" lon="18.089104">
        <ele>34</ele>
        <time>2019-12-09T16:42:50Z</time>
      </trkpt>
      <trkpt lat="59.287692" lon="18.089134">
        <ele>34</ele>
        <time>2019-12-09T16:42:51Z</time>
      </trkpt>
      <trkpt lat="59.287744" lon="18.089146">
        <ele>34</ele>
        <time>2019-12-09T16:42:52Z</time>
      </trkpt>
      <trkpt lat="59.287798" lon="18.089154">
        <ele>34</ele>
        <time>2019-12-09T16:42:53Z</time>
      </trkpt>
      <trkpt lat="59.287851" lon="18.089154">
        <ele>34</ele>
        <time>2019-12-09T16:42:54Z</time>
      </trkpt>
      <trkpt lat="59.287902" lon="18.089142">
        <ele>34</ele>
        <time>2019-12-09T16:42:55Z</time>
      </trkpt>
      <trkpt lat="59.287954" lon="18.089119">
        <ele>34</ele>
        <time>2019-12-09T16:42:56Z</time>
      </trkpt>
      <trkpt lat="59.288003" lon="18.089093">
        <ele>34</ele>
        <time>2019-12-09T16:42:57Z</time>
      </trkpt>
      <trkpt lat="59.288054" lon="18.08906">
        <ele>35</ele>
        <time>2019-12-09T16:42:58Z</time>
      </trkpt>
      <trkpt lat="59.288106" lon="18.089028">
        <ele>35</ele>
        <time>2019-12-09T16:42:59Z</time>
      </trkpt>
      <trkpt lat="59.288156" lon="18.088998">
        <ele>35</ele>
        <time>2019-12-09T16:43:00Z</time>
      </trkpt>
      <trkpt lat="59.288203" lon="18.088966">
        <ele>36</ele>
        <time>2019-12-09T16:43:01Z</time>
      </trkpt>
      <trkpt lat="59.288251" lon="18.088933">
        <ele>36</ele>
        <time>2019-12-09T16:43:02Z</time>
      </trkpt>
      <trkpt lat="59.288297" lon="18.088905">
        <ele>36</ele>
        <time>2019-12-09T16:43:03Z</time>
      </trkpt>
      <trkpt lat="59.288343" lon="18.088881">
        <ele>37</ele>
        <time>2019-12-09T16:43:04Z</time>
      </trkpt>
      <trkpt lat="59.288389" lon="18.088858">
        <ele>37</ele>
        <time>2019-12-09T16:43:05Z</time>
      </trkpt>
      <trkpt lat="59.288432" lon="18.088838">
        <ele>37</ele>
        <time>2019-12-09T16:43:06Z</time>
      </trkpt>
      <trkpt lat="59.288476" lon="18.088811">
        <ele>38</ele>
        <time>2019-12-09T16:43:07Z</time>
      </trkpt>
      <trkpt lat="59.288515" lon="18.088784">
        <ele>38</ele>
        <time>2019-12-09T16:43:08Z</time>
      </trkpt>
      <trkpt lat="59.288551" lon="18.088769">
        <ele>38</ele>
        <time>2019-12-09T16:43:09Z</time>
      </trkpt>
      <trkpt lat="59.288579" lon="18.088761">
        <ele>38</ele>
        <time>2019-12-09T16:43:10Z</time>
      </trkpt>
      <trkpt lat="59.288594" lon="18.08876">
        <ele>0</ele>
        <time>2019-12-09T16:43:15Z</time>
      </trkpt>
      <trkpt lat="59.288617" lon="18.088735">
        <ele>38</ele>
        <time>2019-12-09T16:43:23Z</time>
      </trkpt>
      <trkpt lat="59.288644" lon="18.088723">
        <ele>38</ele>
        <time>2019-12-09T16:43:24Z</time>
      </trkpt>
      <trkpt lat="59.288672" lon="18.088709">
        <ele>38</ele>
        <time>2019-12-09T16:43:25Z</time>
      </trkpt>
      <trkpt lat="59.288705" lon="18.088694">
        <ele>38</ele>
        <time>2019-12-09T16:43:26Z</time>
      </trkpt>
      <trkpt lat="59.28874" lon="18.088668">
        <ele>37</ele>
        <time>2019-12-09T16:43:27Z</time>
      </trkpt>
      <trkpt lat="59.288766" lon="18.088622">
        <ele>37</ele>
        <time>2019-12-09T16:43:28Z</time>
      </trkpt>
      <trkpt lat="59.288772" lon="18.088555">
        <ele>37</ele>
        <time>2019-12-09T16:43:29Z</time>
      </trkpt>
      <trkpt lat="59.288772" lon="18.088483">
        <ele>37</ele>
        <time>2019-12-09T16:43:30Z</time>
      </trkpt>
      <trkpt lat="59.288784" lon="18.088403">
        <ele>37</ele>
        <time>2019-12-09T16:43:31Z</time>
      </trkpt>
      <trkpt lat="59.28881" lon="18.088324">
        <ele>37</ele>
        <time>2019-12-09T16:43:32Z</time>
      </trkpt>
      <trkpt lat="59.288845" lon="18.08826">
        <ele>37</ele>
        <time>2019-12-09T16:43:33Z</time>
      </trkpt>
      <trkpt lat="59.288892" lon="18.088219">
        <ele>37</ele>
        <time>2019-12-09T16:43:34Z</time>
      </trkpt>
      <trkpt lat="59.288948" lon="18.088201">
        <ele>37</ele>
        <time>2019-12-09T16:43:35Z</time>
      </trkpt>
      <trkpt lat="59.288994" lon="18.08818">
        <ele>37</ele>
        <time>2019-12-09T16:43:36Z</time>
      </trkpt>
      <trkpt lat="59.289053" lon="18.088152">
        <ele>37</ele>
        <time>2019-12-09T16:43:37Z</time>
      </trkpt>
      <trkpt lat="59.289116" lon="18.088122">
        <ele>37</ele>
        <time>2019-12-09T16:43:38Z</time>
      </trkpt>
      <trkpt lat="59.28918" lon="18.08809">
        <ele>37</ele>
        <time>2019-12-09T16:43:39Z</time>
      </trkpt>
      <trkpt lat="59.289245" lon="18.08806">
        <ele>37</ele>
        <time>2019-12-09T16:43:40Z</time>
      </trkpt>
      <trkpt lat="59.28931" lon="18.08803">
        <ele>37</ele>
        <time>2019-12-09T16:43:41Z</time>
      </trkpt>
      <trkpt lat="59.289373" lon="18.087998">
        <ele>37</ele>
        <time>2019-12-09T16:43:42Z</time>
      </trkpt>
      <trkpt lat="59.289436" lon="18.087966">
        <ele>37</ele>
        <time>2019-12-09T16:43:43Z</time>
      </trkpt>
      <trkpt lat="59.289498" lon="18.087937">
        <ele>37</ele>
        <time>2019-12-09T16:43:44Z</time>
      </trkpt>
      <trkpt lat="59.289561" lon="18.087908">
        <ele>37</ele>
        <time>2019-12-09T16:43:45Z</time>
      </trkpt>
      <trkpt lat="59.289624" lon="18.087879">
        <ele>37</ele>
        <time>2019-12-09T16:43:46Z</time>
      </trkpt>
      <trkpt lat="59.289686" lon="18.087845">
        <ele>37</ele>
        <time>2019-12-09T16:43:47Z</time>
      </trkpt>
      <trkpt lat="59.289748" lon="18.087812">
        <ele>37</ele>
        <time>2019-12-09T16:43:48Z</time>
      </trkpt>
      <trkpt lat="59.289809" lon="18.087778">
        <ele>37</ele>
        <time>2019-12-09T16:43:49Z</time>
      </trkpt>
      <trkpt lat="59.28987" lon="18.087742">
        <ele>37</ele>
        <time>2019-12-09T16:43:50Z</time>
      </trkpt>
      <trkpt lat="59.289929" lon="18.0877">
        <ele>37</ele>
        <time>2019-12-09T16:43:51Z</time>
      </trkpt>
      <trkpt lat="59.289985" lon="18.087649">
        <ele>37</ele>
        <time>2019-12-09T16:43:52Z</time>
      </trkpt>
      <trkpt lat="59.29004" lon="18.087595">
        <ele>37</ele>
        <time>2019-12-09T16:43:53Z</time>
      </trkpt>
      <trkpt lat="59.290096" lon="18.087545">
        <ele>37</ele>
        <time>2019-12-09T16:43:54Z</time>
      </trkpt>
      <trkpt lat="59.290153" lon="18.087499">
        <ele>37</ele>
        <time>2019-12-09T16:43:55Z</time>
      </trkpt>
      <trkpt lat="59.290209" lon="18.087454">
        <ele>37</ele>
        <time>2019-12-09T16:43:56Z</time>
      </trkpt>
      <trkpt lat="59.290265" lon="18.087411">
        <ele>36</ele>
        <time>2019-12-09T16:43:57Z</time>
      </trkpt>
      <trkpt lat="59.29032" lon="18.087372">
        <ele>36</ele>
        <time>2019-12-09T16:43:58Z</time>
      </trkpt>
      <trkpt lat="59.290375" lon="18.087336">
        <ele>36</ele>
        <time>2019-12-09T16:43:59Z</time>
      </trkpt>
      <trkpt lat="59.29043" lon="18.087303">
        <ele>36</ele>
        <time>2019-12-09T16:44:00Z</time>
      </trkpt>
      <trkpt lat="59.290486" lon="18.087272">
        <ele>36</ele>
        <time>2019-12-09T16:44:01Z</time>
      </trkpt>
      <trkpt lat="59.29054" lon="18.087241">
        <ele>36</ele>
        <time>2019-12-09T16:44:02Z</time>
      </trkpt>
      <trkpt lat="59.290593" lon="18.08721">
        <ele>36</ele>
        <time>2019-12-09T16:44:03Z</time>
      </trkpt>
      <trkpt lat="59.290647" lon="18.08718">
        <ele>36</ele>
        <time>2019-12-09T16:44:04Z</time>
      </trkpt>
      <trkpt lat="59.290699" lon="18.087153">
        <ele>36</ele>
        <time>2019-12-09T16:44:05Z</time>
      </trkpt>
      <trkpt lat="59.290752" lon="18.087129">
        <ele>36</ele>
        <time>2019-12-09T16:44:06Z</time>
      </trkpt>
      <trkpt lat="59.290804" lon="18.087101">
        <ele>36</ele>
        <time>2019-12-09T16:44:07Z</time>
      </trkpt>
      <trkpt lat="59.290854" lon="18.087074">
        <ele>36</ele>
        <time>2019-12-09T16:44:08Z</time>
      </trkpt>
      <trkpt lat="59.290903" lon="18.087049">
        <ele>36</ele>
        <time>2019-12-09T16:44:09Z</time>
      </trkpt>
      <trkpt lat="59.290951" lon="18.087027">
        <ele>36</ele>
        <time>2019-12-09T16:44:10Z</time>
      </trkpt>
      <trkpt lat="59.290998" lon="18.087004">
        <ele>36</ele>
        <time>2019-12-09T16:44:11Z</time>
      </trkpt>
      <trkpt lat="59.291044" lon="18.086984">
        <ele>35</ele>
        <time>2019-12-09T16:44:12Z</time>
      </trkpt>
      <trkpt lat="59.291088" lon="18.086959">
        <ele>35</ele>
        <time>2019-12-09T16:44:13Z</time>
      </trkpt>
      <trkpt lat="59.291132" lon="18.08693">
        <ele>35</ele>
        <time>2019-12-09T16:44:14Z</time>
      </trkpt>
      <trkpt lat="59.291174" lon="18.086903">
        <ele>35</ele>
        <time>2019-12-09T16:44:15Z</time>
      </trkpt>
      <trkpt lat="59.291217" lon="18.086878">
        <ele>35</ele>
        <time>2019-12-09T16:44:16Z</time>
      </trkpt>
      <trkpt lat="59.291259" lon="18.086855">
        <ele>35</ele>
        <time>2019-12-09T16:44:17Z</time>
      </trkpt>
      <trkpt lat="59.2913" lon="18.08683">
        <ele>35</ele>
        <time>2019-12-09T16:44:18Z</time>
      </trkpt>
      <trkpt lat="59.29134" lon="18.086804">
        <ele>35</ele>
        <time>2019-12-09T16:44:19Z</time>
      </trkpt>
      <trkpt lat="59.291382" lon="18.086784">
        <ele>35</ele>
        <time>2019-12-09T16:44:20Z</time>
      </trkpt>
      <trkpt lat="59.291423" lon="18.086763">
        <ele>35</ele>
        <time>2019-12-09T16:44:21Z</time>
      </trkpt>
      <trkpt lat="59.291462" lon="18.086738">
        <ele>35</ele>
        <time>2019-12-09T16:44:22Z</time>
      </trkpt>
      <trkpt lat="59.291501" lon="18.08671">
        <ele>35</ele>
        <time>2019-12-09T16:44:23Z</time>
      </trkpt>
      <trkpt lat="59.29154" lon="18.086678">
        <ele>35</ele>
        <time>2019-12-09T16:44:24Z</time>
      </trkpt>
      <trkpt lat="59.291579" lon="18.086646">
        <ele>34</ele>
        <time>2019-12-09T16:44:25Z</time>
      </trkpt>
      <trkpt lat="59.291619" lon="18.086619">
        <ele>34</ele>
        <time>2019-12-09T16:44:26Z</time>
      </trkpt>
      <trkpt lat="59.291659" lon="18.086593">
        <ele>34</ele>
        <time>2019-12-09T16:44:27Z</time>
      </trkpt>
      <trkpt lat="59.291698" lon="18.086563">
        <ele>34</ele>
        <time>2019-12-09T16:44:28Z</time>
      </trkpt>
      <trkpt lat="59.291735" lon="18.086529">
        <ele>34</ele>
        <time>2019-12-09T16:44:29Z</time>
      </trkpt>
      <trkpt lat="59.291774" lon="18.086507">
        <ele>34</ele>
        <time>2019-12-09T16:44:30Z</time>
      </trkpt>
      <trkpt lat="59.291812" lon="18.086486">
        <ele>34</ele>
        <time>2019-12-09T16:44:31Z</time>
      </trkpt>
      <trkpt lat="59.29185" lon="18.086464">
        <ele>34</ele>
        <time>2019-12-09T16:44:32Z</time>
      </trkpt>
      <trkpt lat="59.29189" lon="18.086449">
        <ele>34</ele>
        <time>2019-12-09T16:44:33Z</time>
      </trkpt>
      <trkpt lat="59.291929" lon="18.086432">
        <ele>34</ele>
        <time>2019-12-09T16:44:34Z</time>
      </trkpt>
      <trkpt lat="59.291967" lon="18.086414">
        <ele>34</ele>
        <time>2019-12-09T16:44:35Z</time>
      </trkpt>
      <trkpt lat="59.292006" lon="18.086398">
        <ele>34</ele>
        <time>2019-12-09T16:44:36Z</time>
      </trkpt>
      <trkpt lat="59.292047" lon="18.086382">
        <ele>34</ele>
        <time>2019-12-09T16:44:37Z</time>
      </trkpt>
      <trkpt lat="59.292087" lon="18.086362">
        <ele>0</ele>
        <time>2019-12-09T16:44:37Z</time>
      </trkpt>
      <trkpt lat="59.292128" lon="18.086336">
        <ele>34</ele>
        <time>2019-12-09T16:44:38Z</time>
      </trkpt>
      <trkpt lat="59.29217" lon="18.086311">
        <ele>35</ele>
        <time>2019-12-09T16:44:40Z</time>
      </trkpt>
      <trkpt lat="59.292216" lon="18.086297">
        <ele>35</ele>
        <time>2019-12-09T16:44:41Z</time>
      </trkpt>
      <trkpt lat="59.29226" lon="18.086282">
        <ele>35</ele>
        <time>2019-12-09T16:44:42Z</time>
      </trkpt>
      <trkpt lat="59.292308" lon="18.086273">
        <ele>36</ele>
        <time>2019-12-09T16:44:43Z</time>
      </trkpt>
      <trkpt lat="59.292356" lon="18.086257">
        <ele>36</ele>
        <time>2019-12-09T16:44:44Z</time>
      </trkpt>
      <trkpt lat="59.292404" lon="18.086239">
        <ele>36</ele>
        <time>2019-12-09T16:44:45Z</time>
      </trkpt>
      <trkpt lat="59.292454" lon="18.086222">
        <ele>37</ele>
        <time>2019-12-09T16:44:46Z</time>
      </trkpt>
      <trkpt lat="59.292505" lon="18.086197">
        <ele>37</ele>
        <time>2019-12-09T16:44:47Z</time>
      </trkpt>
      <trkpt lat="59.292557" lon="18.086177">
        <ele>37</ele>
        <time>2019-12-09T16:44:48Z</time>
      </trkpt>
      <trkpt lat="59.29261" lon="18.086155">
        <ele>37</ele>
        <time>2019-12-09T16:44:49Z</time>
      </trkpt>
      <trkpt lat="59.292661" lon="18.08613">
        <ele>38</ele>
        <time>2019-12-09T16:44:50Z</time>
      </trkpt>
      <trkpt lat="59.292713" lon="18.086109">
        <ele>38</ele>
        <time>2019-12-09T16:44:51Z</time>
      </trkpt>
      <trkpt lat="59.292764" lon="18.086086">
        <ele>38</ele>
        <time>2019-12-09T16:44:52Z</time>
      </trkpt>
      <trkpt lat="59.292817" lon="18.086057">
        <ele>38</ele>
        <time>2019-12-09T16:44:53Z</time>
      </trkpt>
      <trkpt lat="59.292872" lon="18.086036">
        <ele>38</ele>
        <time>2019-12-09T16:44:54Z</time>
      </trkpt>
      <trkpt lat="59.292929" lon="18.08601">
        <ele>38</ele>
        <time>2019-12-09T16:44:55Z</time>
      </trkpt>
      <trkpt lat="59.292986" lon="18.085983">
        <ele>39</ele>
        <time>2019-12-09T16:44:56Z</time>
      </trkpt>
      <trkpt lat="59.293046" lon="18.085957">
        <ele>0</ele>
        <time>2019-12-09T16:44:56Z</time>
      </trkpt>
      <trkpt lat="59.293107" lon="18.085931">
        <ele>39</ele>
        <time>2019-12-09T16:44:57Z</time>
      </trkpt>
      <trkpt lat="59.293166" lon="18.085904">
        <ele>39</ele>
        <time>2019-12-09T16:44:59Z</time>
      </trkpt>
      <trkpt lat="59.293225" lon="18.085872">
        <ele>39</ele>
        <time>2019-12-09T16:45:00Z</time>
      </trkpt>
      <trkpt lat="59.293284" lon="18.085846">
        <ele>39</ele>
        <time>2019-12-09T16:45:01Z</time>
      </trkpt>
      <trkpt lat="59.293343" lon="18.085821">
        <ele>39</ele>
        <time>2019-12-09T16:45:02Z</time>
      </trkpt>
      <trkpt lat="59.293403" lon="18.085796">
        <ele>39</ele>
        <time>2019-12-09T16:45:03Z</time>
      </trkpt>
      <trkpt lat="59.293465" lon="18.085775">
        <ele>39</ele>
        <time>2019-12-09T16:45:04Z</time>
      </trkpt>
      <trkpt lat="59.293528" lon="18.085746">
        <ele>39</ele>
        <time>2019-12-09T16:45:05Z</time>
      </trkpt>
      <trkpt lat="59.293591" lon="18.085705">
        <ele>39</ele>
        <time>2019-12-09T16:45:06Z</time>
      </trkpt>
      <trkpt lat="59.29365" lon="18.085658">
        <ele>40</ele>
        <time>2019-12-09T16:45:07Z</time>
      </trkpt>
      <trkpt lat="59.293767" lon="18.085547">
        <ele>40</ele>
        <time>2019-12-09T16:45:09Z</time>
      </trkpt>
      <trkpt lat="59.293889" lon="18.085426">
        <ele>40</ele>
        <time>2019-12-09T16:45:11Z</time>
      </trkpt>
      <trkpt lat="59.294002" lon="18.085278">
        <ele>40</ele>
        <time>2019-12-09T16:45:13Z</time>
      </trkpt>
      <trkpt lat="59.294082" lon="18.085148">
        <ele>41</ele>
        <time>2019-12-09T16:45:15Z</time>
      </trkpt>
      <trkpt lat="59.294184" lon="18.085054">
        <ele>41</ele>
        <time>2019-12-09T16:45:17Z</time>
      </trkpt>
      <trkpt lat="59.294345" lon="18.084868">
        <ele>40</ele>
        <time>2019-12-09T16:45:19Z</time>
      </trkpt>
      <trkpt lat="59.294421" lon="18.084741">
        <ele>40</ele>
        <time>2019-12-09T16:45:20Z</time>
      </trkpt>
      <trkpt lat="59.294495" lon="18.08463">
        <ele>40</ele>
        <time>2019-12-09T16:45:21Z</time>
      </trkpt>
      <trkpt lat="59.29457" lon="18.084526">
        <ele>41</ele>
        <time>2019-12-09T16:45:22Z</time>
      </trkpt>
      <trkpt lat="59.29472" lon="18.084639">
        <ele>43</ele>
        <time>2019-12-09T16:45:23Z</time>
      </trkpt>
      <trkpt lat="59.294842" lon="18.084661">
        <ele>46</ele>
        <time>2019-12-09T16:45:25Z</time>
      </trkpt>
      <trkpt lat="59.294896" lon="18.084668">
        <ele>47</ele>
        <time>2019-12-09T16:45:26Z</time>
      </trkpt>
      <trkpt lat="59.294951" lon="18.084662">
        <ele>48</ele>
        <time>2019-12-09T16:45:27Z</time>
      </trkpt>
      <trkpt lat="59.295006" lon="18.084647">
        <ele>48</ele>
        <time>2019-12-09T16:45:28Z</time>
      </trkpt>
      <trkpt lat="59.295061" lon="18.084633">
        <ele>48</ele>
        <time>2019-12-09T16:45:29Z</time>
      </trkpt>
      <trkpt lat="59.295117" lon="18.084615">
        <ele>49</ele>
        <time>2019-12-09T16:45:30Z</time>
      </trkpt>
      <trkpt lat="59.295171" lon="18.084591">
        <ele>49</ele>
        <time>2019-12-09T16:45:31Z</time>
      </trkpt>
      <trkpt lat="59.295227" lon="18.084566">
        <ele>49</ele>
        <time>2019-12-09T16:45:32Z</time>
      </trkpt>
      <trkpt lat="59.295284" lon="18.084545">
        <ele>49</ele>
        <time>2019-12-09T16:45:33Z</time>
      </trkpt>
      <trkpt lat="59.29534" lon="18.084521">
        <ele>49</ele>
        <time>2019-12-09T16:45:34Z</time>
      </trkpt>
      <trkpt lat="59.295395" lon="18.084494">
        <ele>48</ele>
        <time>2019-12-09T16:45:35Z</time>
      </trkpt>
      <trkpt lat="59.29545" lon="18.084469">
        <ele>48</ele>
        <time>2019-12-09T16:45:36Z</time>
      </trkpt>
      <trkpt lat="59.295505" lon="18.084445">
        <ele>48</ele>
        <time>2019-12-09T16:45:37Z</time>
      </trkpt>
      <trkpt lat="59.295559" lon="18.084419">
        <ele>48</ele>
        <time>2019-12-09T16:45:38Z</time>
      </trkpt>
      <trkpt lat="59.295614" lon="18.08439">
        <ele>48</ele>
        <time>2019-12-09T16:45:39Z</time>
      </trkpt>
      <trkpt lat="59.295671" lon="18.084363">
        <ele>48</ele>
        <time>2019-12-09T16:45:40Z</time>
      </trkpt>
      <trkpt lat="59.295726" lon="18.084334">
        <ele>48</ele>
        <time>2019-12-09T16:45:41Z</time>
      </trkpt>
      <trkpt lat="59.295781" lon="18.084304">
        <ele>48</ele>
        <time>2019-12-09T16:45:42Z</time>
      </trkpt>
      <trkpt lat="59.295837" lon="18.084273">
        <ele>48</ele>
        <time>2019-12-09T16:45:43Z</time>
      </trkpt>
      <trkpt lat="59.295894" lon="18.084243">
        <ele>48</ele>
        <time>2019-12-09T16:45:44Z</time>
      </trkpt>
      <trkpt lat="59.29595" lon="18.084212">
        <ele>48</ele>
        <time>2019-12-09T16:45:45Z</time>
      </trkpt>
      <trkpt lat="59.296006" lon="18.08418">
        <ele>48</ele>
        <time>2019-12-09T16:45:46Z</time>
      </trkpt>
      <trkpt lat="59.296062" lon="18.084148">
        <ele>48</ele>
        <time>2019-12-09T16:45:47Z</time>
      </trkpt>
      <trkpt lat="59.296118" lon="18.084115">
        <ele>48</ele>
        <time>2019-12-09T16:45:48Z</time>
      </trkpt>
      <trkpt lat="59.296173" lon="18.084084">
        <ele>48</ele>
        <time>2019-12-09T16:45:49Z</time>
      </trkpt>
      <trkpt lat="59.296229" lon="18.084056">
        <ele>48</ele>
        <time>2019-12-09T16:45:50Z</time>
      </trkpt>
      <trkpt lat="59.296286" lon="18.084036">
        <ele>47</ele>
        <time>2019-12-09T16:45:51Z</time>
      </trkpt>
      <trkpt lat="59.296341" lon="18.08404">
        <ele>47</ele>
        <time>2019-12-09T16:45:52Z</time>
      </trkpt>
      <trkpt lat="59.296393" lon="18.084082">
        <ele>47</ele>
        <time>2019-12-09T16:45:53Z</time>
      </trkpt>
      <trkpt lat="59.296435" lon="18.084156">
        <ele>47</ele>
        <time>2019-12-09T16:45:54Z</time>
      </trkpt>
      <trkpt lat="59.296464" lon="18.08425">
        <ele>47</ele>
        <time>2019-12-09T16:45:55Z</time>
      </trkpt>
      <trkpt lat="59.296483" lon="18.084346">
        <ele>47</ele>
        <time>2019-12-09T16:45:56Z</time>
      </trkpt>
      <trkpt lat="59.296501" lon="18.08443">
        <ele>47</ele>
        <time>2019-12-09T16:45:57Z</time>
      </trkpt>
      <trkpt lat="59.296528" lon="18.084498">
        <ele>47</ele>
        <time>2019-12-09T16:45:58Z</time>
      </trkpt>
      <trkpt lat="59.296563" lon="18.084548">
        <ele>47</ele>
        <time>2019-12-09T16:45:59Z</time>
      </trkpt>
      <trkpt lat="59.296603" lon="18.084573">
        <ele>47</ele>
        <time>2019-12-09T16:46:00Z</time>
      </trkpt>
      <trkpt lat="59.296642" lon="18.084582">
        <ele>47</ele>
        <time>2019-12-09T16:46:01Z</time>
      </trkpt>
      <trkpt lat="59.296677" lon="18.084584">
        <ele>46</ele>
        <time>2019-12-09T16:46:02Z</time>
      </trkpt>
      <trkpt lat="59.296707" lon="18.0846">
        <ele>46</ele>
        <time>2019-12-09T16:46:03Z</time>
      </trkpt>
      <trkpt lat="59.296729" lon="18.084611">
        <ele>45</ele>
        <time>2019-12-09T16:46:04Z</time>
      </trkpt>
      <trkpt lat="59.296734" lon="18.084627">
        <ele>0</ele>
        <time>2019-12-09T16:46:09Z</time>
      </trkpt>
      <trkpt lat="59.296792" lon="18.084636">
        <ele>44</ele>
        <time>2019-12-09T16:46:17Z</time>
      </trkpt>
      <trkpt lat="59.296824" lon="18.084638">
        <ele>44</ele>
        <time>2019-12-09T16:46:18Z</time>
      </trkpt>
      <trkpt lat="59.296863" lon="18.084639">
        <ele>44</ele>
        <time>2019-12-09T16:46:19Z</time>
      </trkpt>
      <trkpt lat="59.296907" lon="18.084639">
        <ele>44</ele>
        <time>2019-12-09T16:46:20Z</time>
      </trkpt>
      <trkpt lat="59.296957" lon="18.08464">
        <ele>43</ele>
        <time>2019-12-09T16:46:21Z</time>
      </trkpt>
      <trkpt lat="59.297012" lon="18.084636">
        <ele>43</ele>
        <time>2019-12-09T16:46:22Z</time>
      </trkpt>
      <trkpt lat="59.297065" lon="18.084607">
        <ele>43</ele>
        <time>2019-12-09T16:46:23Z</time>
      </trkpt>
      <trkpt lat="59.297114" lon="18.084549">
        <ele>43</ele>
        <time>2019-12-09T16:46:24Z</time>
      </trkpt>
      <trkpt lat="59.297158" lon="18.084473">
        <ele>43</ele>
        <time>2019-12-09T16:46:25Z</time>
      </trkpt>
      <trkpt lat="59.297196" lon="18.084385">
        <ele>43</ele>
        <time>2019-12-09T16:46:26Z</time>
      </trkpt>
      <trkpt lat="59.297226" lon="18.084283">
        <ele>43</ele>
        <time>2019-12-09T16:46:27Z</time>
      </trkpt>
      <trkpt lat="59.297248" lon="18.084171">
        <ele>42</ele>
        <time>2019-12-09T16:46:28Z</time>
      </trkpt>
      <trkpt lat="59.297267" lon="18.084049">
        <ele>42</ele>
        <time>2019-12-09T16:46:29Z</time>
      </trkpt>
      <trkpt lat="59.297271" lon="18.083916">
        <ele>42</ele>
        <time>2019-12-09T16:46:30Z</time>
      </trkpt>
      <trkpt lat="59.297265" lon="18.083783">
        <ele>42</ele>
        <time>2019-12-09T16:46:31Z</time>
      </trkpt>
      <trkpt lat="59.297258" lon="18.083656">
        <ele>43</ele>
        <time>2019-12-09T16:46:32Z</time>
      </trkpt>
      <trkpt lat="59.297256" lon="18.083534">
        <ele>43</ele>
        <time>2019-12-09T16:46:33Z</time>
      </trkpt>
      <trkpt lat="59.297268" lon="18.083422">
        <ele>42</ele>
        <time>2019-12-09T16:46:34Z</time>
      </trkpt>
      <trkpt lat="59.297295" lon="18.083332">
        <ele>42</ele>
        <time>2019-12-09T16:46:35Z</time>
      </trkpt>
      <trkpt lat="59.297335" lon="18.083267">
        <ele>42</ele>
        <time>2019-12-09T16:46:36Z</time>
      </trkpt>
      <trkpt lat="59.297388" lon="18.083222">
        <ele>42</ele>
        <time>2019-12-09T16:46:37Z</time>
      </trkpt>
      <trkpt lat="59.297449" lon="18.083186">
        <ele>42</ele>
        <time>2019-12-09T16:46:38Z</time>
      </trkpt>
      <trkpt lat="59.29751" lon="18.083149">
        <ele>42</ele>
        <time>2019-12-09T16:46:39Z</time>
      </trkpt>
      <trkpt lat="59.297576" lon="18.083111">
        <ele>42</ele>
        <time>2019-12-09T16:46:40Z</time>
      </trkpt>
      <trkpt lat="59.297642" lon="18.083072">
        <ele>42</ele>
        <time>2019-12-09T16:46:41Z</time>
      </trkpt>
      <trkpt lat="59.297709" lon="18.083042">
        <ele>42</ele>
        <time>2019-12-09T16:46:42Z</time>
      </trkpt>
      <trkpt lat="59.29778" lon="18.083032">
        <ele>42</ele>
        <time>2019-12-09T16:46:43Z</time>
      </trkpt>
      <trkpt lat="59.297854" lon="18.083032">
        <ele>42</ele>
        <time>2019-12-09T16:46:44Z</time>
      </trkpt>
      <trkpt lat="59.297929" lon="18.083021">
        <ele>42</ele>
        <time>2019-12-09T16:46:45Z</time>
      </trkpt>
      <trkpt lat="59.298006" lon="18.082996">
        <ele>42</ele>
        <time>2019-12-09T16:46:46Z</time>
      </trkpt>
      <trkpt lat="59.298085" lon="18.082958">
        <ele>42</ele>
        <time>2019-12-09T16:46:47Z</time>
      </trkpt>
      <trkpt lat="59.298163" lon="18.082911">
        <ele>42</ele>
        <time>2019-12-09T16:46:48Z</time>
      </trkpt>
      <trkpt lat="59.298244" lon="18.082857">
        <ele>42</ele>
        <time>2019-12-09T16:46:49Z</time>
      </trkpt>
      <trkpt lat="59.298321" lon="18.082794">
        <ele>42</ele>
        <time>2019-12-09T16:46:50Z</time>
      </trkpt>
      <trkpt lat="59.298393" lon="18.082724">
        <ele>41</ele>
        <time>2019-12-09T16:46:51Z</time>
      </trkpt>
      <trkpt lat="59.298465" lon="18.082651">
        <ele>41</ele>
        <time>2019-12-09T16:46:52Z</time>
      </trkpt>
      <trkpt lat="59.298538" lon="18.082582">
        <ele>41</ele>
        <time>2019-12-09T16:46:53Z</time>
      </trkpt>
      <trkpt lat="59.298613" lon="18.08252">
        <ele>0</ele>
        <time>2019-12-09T16:46:53Z</time>
      </trkpt>
      <trkpt lat="59.29869" lon="18.082469">
        <ele>41</ele>
        <time>2019-12-09T16:46:54Z</time>
      </trkpt>
      <trkpt lat="59.298769" lon="18.082424">
        <ele>40</ele>
        <time>2019-12-09T16:46:56Z</time>
      </trkpt>
      <trkpt lat="59.298848" lon="18.082374">
        <ele>40</ele>
        <time>2019-12-09T16:46:57Z</time>
      </trkpt>
      <trkpt lat="59.298925" lon="18.082322">
        <ele>40</ele>
        <time>2019-12-09T16:46:58Z</time>
      </trkpt>
      <trkpt lat="59.299005" lon="18.082273">
        <ele>40</ele>
        <time>2019-12-09T16:46:59Z</time>
      </trkpt>
      <trkpt lat="59.299083" lon="18.082234">
        <ele>40</ele>
        <time>2019-12-09T16:47:00Z</time>
      </trkpt>
      <trkpt lat="59.299155" lon="18.082208">
        <ele>40</ele>
        <time>2019-12-09T16:47:01Z</time>
      </trkpt>
      <trkpt lat="59.299223" lon="18.082192">
        <ele>40</ele>
        <time>2019-12-09T16:47:02Z</time>
      </trkpt>
      <trkpt lat="59.299296" lon="18.08219">
        <ele>40</ele>
        <time>2019-12-09T16:47:03Z</time>
      </trkpt>
      <trkpt lat="59.299367" lon="18.082189">
        <ele>40</ele>
        <time>2019-12-09T16:47:04Z</time>
      </trkpt>
      <trkpt lat="59.299448" lon="18.082186">
        <ele>41</ele>
        <time>2019-12-09T16:47:05Z</time>
      </trkpt>
      <trkpt lat="59.299533" lon="18.082167">
        <ele>41</ele>
        <time>2019-12-09T16:47:06Z</time>
      </trkpt>
      <trkpt lat="59.299618" lon="18.082134">
        <ele>41</ele>
        <time>2019-12-09T16:47:07Z</time>
      </trkpt>
      <trkpt lat="59.299699" lon="18.082094">
        <ele>41</ele>
        <time>2019-12-09T16:47:08Z</time>
      </trkpt>
      <trkpt lat="59.29978" lon="18.082048">
        <ele>41</ele>
        <time>2019-12-09T16:47:09Z</time>
      </trkpt>
      <trkpt lat="59.299856" lon="18.081998">
        <ele>41</ele>
        <time>2019-12-09T16:47:10Z</time>
      </trkpt>
      <trkpt lat="59.299926" lon="18.081944">
        <ele>41</ele>
        <time>2019-12-09T16:47:11Z</time>
      </trkpt>
      <trkpt lat="59.299998" lon="18.081885">
        <ele>41</ele>
        <time>2019-12-09T16:47:12Z</time>
      </trkpt>
      <trkpt lat="59.300072" lon="18.081825">
        <ele>0</ele>
        <time>2019-12-09T16:47:12Z</time>
      </trkpt>
      <trkpt lat="59.300142" lon="18.081767">
        <ele>41</ele>
        <time>2019-12-09T16:47:13Z</time>
      </trkpt>
      <trkpt lat="59.300212" lon="18.081722">
        <ele>41</ele>
        <time>2019-12-09T16:47:15Z</time>
      </trkpt>
      <trkpt lat="59.300288" lon="18.08168">
        <ele>41</ele>
        <time>2019-12-09T16:47:16Z</time>
      </trkpt>
      <trkpt lat="59.300362" lon="18.081641">
        <ele>40</ele>
        <time>2019-12-09T16:47:17Z</time>
      </trkpt>
      <trkpt lat="59.300435" lon="18.081597">
        <ele>40</ele>
        <time>2019-12-09T16:47:18Z</time>
      </trkpt>
      <trkpt lat="59.300503" lon="18.081549">
        <ele>40</ele>
        <time>2019-12-09T16:47:19Z</time>
      </trkpt>
      <trkpt lat="59.300572" lon="18.081499">
        <ele>40</ele>
        <time>2019-12-09T16:47:20Z</time>
      </trkpt>
      <trkpt lat="59.30064" lon="18.081445">
        <ele>40</ele>
        <time>2019-12-09T16:47:21Z</time>
      </trkpt>
      <trkpt lat="59.300705" lon="18.081387">
        <ele>40</ele>
        <time>2019-12-09T16:47:22Z</time>
      </trkpt>
      <trkpt lat="59.30077" lon="18.081326">
        <ele>40</ele>
        <time>2019-12-09T16:47:23Z</time>
      </trkpt>
      <trkpt lat="59.300837" lon="18.081263">
        <ele>40</ele>
        <time>2019-12-09T16:47:24Z</time>
      </trkpt>
      <trkpt lat="59.300906" lon="18.081196">
        <ele>40</ele>
        <time>2019-12-09T16:47:25Z</time>
      </trkpt>
      <trkpt lat="59.300974" lon="18.081126">
        <ele>40</ele>
        <time>2019-12-09T16:47:26Z</time>
      </trkpt>
      <trkpt lat="59.301042" lon="18.081056">
        <ele>40</ele>
        <time>2019-12-09T16:47:27Z</time>
      </trkpt>
      <trkpt lat="59.301109" lon="18.080985">
        <ele>41</ele>
        <time>2019-12-09T16:47:28Z</time>
      </trkpt>
      <trkpt lat="59.30118" lon="18.080915">
        <ele>41</ele>
        <time>2019-12-09T16:47:29Z</time>
      </trkpt>
      <trkpt lat="59.301248" lon="18.080847">
        <ele>41</ele>
        <time>2019-12-09T16:47:30Z</time>
      </trkpt>
      <trkpt lat="59.30132" lon="18.080782">
        <ele>41</ele>
        <time>2019-12-09T16:47:31Z</time>
      </trkpt>
      <trkpt lat="59.30139" lon="18.080722">
        <ele>41</ele>
        <time>2019-12-09T16:47:32Z</time>
      </trkpt>
      <trkpt lat="59.301464" lon="18.080667">
        <ele>41</ele>
        <time>2019-12-09T16:47:33Z</time>
      </trkpt>
      <trkpt lat="59.30154" lon="18.080616">
        <ele>41</ele>
        <time>2019-12-09T16:47:34Z</time>
      </trkpt>
      <trkpt lat="59.30161" lon="18.080565">
        <ele>41</ele>
        <time>2019-12-09T16:47:35Z</time>
      </trkpt>
      <trkpt lat="59.30168" lon="18.080512">
        <ele>40</ele>
        <time>2019-12-09T16:47:36Z</time>
      </trkpt>
      <trkpt lat="59.301748" lon="18.080458">
        <ele>40</ele>
        <time>2019-12-09T16:47:37Z</time>
      </trkpt>
      <trkpt lat="59.301815" lon="18.080407">
        <ele>40</ele>
        <time>2019-12-09T16:47:38Z</time>
      </trkpt>
      <trkpt lat="59.301886" lon="18.080359">
        <ele>40</ele>
        <time>2019-12-09T16:47:39Z</time>
      </trkpt>
      <trkpt lat="59.301956" lon="18.08031">
        <ele>40</ele>
        <time>2019-12-09T16:47:40Z</time>
      </trkpt>
      <trkpt lat="59.302024" lon="18.080264">
        <ele>39</ele>
        <time>2019-12-09T16:47:41Z</time>
      </trkpt>
      <trkpt lat="59.302093" lon="18.080218">
        <ele>39</ele>
        <time>2019-12-09T16:47:42Z</time>
      </trkpt>
      <trkpt lat="59.302165" lon="18.080172">
        <ele>39</ele>
        <time>2019-12-09T16:47:43Z</time>
      </trkpt>
      <trkpt lat="59.302238" lon="18.080127">
        <ele>39</ele>
        <time>2019-12-09T16:47:44Z</time>
      </trkpt>
      <trkpt lat="59.302311" lon="18.080079">
        <ele>39</ele>
        <time>2019-12-09T16:47:45Z</time>
      </trkpt>
      <trkpt lat="59.302383" lon="18.080029">
        <ele>39</ele>
        <time>2019-12-09T16:47:46Z</time>
      </trkpt>
      <trkpt lat="59.302452" lon="18.07998">
        <ele>38</ele>
        <time>2019-12-09T16:47:47Z</time>
      </trkpt>
      <trkpt lat="59.302522" lon="18.079934">
        <ele>38</ele>
        <time>2019-12-09T16:47:48Z</time>
      </trkpt>
      <trkpt lat="59.302594" lon="18.079893">
        <ele>38</ele>
        <time>2019-12-09T16:47:49Z</time>
      </trkpt>
      <trkpt lat="59.302664" lon="18.079853">
        <ele>38</ele>
        <time>2019-12-09T16:47:50Z</time>
      </trkpt>
      <trkpt lat="59.302732" lon="18.079811">
        <ele>38</ele>
        <time>2019-12-09T16:47:51Z</time>
      </trkpt>
      <trkpt lat="59.302801" lon="18.079769">
        <ele>38</ele>
        <time>2019-12-09T16:47:52Z</time>
      </trkpt>
      <trkpt lat="59.302868" lon="18.079726">
        <ele>38</ele>
        <time>2019-12-09T16:47:53Z</time>
      </trkpt>
      <trkpt lat="59.302938" lon="18.079683">
        <ele>37</ele>
        <time>2019-12-09T16:47:54Z</time>
      </trkpt>
      <trkpt lat="59.303009" lon="18.079641">
        <ele>37</ele>
        <time>2019-12-09T16:47:55Z</time>
      </trkpt>
      <trkpt lat="59.303082" lon="18.079598">
        <ele>37</ele>
        <time>2019-12-09T16:47:56Z</time>
      </trkpt>
      <trkpt lat="59.303152" lon="18.079554">
        <ele>37</ele>
        <time>2019-12-09T16:47:57Z</time>
      </trkpt>
      <trkpt lat="59.303225" lon="18.07951">
        <ele>37</ele>
        <time>2019-12-09T16:47:58Z</time>
      </trkpt>
      <trkpt lat="59.303298" lon="18.079465">
        <ele>36</ele>
        <time>2019-12-09T16:47:59Z</time>
      </trkpt>
      <trkpt lat="59.303372" lon="18.079419">
        <ele>36</ele>
        <time>2019-12-09T16:48:00Z</time>
      </trkpt>
      <trkpt lat="59.303448" lon="18.079372">
        <ele>36</ele>
        <time>2019-12-09T16:48:01Z</time>
      </trkpt>
      <trkpt lat="59.303526" lon="18.079325">
        <ele>36</ele>
        <time>2019-12-09T16:48:02Z</time>
      </trkpt>
      <trkpt lat="59.303606" lon="18.079278">
        <ele>35</ele>
        <time>2019-12-09T16:48:03Z</time>
      </trkpt>
      <trkpt lat="59.303685" lon="18.07923">
        <ele>35</ele>
        <time>2019-12-09T16:48:04Z</time>
      </trkpt>
      <trkpt lat="59.303764" lon="18.079181">
        <ele>35</ele>
        <time>2019-12-09T16:48:05Z</time>
      </trkpt>
      <trkpt lat="59.303845" lon="18.079131">
        <ele>35</ele>
        <time>2019-12-09T16:48:06Z</time>
      </trkpt>
      <trkpt lat="59.303926" lon="18.07908">
        <ele>34</ele>
        <time>2019-12-09T16:48:07Z</time>
      </trkpt>
      <trkpt lat="59.304008" lon="18.079028">
        <ele>34</ele>
        <time>2019-12-09T16:48:08Z</time>
      </trkpt>
      <trkpt lat="59.304092" lon="18.078978">
        <ele>34</ele>
        <time>2019-12-09T16:48:09Z</time>
      </trkpt>
      <trkpt lat="59.304177" lon="18.078925">
        <ele>33</ele>
        <time>2019-12-09T16:48:10Z</time>
      </trkpt>
      <trkpt lat="59.304261" lon="18.078871">
        <ele>33</ele>
        <time>2019-12-09T16:48:11Z</time>
      </trkpt>
      <trkpt lat="59.304344" lon="18.078816">
        <ele>32</ele>
        <time>2019-12-09T16:48:12Z</time>
      </trkpt>
      <trkpt lat="59.304432" lon="18.078762">
        <ele>32</ele>
        <time>2019-12-09T16:48:13Z</time>
      </trkpt>
      <trkpt lat="59.304522" lon="18.078707">
        <ele>32</ele>
        <time>2019-12-09T16:48:14Z</time>
      </trkpt>
      <trkpt lat="59.304611" lon="18.07865">
        <ele>31</ele>
        <time>2019-12-09T16:48:15Z</time>
      </trkpt>
      <trkpt lat="59.304702" lon="18.078592">
        <ele>31</ele>
        <time>2019-12-09T16:48:16Z</time>
      </trkpt>
      <trkpt lat="59.304793" lon="18.078535">
        <ele>30</ele>
        <time>2019-12-09T16:48:17Z</time>
      </trkpt>
      <trkpt lat="59.304886" lon="18.078478">
        <ele>30</ele>
        <time>2019-12-09T16:48:18Z</time>
      </trkpt>
      <trkpt lat="59.304981" lon="18.078422">
        <ele>30</ele>
        <time>2019-12-09T16:48:19Z</time>
      </trkpt>
      <trkpt lat="59.305077" lon="18.078364">
        <ele>29</ele>
        <time>2019-12-09T16:48:20Z</time>
      </trkpt>
      <trkpt lat="59.305174" lon="18.078305">
        <ele>29</ele>
        <time>2019-12-09T16:48:21Z</time>
      </trkpt>
      <trkpt lat="59.305271" lon="18.078244">
        <ele>28</ele>
        <time>2019-12-09T16:48:22Z</time>
      </trkpt>
      <trkpt lat="59.305369" lon="18.078183">
        <ele>28</ele>
        <time>2019-12-09T16:48:23Z</time>
      </trkpt>
      <trkpt lat="59.305467" lon="18.078122">
        <ele>27</ele>
        <time>2019-12-09T16:48:24Z</time>
      </trkpt>
      <trkpt lat="59.305565" lon="18.07806">
        <ele>27</ele>
        <time>2019-12-09T16:48:25Z</time>
      </trkpt>
      <trkpt lat="59.305663" lon="18.077997">
        <ele>26</ele>
        <time>2019-12-09T16:48:26Z</time>
      </trkpt>
      <trkpt lat="59.305762" lon="18.077933">
        <ele>26</ele>
        <time>2019-12-09T16:48:27Z</time>
      </trkpt>
      <trkpt lat="59.305861" lon="18.077871">
        <ele>26</ele>
        <time>2019-12-09T16:48:28Z</time>
      </trkpt>
      <trkpt lat="59.305959" lon="18.07781">
        <ele>25</ele>
        <time>2019-12-09T16:48:29Z</time>
      </trkpt>
      <trkpt lat="59.306056" lon="18.077749">
        <ele>25</ele>
        <time>2019-12-09T16:48:30Z</time>
      </trkpt>
      <trkpt lat="59.306153" lon="18.077685">
        <ele>24</ele>
        <time>2019-12-09T16:48:31Z</time>
      </trkpt>
      <trkpt lat="59.306249" lon="18.077621">
        <ele>24</ele>
        <time>2019-12-09T16:48:32Z</time>
      </trkpt>
      <trkpt lat="59.306344" lon="18.077555">
        <ele>24</ele>
        <time>2019-12-09T16:48:33Z</time>
      </trkpt>
      <trkpt lat="59.306436" lon="18.077483">
        <ele>24</ele>
        <time>2019-12-09T16:48:34Z</time>
      </trkpt>
      <trkpt lat="59.306526" lon="18.077413">
        <ele>24</ele>
        <time>2019-12-09T16:48:35Z</time>
      </trkpt>
      <trkpt lat="59.306616" lon="18.077352">
        <ele>24</ele>
        <time>2019-12-09T16:48:36Z</time>
      </trkpt>
      <trkpt lat="59.306705" lon="18.0773">
        <ele>24</ele>
        <time>2019-12-09T16:48:37Z</time>
      </trkpt>
      <trkpt lat="59.306792" lon="18.077256">
        <ele>24</ele>
        <time>2019-12-09T16:48:38Z</time>
      </trkpt>
      <trkpt lat="59.306876" lon="18.077215">
        <ele>24</ele>
        <time>2019-12-09T16:48:39Z</time>
      </trkpt>
      <trkpt lat="59.306957" lon="18.077174">
        <ele>24</ele>
        <time>2019-12-09T16:48:40Z</time>
      </trkpt>
      <trkpt lat="59.307034" lon="18.077133">
        <ele>24</ele>
        <time>2019-12-09T16:48:41Z</time>
      </trkpt>
      <trkpt lat="59.307106" lon="18.077096">
        <ele>24</ele>
        <time>2019-12-09T16:48:42Z</time>
      </trkpt>
      <trkpt lat="59.307173" lon="18.077059">
        <ele>24</ele>
        <time>2019-12-09T16:48:43Z</time>
      </trkpt>
      <trkpt lat="59.307235" lon="18.077029">
        <ele>24</ele>
        <time>2019-12-09T16:48:44Z</time>
      </trkpt>
      <trkpt lat="59.30729" lon="18.077002">
        <ele>24</ele>
        <time>2019-12-09T16:48:45Z</time>
      </trkpt>
      <trkpt lat="59.30734" lon="18.076977">
        <ele>24</ele>
        <time>2019-12-09T16:48:46Z</time>
      </trkpt>
      <trkpt lat="59.307384" lon="18.076954">
        <ele>25</ele>
        <time>2019-12-09T16:48:47Z</time>
      </trkpt>
      <trkpt lat="59.307424" lon="18.076934">
        <ele>25</ele>
        <time>2019-12-09T16:48:48Z</time>
      </trkpt>
      <trkpt lat="59.307462" lon="18.076915">
        <ele>25</ele>
        <time>2019-12-09T16:48:49Z</time>
      </trkpt>
      <trkpt lat="59.307495" lon="18.076895">
        <ele>25</ele>
        <time>2019-12-09T16:48:50Z</time>
      </trkpt>
      <trkpt lat="59.307524" lon="18.076878">
        <ele>25</ele>
        <time>2019-12-09T16:48:51Z</time>
      </trkpt>
      <trkpt lat="59.307548" lon="18.076864">
        <ele>25</ele>
        <time>2019-12-09T16:48:52Z</time>
      </trkpt>
      <trkpt lat="59.307568" lon="18.076853">
        <ele>25</ele>
        <time>2019-12-09T16:48:53Z</time>
      </trkpt>
      <trkpt lat="59.307597" lon="18.076832">
        <ele>25</ele>
        <time>2019-12-09T16:48:55Z</time>
      </trkpt>
      <trkpt lat="59.307605" lon="18.076821">
        <ele>0</ele>
        <time>2019-12-09T16:48:59Z</time>
      </trkpt>
      <trkpt lat="59.307642" lon="18.076781">
        <ele>24</ele>
        <time>2019-12-09T16:49:40Z</time>
      </trkpt>
      <trkpt lat="59.30767" lon="18.076763">
        <ele>24</ele>
        <time>2019-12-09T16:49:41Z</time>
      </trkpt>
      <trkpt lat="59.307701" lon="18.076739">
        <ele>24</ele>
        <time>2019-12-09T16:49:42Z</time>
      </trkpt>
      <trkpt lat="59.307736" lon="18.076713">
        <ele>24</ele>
        <time>2019-12-09T16:49:43Z</time>
      </trkpt>
      <trkpt lat="59.307774" lon="18.076672">
        <ele>24</ele>
        <time>2019-12-09T16:49:44Z</time>
      </trkpt>
      <trkpt lat="59.307816" lon="18.076636">
        <ele>24</ele>
        <time>2019-12-09T16:49:45Z</time>
      </trkpt>
      <trkpt lat="59.307859" lon="18.076599">
        <ele>25</ele>
        <time>2019-12-09T16:49:46Z</time>
      </trkpt>
      <trkpt lat="59.307904" lon="18.076562">
        <ele>25</ele>
        <time>2019-12-09T16:49:47Z</time>
      </trkpt>
      <trkpt lat="59.307951" lon="18.076525">
        <ele>25</ele>
        <time>2019-12-09T16:49:48Z</time>
      </trkpt>
      <trkpt lat="59.308001" lon="18.076492">
        <ele>25</ele>
        <time>2019-12-09T16:49:49Z</time>
      </trkpt>
      <trkpt lat="59.308055" lon="18.076463">
        <ele>25</ele>
        <time>2019-12-09T16:49:50Z</time>
      </trkpt>
      <trkpt lat="59.308109" lon="18.076433">
        <ele>25</ele>
        <time>2019-12-09T16:49:51Z</time>
      </trkpt>
      <trkpt lat="59.308164" lon="18.076405">
        <ele>25</ele>
        <time>2019-12-09T16:49:52Z</time>
      </trkpt>
      <trkpt lat="59.308218" lon="18.076376">
        <ele>25</ele>
        <time>2019-12-09T16:49:53Z</time>
      </trkpt>
      <trkpt lat="59.308272" lon="18.076347">
        <ele>25</ele>
        <time>2019-12-09T16:49:54Z</time>
      </trkpt>
      <trkpt lat="59.30833" lon="18.076312">
        <ele>26</ele>
        <time>2019-12-09T16:49:55Z</time>
      </trkpt>
      <trkpt lat="59.308392" lon="18.076274">
        <ele>26</ele>
        <time>2019-12-09T16:49:56Z</time>
      </trkpt>
      <trkpt lat="59.308452" lon="18.076241">
        <ele>26</ele>
        <time>2019-12-09T16:49:57Z</time>
      </trkpt>
      <trkpt lat="59.308516" lon="18.076212">
        <ele>27</ele>
        <time>2019-12-09T16:49:58Z</time>
      </trkpt>
      <trkpt lat="59.30858" lon="18.076185">
        <ele>27</ele>
        <time>2019-12-09T16:49:59Z</time>
      </trkpt>
      <trkpt lat="59.308642" lon="18.076159">
        <ele>28</ele>
        <time>2019-12-09T16:50:00Z</time>
      </trkpt>
      <trkpt lat="59.308705" lon="18.076129">
        <ele>28</ele>
        <time>2019-12-09T16:50:01Z</time>
      </trkpt>
      <trkpt lat="59.308764" lon="18.076085">
        <ele>28</ele>
        <time>2019-12-09T16:50:02Z</time>
      </trkpt>
      <trkpt lat="59.308824" lon="18.07604">
        <ele>29</ele>
        <time>2019-12-09T16:50:03Z</time>
      </trkpt>
      <trkpt lat="59.308882" lon="18.075993">
        <ele>29</ele>
        <time>2019-12-09T16:50:04Z</time>
      </trkpt>
      <trkpt lat="59.308942" lon="18.075946">
        <ele>30</ele>
        <time>2019-12-09T16:50:05Z</time>
      </trkpt>
      <trkpt lat="59.309" lon="18.075906">
        <ele>30</ele>
        <time>2019-12-09T16:50:06Z</time>
      </trkpt>
      <trkpt lat="59.309056" lon="18.075872">
        <ele>31</ele>
        <time>2019-12-09T16:50:07Z</time>
      </trkpt>
      <trkpt lat="59.309104" lon="18.075842">
        <ele>32</ele>
        <time>2019-12-09T16:50:08Z</time>
      </trkpt>
      <trkpt lat="59.30915" lon="18.07582">
        <ele>32</ele>
        <time>2019-12-09T16:50:09Z</time>
      </trkpt>
      <trkpt lat="59.309186" lon="18.075799">
        <ele>33</ele>
        <time>2019-12-09T16:50:10Z</time>
      </trkpt>
      <trkpt lat="59.309216" lon="18.075781">
        <ele>34</ele>
        <time>2019-12-09T16:50:11Z</time>
      </trkpt>
      <trkpt lat="59.309247" lon="18.075774">
        <ele>34</ele>
        <time>2019-12-09T16:50:12Z</time>
      </trkpt>
      <trkpt lat="59.309278" lon="18.07576">
        <ele>35</ele>
        <time>2019-12-09T16:50:14Z</time>
      </trkpt>
      <trkpt lat="59.309297" lon="18.075748">
        <ele>36</ele>
        <time>2019-12-09T16:50:16Z</time>
      </trkpt>
      <trkpt lat="59.30932" lon="18.075737">
        <ele>37</ele>
        <time>2019-12-09T16:50:18Z</time>
      </trkpt>
      <trkpt lat="59.309347" lon="18.07573">
        <ele>38</ele>
        <time>2019-12-09T16:50:21Z</time>
      </trkpt>
      <trkpt lat="59.309362" lon="18.075704">
        <ele>40</ele>
        <time>2019-12-09T16:50:26Z</time>
      </trkpt>
      <trkpt lat="59.309362" lon="18.075703">
        <ele>0</ele>
        <time>2019-12-09T16:50:27Z</time>
      </trkpt>
      <trkpt lat="59.309419" lon="18.075631">
        <ele>42</ele>
        <time>2019-12-09T16:50:42Z</time>
      </trkpt>
      <trkpt lat="59.309452" lon="18.075616">
        <ele>43</ele>
        <time>2019-12-09T16:50:43Z</time>
      </trkpt>
      <trkpt lat="59.309496" lon="18.075616">
        <ele>43</ele>
        <time>2019-12-09T16:50:44Z</time>
      </trkpt>
      <trkpt lat="59.309535" lon="18.075586">
        <ele>43</ele>
        <time>2019-12-09T16:50:45Z</time>
      </trkpt>
      <trkpt lat="59.309577" lon="18.075548">
        <ele>43</ele>
        <time>2019-12-09T16:50:46Z</time>
      </trkpt>
      <trkpt lat="59.309629" lon="18.075511">
        <ele>43</ele>
        <time>2019-12-09T16:50:47Z</time>
      </trkpt>
      <trkpt lat="59.309681" lon="18.075467">
        <ele>43</ele>
        <time>2019-12-09T16:50:48Z</time>
      </trkpt>
      <trkpt lat="59.309733" lon="18.075427">
        <ele>43</ele>
        <time>2019-12-09T16:50:49Z</time>
      </trkpt>
      <trkpt lat="59.309785" lon="18.075375">
        <ele>43</ele>
        <time>2019-12-09T16:50:50Z</time>
      </trkpt>
      <trkpt lat="59.309843" lon="18.075336">
        <ele>44</ele>
        <time>2019-12-09T16:50:51Z</time>
      </trkpt>
      <trkpt lat="59.309904" lon="18.075302">
        <ele>44</ele>
        <time>2019-12-09T16:50:52Z</time>
      </trkpt>
      <trkpt lat="59.309964" lon="18.075263">
        <ele>43</ele>
        <time>2019-12-09T16:50:53Z</time>
      </trkpt>
      <trkpt lat="59.310037" lon="18.075232">
        <ele>43</ele>
        <time>2019-12-09T16:50:54Z</time>
      </trkpt>
      <trkpt lat="59.310136" lon="18.07521">
        <ele>43</ele>
        <time>2019-12-09T16:50:55Z</time>
      </trkpt>
      <trkpt lat="59.310224" lon="18.075179">
        <ele>42</ele>
        <time>2019-12-09T16:50:56Z</time>
      </trkpt>
      <trkpt lat="59.310311" lon="18.075141">
        <ele>42</ele>
        <time>2019-12-09T16:50:57Z</time>
      </trkpt>
      <trkpt lat="59.310379" lon="18.075106">
        <ele>42</ele>
        <time>2019-12-09T16:50:58Z</time>
      </trkpt>
      <trkpt lat="59.310453" lon="18.075067">
        <ele>42</ele>
        <time>2019-12-09T16:50:59Z</time>
      </trkpt>
      <trkpt lat="59.310526" lon="18.075019">
        <ele>42</ele>
        <time>2019-12-09T16:51:00Z</time>
      </trkpt>
      <trkpt lat="59.310596" lon="18.075001">
        <ele>43</ele>
        <time>2019-12-09T16:51:01Z</time>
      </trkpt>
      <trkpt lat="59.310671" lon="18.075009">
        <ele>43</ele>
        <time>2019-12-09T16:51:02Z</time>
      </trkpt>
      <trkpt lat="59.310748" lon="18.074988">
        <ele>43</ele>
        <time>2019-12-09T16:51:03Z</time>
      </trkpt>
      <trkpt lat="59.310822" lon="18.074955">
        <ele>43</ele>
        <time>2019-12-09T16:51:04Z</time>
      </trkpt>
      <trkpt lat="59.310889" lon="18.074922">
        <ele>42</ele>
        <time>2019-12-09T16:51:05Z</time>
      </trkpt>
      <trkpt lat="59.310954" lon="18.074887">
        <ele>42</ele>
        <time>2019-12-09T16:51:06Z</time>
      </trkpt>
      <trkpt lat="59.311016" lon="18.074857">
        <ele>42</ele>
        <time>2019-12-09T16:51:07Z</time>
      </trkpt>
      <trkpt lat="59.311073" lon="18.074828">
        <ele>42</ele>
        <time>2019-12-09T16:51:08Z</time>
      </trkpt>
      <trkpt lat="59.311127" lon="18.074799">
        <ele>42</ele>
        <time>2019-12-09T16:51:09Z</time>
      </trkpt>
      <trkpt lat="59.311176" lon="18.074772">
        <ele>41</ele>
        <time>2019-12-09T16:51:10Z</time>
      </trkpt>
      <trkpt lat="59.311223" lon="18.074746">
        <ele>41</ele>
        <time>2019-12-09T16:51:11Z</time>
      </trkpt>
      <trkpt lat="59.311268" lon="18.074726">
        <ele>41</ele>
        <time>2019-12-09T16:51:12Z</time>
      </trkpt>
      <trkpt lat="59.311311" lon="18.074706">
        <ele>41</ele>
        <time>2019-12-09T16:51:13Z</time>
      </trkpt>
      <trkpt lat="59.311355" lon="18.07469">
        <ele>41</ele>
        <time>2019-12-09T16:51:14Z</time>
      </trkpt>
      <trkpt lat="59.311394" lon="18.074671">
        <ele>41</ele>
        <time>2019-12-09T16:51:15Z</time>
      </trkpt>
      <trkpt lat="59.31143" lon="18.074654">
        <ele>42</ele>
        <time>2019-12-09T16:51:16Z</time>
      </trkpt>
      <trkpt lat="59.311463" lon="18.074648">
        <ele>42</ele>
        <time>2019-12-09T16:51:17Z</time>
      </trkpt>
      <trkpt lat="59.311491" lon="18.074632">
        <ele>42</ele>
        <time>2019-12-09T16:51:18Z</time>
      </trkpt>
      <trkpt lat="59.311516" lon="18.074614">
        <ele>43</ele>
        <time>2019-12-09T16:51:19Z</time>
      </trkpt>
      <trkpt lat="59.311536" lon="18.074604">
        <ele>43</ele>
        <time>2019-12-09T16:51:20Z</time>
      </trkpt>
      <trkpt lat="59.311556" lon="18.074592">
        <ele>44</ele>
        <time>2019-12-09T16:51:21Z</time>
      </trkpt>
      <trkpt lat="59.311584" lon="18.07458">
        <ele>45</ele>
        <time>2019-12-09T16:51:23Z</time>
      </trkpt>
      <trkpt lat="59.311606" lon="18.074577">
        <ele>44</ele>
        <time>2019-12-09T16:51:25Z</time>
      </trkpt>
      <trkpt lat="59.311621" lon="18.074549">
        <ele>44</ele>
        <time>2019-12-09T16:51:28Z</time>
      </trkpt>
      <trkpt lat="59.311643" lon="18.074525">
        <ele>45</ele>
        <time>2019-12-09T16:51:31Z</time>
      </trkpt>
      <trkpt lat="59.31167" lon="18.07451">
        <ele>46</ele>
        <time>2019-12-09T16:51:34Z</time>
      </trkpt>
      <trkpt lat="59.311688" lon="18.074505">
        <ele>46</ele>
        <time>2019-12-09T16:51:35Z</time>
      </trkpt>
      <trkpt lat="59.311717" lon="18.074494">
        <ele>47</ele>
        <time>2019-12-09T16:51:36Z</time>
      </trkpt>
      <trkpt lat="59.311756" lon="18.074484">
        <ele>47</ele>
        <time>2019-12-09T16:51:37Z</time>
      </trkpt>
      <trkpt lat="59.311802" lon="18.074474">
        <ele>47</ele>
        <time>2019-12-09T16:51:38Z</time>
      </trkpt>
      <trkpt lat="59.311852" lon="18.074464">
        <ele>47</ele>
        <time>2019-12-09T16:51:39Z</time>
      </trkpt>
      <trkpt lat="59.311905" lon="18.074448">
        <ele>47</ele>
        <time>2019-12-09T16:51:40Z</time>
      </trkpt>
      <trkpt lat="59.31196" lon="18.074424">
        <ele>47</ele>
        <time>2019-12-09T16:51:41Z</time>
      </trkpt>
      <trkpt lat="59.31202" lon="18.074394">
        <ele>47</ele>
        <time>2019-12-09T16:51:42Z</time>
      </trkpt>
      <trkpt lat="59.31208" lon="18.074369">
        <ele>47</ele>
        <time>2019-12-09T16:51:43Z</time>
      </trkpt>
      <trkpt lat="59.312141" lon="18.074351">
        <ele>47</ele>
        <time>2019-12-09T16:51:44Z</time>
      </trkpt>
      <trkpt lat="59.312202" lon="18.074322">
        <ele>47</ele>
        <time>2019-12-09T16:51:45Z</time>
      </trkpt>
      <trkpt lat="59.312264" lon="18.074288">
        <ele>47</ele>
        <time>2019-12-09T16:51:46Z</time>
      </trkpt>
      <trkpt lat="59.312327" lon="18.074254">
        <ele>47</ele>
        <time>2019-12-09T16:51:47Z</time>
      </trkpt>
      <trkpt lat="59.31239" lon="18.074213">
        <ele>47</ele>
        <time>2019-12-09T16:51:48Z</time>
      </trkpt>
      <trkpt lat="59.312454" lon="18.074184">
        <ele>47</ele>
        <time>2019-12-09T16:51:49Z</time>
      </trkpt>
      <trkpt lat="59.312516" lon="18.074149">
        <ele>47</ele>
        <time>2019-12-09T16:51:50Z</time>
      </trkpt>
      <trkpt lat="59.312576" lon="18.074105">
        <ele>47</ele>
        <time>2019-12-09T16:51:51Z</time>
      </trkpt>
      <trkpt lat="59.312641" lon="18.07407">
        <ele>47</ele>
        <time>2019-12-09T16:51:52Z</time>
      </trkpt>
      <trkpt lat="59.3127" lon="18.074032">
        <ele>47</ele>
        <time>2019-12-09T16:51:53Z</time>
      </trkpt>
      <trkpt lat="59.31276" lon="18.073988">
        <ele>47</ele>
        <time>2019-12-09T16:51:54Z</time>
      </trkpt>
      <trkpt lat="59.31282" lon="18.073942">
        <ele>47</ele>
        <time>2019-12-09T16:51:55Z</time>
      </trkpt>
      <trkpt lat="59.312888" lon="18.073911">
        <ele>47</ele>
        <time>2019-12-09T16:51:56Z</time>
      </trkpt>
      <trkpt lat="59.312968" lon="18.073897">
        <ele>48</ele>
        <time>2019-12-09T16:51:57Z</time>
      </trkpt>
      <trkpt lat="59.31305" lon="18.07389">
        <ele>0</ele>
        <time>2019-12-09T16:51:57Z</time>
      </trkpt>
      <trkpt lat="59.313132" lon="18.073891">
        <ele>48</ele>
        <time>2019-12-09T16:51:58Z</time>
      </trkpt>
      <trkpt lat="59.313204" lon="18.073859">
        <ele>48</ele>
        <time>2019-12-09T16:52:00Z</time>
      </trkpt>
      <trkpt lat="59.313274" lon="18.073826">
        <ele>48</ele>
        <time>2019-12-09T16:52:01Z</time>
      </trkpt>
      <trkpt lat="59.313342" lon="18.073792">
        <ele>48</ele>
        <time>2019-12-09T16:52:02Z</time>
      </trkpt>
      <trkpt lat="59.31341" lon="18.073763">
        <ele>48</ele>
        <time>2019-12-09T16:52:03Z</time>
      </trkpt>
      <trkpt lat="59.313475" lon="18.073736">
        <ele>48</ele>
        <time>2019-12-09T16:52:04Z</time>
      </trkpt>
      <trkpt lat="59.313536" lon="18.073711">
        <ele>48</ele>
        <time>2019-12-09T16:52:05Z</time>
      </trkpt>
      <trkpt lat="59.313592" lon="18.073684">
        <ele>47</ele>
        <time>2019-12-09T16:52:06Z</time>
      </trkpt>
      <trkpt lat="59.313648" lon="18.073665">
        <ele>47</ele>
        <time>2019-12-09T16:52:07Z</time>
      </trkpt>
      <trkpt lat="59.313696" lon="18.073631">
        <ele>47</ele>
        <time>2019-12-09T16:52:08Z</time>
      </trkpt>
      <trkpt lat="59.31374" lon="18.073597">
        <ele>47</ele>
        <time>2019-12-09T16:52:09Z</time>
      </trkpt>
      <trkpt lat="59.313778" lon="18.073556">
        <ele>47</ele>
        <time>2019-12-09T16:52:10Z</time>
      </trkpt>
      <trkpt lat="59.313813" lon="18.073517">
        <ele>47</ele>
        <time>2019-12-09T16:52:11Z</time>
      </trkpt>
      <trkpt lat="59.313847" lon="18.073487">
        <ele>47</ele>
        <time>2019-12-09T16:52:12Z</time>
      </trkpt>
      <trkpt lat="59.313881" lon="18.073463">
        <ele>47</ele>
        <time>2019-12-09T16:52:13Z</time>
      </trkpt>
      <trkpt lat="59.313913" lon="18.07344">
        <ele>47</ele>
        <time>2019-12-09T16:52:14Z</time>
      </trkpt>
      <trkpt lat="59.313952" lon="18.073422">
        <ele>46</ele>
        <time>2019-12-09T16:52:15Z</time>
      </trkpt>
      <trkpt lat="59.313984" lon="18.073399">
        <ele>46</ele>
        <time>2019-12-09T16:52:16Z</time>
      </trkpt>
      <trkpt lat="59.314014" lon="18.073379">
        <ele>46</ele>
        <time>2019-12-09T16:52:17Z</time>
      </trkpt>
      <trkpt lat="59.314043" lon="18.073362">
        <ele>46</ele>
        <time>2019-12-09T16:52:18Z</time>
      </trkpt>
      <trkpt lat="59.31407" lon="18.073348">
        <ele>46</ele>
        <time>2019-12-09T16:52:19Z</time>
      </trkpt>
      <trkpt lat="59.314104" lon="18.073331">
        <ele>46</ele>
        <time>2019-12-09T16:52:20Z</time>
      </trkpt>
      <trkpt lat="59.314142" lon="18.073314">
        <ele>46</ele>
        <time>2019-12-09T16:52:21Z</time>
      </trkpt>
      <trkpt lat="59.314192" lon="18.073299">
        <ele>45</ele>
        <time>2019-12-09T16:52:22Z</time>
      </trkpt>
      <trkpt lat="59.314243" lon="18.073284">
        <ele>46</ele>
        <time>2019-12-09T16:52:23Z</time>
      </trkpt>
      <trkpt lat="59.314297" lon="18.073277">
        <ele>46</ele>
        <time>2019-12-09T16:52:24Z</time>
      </trkpt>
      <trkpt lat="59.314354" lon="18.073274">
        <ele>46</ele>
        <time>2019-12-09T16:52:25Z</time>
      </trkpt>
      <trkpt lat="59.314409" lon="18.073267">
        <ele>46</ele>
        <time>2019-12-09T16:52:26Z</time>
      </trkpt>
      <trkpt lat="59.31446" lon="18.073251">
        <ele>47</ele>
        <time>2019-12-09T16:52:27Z</time>
      </trkpt>
      <trkpt lat="59.31451" lon="18.073229">
        <ele>47</ele>
        <time>2019-12-09T16:52:28Z</time>
      </trkpt>
      <trkpt lat="59.314552" lon="18.073207">
        <ele>48</ele>
        <time>2019-12-09T16:52:29Z</time>
      </trkpt>
      <trkpt lat="59.314593" lon="18.073191">
        <ele>48</ele>
        <time>2019-12-09T16:52:30Z</time>
      </trkpt>
      <trkpt lat="59.314633" lon="18.073184">
        <ele>49</ele>
        <time>2019-12-09T16:52:31Z</time>
      </trkpt>
      <trkpt lat="59.314675" lon="18.073179">
        <ele>49</ele>
        <time>2019-12-09T16:52:32Z</time>
      </trkpt>
      <trkpt lat="59.314721" lon="18.073173">
        <ele>49</ele>
        <time>2019-12-09T16:52:33Z</time>
      </trkpt>
      <trkpt lat="59.314759" lon="18.073168">
        <ele>50</ele>
        <time>2019-12-09T16:52:34Z</time>
      </trkpt>
      <trkpt lat="59.314795" lon="18.073158">
        <ele>50</ele>
        <time>2019-12-09T16:52:35Z</time>
      </trkpt>
      <trkpt lat="59.314836" lon="18.07314">
        <ele>50</ele>
        <time>2019-12-09T16:52:36Z</time>
      </trkpt>
      <trkpt lat="59.314883" lon="18.073121">
        <ele>50</ele>
        <time>2019-12-09T16:52:37Z</time>
      </trkpt>
      <trkpt lat="59.314931" lon="18.073104">
        <ele>49</ele>
        <time>2019-12-09T16:52:38Z</time>
      </trkpt>
      <trkpt lat="59.314976" lon="18.073078">
        <ele>49</ele>
        <time>2019-12-09T16:52:39Z</time>
      </trkpt>
      <trkpt lat="59.315025" lon="18.073045">
        <ele>48</ele>
        <time>2019-12-09T16:52:40Z</time>
      </trkpt>
      <trkpt lat="59.315083" lon="18.073016">
        <ele>48</ele>
        <time>2019-12-09T16:52:41Z</time>
      </trkpt>
      <trkpt lat="59.315143" lon="18.072998">
        <ele>48</ele>
        <time>2019-12-09T16:52:42Z</time>
      </trkpt>
      <trkpt lat="59.315203" lon="18.072979">
        <ele>47</ele>
        <time>2019-12-09T16:52:43Z</time>
      </trkpt>
      <trkpt lat="59.315255" lon="18.07296">
        <ele>47</ele>
        <time>2019-12-09T16:52:44Z</time>
      </trkpt>
      <trkpt lat="59.315307" lon="18.072942">
        <ele>46</ele>
        <time>2019-12-09T16:52:45Z</time>
      </trkpt>
      <trkpt lat="59.315355" lon="18.072923">
        <ele>45</ele>
        <time>2019-12-09T16:52:46Z</time>
      </trkpt>
      <trkpt lat="59.315388" lon="18.072902">
        <ele>45</ele>
        <time>2019-12-09T16:52:47Z</time>
      </trkpt>
      <trkpt lat="59.315436" lon="18.072873">
        <ele>44</ele>
        <time>2019-12-09T16:52:48Z</time>
      </trkpt>
      <trkpt lat="59.315486" lon="18.07284">
        <ele>43</ele>
        <time>2019-12-09T16:52:49Z</time>
      </trkpt>
      <trkpt lat="59.315537" lon="18.072813">
        <ele>43</ele>
        <time>2019-12-09T16:52:50Z</time>
      </trkpt>
      <trkpt lat="59.315591" lon="18.072784">
        <ele>42</ele>
        <time>2019-12-09T16:52:51Z</time>
      </trkpt>
      <trkpt lat="59.31564" lon="18.072746">
        <ele>42</ele>
        <time>2019-12-09T16:52:52Z</time>
      </trkpt>
      <trkpt lat="59.315682" lon="18.072687">
        <ele>41</ele>
        <time>2019-12-09T16:52:53Z</time>
      </trkpt>
      <trkpt lat="59.315717" lon="18.07262">
        <ele>41</ele>
        <time>2019-12-09T16:52:54Z</time>
      </trkpt>
      <trkpt lat="59.315745" lon="18.072554">
        <ele>41</ele>
        <time>2019-12-09T16:52:55Z</time>
      </trkpt>
      <trkpt lat="59.315776" lon="18.072497">
        <ele>41</ele>
        <time>2019-12-09T16:52:56Z</time>
      </trkpt>
      <trkpt lat="59.315809" lon="18.07244">
        <ele>41</ele>
        <time>2019-12-09T16:52:57Z</time>
      </trkpt>
      <trkpt lat="59.315847" lon="18.072394">
        <ele>41</ele>
        <time>2019-12-09T16:52:58Z</time>
      </trkpt>
      <trkpt lat="59.315886" lon="18.072354">
        <ele>41</ele>
        <time>2019-12-09T16:52:59Z</time>
      </trkpt>
      <trkpt lat="59.316012" lon="18.072254">
        <ele>41</ele>
        <time>2019-12-09T16:53:02Z</time>
      </trkpt>
      <trkpt lat="59.316134" lon="18.072211">
        <ele>40</ele>
        <time>2019-12-09T16:53:04Z</time>
      </trkpt>
      <trkpt lat="59.316282" lon="18.072187">
        <ele>40</ele>
        <time>2019-12-09T16:53:06Z</time>
      </trkpt>
      <trkpt lat="59.316357" lon="18.072176">
        <ele>40</ele>
        <time>2019-12-09T16:53:07Z</time>
      </trkpt>
      <trkpt lat="59.316411" lon="18.07215">
        <ele>40</ele>
        <time>2019-12-09T16:53:08Z</time>
      </trkpt>
      <trkpt lat="59.316467" lon="18.072127">
        <ele>40</ele>
        <time>2019-12-09T16:53:09Z</time>
      </trkpt>
      <trkpt lat="59.316516" lon="18.072104">
        <ele>39</ele>
        <time>2019-12-09T16:53:10Z</time>
      </trkpt>
      <trkpt lat="59.316565" lon="18.072089">
        <ele>39</ele>
        <time>2019-12-09T16:53:11Z</time>
      </trkpt>
      <trkpt lat="59.316619" lon="18.072078">
        <ele>39</ele>
        <time>2019-12-09T16:53:12Z</time>
      </trkpt>
      <trkpt lat="59.316666" lon="18.072062">
        <ele>40</ele>
        <time>2019-12-09T16:53:13Z</time>
      </trkpt>
      <trkpt lat="59.316712" lon="18.072045">
        <ele>40</ele>
        <time>2019-12-09T16:53:14Z</time>
      </trkpt>
      <trkpt lat="59.316754" lon="18.072018">
        <ele>40</ele>
        <time>2019-12-09T16:53:15Z</time>
      </trkpt>
      <trkpt lat="59.316799" lon="18.071996">
        <ele>40</ele>
        <time>2019-12-09T16:53:16Z</time>
      </trkpt>
      <trkpt lat="59.316844" lon="18.071978">
        <ele>40</ele>
        <time>2019-12-09T16:53:17Z</time>
      </trkpt>
      <trkpt lat="59.316896" lon="18.071968">
        <ele>40</ele>
        <time>2019-12-09T16:53:18Z</time>
      </trkpt>
      <trkpt lat="59.316948" lon="18.071955">
        <ele>40</ele>
        <time>2019-12-09T16:53:19Z</time>
      </trkpt>
      <trkpt lat="59.317006" lon="18.071931">
        <ele>40</ele>
        <time>2019-12-09T16:53:20Z</time>
      </trkpt>
      <trkpt lat="59.31706" lon="18.071902">
        <ele>40</ele>
        <time>2019-12-09T16:53:21Z</time>
      </trkpt>
      <trkpt lat="59.317114" lon="18.071876">
        <ele>40</ele>
        <time>2019-12-09T16:53:22Z</time>
      </trkpt>
      <trkpt lat="59.317162" lon="18.071854">
        <ele>40</ele>
        <time>2019-12-09T16:53:23Z</time>
      </trkpt>
      <trkpt lat="59.317207" lon="18.071816">
        <ele>40</ele>
        <time>2019-12-09T16:53:24Z</time>
      </trkpt>
      <trkpt lat="59.317254" lon="18.071782">
        <ele>40</ele>
        <time>2019-12-09T16:53:25Z</time>
      </trkpt>
      <trkpt lat="59.317302" lon="18.071753">
        <ele>40</ele>
        <time>2019-12-09T16:53:26Z</time>
      </trkpt>
      <trkpt lat="59.31735" lon="18.071724">
        <ele>40</ele>
        <time>2019-12-09T16:53:27Z</time>
      </trkpt>
      <trkpt lat="59.317401" lon="18.071707">
        <ele>40</ele>
        <time>2019-12-09T16:53:28Z</time>
      </trkpt>
      <trkpt lat="59.317449" lon="18.071672">
        <ele>40</ele>
        <time>2019-12-09T16:53:29Z</time>
      </trkpt>
      <trkpt lat="59.317498" lon="18.071644">
        <ele>40</ele>
        <time>2019-12-09T16:53:30Z</time>
      </trkpt>
      <trkpt lat="59.317548" lon="18.071617">
        <ele>40</ele>
        <time>2019-12-09T16:53:31Z</time>
      </trkpt>
      <trkpt lat="59.317596" lon="18.071589">
        <ele>41</ele>
        <time>2019-12-09T16:53:32Z</time>
      </trkpt>
      <trkpt lat="59.317646" lon="18.071556">
        <ele>40</ele>
        <time>2019-12-09T16:53:33Z</time>
      </trkpt>
      <trkpt lat="59.317696" lon="18.071518">
        <ele>41</ele>
        <time>2019-12-09T16:53:34Z</time>
      </trkpt>
      <trkpt lat="59.317748" lon="18.07149">
        <ele>41</ele>
        <time>2019-12-09T16:53:35Z</time>
      </trkpt>
      <trkpt lat="59.317802" lon="18.071462">
        <ele>41</ele>
        <time>2019-12-09T16:53:36Z</time>
      </trkpt>
      <trkpt lat="59.317858" lon="18.071435">
        <ele>41</ele>
        <time>2019-12-09T16:53:37Z</time>
      </trkpt>
      <trkpt lat="59.317922" lon="18.071415">
        <ele>41</ele>
        <time>2019-12-09T16:53:38Z</time>
      </trkpt>
      <trkpt lat="59.31798" lon="18.071384">
        <ele>41</ele>
        <time>2019-12-09T16:53:39Z</time>
      </trkpt>
      <trkpt lat="59.318089" lon="18.071298">
        <ele>41</ele>
        <time>2019-12-09T16:53:41Z</time>
      </trkpt>
      <trkpt lat="59.318144" lon="18.071269">
        <ele>41</ele>
        <time>2019-12-09T16:53:42Z</time>
      </trkpt>
      <trkpt lat="59.31828" lon="18.071189">
        <ele>40</ele>
        <time>2019-12-09T16:53:44Z</time>
      </trkpt>
      <trkpt lat="59.318403" lon="18.071134">
        <ele>40</ele>
        <time>2019-12-09T16:53:46Z</time>
      </trkpt>
      <trkpt lat="59.318463" lon="18.071112">
        <ele>40</ele>
        <time>2019-12-09T16:53:47Z</time>
      </trkpt>
      <trkpt lat="59.318524" lon="18.0711">
        <ele>40</ele>
        <time>2019-12-09T16:53:48Z</time>
      </trkpt>
      <trkpt lat="59.31858" lon="18.071074">
        <ele>40</ele>
        <time>2019-12-09T16:53:49Z</time>
      </trkpt>
      <trkpt lat="59.318688" lon="18.071019">
        <ele>41</ele>
        <time>2019-12-09T16:53:51Z</time>
      </trkpt>
      <trkpt lat="59.318746" lon="18.071017">
        <ele>41</ele>
        <time>2019-12-09T16:53:52Z</time>
      </trkpt>
      <trkpt lat="59.318803" lon="18.070986">
        <ele>41</ele>
        <time>2019-12-09T16:53:53Z</time>
      </trkpt>
      <trkpt lat="59.318862" lon="18.070943">
        <ele>41</ele>
        <time>2019-12-09T16:53:54Z</time>
      </trkpt>
      <trkpt lat="59.318918" lon="18.070897">
        <ele>41</ele>
        <time>2019-12-09T16:53:55Z</time>
      </trkpt>
      <trkpt lat="59.318977" lon="18.070853">
        <ele>41</ele>
        <time>2019-12-09T16:53:56Z</time>
      </trkpt>
      <trkpt lat="59.319049" lon="18.070828">
        <ele>41</ele>
        <time>2019-12-09T16:53:57Z</time>
      </trkpt>
      <trkpt lat="59.319116" lon="18.070789">
        <ele>41</ele>
        <time>2019-12-09T16:53:58Z</time>
      </trkpt>
      <trkpt lat="59.31919" lon="18.070756">
        <ele>41</ele>
        <time>2019-12-09T16:53:59Z</time>
      </trkpt>
      <trkpt lat="59.319258" lon="18.070739">
        <ele>41</ele>
        <time>2019-12-09T16:54:00Z</time>
      </trkpt>
      <trkpt lat="59.319321" lon="18.070721">
        <ele>42</ele>
        <time>2019-12-09T16:54:01Z</time>
      </trkpt>
      <trkpt lat="59.319375" lon="18.070702">
        <ele>42</ele>
        <time>2019-12-09T16:54:02Z</time>
      </trkpt>
      <trkpt lat="59.319426" lon="18.07069">
        <ele>41</ele>
        <time>2019-12-09T16:54:03Z</time>
      </trkpt>
      <trkpt lat="59.319476" lon="18.070669">
        <ele>41</ele>
        <time>2019-12-09T16:54:04Z</time>
      </trkpt>
      <trkpt lat="59.319526" lon="18.070656">
        <ele>41</ele>
        <time>2019-12-09T16:54:05Z</time>
      </trkpt>
      <trkpt lat="59.319575" lon="18.070643">
        <ele>41</ele>
        <time>2019-12-09T16:54:06Z</time>
      </trkpt>
      <trkpt lat="59.319623" lon="18.070625">
        <ele>41</ele>
        <time>2019-12-09T16:54:07Z</time>
      </trkpt>
      <trkpt lat="59.319678" lon="18.070595">
        <ele>41</ele>
        <time>2019-12-09T16:54:08Z</time>
      </trkpt>
      <trkpt lat="59.319734" lon="18.070563">
        <ele>40</ele>
        <time>2019-12-09T16:54:09Z</time>
      </trkpt>
      <trkpt lat="59.319781" lon="18.070539">
        <ele>40</ele>
        <time>2019-12-09T16:54:10Z</time>
      </trkpt>
      <trkpt lat="59.319824" lon="18.070511">
        <ele>0</ele>
        <time>2019-12-09T16:54:10Z</time>
      </trkpt>
      <trkpt lat="59.319866" lon="18.070482">
        <ele>39</ele>
        <time>2019-12-09T16:54:11Z</time>
      </trkpt>
      <trkpt lat="59.319911" lon="18.070456">
        <ele>37</ele>
        <time>2019-12-09T16:54:13Z</time>
      </trkpt>
      <trkpt lat="59.319963" lon="18.070486">
        <ele>37</ele>
        <time>2019-12-09T16:54:14Z</time>
      </trkpt>
      <trkpt lat="59.320003" lon="18.070565">
        <ele>38</ele>
        <time>2019-12-09T16:54:15Z</time>
      </trkpt>
      <trkpt lat="59.320039" lon="18.070663">
        <ele>37</ele>
        <time>2019-12-09T16:54:16Z</time>
      </trkpt>
      <trkpt lat="59.320061" lon="18.070782">
        <ele>37</ele>
        <time>2019-12-09T16:54:17Z</time>
      </trkpt>
      <trkpt lat="59.320083" lon="18.070899">
        <ele>36</ele>
        <time>2019-12-09T16:54:18Z</time>
      </trkpt>
      <trkpt lat="59.320108" lon="18.070998">
        <ele>36</ele>
        <time>2019-12-09T16:54:19Z</time>
      </trkpt>
      <trkpt lat="59.32014" lon="18.071062">
        <ele>35</ele>
        <time>2019-12-09T16:54:20Z</time>
      </trkpt>
      <trkpt lat="59.320179" lon="18.071104">
        <ele>34</ele>
        <time>2019-12-09T16:54:21Z</time>
      </trkpt>
      <trkpt lat="59.320227" lon="18.071134">
        <ele>33</ele>
        <time>2019-12-09T16:54:22Z</time>
      </trkpt>
      <trkpt lat="59.32027" lon="18.071173">
        <ele>32</ele>
        <time>2019-12-09T16:54:23Z</time>
      </trkpt>
      <trkpt lat="59.32031" lon="18.071212">
        <ele>32</ele>
        <time>2019-12-09T16:54:24Z</time>
      </trkpt>
      <trkpt lat="59.320353" lon="18.071271">
        <ele>31</ele>
        <time>2019-12-09T16:54:25Z</time>
      </trkpt>
      <trkpt lat="59.320392" lon="18.071327">
        <ele>29</ele>
        <time>2019-12-09T16:54:26Z</time>
      </trkpt>
      <trkpt lat="59.320436" lon="18.071371">
        <ele>28</ele>
        <time>2019-12-09T16:54:27Z</time>
      </trkpt>
      <trkpt lat="59.320478" lon="18.071408">
        <ele>27</ele>
        <time>2019-12-09T16:54:28Z</time>
      </trkpt>
      <trkpt lat="59.320521" lon="18.07144">
        <ele>27</ele>
        <time>2019-12-09T16:54:29Z</time>
      </trkpt>
      <trkpt lat="59.320564" lon="18.071459">
        <ele>0</ele>
        <time>2019-12-09T16:54:29Z</time>
      </trkpt>
      <trkpt lat="59.320612" lon="18.071462">
        <ele>26</ele>
        <time>2019-12-09T16:54:30Z</time>
      </trkpt>
      <trkpt lat="59.320663" lon="18.071461">
        <ele>24</ele>
        <time>2019-12-09T16:54:32Z</time>
      </trkpt>
      <trkpt lat="59.320713" lon="18.071472">
        <ele>23</ele>
        <time>2019-12-09T16:54:33Z</time>
      </trkpt>
      <trkpt lat="59.320761" lon="18.071501">
        <ele>22</ele>
        <time>2019-12-09T16:54:34Z</time>
      </trkpt>
      <trkpt lat="59.320809" lon="18.071552">
        <ele>21</ele>
        <time>2019-12-09T16:54:35Z</time>
      </trkpt>
      <trkpt lat="59.320849" lon="18.07163">
        <ele>21</ele>
        <time>2019-12-09T16:54:36Z</time>
      </trkpt>
      <trkpt lat="59.320878" lon="18.071729">
        <ele>20</ele>
        <time>2019-12-09T16:54:37Z</time>
      </trkpt>
      <trkpt lat="59.320899" lon="18.071842">
        <ele>19</ele>
        <time>2019-12-09T16:54:38Z</time>
      </trkpt>
      <trkpt lat="59.32092" lon="18.071958">
        <ele>19</ele>
        <time>2019-12-09T16:54:39Z</time>
      </trkpt>
      <trkpt lat="59.320952" lon="18.072063">
        <ele>18</ele>
        <time>2019-12-09T16:54:40Z</time>
      </trkpt>
      <trkpt lat="59.320996" lon="18.07214">
        <ele>17</ele>
        <time>2019-12-09T16:54:41Z</time>
      </trkpt>
      <trkpt lat="59.321051" lon="18.072195">
        <ele>16</ele>
        <time>2019-12-09T16:54:42Z</time>
      </trkpt>
      <trkpt lat="59.321111" lon="18.07224">
        <ele>15</ele>
        <time>2019-12-09T16:54:43Z</time>
      </trkpt>
      <trkpt lat="59.321174" lon="18.072284">
        <ele>15</ele>
        <time>2019-12-09T16:54:44Z</time>
      </trkpt>
      <trkpt lat="59.321241" lon="18.072334">
        <ele>14</ele>
        <time>2019-12-09T16:54:45Z</time>
      </trkpt>
      <trkpt lat="59.32131" lon="18.072387">
        <ele>13</ele>
        <time>2019-12-09T16:54:46Z</time>
      </trkpt>
      <trkpt lat="59.321381" lon="18.072441">
        <ele>13</ele>
        <time>2019-12-09T16:54:47Z</time>
      </trkpt>
      <trkpt lat="59.321449" lon="18.072494">
        <ele>12</ele>
        <time>2019-12-09T16:54:48Z</time>
      </trkpt>
      <trkpt lat="59.321517" lon="18.072545">
        <ele>12</ele>
        <time>2019-12-09T16:54:49Z</time>
      </trkpt>
      <trkpt lat="59.321584" lon="18.07259">
        <ele>11</ele>
        <time>2019-12-09T16:54:50Z</time>
      </trkpt>
      <trkpt lat="59.321649" lon="18.072634">
        <ele>11</ele>
        <time>2019-12-09T16:54:51Z</time>
      </trkpt>
      <trkpt lat="59.321708" lon="18.072682">
        <ele>10</ele>
        <time>2019-12-09T16:54:52Z</time>
      </trkpt>
      <trkpt lat="59.321757" lon="18.072726">
        <ele>9</ele>
        <time>2019-12-09T16:54:53Z</time>
      </trkpt>
      <trkpt lat="59.3218" lon="18.072764">
        <ele>9</ele>
        <time>2019-12-09T16:54:54Z</time>
      </trkpt>
      <trkpt lat="59.321841" lon="18.072802">
        <ele>9</ele>
        <time>2019-12-09T16:54:55Z</time>
      </trkpt>
      <trkpt lat="59.321885" lon="18.072837">
        <ele>8</ele>
        <time>2019-12-09T16:54:56Z</time>
      </trkpt>
      <trkpt lat="59.321928" lon="18.072876">
        <ele>8</ele>
        <time>2019-12-09T16:54:57Z</time>
      </trkpt>
      <trkpt lat="59.321961" lon="18.072935">
        <ele>8</ele>
        <time>2019-12-09T16:54:58Z</time>
      </trkpt>
      <trkpt lat="59.321983" lon="18.073013">
        <ele>8</ele>
        <time>2019-12-09T16:54:59Z</time>
      </trkpt>
      <trkpt lat="59.32199" lon="18.073101">
        <ele>8</ele>
        <time>2019-12-09T16:55:00Z</time>
      </trkpt>
      <trkpt lat="59.321983" lon="18.073198">
        <ele>8</ele>
        <time>2019-12-09T16:55:01Z</time>
      </trkpt>
      <trkpt lat="59.321966" lon="18.073298">
        <ele>8</ele>
        <time>2019-12-09T16:55:02Z</time>
      </trkpt>
      <trkpt lat="59.321947" lon="18.073403">
        <ele>8</ele>
        <time>2019-12-09T16:55:03Z</time>
      </trkpt>
      <trkpt lat="59.321928" lon="18.073512">
        <ele>8</ele>
        <time>2019-12-09T16:55:04Z</time>
      </trkpt>
      <trkpt lat="59.321905" lon="18.07362">
        <ele>8</ele>
        <time>2019-12-09T16:55:05Z</time>
      </trkpt>
      <trkpt lat="59.321894" lon="18.073731">
        <ele>8</ele>
        <time>2019-12-09T16:55:06Z</time>
      </trkpt>
      <trkpt lat="59.321902" lon="18.073844">
        <ele>8</ele>
        <time>2019-12-09T16:55:07Z</time>
      </trkpt>
      <trkpt lat="59.321922" lon="18.073944">
        <ele>8</ele>
        <time>2019-12-09T16:55:08Z</time>
      </trkpt>
      <trkpt lat="59.321949" lon="18.074044">
        <ele>8</ele>
        <time>2019-12-09T16:55:09Z</time>
      </trkpt>
      <trkpt lat="59.32199" lon="18.074144">
        <ele>9</ele>
        <time>2019-12-09T16:55:10Z</time>
      </trkpt>
      <trkpt lat="59.322046" lon="18.074224">
        <ele>9</ele>
        <time>2019-12-09T16:55:11Z</time>
      </trkpt>
      <trkpt lat="59.322114" lon="18.07428">
        <ele>9</ele>
        <time>2019-12-09T16:55:12Z</time>
      </trkpt>
      <trkpt lat="59.322183" lon="18.074322">
        <ele>9</ele>
        <time>2019-12-09T16:55:13Z</time>
      </trkpt>
      <trkpt lat="59.322253" lon="18.074364">
        <ele>8</ele>
        <time>2019-12-09T16:55:14Z</time>
      </trkpt>
      <trkpt lat="59.322313" lon="18.074412">
        <ele>8</ele>
        <time>2019-12-09T16:55:15Z</time>
      </trkpt>
      <trkpt lat="59.322375" lon="18.074462">
        <ele>8</ele>
        <time>2019-12-09T16:55:16Z</time>
      </trkpt>
      <trkpt lat="59.322443" lon="18.07451">
        <ele>8</ele>
        <time>2019-12-09T16:55:17Z</time>
      </trkpt>
      <trkpt lat="59.322511" lon="18.074564">
        <ele>8</ele>
        <time>2019-12-09T16:55:18Z</time>
      </trkpt>
      <trkpt lat="59.322578" lon="18.07463">
        <ele>8</ele>
        <time>2019-12-09T16:55:19Z</time>
      </trkpt>
      <trkpt lat="59.322642" lon="18.074703">
        <ele>8</ele>
        <time>2019-12-09T16:55:20Z</time>
      </trkpt>
      <trkpt lat="59.322702" lon="18.074784">
        <ele>8</ele>
        <time>2019-12-09T16:55:21Z</time>
      </trkpt>
      <trkpt lat="59.322761" lon="18.074864">
        <ele>8</ele>
        <time>2019-12-09T16:55:22Z</time>
      </trkpt>
      <trkpt lat="59.322822" lon="18.074938">
        <ele>8</ele>
        <time>2019-12-09T16:55:23Z</time>
      </trkpt>
      <trkpt lat="59.322884" lon="18.075004">
        <ele>8</ele>
        <time>2019-12-09T16:55:24Z</time>
      </trkpt>
      <trkpt lat="59.322945" lon="18.07507">
        <ele>8</ele>
        <time>2019-12-09T16:55:25Z</time>
      </trkpt>
      <trkpt lat="59.32301" lon="18.07513">
        <ele>8</ele>
        <time>2019-12-09T16:55:26Z</time>
      </trkpt>
      <trkpt lat="59.323078" lon="18.075178">
        <ele>8</ele>
        <time>2019-12-09T16:55:27Z</time>
      </trkpt>
      <trkpt lat="59.323148" lon="18.07521">
        <ele>8</ele>
        <time>2019-12-09T16:55:28Z</time>
      </trkpt>
      <trkpt lat="59.323219" lon="18.075238">
        <ele>7</ele>
        <time>2019-12-09T16:55:29Z</time>
      </trkpt>
      <trkpt lat="59.323291" lon="18.075267">
        <ele>7</ele>
        <time>2019-12-09T16:55:30Z</time>
      </trkpt>
      <trkpt lat="59.323363" lon="18.075296">
        <ele>7</ele>
        <time>2019-12-09T16:55:31Z</time>
      </trkpt>
      <trkpt lat="59.323437" lon="18.075325">
        <ele>7</ele>
        <time>2019-12-09T16:55:32Z</time>
      </trkpt>
      <trkpt lat="59.323515" lon="18.075354">
        <ele>7</ele>
        <time>2019-12-09T16:55:33Z</time>
      </trkpt>
      <trkpt lat="59.323595" lon="18.075378">
        <ele>8</ele>
        <time>2019-12-09T16:55:34Z</time>
      </trkpt>
      <trkpt lat="59.323677" lon="18.075399">
        <ele>8</ele>
        <time>2019-12-09T16:55:35Z</time>
      </trkpt>
      <trkpt lat="59.323756" lon="18.075425">
        <ele>8</ele>
        <time>2019-12-09T16:55:36Z</time>
      </trkpt>
      <trkpt lat="59.323836" lon="18.075449">
        <ele>8</ele>
        <time>2019-12-09T16:55:37Z</time>
      </trkpt>
      <trkpt lat="59.323919" lon="18.075472">
        <ele>9</ele>
        <time>2019-12-09T16:55:38Z</time>
      </trkpt>
      <trkpt lat="59.324002" lon="18.075496">
        <ele>9</ele>
        <time>2019-12-09T16:55:39Z</time>
      </trkpt>
      <trkpt lat="59.324083" lon="18.075526">
        <ele>9</ele>
        <time>2019-12-09T16:55:40Z</time>
      </trkpt>
      <trkpt lat="59.324162" lon="18.075558">
        <ele>9</ele>
        <time>2019-12-09T16:55:41Z</time>
      </trkpt>
      <trkpt lat="59.324242" lon="18.075584">
        <ele>9</ele>
        <time>2019-12-09T16:55:42Z</time>
      </trkpt>
      <trkpt lat="59.324319" lon="18.075612">
        <ele>9</ele>
        <time>2019-12-09T16:55:43Z</time>
      </trkpt>
      <trkpt lat="59.324394" lon="18.07564">
        <ele>9</ele>
        <time>2019-12-09T16:55:44Z</time>
      </trkpt>
      <trkpt lat="59.324469" lon="18.075667">
        <ele>9</ele>
        <time>2019-12-09T16:55:45Z</time>
      </trkpt>
      <trkpt lat="59.324541" lon="18.075694">
        <ele>0</ele>
        <time>2019-12-09T16:55:45Z</time>
      </trkpt>
      <trkpt lat="59.324615" lon="18.075724">
        <ele>9</ele>
        <time>2019-12-09T16:55:46Z</time>
      </trkpt>
      <trkpt lat="59.324692" lon="18.075752">
        <ele>9</ele>
        <time>2019-12-09T16:55:48Z</time>
      </trkpt>
      <trkpt lat="59.324767" lon="18.075778">
        <ele>9</ele>
        <time>2019-12-09T16:55:49Z</time>
      </trkpt>
      <trkpt lat="59.324842" lon="18.0758">
        <ele>9</ele>
        <time>2019-12-09T16:55:50Z</time>
      </trkpt>
      <trkpt lat="59.324913" lon="18.075814">
        <ele>8</ele>
        <time>2019-12-09T16:55:51Z</time>
      </trkpt>
      <trkpt lat="59.32498" lon="18.075824">
        <ele>8</ele>
        <time>2019-12-09T16:55:52Z</time>
      </trkpt>
      <trkpt lat="59.325047" lon="18.075829">
        <ele>7</ele>
        <time>2019-12-09T16:55:53Z</time>
      </trkpt>
      <trkpt lat="59.325116" lon="18.075836">
        <ele>7</ele>
        <time>2019-12-09T16:55:54Z</time>
      </trkpt>
      <trkpt lat="59.325186" lon="18.075833">
        <ele>7</ele>
        <time>2019-12-09T16:55:55Z</time>
      </trkpt>
      <trkpt lat="59.325261" lon="18.075824">
        <ele>7</ele>
        <time>2019-12-09T16:55:56Z</time>
      </trkpt>
      <trkpt lat="59.325338" lon="18.075808">
        <ele>7</ele>
        <time>2019-12-09T16:55:57Z</time>
      </trkpt>
      <trkpt lat="59.325413" lon="18.075791">
        <ele>7</ele>
        <time>2019-12-09T16:55:58Z</time>
      </trkpt>
      <trkpt lat="59.32549" lon="18.075776">
        <ele>8</ele>
        <time>2019-12-09T16:55:59Z</time>
      </trkpt>
      <trkpt lat="59.325566" lon="18.07576">
        <ele>8</ele>
        <time>2019-12-09T16:56:00Z</time>
      </trkpt>
      <trkpt lat="59.325643" lon="18.075746">
        <ele>8</ele>
        <time>2019-12-09T16:56:01Z</time>
      </trkpt>
      <trkpt lat="59.325719" lon="18.075724">
        <ele>8</ele>
        <time>2019-12-09T16:56:02Z</time>
      </trkpt>
      <trkpt lat="59.325793" lon="18.075694">
        <ele>8</ele>
        <time>2019-12-09T16:56:03Z</time>
      </trkpt>
      <trkpt lat="59.325865" lon="18.075651">
        <ele>8</ele>
        <time>2019-12-09T16:56:04Z</time>
      </trkpt>
      <trkpt lat="59.325935" lon="18.075602">
        <ele>8</ele>
        <time>2019-12-09T16:56:05Z</time>
      </trkpt>
      <trkpt lat="59.326005" lon="18.075546">
        <ele>8</ele>
        <time>2019-12-09T16:56:06Z</time>
      </trkpt>
      <trkpt lat="59.326072" lon="18.075482">
        <ele>8</ele>
        <time>2019-12-09T16:56:07Z</time>
      </trkpt>
      <trkpt lat="59.326138" lon="18.075411">
        <ele>8</ele>
        <time>2019-12-09T16:56:08Z</time>
      </trkpt>
      <trkpt lat="59.326199" lon="18.075329">
        <ele>8</ele>
        <time>2019-12-09T16:56:09Z</time>
      </trkpt>
      <trkpt lat="59.326258" lon="18.075244">
        <ele>8</ele>
        <time>2019-12-09T16:56:10Z</time>
      </trkpt>
      <trkpt lat="59.326318" lon="18.075162">
        <ele>8</ele>
        <time>2019-12-09T16:56:11Z</time>
      </trkpt>
      <trkpt lat="59.326378" lon="18.075081">
        <ele>8</ele>
        <time>2019-12-09T16:56:12Z</time>
      </trkpt>
      <trkpt lat="59.326436" lon="18.075001">
        <ele>7</ele>
        <time>2019-12-09T16:56:13Z</time>
      </trkpt>
      <trkpt lat="59.326492" lon="18.074922">
        <ele>7</ele>
        <time>2019-12-09T16:56:14Z</time>
      </trkpt>
      <trkpt lat="59.326551" lon="18.074853">
        <ele>7</ele>
        <time>2019-12-09T16:56:15Z</time>
      </trkpt>
      <trkpt lat="59.326612" lon="18.074791">
        <ele>7</ele>
        <time>2019-12-09T16:56:16Z</time>
      </trkpt>
      <trkpt lat="59.326673" lon="18.074733">
        <ele>6</ele>
        <time>2019-12-09T16:56:17Z</time>
      </trkpt>
      <trkpt lat="59.326735" lon="18.074678">
        <ele>6</ele>
        <time>2019-12-09T16:56:18Z</time>
      </trkpt>
      <trkpt lat="59.326797" lon="18.074623">
        <ele>6</ele>
        <time>2019-12-09T16:56:19Z</time>
      </trkpt>
      <trkpt lat="59.326858" lon="18.074561">
        <ele>6</ele>
        <time>2019-12-09T16:56:20Z</time>
      </trkpt>
      <trkpt lat="59.326915" lon="18.07449">
        <ele>6</ele>
        <time>2019-12-09T16:56:21Z</time>
      </trkpt>
      <trkpt lat="59.326969" lon="18.074412">
        <ele>6</ele>
        <time>2019-12-09T16:56:22Z</time>
      </trkpt>
      <trkpt lat="59.327025" lon="18.074337">
        <ele>6</ele>
        <time>2019-12-09T16:56:23Z</time>
      </trkpt>
      <trkpt lat="59.32708" lon="18.074265">
        <ele>6</ele>
        <time>2019-12-09T16:56:24Z</time>
      </trkpt>
      <trkpt lat="59.327136" lon="18.074195">
        <ele>6</ele>
        <time>2019-12-09T16:56:25Z</time>
      </trkpt>
      <trkpt lat="59.327193" lon="18.074122">
        <ele>5</ele>
        <time>2019-12-09T16:56:26Z</time>
      </trkpt>
      <trkpt lat="59.32725" lon="18.074051">
        <ele>5</ele>
        <time>2019-12-09T16:56:27Z</time>
      </trkpt>
      <trkpt lat="59.327307" lon="18.073979">
        <ele>5</ele>
        <time>2019-12-09T16:56:28Z</time>
      </trkpt>
      <trkpt lat="59.327365" lon="18.073908">
        <ele>5</ele>
        <time>2019-12-09T16:56:29Z</time>
      </trkpt>
      <trkpt lat="59.327423" lon="18.073838">
        <ele>5</ele>
        <time>2019-12-09T16:56:30Z</time>
      </trkpt>
      <trkpt lat="59.327482" lon="18.073768">
        <ele>5</ele>
        <time>2019-12-09T16:56:31Z</time>
      </trkpt>
      <trkpt lat="59.32754" lon="18.073699">
        <ele>4</ele>
        <time>2019-12-09T16:56:32Z</time>
      </trkpt>
      <trkpt lat="59.327597" lon="18.07363">
        <ele>4</ele>
        <time>2019-12-09T16:56:33Z</time>
      </trkpt>
      <trkpt lat="59.327656" lon="18.073563">
        <ele>5</ele>
        <time>2019-12-09T16:56:34Z</time>
      </trkpt>
      <trkpt lat="59.327714" lon="18.073496">
        <ele>5</ele>
        <time>2019-12-09T16:56:35Z</time>
      </trkpt>
      <trkpt lat="59.327771" lon="18.073426">
        <ele>5</ele>
        <time>2019-12-09T16:56:36Z</time>
      </trkpt>
      <trkpt lat="59.327828" lon="18.073359">
        <ele>5</ele>
        <time>2019-12-09T16:56:37Z</time>
      </trkpt>
      <trkpt lat="59.327886" lon="18.073295">
        <ele>5</ele>
        <time>2019-12-09T16:56:38Z</time>
      </trkpt>
      <trkpt lat="59.327946" lon="18.073234">
        <ele>4</ele>
        <time>2019-12-09T16:56:39Z</time>
      </trkpt>
      <trkpt lat="59.328006" lon="18.07318">
        <ele>4</ele>
        <time>2019-12-09T16:56:40Z</time>
      </trkpt>
      <trkpt lat="59.328068" lon="18.073134">
        <ele>4</ele>
        <time>2019-12-09T16:56:41Z</time>
      </trkpt>
      <trkpt lat="59.328132" lon="18.0731">
        <ele>4</ele>
        <time>2019-12-09T16:56:42Z</time>
      </trkpt>
      <trkpt lat="59.328197" lon="18.073074">
        <ele>4</ele>
        <time>2019-12-09T16:56:43Z</time>
      </trkpt>
      <trkpt lat="59.328263" lon="18.073063">
        <ele>4</ele>
        <time>2019-12-09T16:56:44Z</time>
      </trkpt>
      <trkpt lat="59.328328" lon="18.073068">
        <ele>4</ele>
        <time>2019-12-09T16:56:45Z</time>
      </trkpt>
      <trkpt lat="59.328392" lon="18.073081">
        <ele>4</ele>
        <time>2019-12-09T16:56:46Z</time>
      </trkpt>
      <trkpt lat="59.328456" lon="18.073097">
        <ele>4</ele>
        <time>2019-12-09T16:56:47Z</time>
      </trkpt>
      <trkpt lat="59.32852" lon="18.073113">
        <ele>4</ele>
        <time>2019-12-09T16:56:48Z</time>
      </trkpt>
      <trkpt lat="59.328583" lon="18.07313">
        <ele>4</ele>
        <time>2019-12-09T16:56:49Z</time>
      </trkpt>
      <trkpt lat="59.328648" lon="18.073146">
        <ele>4</ele>
        <time>2019-12-09T16:56:50Z</time>
      </trkpt>
      <trkpt lat="59.328713" lon="18.073162">
        <ele>4</ele>
        <time>2019-12-09T16:56:51Z</time>
      </trkpt>
      <trkpt lat="59.328779" lon="18.073179">
        <ele>4</ele>
        <time>2019-12-09T16:56:52Z</time>
      </trkpt>
      <trkpt lat="59.328846" lon="18.073197">
        <ele>4</ele>
        <time>2019-12-09T16:56:53Z</time>
      </trkpt>
      <trkpt lat="59.328914" lon="18.073215">
        <ele>4</ele>
        <time>2019-12-09T16:56:54Z</time>
      </trkpt>
      <trkpt lat="59.328982" lon="18.073231">
        <ele>4</ele>
        <time>2019-12-09T16:56:55Z</time>
      </trkpt>
      <trkpt lat="59.32905" lon="18.073247">
        <ele>4</ele>
        <time>2019-12-09T16:56:56Z</time>
      </trkpt>
      <trkpt lat="59.329118" lon="18.073263">
        <ele>4</ele>
        <time>2019-12-09T16:56:57Z</time>
      </trkpt>
      <trkpt lat="59.329185" lon="18.073278">
        <ele>4</ele>
        <time>2019-12-09T16:56:58Z</time>
      </trkpt>
      <trkpt lat="59.329252" lon="18.073294">
        <ele>3</ele>
        <time>2019-12-09T16:56:59Z</time>
      </trkpt>
      <trkpt lat="59.329318" lon="18.07331">
        <ele>3</ele>
        <time>2019-12-09T16:57:00Z</time>
      </trkpt>
      <trkpt lat="59.329384" lon="18.073325">
        <ele>3</ele>
        <time>2019-12-09T16:57:01Z</time>
      </trkpt>
      <trkpt lat="59.329449" lon="18.073346">
        <ele>3</ele>
        <time>2019-12-09T16:57:02Z</time>
      </trkpt>
      <trkpt lat="59.329508" lon="18.073389">
        <ele>3</ele>
        <time>2019-12-09T16:57:03Z</time>
      </trkpt>
      <trkpt lat="59.329558" lon="18.073462">
        <ele>3</ele>
        <time>2019-12-09T16:57:04Z</time>
      </trkpt>
      <trkpt lat="59.329597" lon="18.073554">
        <ele>3</ele>
        <time>2019-12-09T16:57:05Z</time>
      </trkpt>
      <trkpt lat="59.329627" lon="18.073643">
        <ele>3</ele>
        <time>2019-12-09T16:57:06Z</time>
      </trkpt>
      <trkpt lat="59.32965" lon="18.073725">
        <ele>3</ele>
        <time>2019-12-09T16:57:07Z</time>
      </trkpt>
      <trkpt lat="59.329668" lon="18.073797">
        <ele>3</ele>
        <time>2019-12-09T16:57:08Z</time>
      </trkpt>
      <trkpt lat="59.32968" lon="18.073855">
        <ele>4</ele>
        <time>2019-12-09T16:57:09Z</time>
      </trkpt>
      <trkpt lat="59.32969" lon="18.073914">
        <ele>4</ele>
        <time>2019-12-09T16:57:10Z</time>
      </trkpt>
      <trkpt lat="59.329699" lon="18.073982">
        <ele>4</ele>
        <time>2019-12-09T16:57:11Z</time>
      </trkpt>
      <trkpt lat="59.329708" lon="18.074059">
        <ele>4</ele>
        <time>2019-12-09T16:57:12Z</time>
      </trkpt>
      <trkpt lat="59.329717" lon="18.074144">
        <ele>4</ele>
        <time>2019-12-09T16:57:13Z</time>
      </trkpt>
      <trkpt lat="59.329725" lon="18.074234">
        <ele>4</ele>
        <time>2019-12-09T16:57:14Z</time>
      </trkpt>
      <trkpt lat="59.329733" lon="18.074328">
        <ele>4</ele>
        <time>2019-12-09T16:57:15Z</time>
      </trkpt>
      <trkpt lat="59.329742" lon="18.074426">
        <ele>4</ele>
        <time>2019-12-09T16:57:16Z</time>
      </trkpt>
      <trkpt lat="59.329756" lon="18.074526">
        <ele>4</ele>
        <time>2019-12-09T16:57:17Z</time>
      </trkpt>
      <trkpt lat="59.329779" lon="18.074623">
        <ele>4</ele>
        <time>2019-12-09T16:57:18Z</time>
      </trkpt>
      <trkpt lat="59.32981" lon="18.074711">
        <ele>4</ele>
        <time>2019-12-09T16:57:19Z</time>
      </trkpt>
      <trkpt lat="59.329847" lon="18.074788">
        <ele>4</ele>
        <time>2019-12-09T16:57:20Z</time>
      </trkpt>
      <trkpt lat="59.329883" lon="18.074856">
        <ele>4</ele>
        <time>2019-12-09T16:57:21Z</time>
      </trkpt>
      <trkpt lat="59.329919" lon="18.074921">
        <ele>4</ele>
        <time>2019-12-09T16:57:22Z</time>
      </trkpt>
      <trkpt lat="59.329955" lon="18.074983">
        <ele>5</ele>
        <time>2019-12-09T16:57:23Z</time>
      </trkpt>
      <trkpt lat="59.329985" lon="18.075041">
        <ele>5</ele>
        <time>2019-12-09T16:57:24Z</time>
      </trkpt>
      <trkpt lat="59.330013" lon="18.075095">
        <ele>5</ele>
        <time>2019-12-09T16:57:25Z</time>
      </trkpt>
      <trkpt lat="59.330043" lon="18.075143">
        <ele>5</ele>
        <time>2019-12-09T16:57:26Z</time>
      </trkpt>
      <trkpt lat="59.330074" lon="18.075186">
        <ele>5</ele>
        <time>2019-12-09T16:57:27Z</time>
      </trkpt>
      <trkpt lat="59.330099" lon="18.075227">
        <ele>5</ele>
        <time>2019-12-09T16:57:28Z</time>
      </trkpt>
      <trkpt lat="59.330127" lon="18.07527">
        <ele>5</ele>
        <time>2019-12-09T16:57:29Z</time>
      </trkpt>
      <trkpt lat="59.330151" lon="18.075322">
        <ele>5</ele>
        <time>2019-12-09T16:57:30Z</time>
      </trkpt>
      <trkpt lat="59.330183" lon="18.075376">
        <ele>5</ele>
        <time>2019-12-09T16:57:31Z</time>
      </trkpt>
      <trkpt lat="59.330258" lon="18.075537">
        <ele>5</ele>
        <time>2019-12-09T16:57:34Z</time>
      </trkpt>
      <trkpt lat="59.330281" lon="18.075577">
        <ele>5</ele>
        <time>2019-12-09T16:57:35Z</time>
      </trkpt>
      <trkpt lat="59.330321" lon="18.075612">
        <ele>5</ele>
        <time>2019-12-09T16:57:36Z</time>
      </trkpt>
      <trkpt lat="59.330374" lon="18.075651">
        <ele>5</ele>
        <time>2019-12-09T16:57:37Z</time>
      </trkpt>
      <trkpt lat="59.330425" lon="18.075697">
        <ele>5</ele>
        <time>2019-12-09T16:57:38Z</time>
      </trkpt>
      <trkpt lat="59.33047" lon="18.075759">
        <ele>5</ele>
        <time>2019-12-09T16:57:39Z</time>
      </trkpt>
      <trkpt lat="59.330515" lon="18.075825">
        <ele>6</ele>
        <time>2019-12-09T16:57:40Z</time>
      </trkpt>
      <trkpt lat="59.330569" lon="18.075906">
        <ele>6</ele>
        <time>2019-12-09T16:57:41Z</time>
      </trkpt>
      <trkpt lat="59.330643" lon="18.076004">
        <ele>6</ele>
        <time>2019-12-09T16:57:42Z</time>
      </trkpt>
      <trkpt lat="59.330715" lon="18.076102">
        <ele>6</ele>
        <time>2019-12-09T16:57:43Z</time>
      </trkpt>
      <trkpt lat="59.330812" lon="18.076228">
        <ele>6</ele>
        <time>2019-12-09T16:57:44Z</time>
      </trkpt>
      <trkpt lat="59.330897" lon="18.076332">
        <ele>6</ele>
        <time>2019-12-09T16:57:45Z</time>
      </trkpt>
      <trkpt lat="59.330974" lon="18.07643">
        <ele>6</ele>
        <time>2019-12-09T16:57:46Z</time>
      </trkpt>
      <trkpt lat="59.33104" lon="18.076511">
        <ele>6</ele>
        <time>2019-12-09T16:57:47Z</time>
      </trkpt>
      <trkpt lat="59.33111" lon="18.076576">
        <ele>6</ele>
        <time>2019-12-09T16:57:48Z</time>
      </trkpt>
      <trkpt lat="59.331179" lon="18.076619">
        <ele>7</ele>
        <time>2019-12-09T16:57:49Z</time>
      </trkpt>
      <trkpt lat="59.331264" lon="18.076612">
        <ele>7</ele>
        <time>2019-12-09T16:57:50Z</time>
      </trkpt>
      <trkpt lat="59.331327" lon="18.076561">
        <ele>7</ele>
        <time>2019-12-09T16:57:51Z</time>
      </trkpt>
      <trkpt lat="59.331376" lon="18.076475">
        <ele>7</ele>
        <time>2019-12-09T16:57:52Z</time>
      </trkpt>
      <trkpt lat="59.331419" lon="18.076378">
        <ele>7</ele>
        <time>2019-12-09T16:57:53Z</time>
      </trkpt>
      <trkpt lat="59.331473" lon="18.076291">
        <ele>7</ele>
        <time>2019-12-09T16:57:54Z</time>
      </trkpt>
      <trkpt lat="59.331531" lon="18.076216">
        <ele>7</ele>
        <time>2019-12-09T16:57:55Z</time>
      </trkpt>
      <trkpt lat="59.331595" lon="18.076152">
        <ele>7</ele>
        <time>2019-12-09T16:57:56Z</time>
      </trkpt>
      <trkpt lat="59.331664" lon="18.07611">
        <ele>7</ele>
        <time>2019-12-09T16:57:57Z</time>
      </trkpt>
      <trkpt lat="59.331736" lon="18.07609">
        <ele>7</ele>
        <time>2019-12-09T16:57:58Z</time>
      </trkpt>
      <trkpt lat="59.331808" lon="18.076087">
        <ele>7</ele>
        <time>2019-12-09T16:57:59Z</time>
      </trkpt>
      <trkpt lat="59.33188" lon="18.0761">
        <ele>6</ele>
        <time>2019-12-09T16:58:00Z</time>
      </trkpt>
      <trkpt lat="59.331949" lon="18.07612">
        <ele>6</ele>
        <time>2019-12-09T16:58:01Z</time>
      </trkpt>
      <trkpt lat="59.332016" lon="18.076145">
        <ele>6</ele>
        <time>2019-12-09T16:58:02Z</time>
      </trkpt>
      <trkpt lat="59.332081" lon="18.07618">
        <ele>6</ele>
        <time>2019-12-09T16:58:03Z</time>
      </trkpt>
      <trkpt lat="59.332145" lon="18.076235">
        <ele>6</ele>
        <time>2019-12-09T16:58:04Z</time>
      </trkpt>
      <trkpt lat="59.332201" lon="18.076301">
        <ele>6</ele>
        <time>2019-12-09T16:58:05Z</time>
      </trkpt>
      <trkpt lat="59.33225" lon="18.076376">
        <ele>5</ele>
        <time>2019-12-09T16:58:06Z</time>
      </trkpt>
      <trkpt lat="59.332292" lon="18.076458">
        <ele>6</ele>
        <time>2019-12-09T16:58:07Z</time>
      </trkpt>
      <trkpt lat="59.332329" lon="18.07654">
        <ele>6</ele>
        <time>2019-12-09T16:58:08Z</time>
      </trkpt>
      <trkpt lat="59.332356" lon="18.076612">
        <ele>6</ele>
        <time>2019-12-09T16:58:09Z</time>
      </trkpt>
      <trkpt lat="59.332376" lon="18.076673">
        <ele>6</ele>
        <time>2019-12-09T16:58:10Z</time>
      </trkpt>
      <trkpt lat="59.332391" lon="18.076729">
        <ele>6</ele>
        <time>2019-12-09T16:58:11Z</time>
      </trkpt>
      <trkpt lat="59.332401" lon="18.076771">
        <ele>6</ele>
        <time>2019-12-09T16:58:12Z</time>
      </trkpt>
      <trkpt lat="59.332406" lon="18.076787">
        <ele>0</ele>
        <time>2019-12-09T16:58:17Z</time>
      </trkpt>
      <trkpt lat="59.332449" lon="18.076922">
        <ele>8</ele>
        <time>2019-12-09T16:59:27Z</time>
      </trkpt>
      <trkpt lat="59.332474" lon="18.076998">
        <ele>8</ele>
        <time>2019-12-09T16:59:28Z</time>
      </trkpt>
      <trkpt lat="59.332505" lon="18.07708">
        <ele>8</ele>
        <time>2019-12-09T16:59:29Z</time>
      </trkpt>
      <trkpt lat="59.332544" lon="18.077154">
        <ele>8</ele>
        <time>2019-12-09T16:59:30Z</time>
      </trkpt>
      <trkpt lat="59.332594" lon="18.077213">
        <ele>7</ele>
        <time>2019-12-09T16:59:31Z</time>
      </trkpt>
      <trkpt lat="59.332649" lon="18.077258">
        <ele>7</ele>
        <time>2019-12-09T16:59:32Z</time>
      </trkpt>
      <trkpt lat="59.33271" lon="18.077296">
        <ele>7</ele>
        <time>2019-12-09T16:59:33Z</time>
      </trkpt>
      <trkpt lat="59.332772" lon="18.077332">
        <ele>7</ele>
        <time>2019-12-09T16:59:34Z</time>
      </trkpt>
      <trkpt lat="59.332834" lon="18.077367">
        <ele>7</ele>
        <time>2019-12-09T16:59:35Z</time>
      </trkpt>
      <trkpt lat="59.332894" lon="18.077403">
        <ele>7</ele>
        <time>2019-12-09T16:59:36Z</time>
      </trkpt>
      <trkpt lat="59.33295" lon="18.077442">
        <ele>7</ele>
        <time>2019-12-09T16:59:37Z</time>
      </trkpt>
      <trkpt lat="59.333" lon="18.077474">
        <ele>7</ele>
        <time>2019-12-09T16:59:38Z</time>
      </trkpt>
      <trkpt lat="59.333044" lon="18.077509">
        <ele>7</ele>
        <time>2019-12-09T16:59:39Z</time>
      </trkpt>
      <trkpt lat="59.33312" lon="18.077544">
        <ele>7</ele>
        <time>2019-12-09T16:59:40Z</time>
      </trkpt>
      <trkpt lat="59.333189" lon="18.07759">
        <ele>8</ele>
        <time>2019-12-09T16:59:41Z</time>
      </trkpt>
      <trkpt lat="59.333255" lon="18.077638">
        <ele>8</ele>
        <time>2019-12-09T16:59:42Z</time>
      </trkpt>
      <trkpt lat="59.333318" lon="18.07768">
        <ele>8</ele>
        <time>2019-12-09T16:59:43Z</time>
      </trkpt>
      <trkpt lat="59.333418" lon="18.077746">
        <ele>8</ele>
        <time>2019-12-09T16:59:45Z</time>
      </trkpt>
      <trkpt lat="59.333511" lon="18.077882">
        <ele>9</ele>
        <time>2019-12-09T16:59:49Z</time>
      </trkpt>
      <trkpt lat="59.333601" lon="18.077931">
        <ele>10</ele>
        <time>2019-12-09T16:59:51Z</time>
      </trkpt>
      <trkpt lat="59.333701" lon="18.077971">
        <ele>10</ele>
        <time>2019-12-09T16:59:53Z</time>
      </trkpt>
      <trkpt lat="59.333801" lon="18.078022">
        <ele>11</ele>
        <time>2019-12-09T16:59:55Z</time>
      </trkpt>
      <trkpt lat="59.33391" lon="18.078061">
        <ele>12</ele>
        <time>2019-12-09T16:59:58Z</time>
      </trkpt>
      <trkpt lat="59.33395" lon="18.078076">
        <ele>12</ele>
        <time>2019-12-09T17:00:00Z</time>
      </trkpt>
      <trkpt lat="59.333979" lon="18.078085">
        <ele>13</ele>
        <time>2019-12-09T17:00:02Z</time>
      </trkpt>
      <trkpt lat="59.334004" lon="18.078093">
        <ele>14</ele>
        <time>2019-12-09T17:00:03Z</time>
      </trkpt>
      <trkpt lat="59.334045" lon="18.078132">
        <ele>14</ele>
        <time>2019-12-09T17:00:05Z</time>
      </trkpt>
      <trkpt lat="59.334071" lon="18.078174">
        <ele>14</ele>
        <time>2019-12-09T17:00:06Z</time>
      </trkpt>
      <trkpt lat="59.334094" lon="18.078224">
        <ele>15</ele>
        <time>2019-12-09T17:00:07Z</time>
      </trkpt>
      <trkpt lat="59.334128" lon="18.078259">
        <ele>15</ele>
        <time>2019-12-09T17:00:08Z</time>
      </trkpt>
      <trkpt lat="59.334167" lon="18.078291">
        <ele>15</ele>
        <time>2019-12-09T17:00:09Z</time>
      </trkpt>
      <trkpt lat="59.334208" lon="18.078329">
        <ele>15</ele>
        <time>2019-12-09T17:00:10Z</time>
      </trkpt>
      <trkpt lat="59.334243" lon="18.078369">
        <ele>15</ele>
        <time>2019-12-09T17:00:11Z</time>
      </trkpt>
      <trkpt lat="59.33428" lon="18.078414">
        <ele>15</ele>
        <time>2019-12-09T17:00:12Z</time>
      </trkpt>
      <trkpt lat="59.334311" lon="18.078459">
        <ele>15</ele>
        <time>2019-12-09T17:00:13Z</time>
      </trkpt>
      <trkpt lat="59.334343" lon="18.078506">
        <ele>15</ele>
        <time>2019-12-09T17:00:14Z</time>
      </trkpt>
      <trkpt lat="59.334377" lon="18.078548">
        <ele>15</ele>
        <time>2019-12-09T17:00:15Z</time>
      </trkpt>
      <trkpt lat="59.334427" lon="18.078594">
        <ele>15</ele>
        <time>2019-12-09T17:00:16Z</time>
      </trkpt>
      <trkpt lat="59.334477" lon="18.07864">
        <ele>15</ele>
        <time>2019-12-09T17:00:17Z</time>
      </trkpt>
      <trkpt lat="59.334535" lon="18.078686">
        <ele>15</ele>
        <time>2019-12-09T17:00:18Z</time>
      </trkpt>
      <trkpt lat="59.334594" lon="18.078725">
        <ele>15</ele>
        <time>2019-12-09T17:00:19Z</time>
      </trkpt>
      <trkpt lat="59.33466" lon="18.078765">
        <ele>15</ele>
        <time>2019-12-09T17:00:20Z</time>
      </trkpt>
      <trkpt lat="59.334806" lon="18.078878">
        <ele>17</ele>
        <time>2019-12-09T17:00:22Z</time>
      </trkpt>
      <trkpt lat="59.334881" lon="18.078946">
        <ele>0</ele>
        <time>2019-12-09T17:00:22Z</time>
      </trkpt>
      <trkpt lat="59.334953" lon="18.079007">
        <ele>18</ele>
        <time>2019-12-09T17:00:23Z</time>
      </trkpt>
      <trkpt lat="59.335019" lon="18.079062">
        <ele>19</ele>
        <time>2019-12-09T17:00:25Z</time>
      </trkpt>
      <trkpt lat="59.335078" lon="18.079103">
        <ele>19</ele>
        <time>2019-12-09T17:00:26Z</time>
      </trkpt>
      <trkpt lat="59.335129" lon="18.07914">
        <ele>19</ele>
        <time>2019-12-09T17:00:27Z</time>
      </trkpt>
      <trkpt lat="59.335177" lon="18.079186">
        <ele>19</ele>
        <time>2019-12-09T17:00:28Z</time>
      </trkpt>
      <trkpt lat="59.335219" lon="18.07923">
        <ele>19</ele>
        <time>2019-12-09T17:00:29Z</time>
      </trkpt>
      <trkpt lat="59.335265" lon="18.079264">
        <ele>20</ele>
        <time>2019-12-09T17:00:30Z</time>
      </trkpt>
      <trkpt lat="59.335317" lon="18.079309">
        <ele>20</ele>
        <time>2019-12-09T17:00:31Z</time>
      </trkpt>
      <trkpt lat="59.335405" lon="18.079385">
        <ele>20</ele>
        <time>2019-12-09T17:00:33Z</time>
      </trkpt>
      <trkpt lat="59.33546" lon="18.079426">
        <ele>20</ele>
        <time>2019-12-09T17:00:34Z</time>
      </trkpt>
      <trkpt lat="59.335489" lon="18.079468">
        <ele>20</ele>
        <time>2019-12-09T17:00:35Z</time>
      </trkpt>
      <trkpt lat="59.335527" lon="18.079504">
        <ele>21</ele>
        <time>2019-12-09T17:00:36Z</time>
      </trkpt>
      <trkpt lat="59.335563" lon="18.079534">
        <ele>20</ele>
        <time>2019-12-09T17:00:37Z</time>
      </trkpt>
      <trkpt lat="59.335612" lon="18.079568">
        <ele>21</ele>
        <time>2019-12-09T17:00:38Z</time>
      </trkpt>
      <trkpt lat="59.335649" lon="18.079609">
        <ele>21</ele>
        <time>2019-12-09T17:00:39Z</time>
      </trkpt>
      <trkpt lat="59.335691" lon="18.079643">
        <ele>21</ele>
        <time>2019-12-09T17:00:40Z</time>
      </trkpt>
      <trkpt lat="59.335732" lon="18.079678">
        <ele>22</ele>
        <time>2019-12-09T17:00:41Z</time>
      </trkpt>
      <trkpt lat="59.335775" lon="18.079706">
        <ele>22</ele>
        <time>2019-12-09T17:00:42Z</time>
      </trkpt>
      <trkpt lat="59.335816" lon="18.079733">
        <ele>22</ele>
        <time>2019-12-09T17:00:43Z</time>
      </trkpt>
      <trkpt lat="59.335853" lon="18.079758">
        <ele>22</ele>
        <time>2019-12-09T17:00:44Z</time>
      </trkpt>
      <trkpt lat="59.33589" lon="18.079781">
        <ele>22</ele>
        <time>2019-12-09T17:00:45Z</time>
      </trkpt>
      <trkpt lat="59.335926" lon="18.079799">
        <ele>22</ele>
        <time>2019-12-09T17:00:46Z</time>
      </trkpt>
      <trkpt lat="59.335967" lon="18.079818">
        <ele>22</ele>
        <time>2019-12-09T17:00:47Z</time>
      </trkpt>
      <trkpt lat="59.335998" lon="18.079842">
        <ele>22</ele>
        <time>2019-12-09T17:00:48Z</time>
      </trkpt>
      <trkpt lat="59.336024" lon="18.079862">
        <ele>23</ele>
        <time>2019-12-09T17:00:49Z</time>
      </trkpt>
      <trkpt lat="59.336051" lon="18.07988">
        <ele>23</ele>
        <time>2019-12-09T17:00:50Z</time>
      </trkpt>
      <trkpt lat="59.336076" lon="18.079896">
        <ele>23</ele>
        <time>2019-12-09T17:00:51Z</time>
      </trkpt>
      <trkpt lat="59.336112" lon="18.079916">
        <ele>23</ele>
        <time>2019-12-09T17:00:52Z</time>
      </trkpt>
      <trkpt lat="59.33616" lon="18.079936">
        <ele>23</ele>
        <time>2019-12-09T17:00:53Z</time>
      </trkpt>
      <trkpt lat="59.336213" lon="18.079956">
        <ele>24</ele>
        <time>2019-12-09T17:00:54Z</time>
      </trkpt>
      <trkpt lat="59.33627" lon="18.079984">
        <ele>24</ele>
        <time>2019-12-09T17:00:55Z</time>
      </trkpt>
      <trkpt lat="59.336326" lon="18.080012">
        <ele>24</ele>
        <time>2019-12-09T17:00:56Z</time>
      </trkpt>
      <trkpt lat="59.33638" lon="18.080035">
        <ele>24</ele>
        <time>2019-12-09T17:00:57Z</time>
      </trkpt>
      <trkpt lat="59.336434" lon="18.080071">
        <ele>25</ele>
        <time>2019-12-09T17:00:58Z</time>
      </trkpt>
      <trkpt lat="59.336489" lon="18.080098">
        <ele>25</ele>
        <time>2019-12-09T17:00:59Z</time>
      </trkpt>
      <trkpt lat="59.336601" lon="18.080166">
        <ele>25</ele>
        <time>2019-12-09T17:01:01Z</time>
      </trkpt>
      <trkpt lat="59.336663" lon="18.080207">
        <ele>24</ele>
        <time>2019-12-09T17:01:02Z</time>
      </trkpt>
      <trkpt lat="59.33674" lon="18.080253">
        <ele>24</ele>
        <time>2019-12-09T17:01:03Z</time>
      </trkpt>
      <trkpt lat="59.336786" lon="18.080283">
        <ele>24</ele>
        <time>2019-12-09T17:01:04Z</time>
      </trkpt>
      <trkpt lat="59.336822" lon="18.08031">
        <ele>24</ele>
        <time>2019-12-09T17:01:05Z</time>
      </trkpt>
      <trkpt lat="59.336852" lon="18.080326">
        <ele>24</ele>
        <time>2019-12-09T17:01:06Z</time>
      </trkpt>
      <trkpt lat="59.336877" lon="18.080342">
        <ele>24</ele>
        <time>2019-12-09T17:01:07Z</time>
      </trkpt>
      <trkpt lat="59.336902" lon="18.080355">
        <ele>24</ele>
        <time>2019-12-09T17:01:08Z</time>
      </trkpt>
      <trkpt lat="59.336924" lon="18.080373">
        <ele>24</ele>
        <time>2019-12-09T17:01:09Z</time>
      </trkpt>
      <trkpt lat="59.336946" lon="18.08039">
        <ele>24</ele>
        <time>2019-12-09T17:01:10Z</time>
      </trkpt>
      <trkpt lat="59.33697" lon="18.080404">
        <ele>24</ele>
        <time>2019-12-09T17:01:11Z</time>
      </trkpt>
      <trkpt lat="59.336991" lon="18.080419">
        <ele>25</ele>
        <time>2019-12-09T17:01:12Z</time>
      </trkpt>
      <trkpt lat="59.337046" lon="18.080425">
        <ele>26</ele>
        <time>2019-12-09T17:01:19Z</time>
      </trkpt>
      <trkpt lat="59.337059" lon="18.08045">
        <ele>0</ele>
        <time>2019-12-09T17:01:24Z</time>
      </trkpt>
      <trkpt lat="59.337188" lon="18.080754">
        <ele>30</ele>
        <time>2019-12-09T17:01:30Z</time>
      </trkpt>
      <trkpt lat="59.337236" lon="18.080814">
        <ele>30</ele>
        <time>2019-12-09T17:01:32Z</time>
      </trkpt>
      <trkpt lat="59.33728" lon="18.080848">
        <ele>30</ele>
        <time>2019-12-09T17:01:33Z</time>
      </trkpt>
      <trkpt lat="59.337378" lon="18.08091">
        <ele>31</ele>
        <time>2019-12-09T17:01:35Z</time>
      </trkpt>
      <trkpt lat="59.337478" lon="18.080958">
        <ele>31</ele>
        <time>2019-12-09T17:01:37Z</time>
      </trkpt>
      <trkpt lat="59.337528" lon="18.080985">
        <ele>31</ele>
        <time>2019-12-09T17:01:38Z</time>
      </trkpt>
      <trkpt lat="59.337583" lon="18.081026">
        <ele>32</ele>
        <time>2019-12-09T17:01:39Z</time>
      </trkpt>
      <trkpt lat="59.33765" lon="18.081077">
        <ele>32</ele>
        <time>2019-12-09T17:01:40Z</time>
      </trkpt>
      <trkpt lat="59.337718" lon="18.081128">
        <ele>32</ele>
        <time>2019-12-09T17:01:41Z</time>
      </trkpt>
      <trkpt lat="59.33779" lon="18.081187">
        <ele>32</ele>
        <time>2019-12-09T17:01:42Z</time>
      </trkpt>
      <trkpt lat="59.337862" lon="18.081249">
        <ele>32</ele>
        <time>2019-12-09T17:01:43Z</time>
      </trkpt>
      <trkpt lat="59.337934" lon="18.081308">
        <ele>32</ele>
        <time>2019-12-09T17:01:44Z</time>
      </trkpt>
      <trkpt lat="59.33807" lon="18.08142">
        <ele>33</ele>
        <time>2019-12-09T17:01:46Z</time>
      </trkpt>
      <trkpt lat="59.338187" lon="18.081571">
        <ele>33</ele>
        <time>2019-12-09T17:01:48Z</time>
      </trkpt>
      <trkpt lat="59.338216" lon="18.081614">
        <ele>33</ele>
        <time>2019-12-09T17:01:49Z</time>
      </trkpt>
      <trkpt lat="59.338233" lon="18.081646">
        <ele>34</ele>
        <time>2019-12-09T17:01:50Z</time>
      </trkpt>
      <trkpt lat="59.33825" lon="18.081665">
        <ele>34</ele>
        <time>2019-12-09T17:01:51Z</time>
      </trkpt>
      <trkpt lat="59.338263" lon="18.08171">
        <ele>34</ele>
        <time>2019-12-09T17:01:53Z</time>
      </trkpt>
      <trkpt lat="59.338286" lon="18.081759">
        <ele>34</ele>
        <time>2019-12-09T17:01:55Z</time>
      </trkpt>
      <trkpt lat="59.338324" lon="18.081785">
        <ele>34</ele>
        <time>2019-12-09T17:01:56Z</time>
      </trkpt>
      <trkpt lat="59.33837" lon="18.08181">
        <ele>35</ele>
        <time>2019-12-09T17:01:57Z</time>
      </trkpt>
      <trkpt lat="59.338464" lon="18.081862">
        <ele>35</ele>
        <time>2019-12-09T17:01:59Z</time>
      </trkpt>
      <trkpt lat="59.338579" lon="18.081924">
        <ele>36</ele>
        <time>2019-12-09T17:02:01Z</time>
      </trkpt>
      <trkpt lat="59.338687" lon="18.082005">
        <ele>36</ele>
        <time>2019-12-09T17:02:03Z</time>
      </trkpt>
      <trkpt lat="59.338798" lon="18.082078">
        <ele>37</ele>
        <time>2019-12-09T17:02:05Z</time>
      </trkpt>
      <trkpt lat="59.33891" lon="18.082152">
        <ele>37</ele>
        <time>2019-12-09T17:02:07Z</time>
      </trkpt>
      <trkpt lat="59.339035" lon="18.08226">
        <ele>37</ele>
        <time>2019-12-09T17:02:09Z</time>
      </trkpt>
      <trkpt lat="59.339162" lon="18.082408">
        <ele>37</ele>
        <time>2019-12-09T17:02:11Z</time>
      </trkpt>
      <trkpt lat="59.339264" lon="18.082531">
        <ele>35</ele>
        <time>2019-12-09T17:02:13Z</time>
      </trkpt>
      <trkpt lat="59.339293" lon="18.082564">
        <ele>35</ele>
        <time>2019-12-09T17:02:14Z</time>
      </trkpt>
      <trkpt lat="59.339312" lon="18.082585">
        <ele>34</ele>
        <time>2019-12-09T17:02:15Z</time>
      </trkpt>
      <trkpt lat="59.339326" lon="18.082608">
        <ele>33</ele>
        <time>2019-12-09T17:02:16Z</time>
      </trkpt>
      <trkpt lat="59.339348" lon="18.082625">
        <ele>33</ele>
        <time>2019-12-09T17:02:17Z</time>
      </trkpt>
      <trkpt lat="59.33937" lon="18.082638">
        <ele>33</ele>
        <time>2019-12-09T17:02:18Z</time>
      </trkpt>
      <trkpt lat="59.339397" lon="18.08266">
        <ele>33</ele>
        <time>2019-12-09T17:02:19Z</time>
      </trkpt>
      <trkpt lat="59.339428" lon="18.082684">
        <ele>33</ele>
        <time>2019-12-09T17:02:20Z</time>
      </trkpt>
      <trkpt lat="59.339464" lon="18.08272">
        <ele>33</ele>
        <time>2019-12-09T17:02:21Z</time>
      </trkpt>
      <trkpt lat="59.339509" lon="18.082756">
        <ele>34</ele>
        <time>2019-12-09T17:02:22Z</time>
      </trkpt>
      <trkpt lat="59.339601" lon="18.082832">
        <ele>34</ele>
        <time>2019-12-09T17:02:24Z</time>
      </trkpt>
      <trkpt lat="59.339698" lon="18.082908">
        <ele>34</ele>
        <time>2019-12-09T17:02:26Z</time>
      </trkpt>
      <trkpt lat="59.339786" lon="18.08296">
        <ele>34</ele>
        <time>2019-12-09T17:02:27Z</time>
      </trkpt>
      <trkpt lat="59.339914" lon="18.083047">
        <ele>34</ele>
        <time>2019-12-09T17:02:29Z</time>
      </trkpt>
      <trkpt lat="59.340035" lon="18.083118">
        <ele>34</ele>
        <time>2019-12-09T17:02:31Z</time>
      </trkpt>
      <trkpt lat="59.340182" lon="18.083205">
        <ele>34</ele>
        <time>2019-12-09T17:02:33Z</time>
      </trkpt>
      <trkpt lat="59.340241" lon="18.083245">
        <ele>34</ele>
        <time>2019-12-09T17:02:34Z</time>
      </trkpt>
      <trkpt lat="59.340298" lon="18.083285">
        <ele>34</ele>
        <time>2019-12-09T17:02:35Z</time>
      </trkpt>
      <trkpt lat="59.340354" lon="18.083329">
        <ele>34</ele>
        <time>2019-12-09T17:02:36Z</time>
      </trkpt>
      <trkpt lat="59.340408" lon="18.08337">
        <ele>34</ele>
        <time>2019-12-09T17:02:37Z</time>
      </trkpt>
      <trkpt lat="59.340461" lon="18.083409">
        <ele>34</ele>
        <time>2019-12-09T17:02:38Z</time>
      </trkpt>
      <trkpt lat="59.340519" lon="18.083465">
        <ele>35</ele>
        <time>2019-12-09T17:02:39Z</time>
      </trkpt>
      <trkpt lat="59.340581" lon="18.083554">
        <ele>35</ele>
        <time>2019-12-09T17:02:40Z</time>
      </trkpt>
      <trkpt lat="59.340607" lon="18.083658">
        <ele>35</ele>
        <time>2019-12-09T17:02:41Z</time>
      </trkpt>
      <trkpt lat="59.340616" lon="18.083766">
        <ele>35</ele>
        <time>2019-12-09T17:02:42Z</time>
      </trkpt>
      <trkpt lat="59.340614" lon="18.083869">
        <ele>35</ele>
        <time>2019-12-09T17:02:43Z</time>
      </trkpt>
      <trkpt lat="59.340607" lon="18.084061">
        <ele>35</ele>
        <time>2019-12-09T17:02:45Z</time>
      </trkpt>
      <trkpt lat="59.340606" lon="18.084269">
        <ele>34</ele>
        <time>2019-12-09T17:02:47Z</time>
      </trkpt>
      <trkpt lat="59.340607" lon="18.084497">
        <ele>34</ele>
        <time>2019-12-09T17:02:49Z</time>
      </trkpt>
      <trkpt lat="59.340603" lon="18.084734">
        <ele>35</ele>
        <time>2019-12-09T17:02:51Z</time>
      </trkpt>
      <trkpt lat="59.340598" lon="18.084838">
        <ele>35</ele>
        <time>2019-12-09T17:02:52Z</time>
      </trkpt>
      <trkpt lat="59.340603" lon="18.084991">
        <ele>34</ele>
        <time>2019-12-09T17:02:54Z</time>
      </trkpt>
      <trkpt lat="59.340592" lon="18.085051">
        <ele>34</ele>
        <time>2019-12-09T17:02:55Z</time>
      </trkpt>
      <trkpt lat="59.340584" lon="18.0851">
        <ele>33</ele>
        <time>2019-12-09T17:02:56Z</time>
      </trkpt>
      <trkpt lat="59.340554" lon="18.085128">
        <ele>31</ele>
        <time>2019-12-09T17:02:58Z</time>
      </trkpt>
      <trkpt lat="59.340536" lon="18.085128">
        <ele>0</ele>
        <time>2019-12-09T17:02:59Z</time>
      </trkpt>
    </trkseg>
  </trk>
</gpx>